<?xml version="1.0" encoding="UTF-8" standalone="no" ?>
<gpx xmlns="http://www.topografix.com/GPX/1/1" xmlns:xsi="http://www.w3.org/2001/XMLSchema-instance" xsi:schemaLocation="http://www.topografix.com/GPX/1/1 http://www.topografix.com/GPX/1/1/gpx.xsd" version="1.1" creator="VisuGPX - https://www.visugpx.com">
  <metadata>
    <name>89 km dans la montagne de Reims</name>
    <desc><![CDATA[Dupliqué de [url]https://www.visugpx.com/0f7foJJPQq[/url]]]></desc>
  </metadata>
  <trk>
    <name><![CDATA[Vélo avec Manue 🚴‍♀️🚴‍♂️]]></name>
    <extensions>
      <line xmlns="http://www.topografix.com/GPX/gpx_style/0/2">
        <color>0000FF</color>
        <opacity>1</opacity>
        <width>4</width>
      </line>
    </extensions>
    <trkseg>
      <trkpt lat="49.2563" lon="4.0339">
        <ele>86</ele>
        <time>2020-08-25T06:50:42.000Z</time>
      </trkpt>
      <trkpt lat="49.25519" lon="4.03057">
        <ele>83.7</ele>
      </trkpt>
      <trkpt lat="49.25421" lon="4.02791">
        <ele>80.9</ele>
      </trkpt>
      <trkpt lat="49.25343" lon="4.02618">
        <ele>79</ele>
      </trkpt>
      <trkpt lat="49.25281" lon="4.0268">
        <ele>79</ele>
      </trkpt>
      <trkpt lat="49.25178" lon="4.0241">
        <ele>78.1</ele>
      </trkpt>
      <trkpt lat="49.25098" lon="4.02183">
        <ele>77.8</ele>
      </trkpt>
      <trkpt lat="49.25008" lon="4.01962">
        <ele>78</ele>
      </trkpt>
      <trkpt lat="49.24929" lon="4.01718">
        <ele>78.4</ele>
      </trkpt>
      <trkpt lat="49.24873" lon="4.01339">
        <ele>81.2</ele>
      </trkpt>
      <trkpt lat="49.24848" lon="4.01262">
        <ele>80.5</ele>
      </trkpt>
      <trkpt lat="49.24774" lon="4.01255">
        <ele>82.5</ele>
      </trkpt>
      <trkpt lat="49.24749" lon="4.01238">
        <ele>83</ele>
      </trkpt>
      <trkpt lat="49.24667" lon="4.01024">
        <ele>89</ele>
      </trkpt>
      <trkpt lat="49.24596" lon="4.00805">
        <ele>93</ele>
      </trkpt>
      <trkpt lat="49.24517" lon="4.00583">
        <ele>92</ele>
        <time>2020-08-25T06:50:46.396Z</time>
      </trkpt>
      <trkpt lat="49.2449" lon="4.00482">
        <ele>86.8</ele>
        <time>2020-08-25T06:51:52.208Z</time>
      </trkpt>
      <trkpt lat="49.24486" lon="4.00481">
        <ele>86.8</ele>
        <time>2020-08-25T06:51:52.974Z</time>
      </trkpt>
      <trkpt lat="49.24483" lon="4.00475">
        <ele>86.8</ele>
        <time>2020-08-25T06:51:53.837Z</time>
      </trkpt>
      <trkpt lat="49.24477" lon="4.00461">
        <ele>87</ele>
        <time>2020-08-25T06:51:56.167Z</time>
      </trkpt>
      <trkpt lat="49.24465" lon="4.0043">
        <ele>86.8</ele>
        <time>2020-08-25T06:51:59.596Z</time>
      </trkpt>
      <trkpt lat="49.24457" lon="4.00404">
        <ele>86.4</ele>
        <time>2020-08-25T06:52:01.894Z</time>
      </trkpt>
      <trkpt lat="49.24449" lon="4.00379">
        <ele>85.8</ele>
        <time>2020-08-25T06:52:03.921Z</time>
      </trkpt>
      <trkpt lat="49.2443" lon="4.00326">
        <ele>84.2</ele>
        <time>2020-08-25T06:52:07.872Z</time>
      </trkpt>
      <trkpt lat="49.24421" lon="4.00297">
        <ele>83.2</ele>
        <time>2020-08-25T06:52:09.864Z</time>
      </trkpt>
      <trkpt lat="49.24414" lon="4.00277">
        <ele>82.8</ele>
        <time>2020-08-25T06:52:11.596Z</time>
      </trkpt>
      <trkpt lat="49.24407" lon="4.00257">
        <ele>82.6</ele>
        <time>2020-08-25T06:52:13.683Z</time>
      </trkpt>
      <trkpt lat="49.24403" lon="4.00246">
        <ele>82.4</ele>
        <time>2020-08-25T06:52:14.610Z</time>
      </trkpt>
      <trkpt lat="49.24392" lon="4.00213">
        <ele>81.8</ele>
        <time>2020-08-25T06:52:17.487Z</time>
      </trkpt>
      <trkpt lat="49.24381" lon="4.0018">
        <ele>81.2</ele>
        <time>2020-08-25T06:52:20.404Z</time>
      </trkpt>
      <trkpt lat="49.2437" lon="4.00146">
        <ele>80</ele>
        <time>2020-08-25T06:52:22.782Z</time>
      </trkpt>
      <trkpt lat="49.24362" lon="4.00122">
        <ele>78.8</ele>
        <time>2020-08-25T06:52:24.306Z</time>
      </trkpt>
      <trkpt lat="49.24354" lon="4.001">
        <ele>78.2</ele>
        <time>2020-08-25T06:52:26.078Z</time>
      </trkpt>
      <trkpt lat="49.2435" lon="4.00089">
        <ele>77.8</ele>
        <time>2020-08-25T06:52:26.850Z</time>
      </trkpt>
      <trkpt lat="49.24341" lon="4.00068">
        <ele>77.6</ele>
        <time>2020-08-25T06:52:29.113Z</time>
      </trkpt>
      <trkpt lat="49.24323" lon="4.00027">
        <ele>76.4</ele>
        <time>2020-08-25T06:52:32.468Z</time>
      </trkpt>
      <trkpt lat="49.24303" lon="3.99989">
        <ele>76</ele>
        <time>2020-08-25T06:52:36.858Z</time>
      </trkpt>
      <trkpt lat="49.24271" lon="3.99939">
        <ele>75</ele>
        <time>2020-08-25T06:52:42.526Z</time>
      </trkpt>
      <trkpt lat="49.24232" lon="3.99887">
        <ele>74</ele>
        <time>2020-08-25T06:52:49.050Z</time>
      </trkpt>
      <trkpt lat="49.24184" lon="3.99842">
        <ele>73.8</ele>
        <time>2020-08-25T06:52:58.590Z</time>
      </trkpt>
      <trkpt lat="49.24144" lon="3.99809">
        <ele>74.4</ele>
        <time>2020-08-25T06:53:07.876Z</time>
      </trkpt>
      <trkpt lat="49.24138" lon="3.99804">
        <ele>74.4</ele>
        <time>2020-08-25T06:53:08.977Z</time>
      </trkpt>
      <trkpt lat="49.24093" lon="3.99762">
        <ele>75.6</ele>
        <time>2020-08-25T06:53:20.990Z</time>
      </trkpt>
      <trkpt lat="49.24074" lon="3.99745">
        <ele>76.4</ele>
        <time>2020-08-25T06:53:26.842Z</time>
      </trkpt>
      <trkpt lat="49.24056" lon="3.99729">
        <ele>76.4</ele>
        <time>2020-08-25T06:53:30.556Z</time>
      </trkpt>
      <trkpt lat="49.24043" lon="3.99717">
        <ele>76.6</ele>
        <time>2020-08-25T06:53:33.658Z</time>
      </trkpt>
      <trkpt lat="49.2402" lon="3.99699">
        <ele>77.8</ele>
        <time>2020-08-25T06:53:41.618Z</time>
      </trkpt>
      <trkpt lat="49.24" lon="3.99685">
        <ele>78.4</ele>
        <time>2020-08-25T06:53:46.836Z</time>
      </trkpt>
      <trkpt lat="49.23964" lon="3.99663">
        <ele>79.2</ele>
        <time>2020-08-25T06:53:55.387Z</time>
      </trkpt>
      <trkpt lat="49.2395" lon="3.99651">
        <ele>79.4</ele>
        <time>2020-08-25T06:53:58.636Z</time>
      </trkpt>
      <trkpt lat="49.23942" lon="3.9964">
        <ele>79.6</ele>
        <time>2020-08-25T06:54:00.890Z</time>
      </trkpt>
      <trkpt lat="49.23939" lon="3.99634">
        <ele>79.4</ele>
        <time>2020-08-25T06:54:01.476Z</time>
      </trkpt>
      <trkpt lat="49.23935" lon="3.99627">
        <ele>79.6</ele>
        <time>2020-08-25T06:54:02.971Z</time>
      </trkpt>
      <trkpt lat="49.23931" lon="3.99621">
        <ele>79.4</ele>
        <time>2020-08-25T06:54:03.573Z</time>
      </trkpt>
      <trkpt lat="49.23921" lon="3.99616">
        <ele>79.8</ele>
        <time>2020-08-25T06:54:06.432Z</time>
      </trkpt>
      <trkpt lat="49.23911" lon="3.99621">
        <ele>79.6</ele>
        <time>2020-08-25T06:54:07.756Z</time>
      </trkpt>
      <trkpt lat="49.23907" lon="3.99625">
        <ele>79.6</ele>
        <time>2020-08-25T06:54:08.726Z</time>
      </trkpt>
      <trkpt lat="49.23902" lon="3.9963">
        <ele>79.8</ele>
        <time>2020-08-25T06:54:10.204Z</time>
      </trkpt>
      <trkpt lat="49.23892" lon="3.99636">
        <ele>79.8</ele>
        <time>2020-08-25T06:54:12.207Z</time>
      </trkpt>
      <trkpt lat="49.23886" lon="3.99638">
        <ele>79.8</ele>
        <time>2020-08-25T06:54:13.220Z</time>
      </trkpt>
      <trkpt lat="49.23876" lon="3.99641">
        <ele>79.8</ele>
        <time>2020-08-25T06:54:15.173Z</time>
      </trkpt>
      <trkpt lat="49.2386" lon="3.99641">
        <ele>79.8</ele>
        <time>2020-08-25T06:54:18.034Z</time>
      </trkpt>
      <trkpt lat="49.23854" lon="3.99641">
        <ele>80</ele>
        <time>2020-08-25T06:54:19.469Z</time>
      </trkpt>
      <trkpt lat="49.23809" lon="3.99644">
        <ele>81</ele>
        <time>2020-08-25T06:54:29.625Z</time>
      </trkpt>
      <trkpt lat="49.23762" lon="3.99654">
        <ele>82.2</ele>
        <time>2020-08-25T06:54:40.701Z</time>
      </trkpt>
      <trkpt lat="49.23756" lon="3.99656">
        <ele>82</ele>
        <time>2020-08-25T06:54:41.356Z</time>
      </trkpt>
      <trkpt lat="49.23704" lon="3.99681">
        <ele>82.2</ele>
        <time>2020-08-25T06:54:51.445Z</time>
      </trkpt>
      <trkpt lat="49.23653" lon="3.99716">
        <ele>82.2</ele>
        <time>2020-08-25T06:55:01.469Z</time>
      </trkpt>
      <trkpt lat="49.23647" lon="3.99718">
        <ele>82.2</ele>
        <time>2020-08-25T06:55:02.582Z</time>
      </trkpt>
      <trkpt lat="49.23634" lon="3.99722">
        <ele>82</ele>
        <time>2020-08-25T06:55:04.300Z</time>
      </trkpt>
      <trkpt lat="49.23623" lon="3.99731">
        <ele>82.2</ele>
        <time>2020-08-25T06:55:06.957Z</time>
      </trkpt>
      <trkpt lat="49.23608" lon="3.99751">
        <ele>82.2</ele>
        <time>2020-08-25T06:55:10.464Z</time>
      </trkpt>
      <trkpt lat="49.23603" lon="3.99756">
        <ele>82</ele>
        <time>2020-08-25T06:55:11.175Z</time>
      </trkpt>
      <trkpt lat="49.23585" lon="3.9977">
        <ele>82</ele>
        <time>2020-08-25T06:55:14.705Z</time>
      </trkpt>
      <trkpt lat="49.23573" lon="3.9978">
        <ele>82.2</ele>
        <time>2020-08-25T06:55:17.493Z</time>
      </trkpt>
      <trkpt lat="49.23555" lon="3.99794">
        <ele>82</ele>
        <time>2020-08-25T06:55:20.422Z</time>
      </trkpt>
      <trkpt lat="49.23518" lon="3.99823">
        <ele>82</ele>
        <time>2020-08-25T06:55:27.879Z</time>
      </trkpt>
      <trkpt lat="49.23492" lon="3.99842">
        <ele>81.8</ele>
        <time>2020-08-25T06:55:32.454Z</time>
      </trkpt>
      <trkpt lat="49.23441" lon="3.9988">
        <ele>81.2</ele>
        <time>2020-08-25T06:55:40.550Z</time>
      </trkpt>
      <trkpt lat="49.23434" lon="3.99885">
        <ele>81.2</ele>
        <time>2020-08-25T06:55:41.820Z</time>
      </trkpt>
      <trkpt lat="49.23428" lon="3.99889">
        <ele>81.2</ele>
        <time>2020-08-25T06:55:43.118Z</time>
      </trkpt>
      <trkpt lat="49.23406" lon="3.99896">
        <ele>81</ele>
        <time>2020-08-25T06:55:46.359Z</time>
      </trkpt>
      <trkpt lat="49.23392" lon="3.99893">
        <ele>81</ele>
        <time>2020-08-25T06:55:48.803Z</time>
      </trkpt>
      <trkpt lat="49.23386" lon="3.99888">
        <ele>81</ele>
        <time>2020-08-25T06:55:49.960Z</time>
      </trkpt>
      <trkpt lat="49.23381" lon="3.99884">
        <ele>80.8</ele>
        <time>2020-08-25T06:55:50.641Z</time>
      </trkpt>
      <trkpt lat="49.23368" lon="3.99884">
        <ele>80.8</ele>
        <time>2020-08-25T06:55:52.841Z</time>
      </trkpt>
      <trkpt lat="49.23349" lon="3.99885">
        <ele>81</ele>
        <time>2020-08-25T06:55:56.623Z</time>
      </trkpt>
      <trkpt lat="49.23336" lon="3.99881">
        <ele>80.8</ele>
        <time>2020-08-25T06:55:58.482Z</time>
      </trkpt>
      <trkpt lat="49.23288" lon="3.99851">
        <ele>80.2</ele>
        <time>2020-08-25T06:56:05.640Z</time>
      </trkpt>
      <trkpt lat="49.23247" lon="3.99821">
        <ele>79.8</ele>
        <time>2020-08-25T06:56:12.206Z</time>
      </trkpt>
      <trkpt lat="49.23227" lon="3.99806">
        <ele>79.4</ele>
        <time>2020-08-25T06:56:15.143Z</time>
      </trkpt>
      <trkpt lat="49.2322" lon="3.99801">
        <ele>79.4</ele>
        <time>2020-08-25T06:56:16.491Z</time>
      </trkpt>
      <trkpt lat="49.23207" lon="3.99791">
        <ele>78.8</ele>
        <time>2020-08-25T06:56:18.003Z</time>
      </trkpt>
      <trkpt lat="49.23194" lon="3.99781">
        <ele>78.4</ele>
        <time>2020-08-25T06:56:19.708Z</time>
      </trkpt>
      <trkpt lat="49.23162" lon="3.99754">
        <ele>77.8</ele>
        <time>2020-08-25T06:56:24.380Z</time>
      </trkpt>
      <trkpt lat="49.23115" lon="3.99713">
        <ele>75.2</ele>
        <time>2020-08-25T06:56:29.566Z</time>
      </trkpt>
      <trkpt lat="49.23098" lon="3.99697">
        <ele>75</ele>
        <time>2020-08-25T06:56:32.382Z</time>
      </trkpt>
      <trkpt lat="49.23049" lon="3.99652">
        <ele>75.2</ele>
        <time>2020-08-25T06:56:43.007Z</time>
      </trkpt>
      <trkpt lat="49.23038" lon="3.99641">
        <ele>75.2</ele>
        <time>2020-08-25T06:56:45.324Z</time>
      </trkpt>
      <trkpt lat="49.23032" lon="3.99636">
        <ele>75.2</ele>
        <time>2020-08-25T06:56:46.470Z</time>
      </trkpt>
      <trkpt lat="49.23027" lon="3.99631">
        <ele>75.2</ele>
        <time>2020-08-25T06:56:47.626Z</time>
      </trkpt>
      <trkpt lat="49.23005" lon="3.9961">
        <ele>75.2</ele>
        <time>2020-08-25T06:56:52.217Z</time>
      </trkpt>
      <trkpt lat="49.22994" lon="3.99599">
        <ele>75</ele>
        <time>2020-08-25T06:56:53.940Z</time>
      </trkpt>
      <trkpt lat="49.22967" lon="3.99573">
        <ele>75.2</ele>
        <time>2020-08-25T06:57:00.068Z</time>
      </trkpt>
      <trkpt lat="49.22961" lon="3.99568">
        <ele>75</ele>
        <time>2020-08-25T06:57:00.777Z</time>
      </trkpt>
      <trkpt lat="49.22956" lon="3.99563">
        <ele>75.2</ele>
        <time>2020-08-25T06:57:02.376Z</time>
      </trkpt>
      <trkpt lat="49.22945" lon="3.99552">
        <ele>75</ele>
        <time>2020-08-25T06:57:04.056Z</time>
      </trkpt>
      <trkpt lat="49.22916" lon="3.99533">
        <ele>74.8</ele>
        <time>2020-08-25T06:57:09.200Z</time>
      </trkpt>
      <trkpt lat="49.2291" lon="3.99531">
        <ele>74.8</ele>
        <time>2020-08-25T06:57:10.333Z</time>
      </trkpt>
      <trkpt lat="49.22904" lon="3.9953">
        <ele>74.8</ele>
        <time>2020-08-25T06:57:11.455Z</time>
      </trkpt>
      <trkpt lat="49.22891" lon="3.99527">
        <ele>75</ele>
        <time>2020-08-25T06:57:14.069Z</time>
      </trkpt>
      <trkpt lat="49.22886" lon="3.99523">
        <ele>75.2</ele>
        <time>2020-08-25T06:57:15.647Z</time>
      </trkpt>
      <trkpt lat="49.22875" lon="3.99515">
        <ele>75.4</ele>
        <time>2020-08-25T06:57:18.255Z</time>
      </trkpt>
      <trkpt lat="49.22862" lon="3.99513">
        <ele>75.4</ele>
        <time>2020-08-25T06:57:20.461Z</time>
      </trkpt>
      <trkpt lat="49.22852" lon="3.99523">
        <ele>75.6</ele>
        <time>2020-08-25T06:57:23.116Z</time>
      </trkpt>
      <trkpt lat="49.22847" lon="3.99542">
        <ele>77</ele>
        <time>2020-08-25T06:57:29.642Z</time>
      </trkpt>
      <trkpt lat="49.22847" lon="3.99553">
        <ele>77.4</ele>
        <time>2020-08-25T06:57:31.936Z</time>
      </trkpt>
      <trkpt lat="49.22846" lon="3.99575">
        <ele>77.8</ele>
        <time>2020-08-25T06:57:35.381Z</time>
      </trkpt>
      <trkpt lat="49.22841" lon="3.99597">
        <ele>78</ele>
        <time>2020-08-25T06:57:38.413Z</time>
      </trkpt>
      <trkpt lat="49.22828" lon="3.99639">
        <ele>78</ele>
        <time>2020-08-25T06:57:43.912Z</time>
      </trkpt>
      <trkpt lat="49.22815" lon="3.99682">
        <ele>77.6</ele>
        <time>2020-08-25T06:57:48.171Z</time>
      </trkpt>
      <trkpt lat="49.22788" lon="3.99765">
        <ele>76.6</ele>
        <time>2020-08-25T06:57:56.084Z</time>
      </trkpt>
      <trkpt lat="49.22785" lon="3.99775">
        <ele>76.8</ele>
        <time>2020-08-25T06:57:57.822Z</time>
      </trkpt>
      <trkpt lat="49.22772" lon="3.99815">
        <ele>76.8</ele>
        <time>2020-08-25T06:58:03.016Z</time>
      </trkpt>
      <trkpt lat="49.22752" lon="3.99874">
        <ele>77.2</ele>
        <time>2020-08-25T06:58:11.486Z</time>
      </trkpt>
      <trkpt lat="49.22739" lon="3.99913">
        <ele>77.6</ele>
        <time>2020-08-25T06:58:17.338Z</time>
      </trkpt>
      <trkpt lat="49.22713" lon="3.99991">
        <ele>78.2</ele>
        <time>2020-08-25T06:58:28.685Z</time>
      </trkpt>
      <trkpt lat="49.22703" lon="4.0002">
        <ele>78</ele>
        <time>2020-08-25T06:58:31.769Z</time>
      </trkpt>
      <trkpt lat="49.22696" lon="4.00039">
        <ele>78.2</ele>
        <time>2020-08-25T06:58:34.690Z</time>
      </trkpt>
      <trkpt lat="49.2267" lon="4.00118">
        <ele>79</ele>
        <time>2020-08-25T06:58:46.442Z</time>
      </trkpt>
      <trkpt lat="49.22667" lon="4.00127">
        <ele>79.2</ele>
        <time>2020-08-25T06:58:48.161Z</time>
      </trkpt>
      <trkpt lat="49.22641" lon="4.00205">
        <ele>79.4</ele>
        <time>2020-08-25T06:58:58.663Z</time>
      </trkpt>
      <trkpt lat="49.22634" lon="4.00224">
        <ele>79.6</ele>
        <time>2020-08-25T06:59:01.582Z</time>
      </trkpt>
      <trkpt lat="49.22628" lon="4.00244">
        <ele>79.6</ele>
        <time>2020-08-25T06:59:04.127Z</time>
      </trkpt>
      <trkpt lat="49.22602" lon="4.00322">
        <ele>80.2</ele>
        <time>2020-08-25T06:59:15.488Z</time>
      </trkpt>
      <trkpt lat="49.22599" lon="4.00332">
        <ele>80.2</ele>
        <time>2020-08-25T06:59:16.777Z</time>
      </trkpt>
      <trkpt lat="49.22573" lon="4.00409">
        <ele>80.4</ele>
        <time>2020-08-25T06:59:27.182Z</time>
      </trkpt>
      <trkpt lat="49.22567" lon="4.00428">
        <ele>80.6</ele>
        <time>2020-08-25T06:59:30.014Z</time>
      </trkpt>
      <trkpt lat="49.22552" lon="4.00462">
        <ele>81</ele>
        <time>2020-08-25T06:59:35.543Z</time>
      </trkpt>
      <trkpt lat="49.22547" lon="4.00468">
        <ele>80.8</ele>
        <time>2020-08-25T06:59:36.318Z</time>
      </trkpt>
      <trkpt lat="49.22541" lon="4.00472">
        <ele>81</ele>
        <time>2020-08-25T06:59:37.971Z</time>
      </trkpt>
      <trkpt lat="49.22528" lon="4.00474">
        <ele>81.2</ele>
        <time>2020-08-25T06:59:40.676Z</time>
      </trkpt>
      <trkpt lat="49.22521" lon="4.00473">
        <ele>81.2</ele>
        <time>2020-08-25T06:59:41.836Z</time>
      </trkpt>
      <trkpt lat="49.22515" lon="4.00469">
        <ele>81</ele>
        <time>2020-08-25T06:59:42.609Z</time>
      </trkpt>
      <trkpt lat="49.22509" lon="4.00464">
        <ele>81</ele>
        <time>2020-08-25T06:59:43.856Z</time>
      </trkpt>
      <trkpt lat="49.22485" lon="4.00442">
        <ele>81</ele>
        <time>2020-08-25T06:59:48.927Z</time>
      </trkpt>
      <trkpt lat="49.22442" lon="4.00401">
        <ele>80.2</ele>
        <time>2020-08-25T06:59:55.573Z</time>
      </trkpt>
      <trkpt lat="49.22423" lon="4.00383">
        <ele>80.2</ele>
        <time>2020-08-25T06:59:59.494Z</time>
      </trkpt>
      <trkpt lat="49.22411" lon="4.00371">
        <ele>80</ele>
        <time>2020-08-25T07:00:01.513Z</time>
      </trkpt>
      <trkpt lat="49.2238" lon="4.00342">
        <ele>79.6</ele>
        <time>2020-08-25T07:00:06.640Z</time>
      </trkpt>
      <trkpt lat="49.22331" lon="4.00297">
        <ele>79.4</ele>
        <time>2020-08-25T07:00:16.230Z</time>
      </trkpt>
      <trkpt lat="49.22326" lon="4.00291">
        <ele>79.4</ele>
        <time>2020-08-25T07:00:17.449Z</time>
      </trkpt>
      <trkpt lat="49.22314" lon="4.0028">
        <ele>79.6</ele>
        <time>2020-08-25T07:00:20.293Z</time>
      </trkpt>
      <trkpt lat="49.22273" lon="4.00241">
        <ele>79.6</ele>
        <time>2020-08-25T07:00:28.854Z</time>
      </trkpt>
      <trkpt lat="49.22256" lon="4.00225">
        <ele>79.4</ele>
        <time>2020-08-25T07:00:31.753Z</time>
      </trkpt>
      <trkpt lat="49.22226" lon="4.00197">
        <ele>79.4</ele>
        <time>2020-08-25T07:00:38.006Z</time>
      </trkpt>
      <trkpt lat="49.22202" lon="4.00174">
        <ele>79.2</ele>
        <time>2020-08-25T07:00:42.642Z</time>
      </trkpt>
      <trkpt lat="49.22189" lon="4.00163">
        <ele>79.2</ele>
        <time>2020-08-25T07:00:45.225Z</time>
      </trkpt>
      <trkpt lat="49.22167" lon="4.00137">
        <ele>79</ele>
        <time>2020-08-25T07:00:49.784Z</time>
      </trkpt>
      <trkpt lat="49.22157" lon="4.00121">
        <ele>79</ele>
        <time>2020-08-25T07:00:52.228Z</time>
      </trkpt>
      <trkpt lat="49.22146" lon="4.00111">
        <ele>79.2</ele>
        <time>2020-08-25T07:00:55.015Z</time>
      </trkpt>
      <trkpt lat="49.22139" lon="4.00108">
        <ele>79.2</ele>
        <time>2020-08-25T07:00:56.212Z</time>
      </trkpt>
      <trkpt lat="49.22133" lon="4.00105">
        <ele>79.2</ele>
        <time>2020-08-25T07:00:57.430Z</time>
      </trkpt>
      <trkpt lat="49.22126" lon="4.00102">
        <ele>79.2</ele>
        <time>2020-08-25T07:00:58.658Z</time>
      </trkpt>
      <trkpt lat="49.2212" lon="4.00098">
        <ele>79.4</ele>
        <time>2020-08-25T07:01:00.327Z</time>
      </trkpt>
      <trkpt lat="49.22108" lon="4.00088">
        <ele>79.4</ele>
        <time>2020-08-25T07:01:02.764Z</time>
      </trkpt>
      <trkpt lat="49.22075" lon="4.00057">
        <ele>79.4</ele>
        <time>2020-08-25T07:01:09.730Z</time>
      </trkpt>
      <trkpt lat="49.22064" lon="4.00047">
        <ele>79.4</ele>
        <time>2020-08-25T07:01:11.971Z</time>
      </trkpt>
      <trkpt lat="49.22015" lon="4.00001">
        <ele>79.8</ele>
        <time>2020-08-25T07:01:22.851Z</time>
      </trkpt>
      <trkpt lat="49.21999" lon="3.99986">
        <ele>79.8</ele>
        <time>2020-08-25T07:01:26.317Z</time>
      </trkpt>
      <trkpt lat="49.21993" lon="3.99981">
        <ele>80</ele>
        <time>2020-08-25T07:01:27.943Z</time>
      </trkpt>
      <trkpt lat="49.21943" lon="3.99933">
        <ele>81</ele>
        <time>2020-08-25T07:01:40.480Z</time>
      </trkpt>
      <trkpt lat="49.21891" lon="3.99885">
        <ele>81</ele>
        <time>2020-08-25T07:01:51.203Z</time>
      </trkpt>
      <trkpt lat="49.21886" lon="3.9988">
        <ele>81.2</ele>
        <time>2020-08-25T07:01:52.846Z</time>
      </trkpt>
      <trkpt lat="49.21845" lon="3.99843">
        <ele>81</ele>
        <time>2020-08-25T07:02:00.844Z</time>
      </trkpt>
      <trkpt lat="49.21833" lon="3.99832">
        <ele>81</ele>
        <time>2020-08-25T07:02:03.290Z</time>
      </trkpt>
      <trkpt lat="49.21821" lon="3.99821">
        <ele>80.8</ele>
        <time>2020-08-25T07:02:05.141Z</time>
      </trkpt>
      <trkpt lat="49.21794" lon="3.9979">
        <ele>80.6</ele>
        <time>2020-08-25T07:02:10.728Z</time>
      </trkpt>
      <trkpt lat="49.2179" lon="3.99782">
        <ele>80.4</ele>
        <time>2020-08-25T07:02:11.490Z</time>
      </trkpt>
      <trkpt lat="49.21782" lon="3.99767">
        <ele>80</ele>
        <time>2020-08-25T07:02:12.885Z</time>
      </trkpt>
      <trkpt lat="49.21776" lon="3.99763">
        <ele>80</ele>
        <time>2020-08-25T07:02:13.975Z</time>
      </trkpt>
      <trkpt lat="49.2177" lon="3.99762">
        <ele>80</ele>
        <time>2020-08-25T07:02:15.062Z</time>
      </trkpt>
      <trkpt lat="49.21758" lon="3.99759">
        <ele>79.8</ele>
        <time>2020-08-25T07:02:16.766Z</time>
      </trkpt>
      <trkpt lat="49.21751" lon="3.99755">
        <ele>79.8</ele>
        <time>2020-08-25T07:02:17.947Z</time>
      </trkpt>
      <trkpt lat="49.21739" lon="3.99747">
        <ele>79.8</ele>
        <time>2020-08-25T07:02:20.305Z</time>
      </trkpt>
      <trkpt lat="49.21716" lon="3.99728">
        <ele>79.8</ele>
        <time>2020-08-25T07:02:24.944Z</time>
      </trkpt>
      <trkpt lat="49.21705" lon="3.99719">
        <ele>79.8</ele>
        <time>2020-08-25T07:02:27.236Z</time>
      </trkpt>
      <trkpt lat="49.21693" lon="3.99713">
        <ele>80.2</ele>
        <time>2020-08-25T07:02:30.428Z</time>
      </trkpt>
      <trkpt lat="49.2168" lon="3.99711">
        <ele>80.4</ele>
        <time>2020-08-25T07:02:33.078Z</time>
      </trkpt>
      <trkpt lat="49.21668" lon="3.99713">
        <ele>80.4</ele>
        <time>2020-08-25T07:02:35.299Z</time>
      </trkpt>
      <trkpt lat="49.21657" lon="3.9972">
        <ele>80.2</ele>
        <time>2020-08-25T07:02:36.930Z</time>
      </trkpt>
      <trkpt lat="49.2164" lon="3.99732">
        <ele>80.8</ele>
        <time>2020-08-25T07:02:41.618Z</time>
      </trkpt>
      <trkpt lat="49.21613" lon="3.99752">
        <ele>81</ele>
        <time>2020-08-25T07:02:47.372Z</time>
      </trkpt>
      <trkpt lat="49.21607" lon="3.99755">
        <ele>81.4</ele>
        <time>2020-08-25T07:02:49.467Z</time>
      </trkpt>
      <trkpt lat="49.21602" lon="3.99759">
        <ele>81.4</ele>
        <time>2020-08-25T07:02:50.530Z</time>
      </trkpt>
      <trkpt lat="49.21559" lon="3.99786">
        <ele>83.2</ele>
        <time>2020-08-25T07:03:03.385Z</time>
      </trkpt>
      <trkpt lat="49.21533" lon="3.99795">
        <ele>84</ele>
        <time>2020-08-25T07:03:10.001Z</time>
      </trkpt>
      <trkpt lat="49.21527" lon="3.99795">
        <ele>84.2</ele>
        <time>2020-08-25T07:03:11.450Z</time>
      </trkpt>
      <trkpt lat="49.21522" lon="3.99793">
        <ele>84.2</ele>
        <time>2020-08-25T07:03:12.401Z</time>
      </trkpt>
      <trkpt lat="49.21512" lon="3.99788">
        <ele>84.2</ele>
        <time>2020-08-25T07:03:14.377Z</time>
      </trkpt>
      <trkpt lat="49.21501" lon="3.99786">
        <ele>84.4</ele>
        <time>2020-08-25T07:03:16.724Z</time>
      </trkpt>
      <trkpt lat="49.21495" lon="3.99786">
        <ele>84.4</ele>
        <time>2020-08-25T07:03:17.708Z</time>
      </trkpt>
      <trkpt lat="49.21484" lon="3.99788">
        <ele>84.4</ele>
        <time>2020-08-25T07:03:19.713Z</time>
      </trkpt>
      <trkpt lat="49.21479" lon="3.99791">
        <ele>84.4</ele>
        <time>2020-08-25T07:03:20.736Z</time>
      </trkpt>
      <trkpt lat="49.21463" lon="3.99801">
        <ele>84.6</ele>
        <time>2020-08-25T07:03:24.180Z</time>
      </trkpt>
      <trkpt lat="49.21457" lon="3.99801">
        <ele>84.6</ele>
        <time>2020-08-25T07:03:25.203Z</time>
      </trkpt>
      <trkpt lat="49.21452" lon="3.99797">
        <ele>85</ele>
        <time>2020-08-25T07:03:27.256Z</time>
      </trkpt>
      <trkpt lat="49.21444" lon="3.99786">
        <ele>85</ele>
        <time>2020-08-25T07:03:29.128Z</time>
      </trkpt>
      <trkpt lat="49.21431" lon="3.99761">
        <ele>85.4</ele>
        <time>2020-08-25T07:03:33.783Z</time>
      </trkpt>
      <trkpt lat="49.21427" lon="3.99755">
        <ele>85.8</ele>
        <time>2020-08-25T07:03:35.755Z</time>
      </trkpt>
      <trkpt lat="49.21423" lon="3.9975">
        <ele>85.8</ele>
        <time>2020-08-25T07:03:36.681Z</time>
      </trkpt>
      <trkpt lat="49.21415" lon="3.9974">
        <ele>86.2</ele>
        <time>2020-08-25T07:03:39.524Z</time>
      </trkpt>
      <trkpt lat="49.21407" lon="3.9973">
        <ele>86.8</ele>
        <time>2020-08-25T07:03:42.924Z</time>
      </trkpt>
      <trkpt lat="49.21403" lon="3.99726">
        <ele>87</ele>
        <time>2020-08-25T07:03:44.343Z</time>
      </trkpt>
      <trkpt lat="49.21394" lon="3.99718">
        <ele>87.4</ele>
        <time>2020-08-25T07:03:47.172Z</time>
      </trkpt>
      <trkpt lat="49.21369" lon="3.99692">
        <ele>90</ele>
        <time>2020-08-25T07:03:59.565Z</time>
      </trkpt>
      <trkpt lat="49.21361" lon="3.99683">
        <ele>90.6</ele>
        <time>2020-08-25T07:04:02.844Z</time>
      </trkpt>
      <trkpt lat="49.2133" lon="3.99652">
        <ele>91.2</ele>
        <time>2020-08-25T07:04:10.675Z</time>
      </trkpt>
      <trkpt lat="49.21322" lon="3.99644">
        <ele>91.6</ele>
        <time>2020-08-25T07:04:13.399Z</time>
      </trkpt>
      <trkpt lat="49.21318" lon="3.9964">
        <ele>91.8</ele>
        <time>2020-08-25T07:04:14.780Z</time>
      </trkpt>
      <trkpt lat="49.2129" lon="3.99612">
        <ele>93.6</ele>
        <time>2020-08-25T07:04:25.534Z</time>
      </trkpt>
      <trkpt lat="49.21278" lon="3.996">
        <ele>94.2</ele>
        <time>2020-08-25T07:04:29.693Z</time>
      </trkpt>
      <trkpt lat="49.21246" lon="3.99567">
        <ele>95.6</ele>
        <time>2020-08-25T07:04:40.079Z</time>
      </trkpt>
      <trkpt lat="49.21242" lon="3.99561">
        <ele>95.6</ele>
        <time>2020-08-25T07:04:41.023Z</time>
      </trkpt>
      <trkpt lat="49.21238" lon="3.99555">
        <ele>95.6</ele>
        <time>2020-08-25T07:04:42.020Z</time>
      </trkpt>
      <trkpt lat="49.21234" lon="3.99549">
        <ele>95.6</ele>
        <time>2020-08-25T07:04:43.031Z</time>
      </trkpt>
      <trkpt lat="49.21231" lon="3.99541">
        <ele>95.8</ele>
        <time>2020-08-25T07:04:44.538Z</time>
      </trkpt>
      <trkpt lat="49.21229" lon="3.99533">
        <ele>95.6</ele>
        <time>2020-08-25T07:04:45.170Z</time>
      </trkpt>
      <trkpt lat="49.21227" lon="3.99524">
        <ele>95.6</ele>
        <time>2020-08-25T07:04:46.213Z</time>
      </trkpt>
      <trkpt lat="49.21226" lon="3.99515">
        <ele>95.6</ele>
        <time>2020-08-25T07:04:47.288Z</time>
      </trkpt>
      <trkpt lat="49.21226" lon="3.99506">
        <ele>95.8</ele>
        <time>2020-08-25T07:04:48.862Z</time>
      </trkpt>
      <trkpt lat="49.21227" lon="3.99496">
        <ele>95.6</ele>
        <time>2020-08-25T07:04:49.580Z</time>
      </trkpt>
      <trkpt lat="49.21232" lon="3.99477">
        <ele>95.2</ele>
        <time>2020-08-25T07:04:51.127Z</time>
      </trkpt>
      <trkpt lat="49.21242" lon="3.99459">
        <ele>94.6</ele>
        <time>2020-08-25T07:04:52.703Z</time>
      </trkpt>
      <trkpt lat="49.21248" lon="3.99451">
        <ele>94.4</ele>
        <time>2020-08-25T07:04:53.688Z</time>
      </trkpt>
      <trkpt lat="49.21262" lon="3.99436">
        <ele>94.4</ele>
        <time>2020-08-25T07:04:56.776Z</time>
      </trkpt>
      <trkpt lat="49.21269" lon="3.99427">
        <ele>94.4</ele>
        <time>2020-08-25T07:04:58.373Z</time>
      </trkpt>
      <trkpt lat="49.21276" lon="3.99418">
        <ele>94.2</ele>
        <time>2020-08-25T07:04:59.489Z</time>
      </trkpt>
      <trkpt lat="49.21289" lon="3.99398">
        <ele>93.8</ele>
        <time>2020-08-25T07:05:01.741Z</time>
      </trkpt>
      <trkpt lat="49.21301" lon="3.99377">
        <ele>93</ele>
        <time>2020-08-25T07:05:03.571Z</time>
      </trkpt>
      <trkpt lat="49.21307" lon="3.99365">
        <ele>92.4</ele>
        <time>2020-08-25T07:05:04.343Z</time>
      </trkpt>
      <trkpt lat="49.21317" lon="3.99342">
        <ele>91.2</ele>
        <time>2020-08-25T07:05:05.887Z</time>
      </trkpt>
      <trkpt lat="49.21322" lon="3.99329">
        <ele>90</ele>
        <time>2020-08-25T07:05:06.722Z</time>
      </trkpt>
      <trkpt lat="49.21332" lon="3.99304">
        <ele>87.8</ele>
        <time>2020-08-25T07:05:08.419Z</time>
      </trkpt>
      <trkpt lat="49.21336" lon="3.99291">
        <ele>86.8</ele>
        <time>2020-08-25T07:05:09.271Z</time>
      </trkpt>
      <trkpt lat="49.2135" lon="3.99254">
        <ele>84.2</ele>
        <time>2020-08-25T07:05:11.724Z</time>
      </trkpt>
      <trkpt lat="49.21354" lon="3.99243">
        <ele>83.6</ele>
        <time>2020-08-25T07:05:12.507Z</time>
      </trkpt>
      <trkpt lat="49.21378" lon="3.99177">
        <ele>81</ele>
        <time>2020-08-25T07:05:16.957Z</time>
      </trkpt>
      <trkpt lat="49.21396" lon="3.99129">
        <ele>80.2</ele>
        <time>2020-08-25T07:05:21.448Z</time>
      </trkpt>
      <trkpt lat="49.21406" lon="3.991">
        <ele>80.4</ele>
        <time>2020-08-25T07:05:25.573Z</time>
      </trkpt>
      <trkpt lat="49.21432" lon="3.99029">
        <ele>81</ele>
        <time>2020-08-25T07:05:36.197Z</time>
      </trkpt>
      <trkpt lat="49.21454" lon="3.98968">
        <ele>81.8</ele>
        <time>2020-08-25T07:05:45.847Z</time>
      </trkpt>
      <trkpt lat="49.21472" lon="3.98918">
        <ele>82.2</ele>
        <time>2020-08-25T07:05:53.270Z</time>
      </trkpt>
      <trkpt lat="49.21487" lon="3.98877">
        <ele>82.6</ele>
        <time>2020-08-25T07:05:59.474Z</time>
      </trkpt>
      <trkpt lat="49.21513" lon="3.98803">
        <ele>83</ele>
        <time>2020-08-25T07:06:09.979Z</time>
      </trkpt>
      <trkpt lat="49.21525" lon="3.98771">
        <ele>83</ele>
        <time>2020-08-25T07:06:14.320Z</time>
      </trkpt>
      <trkpt lat="49.21546" lon="3.98712">
        <ele>83</ele>
        <time>2020-08-25T07:06:22.173Z</time>
      </trkpt>
      <trkpt lat="49.21562" lon="3.98669">
        <ele>83</ele>
        <time>2020-08-25T07:06:27.930Z</time>
      </trkpt>
      <trkpt lat="49.21589" lon="3.98593">
        <ele>81.8</ele>
        <time>2020-08-25T07:06:34.947Z</time>
      </trkpt>
      <trkpt lat="49.21596" lon="3.98567">
        <ele>81.8</ele>
        <time>2020-08-25T07:06:38.262Z</time>
      </trkpt>
      <trkpt lat="49.21601" lon="3.98539">
        <ele>81.6</ele>
        <time>2020-08-25T07:06:40.866Z</time>
      </trkpt>
      <trkpt lat="49.21602" lon="3.98484">
        <ele>80.8</ele>
        <time>2020-08-25T07:06:45.336Z</time>
      </trkpt>
      <trkpt lat="49.21601" lon="3.98466">
        <ele>80.4</ele>
        <time>2020-08-25T07:06:46.646Z</time>
      </trkpt>
      <trkpt lat="49.21598" lon="3.98448">
        <ele>80.2</ele>
        <time>2020-08-25T07:06:48.228Z</time>
      </trkpt>
      <trkpt lat="49.21594" lon="3.9843">
        <ele>80</ele>
        <time>2020-08-25T07:06:49.842Z</time>
      </trkpt>
      <trkpt lat="49.21582" lon="3.98396">
        <ele>80</ele>
        <time>2020-08-25T07:06:54.309Z</time>
      </trkpt>
      <trkpt lat="49.21574" lon="3.9838">
        <ele>79.6</ele>
        <time>2020-08-25T07:06:55.726Z</time>
      </trkpt>
      <trkpt lat="49.21553" lon="3.98348">
        <ele>79.6</ele>
        <time>2020-08-25T07:07:01.039Z</time>
      </trkpt>
      <trkpt lat="49.21549" lon="3.98343">
        <ele>79.4</ele>
        <time>2020-08-25T07:07:01.680Z</time>
      </trkpt>
      <trkpt lat="49.21504" lon="3.98286">
        <ele>78.6</ele>
        <time>2020-08-25T07:07:09.566Z</time>
      </trkpt>
      <trkpt lat="49.21458" lon="3.98228">
        <ele>78.8</ele>
        <time>2020-08-25T07:07:20.459Z</time>
      </trkpt>
      <trkpt lat="49.21454" lon="3.98222">
        <ele>78.8</ele>
        <time>2020-08-25T07:07:21.510Z</time>
      </trkpt>
      <trkpt lat="49.21414" lon="3.98172">
        <ele>78.4</ele>
        <time>2020-08-25T07:07:29.190Z</time>
      </trkpt>
      <trkpt lat="49.21396" lon="3.98149">
        <ele>78.6</ele>
        <time>2020-08-25T07:07:33.702Z</time>
      </trkpt>
      <trkpt lat="49.21373" lon="3.98119">
        <ele>79</ele>
        <time>2020-08-25T07:07:39.751Z</time>
      </trkpt>
      <trkpt lat="49.21351" lon="3.98089">
        <ele>79.6</ele>
        <time>2020-08-25T07:07:46.352Z</time>
      </trkpt>
      <trkpt lat="49.21346" lon="3.98082">
        <ele>79.8</ele>
        <time>2020-08-25T07:07:47.911Z</time>
      </trkpt>
      <trkpt lat="49.21305" lon="3.98026">
        <ele>82</ele>
        <time>2020-08-25T07:08:03.422Z</time>
      </trkpt>
      <trkpt lat="49.21297" lon="3.98013">
        <ele>82</ele>
        <time>2020-08-25T07:08:05.589Z</time>
      </trkpt>
      <trkpt lat="49.21271" lon="3.97976">
        <ele>82.4</ele>
        <time>2020-08-25T07:08:12.652Z</time>
      </trkpt>
      <trkpt lat="49.21245" lon="3.97941">
        <ele>82.4</ele>
        <time>2020-08-25T07:08:18.799Z</time>
      </trkpt>
      <trkpt lat="49.21226" lon="3.97922">
        <ele>83.2</ele>
        <time>2020-08-25T07:08:24.796Z</time>
      </trkpt>
      <trkpt lat="49.21211" lon="3.9791">
        <ele>84</ele>
        <time>2020-08-25T07:08:29.943Z</time>
      </trkpt>
      <trkpt lat="49.21201" lon="3.97902">
        <ele>84.4</ele>
        <time>2020-08-25T07:08:32.897Z</time>
      </trkpt>
      <trkpt lat="49.21171" lon="3.97881">
        <ele>86.2</ele>
        <time>2020-08-25T07:08:43.559Z</time>
      </trkpt>
      <trkpt lat="49.21146" lon="3.97862">
        <ele>87.2</ele>
        <time>2020-08-25T07:08:51.006Z</time>
      </trkpt>
      <trkpt lat="49.21094" lon="3.97823">
        <ele>88.6</ele>
        <time>2020-08-25T07:09:04.274Z</time>
      </trkpt>
      <trkpt lat="49.21063" lon="3.97799">
        <ele>88.8</ele>
        <time>2020-08-25T07:09:10.904Z</time>
      </trkpt>
      <trkpt lat="49.2103" lon="3.97774">
        <ele>89.2</ele>
        <time>2020-08-25T07:09:18.149Z</time>
      </trkpt>
      <trkpt lat="49.20983" lon="3.9774">
        <ele>89.4</ele>
        <time>2020-08-25T07:09:27.763Z</time>
      </trkpt>
      <trkpt lat="49.20977" lon="3.97735">
        <ele>89.4</ele>
        <time>2020-08-25T07:09:28.963Z</time>
      </trkpt>
      <trkpt lat="49.20924" lon="3.97695">
        <ele>88.4</ele>
        <time>2020-08-25T07:09:36.738Z</time>
      </trkpt>
      <trkpt lat="49.20907" lon="3.97682">
        <ele>88</ele>
        <time>2020-08-25T07:09:39.170Z</time>
      </trkpt>
      <trkpt lat="49.20895" lon="3.97673">
        <ele>88.2</ele>
        <time>2020-08-25T07:09:41.840Z</time>
      </trkpt>
      <trkpt lat="49.20852" lon="3.97631">
        <ele>87.6</ele>
        <time>2020-08-25T07:09:48.994Z</time>
      </trkpt>
      <trkpt lat="49.20837" lon="3.97612">
        <ele>87.6</ele>
        <time>2020-08-25T07:09:52.481Z</time>
      </trkpt>
      <trkpt lat="49.20797" lon="3.97562">
        <ele>87.6</ele>
        <time>2020-08-25T07:10:01.729Z</time>
      </trkpt>
      <trkpt lat="49.20752" lon="3.97505">
        <ele>88.2</ele>
        <time>2020-08-25T07:10:13.201Z</time>
      </trkpt>
      <trkpt lat="49.20737" lon="3.97486">
        <ele>88.4</ele>
        <time>2020-08-25T07:10:17.037Z</time>
      </trkpt>
      <trkpt lat="49.20694" lon="3.9743">
        <ele>88</ele>
        <time>2020-08-25T07:10:26.158Z</time>
      </trkpt>
      <trkpt lat="49.2069" lon="3.97424">
        <ele>88</ele>
        <time>2020-08-25T07:10:27.224Z</time>
      </trkpt>
      <trkpt lat="49.20685" lon="3.97418">
        <ele>87.6</ele>
        <time>2020-08-25T07:10:27.714Z</time>
      </trkpt>
      <trkpt lat="49.20659" lon="3.97381">
        <ele>87.4</ele>
        <time>2020-08-25T07:10:33.561Z</time>
      </trkpt>
      <trkpt lat="49.20651" lon="3.97368">
        <ele>87.2</ele>
        <time>2020-08-25T07:10:35.132Z</time>
      </trkpt>
      <trkpt lat="49.20634" lon="3.97342">
        <ele>86.8</ele>
        <time>2020-08-25T07:10:38.218Z</time>
      </trkpt>
      <trkpt lat="49.20612" lon="3.97311">
        <ele>86.8</ele>
        <time>2020-08-25T07:10:43.537Z</time>
      </trkpt>
      <trkpt lat="49.20604" lon="3.97298">
        <ele>86.8</ele>
        <time>2020-08-25T07:10:45.673Z</time>
      </trkpt>
      <trkpt lat="49.20564" lon="3.97239">
        <ele>86.8</ele>
        <time>2020-08-25T07:10:55.531Z</time>
      </trkpt>
      <trkpt lat="49.20556" lon="3.97226">
        <ele>87</ele>
        <time>2020-08-25T07:10:58.057Z</time>
      </trkpt>
      <trkpt lat="49.20552" lon="3.9722">
        <ele>87</ele>
        <time>2020-08-25T07:10:59.129Z</time>
      </trkpt>
      <trkpt lat="49.20519" lon="3.97164">
        <ele>87.6</ele>
        <time>2020-08-25T07:11:08.987Z</time>
      </trkpt>
      <trkpt lat="49.20487" lon="3.97094">
        <ele>87.8</ele>
        <time>2020-08-25T07:11:19.342Z</time>
      </trkpt>
      <trkpt lat="49.20483" lon="3.97086">
        <ele>87.8</ele>
        <time>2020-08-25T07:11:20.467Z</time>
      </trkpt>
      <trkpt lat="49.20453" lon="3.97012">
        <ele>88</ele>
        <time>2020-08-25T07:11:30.945Z</time>
      </trkpt>
      <trkpt lat="49.20447" lon="3.96996">
        <ele>88</ele>
        <time>2020-08-25T07:11:33.191Z</time>
      </trkpt>
      <trkpt lat="49.2043" lon="3.96925">
        <ele>88</ele>
        <time>2020-08-25T07:11:41.969Z</time>
      </trkpt>
      <trkpt lat="49.20426" lon="3.96908">
        <ele>88</ele>
        <time>2020-08-25T07:11:44.080Z</time>
      </trkpt>
      <trkpt lat="49.20418" lon="3.96864">
        <ele>88.2</ele>
        <time>2020-08-25T07:11:49.772Z</time>
      </trkpt>
      <trkpt lat="49.20411" lon="3.96828">
        <ele>88.2</ele>
        <time>2020-08-25T07:11:54.071Z</time>
      </trkpt>
      <trkpt lat="49.2041" lon="3.9682">
        <ele>88.2</ele>
        <time>2020-08-25T07:11:55.133Z</time>
      </trkpt>
      <trkpt lat="49.20394" lon="3.96734">
        <ele>89</ele>
        <time>2020-08-25T07:12:07.076Z</time>
      </trkpt>
      <trkpt lat="49.20382" lon="3.96674">
        <ele>89.2</ele>
        <time>2020-08-25T07:12:14.674Z</time>
      </trkpt>
      <trkpt lat="49.20375" lon="3.9665">
        <ele>89.4</ele>
        <time>2020-08-25T07:12:18.080Z</time>
      </trkpt>
      <trkpt lat="49.20354" lon="3.9659">
        <ele>89.6</ele>
        <time>2020-08-25T07:12:26.391Z</time>
      </trkpt>
      <trkpt lat="49.20345" lon="3.96569">
        <ele>89.8</ele>
        <time>2020-08-25T07:12:29.665Z</time>
      </trkpt>
      <trkpt lat="49.20322" lon="3.96523">
        <ele>89.8</ele>
        <time>2020-08-25T07:12:36.504Z</time>
      </trkpt>
      <trkpt lat="49.20316" lon="3.96509">
        <ele>90.2</ele>
        <time>2020-08-25T07:12:39.446Z</time>
      </trkpt>
      <trkpt lat="49.20298" lon="3.96476">
        <ele>90.4</ele>
        <time>2020-08-25T07:12:44.765Z</time>
      </trkpt>
      <trkpt lat="49.20283" lon="3.96451">
        <ele>90.8</ele>
        <time>2020-08-25T07:12:49.532Z</time>
      </trkpt>
      <trkpt lat="49.20257" lon="3.96408">
        <ele>91.6</ele>
        <time>2020-08-25T07:12:58.005Z</time>
      </trkpt>
      <trkpt lat="49.20253" lon="3.96402">
        <ele>91.6</ele>
        <time>2020-08-25T07:12:58.977Z</time>
      </trkpt>
      <trkpt lat="49.20231" lon="3.96367">
        <ele>92.8</ele>
        <time>2020-08-25T07:13:07.749Z</time>
      </trkpt>
      <trkpt lat="49.20219" lon="3.96349">
        <ele>93.2</ele>
        <time>2020-08-25T07:13:11.460Z</time>
      </trkpt>
      <trkpt lat="49.20202" lon="3.96321">
        <ele>94.6</ele>
        <time>2020-08-25T07:13:19.743Z</time>
      </trkpt>
      <trkpt lat="49.20191" lon="3.96304">
        <ele>95</ele>
        <time>2020-08-25T07:13:23.304Z</time>
      </trkpt>
      <trkpt lat="49.20174" lon="3.96275">
        <ele>96</ele>
        <time>2020-08-25T07:13:30.371Z</time>
      </trkpt>
      <trkpt lat="49.20154" lon="3.96241">
        <ele>96.2</ele>
        <time>2020-08-25T07:13:36.116Z</time>
      </trkpt>
      <trkpt lat="49.20151" lon="3.96235">
        <ele>96.6</ele>
        <time>2020-08-25T07:13:38.069Z</time>
      </trkpt>
      <trkpt lat="49.20127" lon="3.96193">
        <ele>98.2</ele>
        <time>2020-08-25T07:13:48.951Z</time>
      </trkpt>
      <trkpt lat="49.20124" lon="3.96187">
        <ele>98.4</ele>
        <time>2020-08-25T07:13:50.398Z</time>
      </trkpt>
      <trkpt lat="49.20091" lon="3.96125">
        <ele>100</ele>
        <time>2020-08-25T07:14:03.417Z</time>
      </trkpt>
      <trkpt lat="49.20066" lon="3.96074">
        <ele>100.4</ele>
        <time>2020-08-25T07:14:11.593Z</time>
      </trkpt>
      <trkpt lat="49.20062" lon="3.96067">
        <ele>100.6</ele>
        <time>2020-08-25T07:14:13.030Z</time>
      </trkpt>
      <trkpt lat="49.20053" lon="3.96048">
        <ele>100.8</ele>
        <time>2020-08-25T07:14:16.203Z</time>
      </trkpt>
      <trkpt lat="49.20031" lon="3.96002">
        <ele>101.4</ele>
        <time>2020-08-25T07:14:24.005Z</time>
      </trkpt>
      <trkpt lat="49.20008" lon="3.95955">
        <ele>102.4</ele>
        <time>2020-08-25T07:14:33.011Z</time>
      </trkpt>
      <trkpt lat="49.19998" lon="3.95933">
        <ele>102.6</ele>
        <time>2020-08-25T07:14:36.460Z</time>
      </trkpt>
      <trkpt lat="49.19991" lon="3.95919">
        <ele>102.6</ele>
        <time>2020-08-25T07:14:38.546Z</time>
      </trkpt>
      <trkpt lat="49.19977" lon="3.9589">
        <ele>102.6</ele>
        <time>2020-08-25T07:14:42.775Z</time>
      </trkpt>
      <trkpt lat="49.1997" lon="3.95875">
        <ele>102.6</ele>
        <time>2020-08-25T07:14:44.938Z</time>
      </trkpt>
      <trkpt lat="49.19947" lon="3.95822">
        <ele>102.6</ele>
        <time>2020-08-25T07:14:52.360Z</time>
      </trkpt>
      <trkpt lat="49.19941" lon="3.95807">
        <ele>103</ele>
        <time>2020-08-25T07:14:55.368Z</time>
      </trkpt>
      <trkpt lat="49.19926" lon="3.95771">
        <ele>103</ele>
        <time>2020-08-25T07:15:00.345Z</time>
      </trkpt>
      <trkpt lat="49.1991" lon="3.95728">
        <ele>103</ele>
        <time>2020-08-25T07:15:06.086Z</time>
      </trkpt>
      <trkpt lat="49.19886" lon="3.95658">
        <ele>103.8</ele>
        <time>2020-08-25T07:15:16.918Z</time>
      </trkpt>
      <trkpt lat="49.19882" lon="3.95643">
        <ele>104</ele>
        <time>2020-08-25T07:15:19.155Z</time>
      </trkpt>
      <trkpt lat="49.19877" lon="3.95613">
        <ele>104.6</ele>
        <time>2020-08-25T07:15:24.128Z</time>
      </trkpt>
      <trkpt lat="49.19868" lon="3.95561">
        <ele>105.6</ele>
        <time>2020-08-25T07:15:32.640Z</time>
      </trkpt>
      <trkpt lat="49.19863" lon="3.9554">
        <ele>106.6</ele>
        <time>2020-08-25T07:15:37.877Z</time>
      </trkpt>
      <trkpt lat="49.19861" lon="3.95525">
        <ele>107</ele>
        <time>2020-08-25T07:15:40.680Z</time>
      </trkpt>
      <trkpt lat="49.19852" lon="3.95475">
        <ele>108</ele>
        <time>2020-08-25T07:15:48.993Z</time>
      </trkpt>
      <trkpt lat="49.19851" lon="3.95467">
        <ele>108.2</ele>
        <time>2020-08-25T07:15:50.392Z</time>
      </trkpt>
      <trkpt lat="49.19847" lon="3.95425">
        <ele>109.6</ele>
        <time>2020-08-25T07:15:59.206Z</time>
      </trkpt>
      <trkpt lat="49.19845" lon="3.95403">
        <ele>109.8</ele>
        <time>2020-08-25T07:16:02.093Z</time>
      </trkpt>
      <trkpt lat="49.19842" lon="3.95367">
        <ele>110.8</ele>
        <time>2020-08-25T07:16:09.006Z</time>
      </trkpt>
      <trkpt lat="49.19841" lon="3.95353">
        <ele>111.4</ele>
        <time>2020-08-25T07:16:12.279Z</time>
      </trkpt>
      <trkpt lat="49.19838" lon="3.95331">
        <ele>112</ele>
        <time>2020-08-25T07:16:16.437Z</time>
      </trkpt>
      <trkpt lat="49.19835" lon="3.95303">
        <ele>112.8</ele>
        <time>2020-08-25T07:16:21.935Z</time>
      </trkpt>
      <trkpt lat="49.19832" lon="3.9529">
        <ele>112.8</ele>
        <time>2020-08-25T07:16:23.546Z</time>
      </trkpt>
      <trkpt lat="49.19827" lon="3.9527">
        <ele>113.4</ele>
        <time>2020-08-25T07:16:27.620Z</time>
      </trkpt>
      <trkpt lat="49.19814" lon="3.95229">
        <ele>115</ele>
        <time>2020-08-25T07:16:37.240Z</time>
      </trkpt>
      <trkpt lat="49.19809" lon="3.95214">
        <ele>115.2</ele>
        <time>2020-08-25T07:16:39.574Z</time>
      </trkpt>
      <trkpt lat="49.19805" lon="3.95207">
        <ele>115.2</ele>
        <time>2020-08-25T07:16:40.612Z</time>
      </trkpt>
      <trkpt lat="49.19802" lon="3.95205">
        <ele>115.2</ele>
        <time>2020-08-25T07:16:41.213Z</time>
      </trkpt>
      <trkpt lat="49.19795" lon="3.95205">
        <ele>115.4</ele>
        <time>2020-08-25T07:16:43.005Z</time>
      </trkpt>
      <trkpt lat="49.19791" lon="3.95209">
        <ele>115.4</ele>
        <time>2020-08-25T07:16:43.767Z</time>
      </trkpt>
      <trkpt lat="49.19788" lon="3.95213">
        <ele>115.4</ele>
        <time>2020-08-25T07:16:44.520Z</time>
      </trkpt>
      <trkpt lat="49.19774" lon="3.95229">
        <ele>116.6</ele>
        <time>2020-08-25T07:16:50.736Z</time>
      </trkpt>
      <trkpt lat="49.1977" lon="3.95233">
        <ele>117</ele>
        <time>2020-08-25T07:16:52.619Z</time>
      </trkpt>
      <trkpt lat="49.19741" lon="3.95259">
        <ele>119</ele>
        <time>2020-08-25T07:17:03.936Z</time>
      </trkpt>
      <trkpt lat="49.19731" lon="3.95265">
        <ele>119.6</ele>
        <time>2020-08-25T07:17:07.416Z</time>
      </trkpt>
      <trkpt lat="49.19704" lon="3.95285">
        <ele>120.4</ele>
        <time>2020-08-25T07:17:14.444Z</time>
      </trkpt>
      <trkpt lat="49.19698" lon="3.9529">
        <ele>120.4</ele>
        <time>2020-08-25T07:17:15.687Z</time>
      </trkpt>
      <trkpt lat="49.19685" lon="3.953">
        <ele>120.4</ele>
        <time>2020-08-25T07:17:18.310Z</time>
      </trkpt>
      <trkpt lat="49.19665" lon="3.95321">
        <ele>120.4</ele>
        <time>2020-08-25T07:17:22.624Z</time>
      </trkpt>
      <trkpt lat="49.19646" lon="3.95348">
        <ele>120.4</ele>
        <time>2020-08-25T07:17:27.246Z</time>
      </trkpt>
      <trkpt lat="49.19627" lon="3.95377">
        <ele>119.8</ele>
        <time>2020-08-25T07:17:30.539Z</time>
      </trkpt>
      <trkpt lat="49.19614" lon="3.95398">
        <ele>119</ele>
        <time>2020-08-25T07:17:32.382Z</time>
      </trkpt>
      <trkpt lat="49.19595" lon="3.9543">
        <ele>118</ele>
        <time>2020-08-25T07:17:35.450Z</time>
      </trkpt>
      <trkpt lat="49.19575" lon="3.95461">
        <ele>117.2</ele>
        <time>2020-08-25T07:17:38.724Z</time>
      </trkpt>
      <trkpt lat="49.19562" lon="3.95481">
        <ele>116.6</ele>
        <time>2020-08-25T07:17:40.723Z</time>
      </trkpt>
      <trkpt lat="49.19556" lon="3.95491">
        <ele>116.4</ele>
        <time>2020-08-25T07:17:41.831Z</time>
      </trkpt>
      <trkpt lat="49.19537" lon="3.9552">
        <ele>116.2</ele>
        <time>2020-08-25T07:17:45.768Z</time>
      </trkpt>
      <trkpt lat="49.19531" lon="3.9553">
        <ele>116</ele>
        <time>2020-08-25T07:17:46.812Z</time>
      </trkpt>
      <trkpt lat="49.19508" lon="3.95565">
        <ele>115.8</ele>
        <time>2020-08-25T07:17:52.211Z</time>
      </trkpt>
      <trkpt lat="49.19502" lon="3.95573">
        <ele>116</ele>
        <time>2020-08-25T07:17:54.059Z</time>
      </trkpt>
      <trkpt lat="49.19496" lon="3.95582">
        <ele>116</ele>
        <time>2020-08-25T07:17:55.461Z</time>
      </trkpt>
      <trkpt lat="49.19491" lon="3.9559">
        <ele>116</ele>
        <time>2020-08-25T07:17:56.825Z</time>
      </trkpt>
      <trkpt lat="49.1948" lon="3.95606">
        <ele>116</ele>
        <time>2020-08-25T07:17:59.504Z</time>
      </trkpt>
      <trkpt lat="49.19469" lon="3.95621">
        <ele>116.4</ele>
        <time>2020-08-25T07:18:03.029Z</time>
      </trkpt>
      <trkpt lat="49.19464" lon="3.95629">
        <ele>116.8</ele>
        <time>2020-08-25T07:18:05.413Z</time>
      </trkpt>
      <trkpt lat="49.19452" lon="3.95642">
        <ele>117.2</ele>
        <time>2020-08-25T07:18:08.919Z</time>
      </trkpt>
      <trkpt lat="49.19439" lon="3.95653">
        <ele>117.4</ele>
        <time>2020-08-25T07:18:11.963Z</time>
      </trkpt>
      <trkpt lat="49.19418" lon="3.95665">
        <ele>117.4</ele>
        <time>2020-08-25T07:18:15.807Z</time>
      </trkpt>
      <trkpt lat="49.19398" lon="3.95671">
        <ele>117.6</ele>
        <time>2020-08-25T07:18:19.897Z</time>
      </trkpt>
      <trkpt lat="49.19378" lon="3.95672">
        <ele>117.8</ele>
        <time>2020-08-25T07:18:23.782Z</time>
      </trkpt>
      <trkpt lat="49.19372" lon="3.95672">
        <ele>117.8</ele>
        <time>2020-08-25T07:18:24.927Z</time>
      </trkpt>
      <trkpt lat="49.19348" lon="3.95671">
        <ele>118</ele>
        <time>2020-08-25T07:18:29.626Z</time>
      </trkpt>
      <trkpt lat="49.1933" lon="3.95671">
        <ele>118.2</ele>
        <time>2020-08-25T07:18:33.120Z</time>
      </trkpt>
      <trkpt lat="49.19324" lon="3.95671">
        <ele>118.2</ele>
        <time>2020-08-25T07:18:34.157Z</time>
      </trkpt>
      <trkpt lat="49.19286" lon="3.95671">
        <ele>120.6</ele>
        <time>2020-08-25T07:18:47.231Z</time>
      </trkpt>
      <trkpt lat="49.19281" lon="3.95672">
        <ele>120.6</ele>
        <time>2020-08-25T07:18:48.162Z</time>
      </trkpt>
      <trkpt lat="49.19247" lon="3.9568">
        <ele>122.2</ele>
        <time>2020-08-25T07:18:58.626Z</time>
      </trkpt>
      <trkpt lat="49.19224" lon="3.9569">
        <ele>124</ele>
        <time>2020-08-25T07:19:07.511Z</time>
      </trkpt>
      <trkpt lat="49.19211" lon="3.95697">
        <ele>124.6</ele>
        <time>2020-08-25T07:19:11.619Z</time>
      </trkpt>
      <trkpt lat="49.19207" lon="3.957">
        <ele>125.4</ele>
        <time>2020-08-25T07:19:14.773Z</time>
      </trkpt>
      <trkpt lat="49.19195" lon="3.95709">
        <ele>126.4</ele>
        <time>2020-08-25T07:19:19.782Z</time>
      </trkpt>
      <trkpt lat="49.19187" lon="3.95715">
        <ele>127</ele>
        <time>2020-08-25T07:19:22.966Z</time>
      </trkpt>
      <trkpt lat="49.19183" lon="3.95719">
        <ele>127</ele>
        <time>2020-08-25T07:19:23.791Z</time>
      </trkpt>
      <trkpt lat="49.19179" lon="3.95723">
        <ele>127.2</ele>
        <time>2020-08-25T07:19:25.162Z</time>
      </trkpt>
      <trkpt lat="49.19168" lon="3.95735">
        <ele>128.2</ele>
        <time>2020-08-25T07:19:30.219Z</time>
      </trkpt>
      <trkpt lat="49.19149" lon="3.95756">
        <ele>129.6</ele>
        <time>2020-08-25T07:19:37.951Z</time>
      </trkpt>
      <trkpt lat="49.19146" lon="3.95761">
        <ele>130</ele>
        <time>2020-08-25T07:19:39.848Z</time>
      </trkpt>
      <trkpt lat="49.19124" lon="3.95786">
        <ele>132.8</ele>
        <time>2020-08-25T07:19:52.865Z</time>
      </trkpt>
      <trkpt lat="49.19117" lon="3.95794">
        <ele>133.4</ele>
        <time>2020-08-25T07:19:55.972Z</time>
      </trkpt>
      <trkpt lat="49.19106" lon="3.95804">
        <ele>134.2</ele>
        <time>2020-08-25T07:20:00.381Z</time>
      </trkpt>
      <trkpt lat="49.19098" lon="3.9581">
        <ele>134.4</ele>
        <time>2020-08-25T07:20:02.336Z</time>
      </trkpt>
      <trkpt lat="49.19086" lon="3.95817">
        <ele>135.6</ele>
        <time>2020-08-25T07:20:07.973Z</time>
      </trkpt>
      <trkpt lat="49.19074" lon="3.95822">
        <ele>136.4</ele>
        <time>2020-08-25T07:20:12.309Z</time>
      </trkpt>
      <trkpt lat="49.19061" lon="3.95825">
        <ele>136.8</ele>
        <time>2020-08-25T07:20:15.464Z</time>
      </trkpt>
      <trkpt lat="49.19026" lon="3.95822">
        <ele>139</ele>
        <time>2020-08-25T07:20:27.515Z</time>
      </trkpt>
      <trkpt lat="49.19002" lon="3.9581">
        <ele>139.8</ele>
        <time>2020-08-25T07:20:33.855Z</time>
      </trkpt>
      <trkpt lat="49.18997" lon="3.95806">
        <ele>140</ele>
        <time>2020-08-25T07:20:35.345Z</time>
      </trkpt>
      <trkpt lat="49.1896" lon="3.95772">
        <ele>139.6</ele>
        <time>2020-08-25T07:20:41.467Z</time>
      </trkpt>
      <trkpt lat="49.18938" lon="3.95748">
        <ele>139</ele>
        <time>2020-08-25T07:20:44.894Z</time>
      </trkpt>
      <trkpt lat="49.18926" lon="3.95736">
        <ele>138.8</ele>
        <time>2020-08-25T07:20:46.800Z</time>
      </trkpt>
      <trkpt lat="49.18903" lon="3.9571">
        <ele>138.4</ele>
        <time>2020-08-25T07:20:50.747Z</time>
      </trkpt>
      <trkpt lat="49.18891" lon="3.95696">
        <ele>138.2</ele>
        <time>2020-08-25T07:20:52.778Z</time>
      </trkpt>
      <trkpt lat="49.18871" lon="3.95678">
        <ele>137.2</ele>
        <time>2020-08-25T07:20:55.030Z</time>
      </trkpt>
      <trkpt lat="49.18865" lon="3.95671">
        <ele>137</ele>
        <time>2020-08-25T07:20:55.949Z</time>
      </trkpt>
      <trkpt lat="49.18823" lon="3.9562">
        <ele>135.2</ele>
        <time>2020-08-25T07:21:01.683Z</time>
      </trkpt>
      <trkpt lat="49.18797" lon="3.95569">
        <ele>134.6</ele>
        <time>2020-08-25T07:21:07.420Z</time>
      </trkpt>
      <trkpt lat="49.18781" lon="3.95532">
        <ele>134.2</ele>
        <time>2020-08-25T07:21:11.417Z</time>
      </trkpt>
      <trkpt lat="49.18773" lon="3.95513">
        <ele>134</ele>
        <time>2020-08-25T07:21:13.456Z</time>
      </trkpt>
      <trkpt lat="49.18751" lon="3.95459">
        <ele>132.8</ele>
        <time>2020-08-25T07:21:18.165Z</time>
      </trkpt>
      <trkpt lat="49.18744" lon="3.95441">
        <ele>132.8</ele>
        <time>2020-08-25T07:21:20.524Z</time>
      </trkpt>
      <trkpt lat="49.18718" lon="3.95375">
        <ele>132.8</ele>
        <time>2020-08-25T07:21:29.662Z</time>
      </trkpt>
      <trkpt lat="49.18708" lon="3.95351">
        <ele>133</ele>
        <time>2020-08-25T07:21:33.322Z</time>
      </trkpt>
      <trkpt lat="49.18698" lon="3.95326">
        <ele>133.4</ele>
        <time>2020-08-25T07:21:37.473Z</time>
      </trkpt>
      <trkpt lat="49.18695" lon="3.95318">
        <ele>133.6</ele>
        <time>2020-08-25T07:21:39.031Z</time>
      </trkpt>
      <trkpt lat="49.1869" lon="3.95291">
        <ele>134</ele>
        <time>2020-08-25T07:21:43.163Z</time>
      </trkpt>
      <trkpt lat="49.18684" lon="3.95254">
        <ele>135.2</ele>
        <time>2020-08-25T07:21:50.825Z</time>
      </trkpt>
      <trkpt lat="49.18679" lon="3.95238">
        <ele>135.6</ele>
        <time>2020-08-25T07:21:53.880Z</time>
      </trkpt>
      <trkpt lat="49.1867" lon="3.95231">
        <ele>135.6</ele>
        <time>2020-08-25T07:21:55.782Z</time>
      </trkpt>
      <trkpt lat="49.18664" lon="3.95232">
        <ele>136</ele>
        <time>2020-08-25T07:21:57.853Z</time>
      </trkpt>
      <trkpt lat="49.18658" lon="3.95233">
        <ele>136.2</ele>
        <time>2020-08-25T07:21:59.409Z</time>
      </trkpt>
      <trkpt lat="49.18634" lon="3.9524">
        <ele>137.2</ele>
        <time>2020-08-25T07:22:06.398Z</time>
      </trkpt>
      <trkpt lat="49.18621" lon="3.95245">
        <ele>137.4</ele>
        <time>2020-08-25T07:22:09.161Z</time>
      </trkpt>
      <trkpt lat="49.1859" lon="3.95251">
        <ele>137.8</ele>
        <time>2020-08-25T07:22:15.415Z</time>
      </trkpt>
      <trkpt lat="49.18584" lon="3.9525">
        <ele>138</ele>
        <time>2020-08-25T07:22:16.946Z</time>
      </trkpt>
      <trkpt lat="49.18567" lon="3.95252">
        <ele>138.4</ele>
        <time>2020-08-25T07:22:20.879Z</time>
      </trkpt>
      <trkpt lat="49.18551" lon="3.95258">
        <ele>139</ele>
        <time>2020-08-25T07:22:25.299Z</time>
      </trkpt>
      <trkpt lat="49.18546" lon="3.9526">
        <ele>139.2</ele>
        <time>2020-08-25T07:22:26.766Z</time>
      </trkpt>
      <trkpt lat="49.1854" lon="3.95263">
        <ele>139.4</ele>
        <time>2020-08-25T07:22:28.245Z</time>
      </trkpt>
      <trkpt lat="49.1852" lon="3.95278">
        <ele>140.2</ele>
        <time>2020-08-25T07:22:34.267Z</time>
      </trkpt>
      <trkpt lat="49.18485" lon="3.95303">
        <ele>141.8</ele>
        <time>2020-08-25T07:22:45.389Z</time>
      </trkpt>
      <trkpt lat="49.18478" lon="3.95308">
        <ele>141.8</ele>
        <time>2020-08-25T07:22:46.647Z</time>
      </trkpt>
      <trkpt lat="49.18445" lon="3.95333">
        <ele>141.6</ele>
        <time>2020-08-25T07:22:52.836Z</time>
      </trkpt>
      <trkpt lat="49.18431" lon="3.95343">
        <ele>141.4</ele>
        <time>2020-08-25T07:22:55.020Z</time>
      </trkpt>
      <trkpt lat="49.18423" lon="3.95349">
        <ele>141.4</ele>
        <time>2020-08-25T07:22:56.470Z</time>
      </trkpt>
      <trkpt lat="49.18416" lon="3.95354">
        <ele>141</ele>
        <time>2020-08-25T07:22:57.253Z</time>
      </trkpt>
      <trkpt lat="49.18393" lon="3.95369">
        <ele>140.4</ele>
        <time>2020-08-25T07:23:00.269Z</time>
      </trkpt>
      <trkpt lat="49.18377" lon="3.95378">
        <ele>140.2</ele>
        <time>2020-08-25T07:23:02.548Z</time>
      </trkpt>
      <trkpt lat="49.18338" lon="3.95393">
        <ele>138.4</ele>
        <time>2020-08-25T07:23:06.445Z</time>
      </trkpt>
      <trkpt lat="49.18317" lon="3.95399">
        <ele>138.4</ele>
        <time>2020-08-25T07:23:10.415Z</time>
      </trkpt>
      <trkpt lat="49.1829" lon="3.95407">
        <ele>138.4</ele>
        <time>2020-08-25T07:23:15.219Z</time>
      </trkpt>
      <trkpt lat="49.18284" lon="3.95409">
        <ele>138.4</ele>
        <time>2020-08-25T07:23:16.330Z</time>
      </trkpt>
      <trkpt lat="49.18278" lon="3.9541">
        <ele>138.6</ele>
        <time>2020-08-25T07:23:17.890Z</time>
      </trkpt>
      <trkpt lat="49.18272" lon="3.95412">
        <ele>138.8</ele>
        <time>2020-08-25T07:23:19.436Z</time>
      </trkpt>
      <trkpt lat="49.18261" lon="3.95415">
        <ele>139.4</ele>
        <time>2020-08-25T07:23:23.142Z</time>
      </trkpt>
      <trkpt lat="49.18255" lon="3.95417">
        <ele>139.6</ele>
        <time>2020-08-25T07:23:24.687Z</time>
      </trkpt>
      <trkpt lat="49.18209" lon="3.95431">
        <ele>141</ele>
        <time>2020-08-25T07:23:36.141Z</time>
      </trkpt>
      <trkpt lat="49.18198" lon="3.95434">
        <ele>141.6</ele>
        <time>2020-08-25T07:23:39.722Z</time>
      </trkpt>
      <trkpt lat="49.18172" lon="3.95441">
        <ele>142.8</ele>
        <time>2020-08-25T07:23:47.854Z</time>
      </trkpt>
      <trkpt lat="49.18161" lon="3.95444">
        <ele>143</ele>
        <time>2020-08-25T07:23:50.195Z</time>
      </trkpt>
      <trkpt lat="49.1815" lon="3.95447">
        <ele>143.6</ele>
        <time>2020-08-25T07:23:53.696Z</time>
      </trkpt>
      <trkpt lat="49.1814" lon="3.9545">
        <ele>143.8</ele>
        <time>2020-08-25T07:23:56.010Z</time>
      </trkpt>
      <trkpt lat="49.18113" lon="3.95455">
        <ele>144.6</ele>
        <time>2020-08-25T07:24:02.633Z</time>
      </trkpt>
      <trkpt lat="49.18096" lon="3.95456">
        <ele>145</ele>
        <time>2020-08-25T07:24:06.476Z</time>
      </trkpt>
      <trkpt lat="49.18053" lon="3.95451">
        <ele>145.8</ele>
        <time>2020-08-25T07:24:15.710Z</time>
      </trkpt>
      <trkpt lat="49.18047" lon="3.9545">
        <ele>146</ele>
        <time>2020-08-25T07:24:17.323Z</time>
      </trkpt>
      <trkpt lat="49.17995" lon="3.95438">
        <ele>145.8</ele>
        <time>2020-08-25T07:24:26.155Z</time>
      </trkpt>
      <trkpt lat="49.17989" lon="3.95436">
        <ele>146</ele>
        <time>2020-08-25T07:24:27.799Z</time>
      </trkpt>
      <trkpt lat="49.17982" lon="3.95435">
        <ele>146</ele>
        <time>2020-08-25T07:24:28.991Z</time>
      </trkpt>
      <trkpt lat="49.17929" lon="3.95421">
        <ele>145.6</ele>
        <time>2020-08-25T07:24:36.931Z</time>
      </trkpt>
      <trkpt lat="49.17916" lon="3.95418">
        <ele>145.6</ele>
        <time>2020-08-25T07:24:39.375Z</time>
      </trkpt>
      <trkpt lat="49.17909" lon="3.95416">
        <ele>145.8</ele>
        <time>2020-08-25T07:24:41.054Z</time>
      </trkpt>
      <trkpt lat="49.17902" lon="3.95415">
        <ele>145.6</ele>
        <time>2020-08-25T07:24:41.838Z</time>
      </trkpt>
      <trkpt lat="49.17881" lon="3.9541">
        <ele>145.6</ele>
        <time>2020-08-25T07:24:45.565Z</time>
      </trkpt>
      <trkpt lat="49.17847" lon="3.95401">
        <ele>145.4</ele>
        <time>2020-08-25T07:24:51.287Z</time>
      </trkpt>
      <trkpt lat="49.17819" lon="3.95395">
        <ele>144.2</ele>
        <time>2020-08-25T07:24:54.166Z</time>
      </trkpt>
      <trkpt lat="49.17782" lon="3.95386">
        <ele>143</ele>
        <time>2020-08-25T07:24:58.266Z</time>
      </trkpt>
      <trkpt lat="49.17774" lon="3.95384">
        <ele>143</ele>
        <time>2020-08-25T07:24:59.627Z</time>
      </trkpt>
      <trkpt lat="49.1772" lon="3.95371">
        <ele>141.6</ele>
        <time>2020-08-25T07:25:06.050Z</time>
      </trkpt>
      <trkpt lat="49.17706" lon="3.95367">
        <ele>140.6</ele>
        <time>2020-08-25T07:25:07.281Z</time>
      </trkpt>
      <trkpt lat="49.17698" lon="3.95365">
        <ele>140.4</ele>
        <time>2020-08-25T07:25:08.157Z</time>
      </trkpt>
      <trkpt lat="49.17691" lon="3.95364">
        <ele>140.2</ele>
        <time>2020-08-25T07:25:09.046Z</time>
      </trkpt>
      <trkpt lat="49.17668" lon="3.95358">
        <ele>139.8</ele>
        <time>2020-08-25T07:25:11.981Z</time>
      </trkpt>
      <trkpt lat="49.17622" lon="3.95347">
        <ele>139.2</ele>
        <time>2020-08-25T07:25:18.466Z</time>
      </trkpt>
      <trkpt lat="49.17582" lon="3.95342">
        <ele>138.2</ele>
        <time>2020-08-25T07:25:23.198Z</time>
      </trkpt>
      <trkpt lat="49.17574" lon="3.95343">
        <ele>138.2</ele>
        <time>2020-08-25T07:25:24.632Z</time>
      </trkpt>
      <trkpt lat="49.17566" lon="3.95345">
        <ele>138</ele>
        <time>2020-08-25T07:25:25.603Z</time>
      </trkpt>
      <trkpt lat="49.1755" lon="3.95354">
        <ele>137.8</ele>
        <time>2020-08-25T07:25:27.878Z</time>
      </trkpt>
      <trkpt lat="49.17543" lon="3.9536">
        <ele>137.6</ele>
        <time>2020-08-25T07:25:28.864Z</time>
      </trkpt>
      <trkpt lat="49.1753" lon="3.95375">
        <ele>137.4</ele>
        <time>2020-08-25T07:25:31.155Z</time>
      </trkpt>
      <trkpt lat="49.17519" lon="3.95393">
        <ele>137</ele>
        <time>2020-08-25T07:25:33.152Z</time>
      </trkpt>
      <trkpt lat="49.17494" lon="3.95445">
        <ele>136</ele>
        <time>2020-08-25T07:25:38.170Z</time>
      </trkpt>
      <trkpt lat="49.17489" lon="3.95456">
        <ele>136</ele>
        <time>2020-08-25T07:25:39.659Z</time>
      </trkpt>
      <trkpt lat="49.17458" lon="3.95528">
        <ele>136.2</ele>
        <time>2020-08-25T07:25:50.141Z</time>
      </trkpt>
      <trkpt lat="49.17427" lon="3.95599">
        <ele>137</ele>
        <time>2020-08-25T07:26:01.607Z</time>
      </trkpt>
      <trkpt lat="49.17423" lon="3.95609">
        <ele>137.2</ele>
        <time>2020-08-25T07:26:03.460Z</time>
      </trkpt>
      <trkpt lat="49.17396" lon="3.95671">
        <ele>137.2</ele>
        <time>2020-08-25T07:26:12.068Z</time>
      </trkpt>
      <trkpt lat="49.17388" lon="3.95692">
        <ele>137.4</ele>
        <time>2020-08-25T07:26:15.371Z</time>
      </trkpt>
      <trkpt lat="49.17365" lon="3.95744">
        <ele>137.2</ele>
        <time>2020-08-25T07:26:22.188Z</time>
      </trkpt>
      <trkpt lat="49.17352" lon="3.95775">
        <ele>137.4</ele>
        <time>2020-08-25T07:26:26.837Z</time>
      </trkpt>
      <trkpt lat="49.17348" lon="3.95785">
        <ele>137.4</ele>
        <time>2020-08-25T07:26:28.265Z</time>
      </trkpt>
      <trkpt lat="49.17334" lon="3.95816">
        <ele>137.6</ele>
        <time>2020-08-25T07:26:32.914Z</time>
      </trkpt>
      <trkpt lat="49.17321" lon="3.95846">
        <ele>137.6</ele>
        <time>2020-08-25T07:26:37.198Z</time>
      </trkpt>
      <trkpt lat="49.17307" lon="3.95877">
        <ele>137.6</ele>
        <time>2020-08-25T07:26:41.573Z</time>
      </trkpt>
      <trkpt lat="49.17285" lon="3.9592">
        <ele>137.6</ele>
        <time>2020-08-25T07:26:47.875Z</time>
      </trkpt>
      <trkpt lat="49.17279" lon="3.9593">
        <ele>137.4</ele>
        <time>2020-08-25T07:26:49.000Z</time>
      </trkpt>
      <trkpt lat="49.17249" lon="3.95985">
        <ele>137</ele>
        <time>2020-08-25T07:26:55.780Z</time>
      </trkpt>
      <trkpt lat="49.17237" lon="3.96007">
        <ele>136.6</ele>
        <time>2020-08-25T07:26:58.156Z</time>
      </trkpt>
      <trkpt lat="49.17225" lon="3.96029">
        <ele>136</ele>
        <time>2020-08-25T07:27:00.221Z</time>
      </trkpt>
      <trkpt lat="49.17219" lon="3.96039">
        <ele>135.8</ele>
        <time>2020-08-25T07:27:01.315Z</time>
      </trkpt>
      <trkpt lat="49.17208" lon="3.96058">
        <ele>135.4</ele>
        <time>2020-08-25T07:27:03.347Z</time>
      </trkpt>
      <trkpt lat="49.17202" lon="3.96068">
        <ele>135</ele>
        <time>2020-08-25T07:27:04.110Z</time>
      </trkpt>
      <trkpt lat="49.17187" lon="3.96096">
        <ele>134.6</ele>
        <time>2020-08-25T07:27:07.250Z</time>
      </trkpt>
      <trkpt lat="49.17167" lon="3.96133">
        <ele>134.6</ele>
        <time>2020-08-25T07:27:12.927Z</time>
      </trkpt>
      <trkpt lat="49.17157" lon="3.96153">
        <ele>134.6</ele>
        <time>2020-08-25T07:27:15.837Z</time>
      </trkpt>
      <trkpt lat="49.17142" lon="3.96186">
        <ele>134.4</ele>
        <time>2020-08-25T07:27:19.654Z</time>
      </trkpt>
      <trkpt lat="49.17132" lon="3.9621">
        <ele>134.6</ele>
        <time>2020-08-25T07:27:23.355Z</time>
      </trkpt>
      <trkpt lat="49.17123" lon="3.96237">
        <ele>134.6</ele>
        <time>2020-08-25T07:27:26.887Z</time>
      </trkpt>
      <trkpt lat="49.17113" lon="3.96264">
        <ele>134.6</ele>
        <time>2020-08-25T07:27:30.530Z</time>
      </trkpt>
      <trkpt lat="49.17104" lon="3.96292">
        <ele>134</ele>
        <time>2020-08-25T07:27:32.874Z</time>
      </trkpt>
      <trkpt lat="49.17099" lon="3.96306">
        <ele>133.8</ele>
        <time>2020-08-25T07:27:34.193Z</time>
      </trkpt>
      <trkpt lat="49.17071" lon="3.96387">
        <ele>130.6</ele>
        <time>2020-08-25T07:27:39.626Z</time>
      </trkpt>
      <trkpt lat="49.17062" lon="3.96413">
        <ele>129.2</ele>
        <time>2020-08-25T07:27:41.306Z</time>
      </trkpt>
      <trkpt lat="49.17058" lon="3.96426">
        <ele>128.8</ele>
        <time>2020-08-25T07:27:42.217Z</time>
      </trkpt>
      <trkpt lat="49.17042" lon="3.96471">
        <ele>128.4</ele>
        <time>2020-08-25T07:27:46.904Z</time>
      </trkpt>
      <trkpt lat="49.17039" lon="3.96482">
        <ele>128.6</ele>
        <time>2020-08-25T07:27:48.711Z</time>
      </trkpt>
      <trkpt lat="49.17035" lon="3.96492">
        <ele>128.6</ele>
        <time>2020-08-25T07:27:50.038Z</time>
      </trkpt>
      <trkpt lat="49.17029" lon="3.96511">
        <ele>128.4</ele>
        <time>2020-08-25T07:27:51.976Z</time>
      </trkpt>
      <trkpt lat="49.17022" lon="3.9653">
        <ele>129.2</ele>
        <time>2020-08-25T07:27:56.550Z</time>
      </trkpt>
      <trkpt lat="49.17016" lon="3.96548">
        <ele>130.2</ele>
        <time>2020-08-25T07:28:01.531Z</time>
      </trkpt>
      <trkpt lat="49.16991" lon="3.96622">
        <ele>135</ele>
        <time>2020-08-25T07:28:24.190Z</time>
      </trkpt>
      <trkpt lat="49.16984" lon="3.96641">
        <ele>135.2</ele>
        <time>2020-08-25T07:28:27.160Z</time>
      </trkpt>
      <trkpt lat="49.16956" lon="3.96723">
        <ele>135.4</ele>
        <time>2020-08-25T07:28:38.299Z</time>
      </trkpt>
      <trkpt lat="49.16946" lon="3.96755">
        <ele>135</ele>
        <time>2020-08-25T07:28:41.354Z</time>
      </trkpt>
      <trkpt lat="49.16932" lon="3.96797">
        <ele>134.8</ele>
        <time>2020-08-25T07:28:46.297Z</time>
      </trkpt>
      <trkpt lat="49.16917" lon="3.96847">
        <ele>134.8</ele>
        <time>2020-08-25T07:28:52.756Z</time>
      </trkpt>
      <trkpt lat="49.16911" lon="3.96866">
        <ele>135.2</ele>
        <time>2020-08-25T07:28:56.108Z</time>
      </trkpt>
      <trkpt lat="49.16899" lon="3.96902">
        <ele>136.6</ele>
        <time>2020-08-25T07:29:04.569Z</time>
      </trkpt>
      <trkpt lat="49.16888" lon="3.96937">
        <ele>137.6</ele>
        <time>2020-08-25T07:29:11.643Z</time>
      </trkpt>
      <trkpt lat="49.16886" lon="3.96945">
        <ele>138.2</ele>
        <time>2020-08-25T07:29:14.436Z</time>
      </trkpt>
      <trkpt lat="49.1688" lon="3.96962">
        <ele>139.2</ele>
        <time>2020-08-25T07:29:19.280Z</time>
      </trkpt>
      <trkpt lat="49.16872" lon="3.96987">
        <ele>140</ele>
        <time>2020-08-25T07:29:24.709Z</time>
      </trkpt>
      <trkpt lat="49.16861" lon="3.97021">
        <ele>141.4</ele>
        <time>2020-08-25T07:29:32.736Z</time>
      </trkpt>
      <trkpt lat="49.16859" lon="3.97029">
        <ele>141.8</ele>
        <time>2020-08-25T07:29:34.888Z</time>
      </trkpt>
      <trkpt lat="49.16842" lon="3.97082">
        <ele>144.4</ele>
        <time>2020-08-25T07:29:48.462Z</time>
      </trkpt>
      <trkpt lat="49.16839" lon="3.97091">
        <ele>144.6</ele>
        <time>2020-08-25T07:29:50.056Z</time>
      </trkpt>
      <trkpt lat="49.16826" lon="3.97134">
        <ele>145.6</ele>
        <time>2020-08-25T07:29:57.924Z</time>
      </trkpt>
      <trkpt lat="49.16814" lon="3.97178">
        <ele>146.8</ele>
        <time>2020-08-25T07:30:06.509Z</time>
      </trkpt>
      <trkpt lat="49.16806" lon="3.97213">
        <ele>147.6</ele>
        <time>2020-08-25T07:30:12.769Z</time>
      </trkpt>
      <trkpt lat="49.16802" lon="3.97221">
        <ele>147.8</ele>
        <time>2020-08-25T07:30:14.376Z</time>
      </trkpt>
      <trkpt lat="49.16797" lon="3.97228">
        <ele>147.6</ele>
        <time>2020-08-25T07:30:15.124Z</time>
      </trkpt>
      <trkpt lat="49.16791" lon="3.97233">
        <ele>147.6</ele>
        <time>2020-08-25T07:30:16.346Z</time>
      </trkpt>
      <trkpt lat="49.16784" lon="3.97235">
        <ele>147.8</ele>
        <time>2020-08-25T07:30:18.070Z</time>
      </trkpt>
      <trkpt lat="49.16777" lon="3.97236">
        <ele>147.6</ele>
        <time>2020-08-25T07:30:18.965Z</time>
      </trkpt>
      <trkpt lat="49.16744" lon="3.97235">
        <ele>147.4</ele>
        <time>2020-08-25T07:30:24.383Z</time>
      </trkpt>
      <trkpt lat="49.16726" lon="3.97233">
        <ele>146.6</ele>
        <time>2020-08-25T07:30:26.119Z</time>
      </trkpt>
      <trkpt lat="49.16698" lon="3.97232">
        <ele>145.8</ele>
        <time>2020-08-25T07:30:29.263Z</time>
      </trkpt>
      <trkpt lat="49.16689" lon="3.97231">
        <ele>145.2</ele>
        <time>2020-08-25T07:30:30.070Z</time>
      </trkpt>
      <trkpt lat="49.16679" lon="3.97231">
        <ele>145</ele>
        <time>2020-08-25T07:30:31.267Z</time>
      </trkpt>
      <trkpt lat="49.16649" lon="3.97229">
        <ele>143.2</ele>
        <time>2020-08-25T07:30:33.814Z</time>
      </trkpt>
      <trkpt lat="49.16639" lon="3.97228">
        <ele>142.4</ele>
        <time>2020-08-25T07:30:34.703Z</time>
      </trkpt>
      <trkpt lat="49.16599" lon="3.97226">
        <ele>139.4</ele>
        <time>2020-08-25T07:30:38.247Z</time>
      </trkpt>
      <trkpt lat="49.16543" lon="3.97223">
        <ele>135.2</ele>
        <time>2020-08-25T07:30:43.249Z</time>
      </trkpt>
      <trkpt lat="49.16534" lon="3.97222">
        <ele>135.2</ele>
        <time>2020-08-25T07:30:44.788Z</time>
      </trkpt>
      <trkpt lat="49.16526" lon="3.97222">
        <ele>135.2</ele>
        <time>2020-08-25T07:30:46.308Z</time>
      </trkpt>
      <trkpt lat="49.16518" lon="3.97222">
        <ele>135</ele>
        <time>2020-08-25T07:30:47.290Z</time>
      </trkpt>
      <trkpt lat="49.16502" lon="3.97222">
        <ele>135</ele>
        <time>2020-08-25T07:30:50.186Z</time>
      </trkpt>
      <trkpt lat="49.16479" lon="3.97226">
        <ele>135</ele>
        <time>2020-08-25T07:30:54.330Z</time>
      </trkpt>
      <trkpt lat="49.16471" lon="3.97229">
        <ele>135</ele>
        <time>2020-08-25T07:30:55.667Z</time>
      </trkpt>
      <trkpt lat="49.16451" lon="3.97242">
        <ele>136.8</ele>
        <time>2020-08-25T07:31:04.297Z</time>
      </trkpt>
      <trkpt lat="49.16446" lon="3.97247">
        <ele>137.8</ele>
        <time>2020-08-25T07:31:08.888Z</time>
      </trkpt>
      <trkpt lat="49.16427" lon="3.97269">
        <ele>140.4</ele>
        <time>2020-08-25T07:31:21.034Z</time>
      </trkpt>
      <trkpt lat="49.16423" lon="3.97275">
        <ele>140.8</ele>
        <time>2020-08-25T07:31:23.049Z</time>
      </trkpt>
      <trkpt lat="49.16419" lon="3.97281">
        <ele>141</ele>
        <time>2020-08-25T07:31:24.482Z</time>
      </trkpt>
      <trkpt lat="49.16413" lon="3.97293">
        <ele>141.6</ele>
        <time>2020-08-25T07:31:27.807Z</time>
      </trkpt>
      <trkpt lat="49.1641" lon="3.97298">
        <ele>141.8</ele>
        <time>2020-08-25T07:31:29.183Z</time>
      </trkpt>
      <trkpt lat="49.16407" lon="3.97303">
        <ele>142.2</ele>
        <time>2020-08-25T07:31:31.090Z</time>
      </trkpt>
      <trkpt lat="49.16403" lon="3.97308">
        <ele>142.4</ele>
        <time>2020-08-25T07:31:32.459Z</time>
      </trkpt>
      <trkpt lat="49.16386" lon="3.97339">
        <ele>144.2</ele>
        <time>2020-08-25T07:31:41.853Z</time>
      </trkpt>
      <trkpt lat="49.16372" lon="3.97363">
        <ele>146</ele>
        <time>2020-08-25T07:31:50.418Z</time>
      </trkpt>
      <trkpt lat="49.16364" lon="3.97377">
        <ele>146.6</ele>
        <time>2020-08-25T07:31:54.234Z</time>
      </trkpt>
      <trkpt lat="49.16361" lon="3.97381">
        <ele>147</ele>
        <time>2020-08-25T07:31:56.100Z</time>
      </trkpt>
      <trkpt lat="49.1635" lon="3.97401">
        <ele>148</ele>
        <time>2020-08-25T07:32:01.705Z</time>
      </trkpt>
      <trkpt lat="49.16338" lon="3.9742">
        <ele>149.6</ele>
        <time>2020-08-25T07:32:09.181Z</time>
      </trkpt>
      <trkpt lat="49.16327" lon="3.9744">
        <ele>150.4</ele>
        <time>2020-08-25T07:32:14.346Z</time>
      </trkpt>
      <trkpt lat="49.16322" lon="3.97449">
        <ele>151</ele>
        <time>2020-08-25T07:32:17.412Z</time>
      </trkpt>
      <trkpt lat="49.16313" lon="3.97463">
        <ele>151.8</ele>
        <time>2020-08-25T07:32:21.682Z</time>
      </trkpt>
      <trkpt lat="49.16311" lon="3.97467">
        <ele>151.6</ele>
        <time>2020-08-25T07:32:22.058Z</time>
      </trkpt>
      <trkpt lat="49.16302" lon="3.97482">
        <ele>152.4</ele>
        <time>2020-08-25T07:32:26.336Z</time>
      </trkpt>
      <trkpt lat="49.16297" lon="3.97491">
        <ele>153.2</ele>
        <time>2020-08-25T07:32:30.063Z</time>
      </trkpt>
      <trkpt lat="49.16291" lon="3.975">
        <ele>154.2</ele>
        <time>2020-08-25T07:32:34.929Z</time>
      </trkpt>
      <trkpt lat="49.16286" lon="3.97509">
        <ele>154.4</ele>
        <time>2020-08-25T07:32:36.819Z</time>
      </trkpt>
      <trkpt lat="49.16272" lon="3.97532">
        <ele>156</ele>
        <time>2020-08-25T07:32:44.642Z</time>
      </trkpt>
      <trkpt lat="49.16263" lon="3.97546">
        <ele>156.8</ele>
        <time>2020-08-25T07:32:48.951Z</time>
      </trkpt>
      <trkpt lat="49.16243" lon="3.9758">
        <ele>158.4</ele>
        <time>2020-08-25T07:32:58.496Z</time>
      </trkpt>
      <trkpt lat="49.16231" lon="3.976">
        <ele>159.4</ele>
        <time>2020-08-25T07:33:04.269Z</time>
      </trkpt>
      <trkpt lat="49.16225" lon="3.97609">
        <ele>159.8</ele>
        <time>2020-08-25T07:33:06.986Z</time>
      </trkpt>
      <trkpt lat="49.16217" lon="3.97618">
        <ele>159.8</ele>
        <time>2020-08-25T07:33:08.647Z</time>
      </trkpt>
      <trkpt lat="49.16205" lon="3.9763">
        <ele>160.4</ele>
        <time>2020-08-25T07:33:12.818Z</time>
      </trkpt>
      <trkpt lat="49.16201" lon="3.97633">
        <ele>160.6</ele>
        <time>2020-08-25T07:33:14.231Z</time>
      </trkpt>
      <trkpt lat="49.16176" lon="3.97645">
        <ele>161.8</ele>
        <time>2020-08-25T07:33:22.038Z</time>
      </trkpt>
      <trkpt lat="49.16171" lon="3.97647">
        <ele>162</ele>
        <time>2020-08-25T07:33:23.474Z</time>
      </trkpt>
      <trkpt lat="49.16155" lon="3.97649">
        <ele>162.4</ele>
        <time>2020-08-25T07:33:27.244Z</time>
      </trkpt>
      <trkpt lat="49.16149" lon="3.97648">
        <ele>162.4</ele>
        <time>2020-08-25T07:33:28.270Z</time>
      </trkpt>
      <trkpt lat="49.1612" lon="3.97641">
        <ele>162.8</ele>
        <time>2020-08-25T07:33:34.310Z</time>
      </trkpt>
      <trkpt lat="49.16102" lon="3.97636">
        <ele>162.8</ele>
        <time>2020-08-25T07:33:37.594Z</time>
      </trkpt>
      <trkpt lat="49.16054" lon="3.97623">
        <ele>163.2</ele>
        <time>2020-08-25T07:33:46.963Z</time>
      </trkpt>
      <trkpt lat="49.16019" lon="3.97624">
        <ele>163.4</ele>
        <time>2020-08-25T07:33:53.602Z</time>
      </trkpt>
      <trkpt lat="49.15996" lon="3.97626">
        <ele>163.6</ele>
        <time>2020-08-25T07:33:58.042Z</time>
      </trkpt>
      <trkpt lat="49.15985" lon="3.97624">
        <ele>163.6</ele>
        <time>2020-08-25T07:34:00.109Z</time>
      </trkpt>
      <trkpt lat="49.15979" lon="3.97622">
        <ele>163.6</ele>
        <time>2020-08-25T07:34:01.105Z</time>
      </trkpt>
      <trkpt lat="49.15959" lon="3.97613">
        <ele>163.8</ele>
        <time>2020-08-25T07:34:05.302Z</time>
      </trkpt>
      <trkpt lat="49.15944" lon="3.97607">
        <ele>163.8</ele>
        <time>2020-08-25T07:34:08.051Z</time>
      </trkpt>
      <trkpt lat="49.15934" lon="3.97604">
        <ele>164</ele>
        <time>2020-08-25T07:34:10.200Z</time>
      </trkpt>
      <trkpt lat="49.1593" lon="3.97601">
        <ele>164.4</ele>
        <time>2020-08-25T07:34:12.098Z</time>
      </trkpt>
      <trkpt lat="49.15917" lon="3.97596">
        <ele>165.2</ele>
        <time>2020-08-25T07:34:16.536Z</time>
      </trkpt>
      <trkpt lat="49.15909" lon="3.97592">
        <ele>165.6</ele>
        <time>2020-08-25T07:34:19.162Z</time>
      </trkpt>
      <trkpt lat="49.15897" lon="3.97588">
        <ele>166.4</ele>
        <time>2020-08-25T07:34:23.467Z</time>
      </trkpt>
      <trkpt lat="49.15886" lon="3.97583">
        <ele>167.4</ele>
        <time>2020-08-25T07:34:28.230Z</time>
      </trkpt>
      <trkpt lat="49.15871" lon="3.97577">
        <ele>168.4</ele>
        <time>2020-08-25T07:34:33.571Z</time>
      </trkpt>
      <trkpt lat="49.15853" lon="3.9757">
        <ele>170</ele>
        <time>2020-08-25T07:34:41.199Z</time>
      </trkpt>
      <trkpt lat="49.15849" lon="3.97568">
        <ele>170.2</ele>
        <time>2020-08-25T07:34:42.393Z</time>
      </trkpt>
      <trkpt lat="49.15842" lon="3.97565">
        <ele>170.8</ele>
        <time>2020-08-25T07:34:45.291Z</time>
      </trkpt>
      <trkpt lat="49.15824" lon="3.97558">
        <ele>172</ele>
        <time>2020-08-25T07:34:51.667Z</time>
      </trkpt>
      <trkpt lat="49.15817" lon="3.97556">
        <ele>172.8</ele>
        <time>2020-08-25T07:34:55.406Z</time>
      </trkpt>
      <trkpt lat="49.15806" lon="3.97552">
        <ele>174</ele>
        <time>2020-08-25T07:35:00.998Z</time>
      </trkpt>
      <trkpt lat="49.15795" lon="3.97548">
        <ele>174.6</ele>
        <time>2020-08-25T07:35:04.615Z</time>
      </trkpt>
      <trkpt lat="49.1578" lon="3.97542">
        <ele>175.8</ele>
        <time>2020-08-25T07:35:10.564Z</time>
      </trkpt>
      <trkpt lat="49.15772" lon="3.97538">
        <ele>176.2</ele>
        <time>2020-08-25T07:35:13.031Z</time>
      </trkpt>
      <trkpt lat="49.15761" lon="3.97534">
        <ele>177</ele>
        <time>2020-08-25T07:35:17.191Z</time>
      </trkpt>
      <trkpt lat="49.15746" lon="3.97527">
        <ele>178.2</ele>
        <time>2020-08-25T07:35:23.118Z</time>
      </trkpt>
      <trkpt lat="49.15738" lon="3.97524">
        <ele>178.6</ele>
        <time>2020-08-25T07:35:25.570Z</time>
      </trkpt>
      <trkpt lat="49.15731" lon="3.9752">
        <ele>178.8</ele>
        <time>2020-08-25T07:35:27.368Z</time>
      </trkpt>
      <trkpt lat="49.15712" lon="3.97513">
        <ele>180.4</ele>
        <time>2020-08-25T07:35:35.062Z</time>
      </trkpt>
      <trkpt lat="49.15705" lon="3.9751">
        <ele>180.8</ele>
        <time>2020-08-25T07:35:37.531Z</time>
      </trkpt>
      <trkpt lat="49.15682" lon="3.97501">
        <ele>182.8</ele>
        <time>2020-08-25T07:35:47.032Z</time>
      </trkpt>
      <trkpt lat="49.15664" lon="3.97493">
        <ele>184.6</ele>
        <time>2020-08-25T07:35:55.457Z</time>
      </trkpt>
      <trkpt lat="49.1566" lon="3.97492">
        <ele>184.6</ele>
        <time>2020-08-25T07:35:56.135Z</time>
      </trkpt>
      <trkpt lat="49.15638" lon="3.97484">
        <ele>186.4</ele>
        <time>2020-08-25T07:36:04.965Z</time>
      </trkpt>
      <trkpt lat="49.15627" lon="3.97479">
        <ele>187.4</ele>
        <time>2020-08-25T07:36:09.700Z</time>
      </trkpt>
      <trkpt lat="49.15623" lon="3.97477">
        <ele>187.6</ele>
        <time>2020-08-25T07:36:10.938Z</time>
      </trkpt>
      <trkpt lat="49.15604" lon="3.9747">
        <ele>189</ele>
        <time>2020-08-25T07:36:18.015Z</time>
      </trkpt>
      <trkpt lat="49.15593" lon="3.97465">
        <ele>189.8</ele>
        <time>2020-08-25T07:36:22.181Z</time>
      </trkpt>
      <trkpt lat="49.15585" lon="3.97461">
        <ele>190.6</ele>
        <time>2020-08-25T07:36:25.900Z</time>
      </trkpt>
      <trkpt lat="49.15571" lon="3.97451">
        <ele>191.6</ele>
        <time>2020-08-25T07:36:31.283Z</time>
      </trkpt>
      <trkpt lat="49.15568" lon="3.97448">
        <ele>191.8</ele>
        <time>2020-08-25T07:36:32.514Z</time>
      </trkpt>
      <trkpt lat="49.15556" lon="3.97433">
        <ele>193</ele>
        <time>2020-08-25T07:36:38.391Z</time>
      </trkpt>
      <trkpt lat="49.15549" lon="3.9742">
        <ele>194</ele>
        <time>2020-08-25T07:36:43.096Z</time>
      </trkpt>
      <trkpt lat="49.15539" lon="3.97396">
        <ele>195.2</ele>
        <time>2020-08-25T07:36:49.484Z</time>
      </trkpt>
      <trkpt lat="49.15536" lon="3.97385">
        <ele>195.4</ele>
        <time>2020-08-25T07:36:51.277Z</time>
      </trkpt>
      <trkpt lat="49.15529" lon="3.97339">
        <ele>197.4</ele>
        <time>2020-08-25T07:37:02.014Z</time>
      </trkpt>
      <trkpt lat="49.15527" lon="3.97328">
        <ele>197.6</ele>
        <time>2020-08-25T07:37:03.789Z</time>
      </trkpt>
      <trkpt lat="49.15523" lon="3.97305">
        <ele>197.8</ele>
        <time>2020-08-25T07:37:06.906Z</time>
      </trkpt>
      <trkpt lat="49.15519" lon="3.97282">
        <ele>198.4</ele>
        <time>2020-08-25T07:37:11.239Z</time>
      </trkpt>
      <trkpt lat="49.15513" lon="3.97238">
        <ele>200.4</ele>
        <time>2020-08-25T07:37:21.681Z</time>
      </trkpt>
      <trkpt lat="49.15512" lon="3.97231">
        <ele>200.6</ele>
        <time>2020-08-25T07:37:23.023Z</time>
      </trkpt>
      <trkpt lat="49.15509" lon="3.97203">
        <ele>201.6</ele>
        <time>2020-08-25T07:37:28.952Z</time>
      </trkpt>
      <trkpt lat="49.15508" lon="3.97167">
        <ele>202.4</ele>
        <time>2020-08-25T07:37:35.111Z</time>
      </trkpt>
      <trkpt lat="49.15512" lon="3.97114">
        <ele>204</ele>
        <time>2020-08-25T07:37:45.638Z</time>
      </trkpt>
      <trkpt lat="49.15513" lon="3.97107">
        <ele>204.4</ele>
        <time>2020-08-25T07:37:47.557Z</time>
      </trkpt>
      <trkpt lat="49.1552" lon="3.97052">
        <ele>205.4</ele>
        <time>2020-08-25T07:37:56.320Z</time>
      </trkpt>
      <trkpt lat="49.15524" lon="3.97025">
        <ele>206.2</ele>
        <time>2020-08-25T07:38:01.721Z</time>
      </trkpt>
      <trkpt lat="49.15527" lon="3.97006">
        <ele>206.4</ele>
        <time>2020-08-25T07:38:04.474Z</time>
      </trkpt>
      <trkpt lat="49.15529" lon="3.96992">
        <ele>206.6</ele>
        <time>2020-08-25T07:38:06.478Z</time>
      </trkpt>
      <trkpt lat="49.15531" lon="3.96972">
        <ele>207</ele>
        <time>2020-08-25T07:38:09.748Z</time>
      </trkpt>
      <trkpt lat="49.15536" lon="3.96946">
        <ele>208</ele>
        <time>2020-08-25T07:38:15.607Z</time>
      </trkpt>
      <trkpt lat="49.15538" lon="3.96932">
        <ele>208</ele>
        <time>2020-08-25T07:38:17.236Z</time>
      </trkpt>
      <trkpt lat="49.15543" lon="3.96899">
        <ele>209.6</ele>
        <time>2020-08-25T07:38:25.323Z</time>
      </trkpt>
      <trkpt lat="49.15544" lon="3.96893">
        <ele>209.8</ele>
        <time>2020-08-25T07:38:26.652Z</time>
      </trkpt>
      <trkpt lat="49.15549" lon="3.96854">
        <ele>211</ele>
        <time>2020-08-25T07:38:34.512Z</time>
      </trkpt>
      <trkpt lat="49.15553" lon="3.9683">
        <ele>211.8</ele>
        <time>2020-08-25T07:38:39.580Z</time>
      </trkpt>
      <trkpt lat="49.15557" lon="3.96805">
        <ele>212.6</ele>
        <time>2020-08-25T07:38:44.693Z</time>
      </trkpt>
      <trkpt lat="49.15558" lon="3.96799">
        <ele>213</ele>
        <time>2020-08-25T07:38:46.557Z</time>
      </trkpt>
      <trkpt lat="49.15563" lon="3.96767">
        <ele>214.2</ele>
        <time>2020-08-25T07:38:53.564Z</time>
      </trkpt>
      <trkpt lat="49.15564" lon="3.9676">
        <ele>214.4</ele>
        <time>2020-08-25T07:38:54.906Z</time>
      </trkpt>
      <trkpt lat="49.15567" lon="3.96741">
        <ele>215.4</ele>
        <time>2020-08-25T07:38:59.851Z</time>
      </trkpt>
      <trkpt lat="49.15572" lon="3.96709">
        <ele>218</ele>
        <time>2020-08-25T07:39:12.406Z</time>
      </trkpt>
      <trkpt lat="49.15576" lon="3.96683">
        <ele>219</ele>
        <time>2020-08-25T07:39:18.122Z</time>
      </trkpt>
      <trkpt lat="49.15579" lon="3.96657">
        <ele>219.8</ele>
        <time>2020-08-25T07:39:23.406Z</time>
      </trkpt>
      <trkpt lat="49.1558" lon="3.96651">
        <ele>220.4</ele>
        <time>2020-08-25T07:39:26.388Z</time>
      </trkpt>
      <trkpt lat="49.15584" lon="3.96625">
        <ele>221.4</ele>
        <time>2020-08-25T07:39:32.033Z</time>
      </trkpt>
      <trkpt lat="49.15584" lon="3.96619">
        <ele>221.8</ele>
        <time>2020-08-25T07:39:33.897Z</time>
      </trkpt>
      <trkpt lat="49.15585" lon="3.96606">
        <ele>222.4</ele>
        <time>2020-08-25T07:39:36.939Z</time>
      </trkpt>
      <trkpt lat="49.15585" lon="3.966">
        <ele>222.8</ele>
        <time>2020-08-25T07:39:38.808Z</time>
      </trkpt>
      <trkpt lat="49.15586" lon="3.96558">
        <ele>224.6</ele>
        <time>2020-08-25T07:39:48.301Z</time>
      </trkpt>
      <trkpt lat="49.15586" lon="3.96545">
        <ele>225.2</ele>
        <time>2020-08-25T07:39:51.452Z</time>
      </trkpt>
      <trkpt lat="49.15585" lon="3.96531">
        <ele>225.8</ele>
        <time>2020-08-25T07:39:54.575Z</time>
      </trkpt>
      <trkpt lat="49.15584" lon="3.96525">
        <ele>226</ele>
        <time>2020-08-25T07:39:55.918Z</time>
      </trkpt>
      <trkpt lat="49.15582" lon="3.96499">
        <ele>226.4</ele>
        <time>2020-08-25T07:39:59.827Z</time>
      </trkpt>
      <trkpt lat="49.15581" lon="3.96492">
        <ele>226.4</ele>
        <time>2020-08-25T07:40:00.588Z</time>
      </trkpt>
      <trkpt lat="49.15577" lon="3.9646">
        <ele>227.6</ele>
        <time>2020-08-25T07:40:07.616Z</time>
      </trkpt>
      <trkpt lat="49.15574" lon="3.96428">
        <ele>228.8</ele>
        <time>2020-08-25T07:40:14.514Z</time>
      </trkpt>
      <trkpt lat="49.15574" lon="3.96421">
        <ele>229.2</ele>
        <time>2020-08-25T07:40:16.387Z</time>
      </trkpt>
      <trkpt lat="49.15574" lon="3.96415">
        <ele>229.4</ele>
        <time>2020-08-25T07:40:17.719Z</time>
      </trkpt>
      <trkpt lat="49.15574" lon="3.96401">
        <ele>229.8</ele>
        <time>2020-08-25T07:40:20.369Z</time>
      </trkpt>
      <trkpt lat="49.15574" lon="3.96381">
        <ele>230.4</ele>
        <time>2020-08-25T07:40:24.436Z</time>
      </trkpt>
      <trkpt lat="49.15574" lon="3.96367">
        <ele>231.2</ele>
        <time>2020-08-25T07:40:28.232Z</time>
      </trkpt>
      <trkpt lat="49.15574" lon="3.96337">
        <ele>232</ele>
        <time>2020-08-25T07:40:33.823Z</time>
      </trkpt>
      <trkpt lat="49.15575" lon="3.96329">
        <ele>232.6</ele>
        <time>2020-08-25T07:40:36.782Z</time>
      </trkpt>
      <trkpt lat="49.15576" lon="3.963">
        <ele>233.6</ele>
        <time>2020-08-25T07:40:42.905Z</time>
      </trkpt>
      <trkpt lat="49.15577" lon="3.96292">
        <ele>233.8</ele>
        <time>2020-08-25T07:40:44.314Z</time>
      </trkpt>
      <trkpt lat="49.1558" lon="3.9627">
        <ele>234.6</ele>
        <time>2020-08-25T07:40:49.124Z</time>
      </trkpt>
      <trkpt lat="49.15584" lon="3.96247">
        <ele>235.4</ele>
        <time>2020-08-25T07:40:53.978Z</time>
      </trkpt>
      <trkpt lat="49.15587" lon="3.96233">
        <ele>236</ele>
        <time>2020-08-25T07:40:57.253Z</time>
      </trkpt>
      <trkpt lat="49.1559" lon="3.9622">
        <ele>236.6</ele>
        <time>2020-08-25T07:41:00.465Z</time>
      </trkpt>
      <trkpt lat="49.15594" lon="3.962">
        <ele>237.4</ele>
        <time>2020-08-25T07:41:05.016Z</time>
      </trkpt>
      <trkpt lat="49.15601" lon="3.96181">
        <ele>238.2</ele>
        <time>2020-08-25T07:41:09.640Z</time>
      </trkpt>
      <trkpt lat="49.15603" lon="3.96175">
        <ele>238.4</ele>
        <time>2020-08-25T07:41:11.012Z</time>
      </trkpt>
      <trkpt lat="49.15612" lon="3.96142">
        <ele>239.8</ele>
        <time>2020-08-25T07:41:18.769Z</time>
      </trkpt>
      <trkpt lat="49.15613" lon="3.96135">
        <ele>240.2</ele>
        <time>2020-08-25T07:41:20.685Z</time>
      </trkpt>
      <trkpt lat="49.15614" lon="3.96128">
        <ele>240.6</ele>
        <time>2020-08-25T07:41:22.589Z</time>
      </trkpt>
      <trkpt lat="49.15616" lon="3.96121">
        <ele>240.8</ele>
        <time>2020-08-25T07:41:23.975Z</time>
      </trkpt>
      <trkpt lat="49.15618" lon="3.96107">
        <ele>241.6</ele>
        <time>2020-08-25T07:41:27.829Z</time>
      </trkpt>
      <trkpt lat="49.15621" lon="3.96093">
        <ele>241.8</ele>
        <time>2020-08-25T07:41:29.940Z</time>
      </trkpt>
      <trkpt lat="49.15622" lon="3.96086">
        <ele>242</ele>
        <time>2020-08-25T07:41:31.329Z</time>
      </trkpt>
      <trkpt lat="49.15626" lon="3.96056">
        <ele>243.4</ele>
        <time>2020-08-25T07:41:38.445Z</time>
      </trkpt>
      <trkpt lat="49.15631" lon="3.96028">
        <ele>244.6</ele>
        <time>2020-08-25T07:41:44.938Z</time>
      </trkpt>
      <trkpt lat="49.15632" lon="3.96022">
        <ele>244.8</ele>
        <time>2020-08-25T07:41:46.305Z</time>
      </trkpt>
      <trkpt lat="49.1564" lon="3.9598">
        <ele>245.8</ele>
        <time>2020-08-25T07:41:53.764Z</time>
      </trkpt>
      <trkpt lat="49.15642" lon="3.95967">
        <ele>246.2</ele>
        <time>2020-08-25T07:41:56.491Z</time>
      </trkpt>
      <trkpt lat="49.15648" lon="3.95929">
        <ele>247.4</ele>
        <time>2020-08-25T07:42:04.252Z</time>
      </trkpt>
      <trkpt lat="49.15649" lon="3.95921">
        <ele>247.4</ele>
        <time>2020-08-25T07:42:05.215Z</time>
      </trkpt>
      <trkpt lat="49.15654" lon="3.9588">
        <ele>248.4</ele>
        <time>2020-08-25T07:42:12.558Z</time>
      </trkpt>
      <trkpt lat="49.15654" lon="3.95855">
        <ele>249.2</ele>
        <time>2020-08-25T07:42:17.620Z</time>
      </trkpt>
      <trkpt lat="49.15655" lon="3.95807">
        <ele>250.4</ele>
        <time>2020-08-25T07:42:26.272Z</time>
      </trkpt>
      <trkpt lat="49.15655" lon="3.95783">
        <ele>250.4</ele>
        <time>2020-08-25T07:42:29.066Z</time>
      </trkpt>
      <trkpt lat="49.15656" lon="3.95734">
        <ele>251.6</ele>
        <time>2020-08-25T07:42:37.816Z</time>
      </trkpt>
      <trkpt lat="49.15657" lon="3.95717">
        <ele>252.2</ele>
        <time>2020-08-25T07:42:41.348Z</time>
      </trkpt>
      <trkpt lat="49.15657" lon="3.95708">
        <ele>252.4</ele>
        <time>2020-08-25T07:42:42.840Z</time>
      </trkpt>
      <trkpt lat="49.15658" lon="3.95648">
        <ele>252.6</ele>
        <time>2020-08-25T07:42:50.187Z</time>
      </trkpt>
      <trkpt lat="49.15658" lon="3.95631">
        <ele>252.8</ele>
        <time>2020-08-25T07:42:52.578Z</time>
      </trkpt>
      <trkpt lat="49.15657" lon="3.95571">
        <ele>253.4</ele>
        <time>2020-08-25T07:43:00.816Z</time>
      </trkpt>
      <trkpt lat="49.15657" lon="3.95562">
        <ele>253.6</ele>
        <time>2020-08-25T07:43:02.308Z</time>
      </trkpt>
      <trkpt lat="49.15657" lon="3.9551">
        <ele>254</ele>
        <time>2020-08-25T07:43:09.087Z</time>
      </trkpt>
      <trkpt lat="49.15657" lon="3.95493">
        <ele>254.2</ele>
        <time>2020-08-25T07:43:11.546Z</time>
      </trkpt>
      <trkpt lat="49.15656" lon="3.95428">
        <ele>254.4</ele>
        <time>2020-08-25T07:43:19.419Z</time>
      </trkpt>
      <trkpt lat="49.15656" lon="3.95419">
        <ele>254.6</ele>
        <time>2020-08-25T07:43:20.975Z</time>
      </trkpt>
      <trkpt lat="49.15655" lon="3.95334">
        <ele>256.2</ele>
        <time>2020-08-25T07:43:34.481Z</time>
      </trkpt>
      <trkpt lat="49.15654" lon="3.95297">
        <ele>256.6</ele>
        <time>2020-08-25T07:43:39.545Z</time>
      </trkpt>
      <trkpt lat="49.15654" lon="3.95242">
        <ele>257.4</ele>
        <time>2020-08-25T07:43:47.653Z</time>
      </trkpt>
      <trkpt lat="49.15653" lon="3.95187">
        <ele>258.4</ele>
        <time>2020-08-25T07:43:56.280Z</time>
      </trkpt>
      <trkpt lat="49.15653" lon="3.95169">
        <ele>258.4</ele>
        <time>2020-08-25T07:43:58.314Z</time>
      </trkpt>
      <trkpt lat="49.15654" lon="3.95161">
        <ele>258.6</ele>
        <time>2020-08-25T07:43:59.809Z</time>
      </trkpt>
      <trkpt lat="49.15654" lon="3.95134">
        <ele>258.8</ele>
        <time>2020-08-25T07:44:03.297Z</time>
      </trkpt>
      <trkpt lat="49.15655" lon="3.95125">
        <ele>258.8</ele>
        <time>2020-08-25T07:44:04.304Z</time>
      </trkpt>
      <trkpt lat="49.15652" lon="3.95051">
        <ele>260</ele>
        <time>2020-08-25T07:44:15.585Z</time>
      </trkpt>
      <trkpt lat="49.15651" lon="3.95034">
        <ele>260.2</ele>
        <time>2020-08-25T07:44:17.988Z</time>
      </trkpt>
      <trkpt lat="49.15651" lon="3.95025">
        <ele>260.4</ele>
        <time>2020-08-25T07:44:19.450Z</time>
      </trkpt>
      <trkpt lat="49.15648" lon="3.95017">
        <ele>260.6</ele>
        <time>2020-08-25T07:44:21.011Z</time>
      </trkpt>
      <trkpt lat="49.15646" lon="3.95025">
        <ele>260.8</ele>
        <time>2020-08-25T07:44:22.511Z</time>
      </trkpt>
      <trkpt lat="49.15646" lon="3.95051">
        <ele>261.2</ele>
        <time>2020-08-25T07:44:26.343Z</time>
      </trkpt>
      <trkpt lat="49.15646" lon="3.95103">
        <ele>261.4</ele>
        <time>2020-08-25T07:44:32.768Z</time>
      </trkpt>
      <trkpt lat="49.15646" lon="3.95112">
        <ele>261.2</ele>
        <time>2020-08-25T07:44:33.424Z</time>
      </trkpt>
      <trkpt lat="49.15646" lon="3.9513">
        <ele>261.4</ele>
        <time>2020-08-25T07:44:35.859Z</time>
      </trkpt>
      <trkpt lat="49.15648" lon="3.95142">
        <ele>261.4</ele>
        <time>2020-08-25T07:44:37.344Z</time>
      </trkpt>
      <trkpt lat="49.1565" lon="3.95144">
        <ele>261.4</ele>
        <time>2020-08-25T07:44:37.883Z</time>
      </trkpt>
      <trkpt lat="49.15651" lon="3.95141">
        <ele>261.4</ele>
        <time>2020-08-25T07:44:38.203Z</time>
      </trkpt>
      <trkpt lat="49.15651" lon="3.95132">
        <ele>261.6</ele>
        <time>2020-08-25T07:44:39.749Z</time>
      </trkpt>
      <trkpt lat="49.15651" lon="3.95126">
        <ele>261.4</ele>
        <time>2020-08-25T07:44:40.112Z</time>
      </trkpt>
      <trkpt lat="49.15651" lon="3.95119">
        <ele>261.4</ele>
        <time>2020-08-25T07:44:40.931Z</time>
      </trkpt>
      <trkpt lat="49.15652" lon="3.95102">
        <ele>261.4</ele>
        <time>2020-08-25T07:44:42.867Z</time>
      </trkpt>
      <trkpt lat="49.1565" lon="3.95073">
        <ele>261.4</ele>
        <time>2020-08-25T07:44:46.287Z</time>
      </trkpt>
      <trkpt lat="49.15649" lon="3.95063">
        <ele>261.4</ele>
        <time>2020-08-25T07:44:47.470Z</time>
      </trkpt>
      <trkpt lat="49.15649" lon="3.95017">
        <ele>261.4</ele>
        <time>2020-08-25T07:44:52.907Z</time>
      </trkpt>
      <trkpt lat="49.15648" lon="3.95007">
        <ele>261.2</ele>
        <time>2020-08-25T07:44:53.593Z</time>
      </trkpt>
      <trkpt lat="49.15641" lon="3.94959">
        <ele>261.2</ele>
        <time>2020-08-25T07:44:59.407Z</time>
      </trkpt>
      <trkpt lat="49.15631" lon="3.9491">
        <ele>261</ele>
        <time>2020-08-25T07:45:04.853Z</time>
      </trkpt>
      <trkpt lat="49.15617" lon="3.94841">
        <ele>260.4</ele>
        <time>2020-08-25T07:45:11.359Z</time>
      </trkpt>
      <trkpt lat="49.15613" lon="3.9482">
        <ele>260.4</ele>
        <time>2020-08-25T07:45:13.905Z</time>
      </trkpt>
      <trkpt lat="49.15603" lon="3.94778">
        <ele>260</ele>
        <time>2020-08-25T07:45:17.870Z</time>
      </trkpt>
      <trkpt lat="49.15584" lon="3.94692">
        <ele>259.2</ele>
        <time>2020-08-25T07:45:26.001Z</time>
      </trkpt>
      <trkpt lat="49.15576" lon="3.9466">
        <ele>259</ele>
        <time>2020-08-25T07:45:29.247Z</time>
      </trkpt>
      <trkpt lat="49.15564" lon="3.94604">
        <ele>258.6</ele>
        <time>2020-08-25T07:45:34.709Z</time>
      </trkpt>
      <trkpt lat="49.15557" lon="3.94568">
        <ele>258.2</ele>
        <time>2020-08-25T07:45:37.867Z</time>
      </trkpt>
      <trkpt lat="49.15548" lon="3.94521">
        <ele>257</ele>
        <time>2020-08-25T07:45:41.213Z</time>
      </trkpt>
      <trkpt lat="49.15546" lon="3.94509">
        <ele>257</ele>
        <time>2020-08-25T07:45:42.669Z</time>
      </trkpt>
      <trkpt lat="49.15527" lon="3.94428">
        <ele>255.6</ele>
        <time>2020-08-25T07:45:49.386Z</time>
      </trkpt>
      <trkpt lat="49.15512" lon="3.94353">
        <ele>254.8</ele>
        <time>2020-08-25T07:45:56.144Z</time>
      </trkpt>
      <trkpt lat="49.15507" lon="3.94327">
        <ele>254.4</ele>
        <time>2020-08-25T07:45:58.332Z</time>
      </trkpt>
      <trkpt lat="49.15492" lon="3.94263">
        <ele>254.2</ele>
        <time>2020-08-25T07:46:05.793Z</time>
      </trkpt>
      <trkpt lat="49.15486" lon="3.94237">
        <ele>253.6</ele>
        <time>2020-08-25T07:46:07.788Z</time>
      </trkpt>
      <trkpt lat="49.1548" lon="3.9421">
        <ele>252.4</ele>
        <time>2020-08-25T07:46:09.271Z</time>
      </trkpt>
      <trkpt lat="49.15464" lon="3.94132">
        <ele>251.2</ele>
        <time>2020-08-25T07:46:15.911Z</time>
      </trkpt>
      <trkpt lat="49.15455" lon="3.94093">
        <ele>251.2</ele>
        <time>2020-08-25T07:46:20.700Z</time>
      </trkpt>
      <trkpt lat="49.15445" lon="3.94043">
        <ele>250.8</ele>
        <time>2020-08-25T07:46:25.502Z</time>
      </trkpt>
      <trkpt lat="49.1544" lon="3.94017">
        <ele>250.4</ele>
        <time>2020-08-25T07:46:27.587Z</time>
      </trkpt>
      <trkpt lat="49.15438" lon="3.94005">
        <ele>250</ele>
        <time>2020-08-25T07:46:28.410Z</time>
      </trkpt>
      <trkpt lat="49.15432" lon="3.93979">
        <ele>249.4</ele>
        <time>2020-08-25T07:46:30.346Z</time>
      </trkpt>
      <trkpt lat="49.15429" lon="3.93966">
        <ele>249.2</ele>
        <time>2020-08-25T07:46:31.473Z</time>
      </trkpt>
      <trkpt lat="49.15425" lon="3.93953">
        <ele>248.6</ele>
        <time>2020-08-25T07:46:32.267Z</time>
      </trkpt>
      <trkpt lat="49.15397" lon="3.93875">
        <ele>246.6</ele>
        <time>2020-08-25T07:46:38.517Z</time>
      </trkpt>
      <trkpt lat="49.15387" lon="3.93849">
        <ele>245.8</ele>
        <time>2020-08-25T07:46:40.516Z</time>
      </trkpt>
      <trkpt lat="49.15382" lon="3.93836">
        <ele>245.6</ele>
        <time>2020-08-25T07:46:41.743Z</time>
      </trkpt>
      <trkpt lat="49.15376" lon="3.93823">
        <ele>245.4</ele>
        <time>2020-08-25T07:46:43.004Z</time>
      </trkpt>
      <trkpt lat="49.15365" lon="3.93798">
        <ele>245.4</ele>
        <time>2020-08-25T07:46:46.605Z</time>
      </trkpt>
      <trkpt lat="49.1536" lon="3.93785">
        <ele>245.2</ele>
        <time>2020-08-25T07:46:47.875Z</time>
      </trkpt>
      <trkpt lat="49.15349" lon="3.93756">
        <ele>244.8</ele>
        <time>2020-08-25T07:46:50.601Z</time>
      </trkpt>
      <trkpt lat="49.15345" lon="3.9374">
        <ele>244.4</ele>
        <time>2020-08-25T07:46:51.868Z</time>
      </trkpt>
      <trkpt lat="49.15341" lon="3.93722">
        <ele>243.8</ele>
        <time>2020-08-25T07:46:52.980Z</time>
      </trkpt>
      <trkpt lat="49.15336" lon="3.93686">
        <ele>241.8</ele>
        <time>2020-08-25T07:46:55.114Z</time>
      </trkpt>
      <trkpt lat="49.15335" lon="3.9365">
        <ele>239.2</ele>
        <time>2020-08-25T07:46:57.224Z</time>
      </trkpt>
      <trkpt lat="49.15335" lon="3.93632">
        <ele>238.2</ele>
        <time>2020-08-25T07:46:58.253Z</time>
      </trkpt>
      <trkpt lat="49.15337" lon="3.93614">
        <ele>237.4</ele>
        <time>2020-08-25T07:46:59.317Z</time>
      </trkpt>
      <trkpt lat="49.1534" lon="3.93596">
        <ele>236.6</ele>
        <time>2020-08-25T07:47:00.379Z</time>
      </trkpt>
      <trkpt lat="49.15345" lon="3.93579">
        <ele>235.8</ele>
        <time>2020-08-25T07:47:01.390Z</time>
      </trkpt>
      <trkpt lat="49.1535" lon="3.93561">
        <ele>235.2</ele>
        <time>2020-08-25T07:47:02.588Z</time>
      </trkpt>
      <trkpt lat="49.15363" lon="3.93527">
        <ele>234</ele>
        <time>2020-08-25T07:47:05.070Z</time>
      </trkpt>
      <trkpt lat="49.1537" lon="3.9351">
        <ele>233.4</ele>
        <time>2020-08-25T07:47:06.363Z</time>
      </trkpt>
      <trkpt lat="49.15377" lon="3.93492">
        <ele>233</ele>
        <time>2020-08-25T07:47:07.854Z</time>
      </trkpt>
      <trkpt lat="49.15382" lon="3.93473">
        <ele>232.6</ele>
        <time>2020-08-25T07:47:09.373Z</time>
      </trkpt>
      <trkpt lat="49.15385" lon="3.93453">
        <ele>231.6</ele>
        <time>2020-08-25T07:47:10.593Z</time>
      </trkpt>
      <trkpt lat="49.15386" lon="3.93432">
        <ele>230.8</ele>
        <time>2020-08-25T07:47:11.799Z</time>
      </trkpt>
      <trkpt lat="49.15384" lon="3.9339">
        <ele>229.8</ele>
        <time>2020-08-25T07:47:14.676Z</time>
      </trkpt>
      <trkpt lat="49.15382" lon="3.93369">
        <ele>228.2</ele>
        <time>2020-08-25T07:47:15.891Z</time>
      </trkpt>
      <trkpt lat="49.15379" lon="3.93349">
        <ele>227</ele>
        <time>2020-08-25T07:47:17.098Z</time>
      </trkpt>
      <trkpt lat="49.15377" lon="3.93329">
        <ele>225.8</ele>
        <time>2020-08-25T07:47:18.278Z</time>
      </trkpt>
      <trkpt lat="49.15375" lon="3.93309">
        <ele>224.2</ele>
        <time>2020-08-25T07:47:19.469Z</time>
      </trkpt>
      <trkpt lat="49.15373" lon="3.93288">
        <ele>222.4</ele>
        <time>2020-08-25T07:47:20.669Z</time>
      </trkpt>
      <trkpt lat="49.15372" lon="3.93267">
        <ele>221</ele>
        <time>2020-08-25T07:47:21.869Z</time>
      </trkpt>
      <trkpt lat="49.15373" lon="3.93227">
        <ele>218.6</ele>
        <time>2020-08-25T07:47:24.192Z</time>
      </trkpt>
      <trkpt lat="49.15374" lon="3.93207">
        <ele>217.8</ele>
        <time>2020-08-25T07:47:25.315Z</time>
      </trkpt>
      <trkpt lat="49.15375" lon="3.93187">
        <ele>216.4</ele>
        <time>2020-08-25T07:47:26.475Z</time>
      </trkpt>
      <trkpt lat="49.15377" lon="3.93168">
        <ele>215.2</ele>
        <time>2020-08-25T07:47:27.630Z</time>
      </trkpt>
      <trkpt lat="49.15378" lon="3.93148">
        <ele>213.2</ele>
        <time>2020-08-25T07:47:28.784Z</time>
      </trkpt>
      <trkpt lat="49.15379" lon="3.93128">
        <ele>211.6</ele>
        <time>2020-08-25T07:47:29.934Z</time>
      </trkpt>
      <trkpt lat="49.15386" lon="3.93032">
        <ele>206</ele>
        <time>2020-08-25T07:47:35.532Z</time>
      </trkpt>
      <trkpt lat="49.15387" lon="3.93013">
        <ele>205.8</ele>
        <time>2020-08-25T07:47:37.183Z</time>
      </trkpt>
      <trkpt lat="49.15389" lon="3.92994">
        <ele>205</ele>
        <time>2020-08-25T07:47:38.231Z</time>
      </trkpt>
      <trkpt lat="49.15391" lon="3.92975">
        <ele>203.2</ele>
        <time>2020-08-25T07:47:39.343Z</time>
      </trkpt>
      <trkpt lat="49.15395" lon="3.92919">
        <ele>201.6</ele>
        <time>2020-08-25T07:47:42.995Z</time>
      </trkpt>
      <trkpt lat="49.15397" lon="3.92864">
        <ele>200.6</ele>
        <time>2020-08-25T07:47:47.172Z</time>
      </trkpt>
      <trkpt lat="49.15396" lon="3.92845">
        <ele>199.8</ele>
        <time>2020-08-25T07:47:48.172Z</time>
      </trkpt>
      <trkpt lat="49.15394" lon="3.92827">
        <ele>198.4</ele>
        <time>2020-08-25T07:47:49.260Z</time>
      </trkpt>
      <trkpt lat="49.1539" lon="3.92809">
        <ele>197.6</ele>
        <time>2020-08-25T07:47:50.293Z</time>
      </trkpt>
      <trkpt lat="49.15386" lon="3.92791">
        <ele>196</ele>
        <time>2020-08-25T07:47:51.413Z</time>
      </trkpt>
      <trkpt lat="49.1538" lon="3.92773">
        <ele>194.8</ele>
        <time>2020-08-25T07:47:52.542Z</time>
      </trkpt>
      <trkpt lat="49.15368" lon="3.92739">
        <ele>193.2</ele>
        <time>2020-08-25T07:47:54.709Z</time>
      </trkpt>
      <trkpt lat="49.15361" lon="3.92722">
        <ele>192.8</ele>
        <time>2020-08-25T07:47:56.167Z</time>
      </trkpt>
      <trkpt lat="49.15354" lon="3.92705">
        <ele>192.6</ele>
        <time>2020-08-25T07:47:57.900Z</time>
      </trkpt>
      <trkpt lat="49.15346" lon="3.92689">
        <ele>192.2</ele>
        <time>2020-08-25T07:47:59.390Z</time>
      </trkpt>
      <trkpt lat="49.15329" lon="3.92658">
        <ele>190.8</ele>
        <time>2020-08-25T07:48:01.783Z</time>
      </trkpt>
      <trkpt lat="49.15318" lon="3.92645">
        <ele>189.4</ele>
        <time>2020-08-25T07:48:02.983Z</time>
      </trkpt>
      <trkpt lat="49.15307" lon="3.92633">
        <ele>188</ele>
        <time>2020-08-25T07:48:04.188Z</time>
      </trkpt>
      <trkpt lat="49.15295" lon="3.92624">
        <ele>187.2</ele>
        <time>2020-08-25T07:48:05.383Z</time>
      </trkpt>
      <trkpt lat="49.15243" lon="3.92593">
        <ele>183.6</ele>
        <time>2020-08-25T07:48:09.949Z</time>
      </trkpt>
      <trkpt lat="49.1523" lon="3.92585">
        <ele>182.6</ele>
        <time>2020-08-25T07:48:11.208Z</time>
      </trkpt>
      <trkpt lat="49.15217" lon="3.92577">
        <ele>181.8</ele>
        <time>2020-08-25T07:48:12.428Z</time>
      </trkpt>
      <trkpt lat="49.15204" lon="3.92569">
        <ele>180.6</ele>
        <time>2020-08-25T07:48:13.672Z</time>
      </trkpt>
      <trkpt lat="49.15191" lon="3.92561">
        <ele>179</ele>
        <time>2020-08-25T07:48:14.902Z</time>
      </trkpt>
      <trkpt lat="49.15153" lon="3.92536">
        <ele>176.6</ele>
        <time>2020-08-25T07:48:18.527Z</time>
      </trkpt>
      <trkpt lat="49.1514" lon="3.92528">
        <ele>176.2</ele>
        <time>2020-08-25T07:48:20.081Z</time>
      </trkpt>
      <trkpt lat="49.15115" lon="3.92513">
        <ele>172.4</ele>
        <time>2020-08-25T07:48:22.514Z</time>
      </trkpt>
      <trkpt lat="49.1509" lon="3.92497">
        <ele>167.4</ele>
        <time>2020-08-25T07:48:24.932Z</time>
      </trkpt>
      <trkpt lat="49.15077" lon="3.92489">
        <ele>165.8</ele>
        <time>2020-08-25T07:48:26.132Z</time>
      </trkpt>
      <trkpt lat="49.15027" lon="3.92459">
        <ele>162.4</ele>
        <time>2020-08-25T07:48:30.685Z</time>
      </trkpt>
      <trkpt lat="49.15014" lon="3.92451">
        <ele>161.8</ele>
        <time>2020-08-25T07:48:32.028Z</time>
      </trkpt>
      <trkpt lat="49.14989" lon="3.92435">
        <ele>159.8</ele>
        <time>2020-08-25T07:48:34.446Z</time>
      </trkpt>
      <trkpt lat="49.14976" lon="3.92427">
        <ele>159.2</ele>
        <time>2020-08-25T07:48:35.786Z</time>
      </trkpt>
      <trkpt lat="49.14939" lon="3.92403">
        <ele>157.2</ele>
        <time>2020-08-25T07:48:39.614Z</time>
      </trkpt>
      <trkpt lat="49.14926" lon="3.92395">
        <ele>156.8</ele>
        <time>2020-08-25T07:48:41.139Z</time>
      </trkpt>
      <trkpt lat="49.14914" lon="3.92387">
        <ele>156.4</ele>
        <time>2020-08-25T07:48:42.628Z</time>
      </trkpt>
      <trkpt lat="49.14903" lon="3.92378">
        <ele>155.4</ele>
        <time>2020-08-25T07:48:43.786Z</time>
      </trkpt>
      <trkpt lat="49.14871" lon="3.92344">
        <ele>151.2</ele>
        <time>2020-08-25T07:48:47.216Z</time>
      </trkpt>
      <trkpt lat="49.14837" lon="3.92287">
        <ele>147.2</ele>
        <time>2020-08-25T07:48:51.696Z</time>
      </trkpt>
      <trkpt lat="49.1483" lon="3.92272">
        <ele>146.4</ele>
        <time>2020-08-25T07:48:52.713Z</time>
      </trkpt>
      <trkpt lat="49.14795" lon="3.92199">
        <ele>145</ele>
        <time>2020-08-25T07:48:59.848Z</time>
      </trkpt>
      <trkpt lat="49.14775" lon="3.92158">
        <ele>144.8</ele>
        <time>2020-08-25T07:49:05.217Z</time>
      </trkpt>
      <trkpt lat="49.14758" lon="3.92122">
        <ele>144.6</ele>
        <time>2020-08-25T07:49:10.000Z</time>
      </trkpt>
      <trkpt lat="49.14753" lon="3.92111">
        <ele>144.6</ele>
        <time>2020-08-25T07:49:11.618Z</time>
      </trkpt>
      <trkpt lat="49.14747" lon="3.921">
        <ele>144.8</ele>
        <time>2020-08-25T07:49:13.581Z</time>
      </trkpt>
      <trkpt lat="49.14738" lon="3.9208">
        <ele>144.8</ele>
        <time>2020-08-25T07:49:16.431Z</time>
      </trkpt>
      <trkpt lat="49.14734" lon="3.92071">
        <ele>144.6</ele>
        <time>2020-08-25T07:49:17.309Z</time>
      </trkpt>
      <trkpt lat="49.14729" lon="3.92062">
        <ele>144.8</ele>
        <time>2020-08-25T07:49:19.032Z</time>
      </trkpt>
      <trkpt lat="49.14714" lon="3.92029">
        <ele>145.8</ele>
        <time>2020-08-25T07:49:26.260Z</time>
      </trkpt>
      <trkpt lat="49.1471" lon="3.92022">
        <ele>146.6</ele>
        <time>2020-08-25T07:49:30.343Z</time>
      </trkpt>
      <trkpt lat="49.14697" lon="3.91993">
        <ele>149.6</ele>
        <time>2020-08-25T07:49:45.338Z</time>
      </trkpt>
      <trkpt lat="49.1469" lon="3.91979">
        <ele>150.6</ele>
        <time>2020-08-25T07:49:50.032Z</time>
      </trkpt>
      <trkpt lat="49.14684" lon="3.91967">
        <ele>151.4</ele>
        <time>2020-08-25T07:49:54.000Z</time>
      </trkpt>
      <trkpt lat="49.14681" lon="3.9196">
        <ele>151.8</ele>
        <time>2020-08-25T07:49:55.974Z</time>
      </trkpt>
      <trkpt lat="49.14661" lon="3.91923">
        <ele>153.4</ele>
        <time>2020-08-25T07:50:05.809Z</time>
      </trkpt>
      <trkpt lat="49.14655" lon="3.91911">
        <ele>154.6</ele>
        <time>2020-08-25T07:50:11.598Z</time>
      </trkpt>
      <trkpt lat="49.14645" lon="3.91895">
        <ele>156</ele>
        <time>2020-08-25T07:50:18.114Z</time>
      </trkpt>
      <trkpt lat="49.14642" lon="3.91891">
        <ele>156.2</ele>
        <time>2020-08-25T07:50:19.481Z</time>
      </trkpt>
      <trkpt lat="49.14638" lon="3.91886">
        <ele>156.6</ele>
        <time>2020-08-25T07:50:21.368Z</time>
      </trkpt>
      <trkpt lat="49.14635" lon="3.91882">
        <ele>156.8</ele>
        <time>2020-08-25T07:50:22.723Z</time>
      </trkpt>
      <trkpt lat="49.14624" lon="3.9187">
        <ele>157.4</ele>
        <time>2020-08-25T07:50:26.711Z</time>
      </trkpt>
      <trkpt lat="49.14606" lon="3.91851">
        <ele>160.2</ele>
        <time>2020-08-25T07:50:40.635Z</time>
      </trkpt>
      <trkpt lat="49.1458" lon="3.91826">
        <ele>161.8</ele>
        <time>2020-08-25T07:50:50.325Z</time>
      </trkpt>
      <trkpt lat="49.14573" lon="3.91819">
        <ele>162.2</ele>
        <time>2020-08-25T07:50:52.924Z</time>
      </trkpt>
      <trkpt lat="49.14563" lon="3.91809">
        <ele>163.2</ele>
        <time>2020-08-25T07:50:57.739Z</time>
      </trkpt>
      <trkpt lat="49.14556" lon="3.91803">
        <ele>163.4</ele>
        <time>2020-08-25T07:50:59.591Z</time>
      </trkpt>
      <trkpt lat="49.14546" lon="3.91793">
        <ele>164.4</ele>
        <time>2020-08-25T07:51:04.403Z</time>
      </trkpt>
      <trkpt lat="49.14532" lon="3.91779">
        <ele>165.2</ele>
        <time>2020-08-25T07:51:09.550Z</time>
      </trkpt>
      <trkpt lat="49.14514" lon="3.91762">
        <ele>167</ele>
        <time>2020-08-25T07:51:18.072Z</time>
      </trkpt>
      <trkpt lat="49.14504" lon="3.91752">
        <ele>168.2</ele>
        <time>2020-08-25T07:51:23.649Z</time>
      </trkpt>
      <trkpt lat="49.14495" lon="3.91743">
        <ele>169.2</ele>
        <time>2020-08-25T07:51:28.376Z</time>
      </trkpt>
      <trkpt lat="49.14485" lon="3.91734">
        <ele>169.8</ele>
        <time>2020-08-25T07:51:31.983Z</time>
      </trkpt>
      <trkpt lat="49.14482" lon="3.91731">
        <ele>170</ele>
        <time>2020-08-25T07:51:33.172Z</time>
      </trkpt>
      <trkpt lat="49.14466" lon="3.91715">
        <ele>171.4</ele>
        <time>2020-08-25T07:51:40.225Z</time>
      </trkpt>
      <trkpt lat="49.14456" lon="3.91705">
        <ele>172.2</ele>
        <time>2020-08-25T07:51:44.364Z</time>
      </trkpt>
      <trkpt lat="49.1445" lon="3.91699">
        <ele>172.8</ele>
        <time>2020-08-25T07:51:47.331Z</time>
      </trkpt>
      <trkpt lat="49.14425" lon="3.91674">
        <ele>174.2</ele>
        <time>2020-08-25T07:51:56.386Z</time>
      </trkpt>
      <trkpt lat="49.14391" lon="3.91641">
        <ele>175.2</ele>
        <time>2020-08-25T07:52:05.685Z</time>
      </trkpt>
      <trkpt lat="49.14349" lon="3.91598">
        <ele>175.4</ele>
        <time>2020-08-25T07:52:15.140Z</time>
      </trkpt>
      <trkpt lat="49.14324" lon="3.91574">
        <ele>175.4</ele>
        <time>2020-08-25T07:52:20.360Z</time>
      </trkpt>
      <trkpt lat="49.14299" lon="3.9155">
        <ele>175.4</ele>
        <time>2020-08-25T07:52:25.661Z</time>
      </trkpt>
      <trkpt lat="49.1429" lon="3.91541">
        <ele>175.8</ele>
        <time>2020-08-25T07:52:28.615Z</time>
      </trkpt>
      <trkpt lat="49.1427" lon="3.91529">
        <ele>176</ele>
        <time>2020-08-25T07:52:32.708Z</time>
      </trkpt>
      <trkpt lat="49.14251" lon="3.91521">
        <ele>176.6</ele>
        <time>2020-08-25T07:52:37.568Z</time>
      </trkpt>
      <trkpt lat="49.14238" lon="3.91517">
        <ele>177.2</ele>
        <time>2020-08-25T07:52:41.679Z</time>
      </trkpt>
      <trkpt lat="49.14233" lon="3.91515">
        <ele>177.8</ele>
        <time>2020-08-25T07:52:44.778Z</time>
      </trkpt>
      <trkpt lat="49.14202" lon="3.9151">
        <ele>180</ele>
        <time>2020-08-25T07:52:56.093Z</time>
      </trkpt>
      <trkpt lat="49.14198" lon="3.9151">
        <ele>180.6</ele>
        <time>2020-08-25T07:52:59.127Z</time>
      </trkpt>
      <trkpt lat="49.14172" lon="3.91517">
        <ele>182</ele>
        <time>2020-08-25T07:53:07.539Z</time>
      </trkpt>
      <trkpt lat="49.14153" lon="3.91525">
        <ele>183.2</ele>
        <time>2020-08-25T07:53:14.026Z</time>
      </trkpt>
      <trkpt lat="49.14135" lon="3.91533">
        <ele>183.8</ele>
        <time>2020-08-25T07:53:18.896Z</time>
      </trkpt>
      <trkpt lat="49.14099" lon="3.9155">
        <ele>185.4</ele>
        <time>2020-08-25T07:53:29.924Z</time>
      </trkpt>
      <trkpt lat="49.14088" lon="3.91555">
        <ele>185.8</ele>
        <time>2020-08-25T07:53:32.881Z</time>
      </trkpt>
      <trkpt lat="49.14062" lon="3.91568">
        <ele>186.4</ele>
        <time>2020-08-25T07:53:39.012Z</time>
      </trkpt>
      <trkpt lat="49.14041" lon="3.91578">
        <ele>186.8</ele>
        <time>2020-08-25T07:53:43.674Z</time>
      </trkpt>
      <trkpt lat="49.13995" lon="3.91599">
        <ele>188</ele>
        <time>2020-08-25T07:53:54.864Z</time>
      </trkpt>
      <trkpt lat="49.13953" lon="3.91618">
        <ele>188.2</ele>
        <time>2020-08-25T07:54:02.926Z</time>
      </trkpt>
      <trkpt lat="49.13947" lon="3.91621">
        <ele>188.2</ele>
        <time>2020-08-25T07:54:04.181Z</time>
      </trkpt>
      <trkpt lat="49.13932" lon="3.91628">
        <ele>188.2</ele>
        <time>2020-08-25T07:54:06.854Z</time>
      </trkpt>
      <trkpt lat="49.13925" lon="3.91631">
        <ele>188</ele>
        <time>2020-08-25T07:54:07.781Z</time>
      </trkpt>
      <trkpt lat="49.13909" lon="3.91638">
        <ele>188</ele>
        <time>2020-08-25T07:54:10.718Z</time>
      </trkpt>
      <trkpt lat="49.13893" lon="3.91646">
        <ele>187.8</ele>
        <time>2020-08-25T07:54:13.121Z</time>
      </trkpt>
      <trkpt lat="49.13849" lon="3.91666">
        <ele>185.4</ele>
        <time>2020-08-25T07:54:17.291Z</time>
      </trkpt>
      <trkpt lat="49.13805" lon="3.91686">
        <ele>181.2</ele>
        <time>2020-08-25T07:54:21.396Z</time>
      </trkpt>
      <trkpt lat="49.13779" lon="3.91698">
        <ele>180.4</ele>
        <time>2020-08-25T07:54:24.445Z</time>
      </trkpt>
      <trkpt lat="49.13754" lon="3.91709">
        <ele>179.8</ele>
        <time>2020-08-25T07:54:27.590Z</time>
      </trkpt>
      <trkpt lat="49.13721" lon="3.91724">
        <ele>179.4</ele>
        <time>2020-08-25T07:54:32.422Z</time>
      </trkpt>
      <trkpt lat="49.13695" lon="3.91737">
        <ele>178.2</ele>
        <time>2020-08-25T07:54:35.064Z</time>
      </trkpt>
      <trkpt lat="49.13677" lon="3.91745">
        <ele>178</ele>
        <time>2020-08-25T07:54:37.632Z</time>
      </trkpt>
      <trkpt lat="49.13651" lon="3.91757">
        <ele>177.4</ele>
        <time>2020-08-25T07:54:41.036Z</time>
      </trkpt>
      <trkpt lat="49.13607" lon="3.91777">
        <ele>176.4</ele>
        <time>2020-08-25T07:54:46.726Z</time>
      </trkpt>
      <trkpt lat="49.13589" lon="3.91786">
        <ele>175.8</ele>
        <time>2020-08-25T07:54:48.847Z</time>
      </trkpt>
      <trkpt lat="49.13533" lon="3.91812">
        <ele>173.8</ele>
        <time>2020-08-25T07:54:55.104Z</time>
      </trkpt>
      <trkpt lat="49.13524" lon="3.91816">
        <ele>173.8</ele>
        <time>2020-08-25T07:54:56.810Z</time>
      </trkpt>
      <trkpt lat="49.13488" lon="3.91832">
        <ele>171.8</ele>
        <time>2020-08-25T07:55:00.139Z</time>
      </trkpt>
      <trkpt lat="49.13472" lon="3.91839">
        <ele>171.6</ele>
        <time>2020-08-25T07:55:02.524Z</time>
      </trkpt>
      <trkpt lat="49.13464" lon="3.91843">
        <ele>171.6</ele>
        <time>2020-08-25T07:55:03.977Z</time>
      </trkpt>
      <trkpt lat="49.13427" lon="3.91864">
        <ele>171.4</ele>
        <time>2020-08-25T07:55:10.640Z</time>
      </trkpt>
      <trkpt lat="49.13419" lon="3.91871">
        <ele>171.6</ele>
        <time>2020-08-25T07:55:12.613Z</time>
      </trkpt>
      <trkpt lat="49.13412" lon="3.91879">
        <ele>171.6</ele>
        <time>2020-08-25T07:55:14.233Z</time>
      </trkpt>
      <trkpt lat="49.13405" lon="3.91889">
        <ele>171.6</ele>
        <time>2020-08-25T07:55:15.893Z</time>
      </trkpt>
      <trkpt lat="49.13391" lon="3.9191">
        <ele>171.4</ele>
        <time>2020-08-25T07:55:18.602Z</time>
      </trkpt>
      <trkpt lat="49.13385" lon="3.9192">
        <ele>171.4</ele>
        <time>2020-08-25T07:55:20.322Z</time>
      </trkpt>
      <trkpt lat="49.13347" lon="3.91986">
        <ele>170.6</ele>
        <time>2020-08-25T07:55:28.097Z</time>
      </trkpt>
      <trkpt lat="49.13329" lon="3.92017">
        <ele>169.8</ele>
        <time>2020-08-25T07:55:31.206Z</time>
      </trkpt>
      <trkpt lat="49.13288" lon="3.92089">
        <ele>169.6</ele>
        <time>2020-08-25T07:55:41.830Z</time>
      </trkpt>
      <trkpt lat="49.13276" lon="3.9211">
        <ele>169.4</ele>
        <time>2020-08-25T07:55:44.390Z</time>
      </trkpt>
      <trkpt lat="49.13262" lon="3.92129">
        <ele>169.4</ele>
        <time>2020-08-25T07:55:47.648Z</time>
      </trkpt>
      <trkpt lat="49.13246" lon="3.92141">
        <ele>169.2</ele>
        <time>2020-08-25T07:55:50.187Z</time>
      </trkpt>
      <trkpt lat="49.13228" lon="3.9214">
        <ele>169.4</ele>
        <time>2020-08-25T07:55:53.721Z</time>
      </trkpt>
      <trkpt lat="49.13205" lon="3.92127">
        <ele>169</ele>
        <time>2020-08-25T07:55:57.058Z</time>
      </trkpt>
      <trkpt lat="49.13198" lon="3.92119">
        <ele>168.8</ele>
        <time>2020-08-25T07:55:58.069Z</time>
      </trkpt>
      <trkpt lat="49.13192" lon="3.9211">
        <ele>168.8</ele>
        <time>2020-08-25T07:55:59.542Z</time>
      </trkpt>
      <trkpt lat="49.13183" lon="3.92091">
        <ele>168.8</ele>
        <time>2020-08-25T07:56:02.342Z</time>
      </trkpt>
      <trkpt lat="49.13176" lon="3.9207">
        <ele>168.6</ele>
        <time>2020-08-25T07:56:04.392Z</time>
      </trkpt>
      <trkpt lat="49.13167" lon="3.92042">
        <ele>168.6</ele>
        <time>2020-08-25T07:56:08.096Z</time>
      </trkpt>
      <trkpt lat="49.13163" lon="3.92025">
        <ele>168.6</ele>
        <time>2020-08-25T07:56:10.230Z</time>
      </trkpt>
      <trkpt lat="49.13157" lon="3.92003">
        <ele>169.2</ele>
        <time>2020-08-25T07:56:14.486Z</time>
      </trkpt>
      <trkpt lat="49.13153" lon="3.91983">
        <ele>170.6</ele>
        <time>2020-08-25T07:56:20.993Z</time>
      </trkpt>
      <trkpt lat="49.13151" lon="3.91977">
        <ele>170.8</ele>
        <time>2020-08-25T07:56:22.316Z</time>
      </trkpt>
      <trkpt lat="49.13147" lon="3.91965">
        <ele>171.8</ele>
        <time>2020-08-25T07:56:27.063Z</time>
      </trkpt>
      <trkpt lat="49.13146" lon="3.91959">
        <ele>172.2</ele>
        <time>2020-08-25T07:56:28.929Z</time>
      </trkpt>
      <trkpt lat="49.13144" lon="3.91953">
        <ele>172.6</ele>
        <time>2020-08-25T07:56:30.798Z</time>
      </trkpt>
      <trkpt lat="49.1314" lon="3.91942">
        <ele>173.4</ele>
        <time>2020-08-25T07:56:34.536Z</time>
      </trkpt>
      <trkpt lat="49.13136" lon="3.91931">
        <ele>174</ele>
        <time>2020-08-25T07:56:37.598Z</time>
      </trkpt>
      <trkpt lat="49.13131" lon="3.9192">
        <ele>174.6</ele>
        <time>2020-08-25T07:56:40.632Z</time>
      </trkpt>
      <trkpt lat="49.13122" lon="3.91901">
        <ele>176</ele>
        <time>2020-08-25T07:56:47.227Z</time>
      </trkpt>
      <trkpt lat="49.13117" lon="3.91892">
        <ele>176.4</ele>
        <time>2020-08-25T07:56:49.670Z</time>
      </trkpt>
      <trkpt lat="49.13104" lon="3.9188">
        <ele>177.6</ele>
        <time>2020-08-25T07:56:55.491Z</time>
      </trkpt>
      <trkpt lat="49.13101" lon="3.91877">
        <ele>178.2</ele>
        <time>2020-08-25T07:56:58.011Z</time>
      </trkpt>
      <trkpt lat="49.1309" lon="3.9187">
        <ele>179</ele>
        <time>2020-08-25T07:57:02.138Z</time>
      </trkpt>
      <trkpt lat="49.13076" lon="3.91861">
        <ele>179.8</ele>
        <time>2020-08-25T07:57:06.969Z</time>
      </trkpt>
      <trkpt lat="49.1307" lon="3.91857">
        <ele>180.6</ele>
        <time>2020-08-25T07:57:10.702Z</time>
      </trkpt>
      <trkpt lat="49.13056" lon="3.91848">
        <ele>181.8</ele>
        <time>2020-08-25T07:57:16.546Z</time>
      </trkpt>
      <trkpt lat="49.13049" lon="3.91844">
        <ele>182.2</ele>
        <time>2020-08-25T07:57:18.885Z</time>
      </trkpt>
      <trkpt lat="49.13034" lon="3.9184">
        <ele>183</ele>
        <time>2020-08-25T07:57:23.604Z</time>
      </trkpt>
      <trkpt lat="49.1302" lon="3.91835">
        <ele>184.2</ele>
        <time>2020-08-25T07:57:29.416Z</time>
      </trkpt>
      <trkpt lat="49.13016" lon="3.91833">
        <ele>184.6</ele>
        <time>2020-08-25T07:57:31.281Z</time>
      </trkpt>
      <trkpt lat="49.12991" lon="3.91823">
        <ele>186.4</ele>
        <time>2020-08-25T07:57:40.673Z</time>
      </trkpt>
      <trkpt lat="49.12987" lon="3.91821">
        <ele>187</ele>
        <time>2020-08-25T07:57:43.312Z</time>
      </trkpt>
      <trkpt lat="49.12965" lon="3.91808">
        <ele>187.8</ele>
        <time>2020-08-25T07:57:49.449Z</time>
      </trkpt>
      <trkpt lat="49.12961" lon="3.91805">
        <ele>187.8</ele>
        <time>2020-08-25T07:57:50.187Z</time>
      </trkpt>
      <trkpt lat="49.12938" lon="3.91781">
        <ele>189.4</ele>
        <time>2020-08-25T07:57:59.470Z</time>
      </trkpt>
      <trkpt lat="49.12934" lon="3.91778">
        <ele>189.4</ele>
        <time>2020-08-25T07:58:00.217Z</time>
      </trkpt>
      <trkpt lat="49.12917" lon="3.9176">
        <ele>190</ele>
        <time>2020-08-25T07:58:05.258Z</time>
      </trkpt>
      <trkpt lat="49.12913" lon="3.91756">
        <ele>190</ele>
        <time>2020-08-25T07:58:06.012Z</time>
      </trkpt>
      <trkpt lat="49.12895" lon="3.91741">
        <ele>190.8</ele>
        <time>2020-08-25T07:58:11.798Z</time>
      </trkpt>
      <trkpt lat="49.12883" lon="3.91732">
        <ele>191.4</ele>
        <time>2020-08-25T07:58:15.777Z</time>
      </trkpt>
      <trkpt lat="49.12871" lon="3.91724">
        <ele>191.8</ele>
        <time>2020-08-25T07:58:19.015Z</time>
      </trkpt>
      <trkpt lat="49.1286" lon="3.91716">
        <ele>192.4</ele>
        <time>2020-08-25T07:58:22.912Z</time>
      </trkpt>
      <trkpt lat="49.12852" lon="3.91712">
        <ele>192.8</ele>
        <time>2020-08-25T07:58:25.490Z</time>
      </trkpt>
      <trkpt lat="49.12836" lon="3.91704">
        <ele>193.8</ele>
        <time>2020-08-25T07:58:31.010Z</time>
      </trkpt>
      <trkpt lat="49.12821" lon="3.91696">
        <ele>195.6</ele>
        <time>2020-08-25T07:58:39.491Z</time>
      </trkpt>
      <trkpt lat="49.12817" lon="3.91694">
        <ele>195.6</ele>
        <time>2020-08-25T07:58:40.226Z</time>
      </trkpt>
      <trkpt lat="49.12798" lon="3.91683">
        <ele>196.6</ele>
        <time>2020-08-25T07:58:46.500Z</time>
      </trkpt>
      <trkpt lat="49.12791" lon="3.9168">
        <ele>197</ele>
        <time>2020-08-25T07:58:48.999Z</time>
      </trkpt>
      <trkpt lat="49.12783" lon="3.91678">
        <ele>197.6</ele>
        <time>2020-08-25T07:58:51.979Z</time>
      </trkpt>
      <trkpt lat="49.12764" lon="3.91672">
        <ele>198.6</ele>
        <time>2020-08-25T07:58:58.080Z</time>
      </trkpt>
      <trkpt lat="49.12749" lon="3.91666">
        <ele>199.6</ele>
        <time>2020-08-25T07:59:03.513Z</time>
      </trkpt>
      <trkpt lat="49.12733" lon="3.91658">
        <ele>200.6</ele>
        <time>2020-08-25T07:59:08.969Z</time>
      </trkpt>
      <trkpt lat="49.1273" lon="3.91656">
        <ele>201</ele>
        <time>2020-08-25T07:59:10.828Z</time>
      </trkpt>
      <trkpt lat="49.12722" lon="3.91653">
        <ele>201.4</ele>
        <time>2020-08-25T07:59:13.332Z</time>
      </trkpt>
      <trkpt lat="49.12711" lon="3.91648">
        <ele>202.2</ele>
        <time>2020-08-25T07:59:17.461Z</time>
      </trkpt>
      <trkpt lat="49.12697" lon="3.91642">
        <ele>203</ele>
        <time>2020-08-25T07:59:22.199Z</time>
      </trkpt>
      <trkpt lat="49.12693" lon="3.9164">
        <ele>203.2</ele>
        <time>2020-08-25T07:59:23.381Z</time>
      </trkpt>
      <trkpt lat="49.12679" lon="3.91634">
        <ele>205</ele>
        <time>2020-08-25T07:59:32.171Z</time>
      </trkpt>
      <trkpt lat="49.12669" lon="3.91629">
        <ele>206.2</ele>
        <time>2020-08-25T07:59:37.799Z</time>
      </trkpt>
      <trkpt lat="49.12655" lon="3.91623">
        <ele>207.2</ele>
        <time>2020-08-25T07:59:43.028Z</time>
      </trkpt>
      <trkpt lat="49.12641" lon="3.91616">
        <ele>208.4</ele>
        <time>2020-08-25T07:59:48.780Z</time>
      </trkpt>
      <trkpt lat="49.12638" lon="3.91615">
        <ele>208.4</ele>
        <time>2020-08-25T07:59:49.412Z</time>
      </trkpt>
      <trkpt lat="49.12617" lon="3.91605">
        <ele>209.4</ele>
        <time>2020-08-25T07:59:56.040Z</time>
      </trkpt>
      <trkpt lat="49.12606" lon="3.916">
        <ele>210.2</ele>
        <time>2020-08-25T08:00:00.061Z</time>
      </trkpt>
      <trkpt lat="49.12603" lon="3.91599">
        <ele>210.4</ele>
        <time>2020-08-25T08:00:01.220Z</time>
      </trkpt>
      <trkpt lat="49.12593" lon="3.91594">
        <ele>211.2</ele>
        <time>2020-08-25T08:00:05.199Z</time>
      </trkpt>
      <trkpt lat="49.12583" lon="3.9159">
        <ele>212</ele>
        <time>2020-08-25T08:00:09.133Z</time>
      </trkpt>
      <trkpt lat="49.12579" lon="3.91588">
        <ele>212.4</ele>
        <time>2020-08-25T08:00:11.020Z</time>
      </trkpt>
      <trkpt lat="49.12573" lon="3.91586">
        <ele>213.4</ele>
        <time>2020-08-25T08:00:15.821Z</time>
      </trkpt>
      <trkpt lat="49.1256" lon="3.9158">
        <ele>214.6</ele>
        <time>2020-08-25T08:00:21.484Z</time>
      </trkpt>
      <trkpt lat="49.12553" lon="3.91577">
        <ele>215.4</ele>
        <time>2020-08-25T08:00:25.324Z</time>
      </trkpt>
      <trkpt lat="49.12547" lon="3.91575">
        <ele>216.2</ele>
        <time>2020-08-25T08:00:29.204Z</time>
      </trkpt>
      <trkpt lat="49.1254" lon="3.91573">
        <ele>216.6</ele>
        <time>2020-08-25T08:00:31.435Z</time>
      </trkpt>
      <trkpt lat="49.12531" lon="3.9157">
        <ele>217.8</ele>
        <time>2020-08-25T08:00:37.298Z</time>
      </trkpt>
      <trkpt lat="49.12518" lon="3.91567">
        <ele>219.6</ele>
        <time>2020-08-25T08:00:46.460Z</time>
      </trkpt>
      <trkpt lat="49.12514" lon="3.91566">
        <ele>220</ele>
        <time>2020-08-25T08:00:48.420Z</time>
      </trkpt>
      <trkpt lat="49.12505" lon="3.91564">
        <ele>221</ele>
        <time>2020-08-25T08:00:53.068Z</time>
      </trkpt>
      <trkpt lat="49.12495" lon="3.91563">
        <ele>222.2</ele>
        <time>2020-08-25T08:00:58.950Z</time>
      </trkpt>
      <trkpt lat="49.12486" lon="3.91561">
        <ele>223</ele>
        <time>2020-08-25T08:01:02.772Z</time>
      </trkpt>
      <trkpt lat="49.12482" lon="3.91561">
        <ele>223.6</ele>
        <time>2020-08-25T08:01:04.982Z</time>
      </trkpt>
      <trkpt lat="49.12468" lon="3.9156">
        <ele>225.2</ele>
        <time>2020-08-25T08:01:12.451Z</time>
      </trkpt>
      <trkpt lat="49.12462" lon="3.91559">
        <ele>225.6</ele>
        <time>2020-08-25T08:01:14.506Z</time>
      </trkpt>
      <trkpt lat="49.12459" lon="3.91559">
        <ele>225.8</ele>
        <time>2020-08-25T08:01:15.524Z</time>
      </trkpt>
      <trkpt lat="49.12451" lon="3.91559">
        <ele>227.2</ele>
        <time>2020-08-25T08:01:21.254Z</time>
      </trkpt>
      <trkpt lat="49.12439" lon="3.91558">
        <ele>228.2</ele>
        <time>2020-08-25T08:01:25.988Z</time>
      </trkpt>
      <trkpt lat="49.12433" lon="3.91557">
        <ele>229</ele>
        <time>2020-08-25T08:01:29.996Z</time>
      </trkpt>
      <trkpt lat="49.12421" lon="3.91556">
        <ele>230.6</ele>
        <time>2020-08-25T08:01:38.142Z</time>
      </trkpt>
      <trkpt lat="49.1241" lon="3.91556">
        <ele>232</ele>
        <time>2020-08-25T08:01:44.924Z</time>
      </trkpt>
      <trkpt lat="49.12401" lon="3.91555">
        <ele>232.8</ele>
        <time>2020-08-25T08:01:48.675Z</time>
      </trkpt>
      <trkpt lat="49.12393" lon="3.91554">
        <ele>233.6</ele>
        <time>2020-08-25T08:01:52.427Z</time>
      </trkpt>
      <trkpt lat="49.12381" lon="3.91553">
        <ele>235.2</ele>
        <time>2020-08-25T08:02:00.162Z</time>
      </trkpt>
      <trkpt lat="49.12373" lon="3.91552">
        <ele>235.8</ele>
        <time>2020-08-25T08:02:03.218Z</time>
      </trkpt>
      <trkpt lat="49.12364" lon="3.91553">
        <ele>237</ele>
        <time>2020-08-25T08:02:09.093Z</time>
      </trkpt>
      <trkpt lat="49.12351" lon="3.91555">
        <ele>238.8</ele>
        <time>2020-08-25T08:02:18.229Z</time>
      </trkpt>
      <trkpt lat="49.12342" lon="3.91558">
        <ele>239.8</ele>
        <time>2020-08-25T08:02:22.905Z</time>
      </trkpt>
      <trkpt lat="49.12326" lon="3.91563">
        <ele>241.2</ele>
        <time>2020-08-25T08:02:29.546Z</time>
      </trkpt>
      <trkpt lat="49.12323" lon="3.91563">
        <ele>241.2</ele>
        <time>2020-08-25T08:02:30.142Z</time>
      </trkpt>
      <trkpt lat="49.1231" lon="3.91567">
        <ele>242.4</ele>
        <time>2020-08-25T08:02:35.777Z</time>
      </trkpt>
      <trkpt lat="49.12296" lon="3.91568">
        <ele>243.4</ele>
        <time>2020-08-25T08:02:40.809Z</time>
      </trkpt>
      <trkpt lat="49.12292" lon="3.91568">
        <ele>243.8</ele>
        <time>2020-08-25T08:02:42.671Z</time>
      </trkpt>
      <trkpt lat="49.12268" lon="3.91565">
        <ele>245.2</ele>
        <time>2020-08-25T08:02:50.642Z</time>
      </trkpt>
      <trkpt lat="49.12264" lon="3.91564">
        <ele>245.4</ele>
        <time>2020-08-25T08:02:51.925Z</time>
      </trkpt>
      <trkpt lat="49.12232" lon="3.91554">
        <ele>246.8</ele>
        <time>2020-08-25T08:03:01.494Z</time>
      </trkpt>
      <trkpt lat="49.12228" lon="3.91552">
        <ele>246.8</ele>
        <time>2020-08-25T08:03:02.378Z</time>
      </trkpt>
      <trkpt lat="49.12199" lon="3.91543">
        <ele>247.8</ele>
        <time>2020-08-25T08:03:09.952Z</time>
      </trkpt>
      <trkpt lat="49.1219" lon="3.9154">
        <ele>248.2</ele>
        <time>2020-08-25T08:03:12.724Z</time>
      </trkpt>
      <trkpt lat="49.1217" lon="3.91536">
        <ele>249</ele>
        <time>2020-08-25T08:03:18.334Z</time>
      </trkpt>
      <trkpt lat="49.12146" lon="3.91531">
        <ele>250</ele>
        <time>2020-08-25T08:03:25.348Z</time>
      </trkpt>
      <trkpt lat="49.1213" lon="3.91529">
        <ele>250.2</ele>
        <time>2020-08-25T08:03:28.499Z</time>
      </trkpt>
      <trkpt lat="49.12103" lon="3.91528">
        <ele>250.8</ele>
        <time>2020-08-25T08:03:34.643Z</time>
      </trkpt>
      <trkpt lat="49.1205" lon="3.91528">
        <ele>252.4</ele>
        <time>2020-08-25T08:03:47.693Z</time>
      </trkpt>
      <trkpt lat="49.12008" lon="3.91533">
        <ele>252.8</ele>
        <time>2020-08-25T08:03:56.000Z</time>
      </trkpt>
      <trkpt lat="49.12002" lon="3.91535">
        <ele>253</ele>
        <time>2020-08-25T08:03:57.554Z</time>
      </trkpt>
      <trkpt lat="49.11979" lon="3.9155">
        <ele>253.4</ele>
        <time>2020-08-25T08:04:02.770Z</time>
      </trkpt>
      <trkpt lat="49.11958" lon="3.91571">
        <ele>253.6</ele>
        <time>2020-08-25T08:04:07.665Z</time>
      </trkpt>
      <trkpt lat="49.11943" lon="3.91589">
        <ele>253.8</ele>
        <time>2020-08-25T08:04:11.488Z</time>
      </trkpt>
      <trkpt lat="49.11923" lon="3.91614">
        <ele>254.6</ele>
        <time>2020-08-25T08:04:17.872Z</time>
      </trkpt>
      <trkpt lat="49.11911" lon="3.9162">
        <ele>254.6</ele>
        <time>2020-08-25T08:04:20.125Z</time>
      </trkpt>
      <trkpt lat="49.11898" lon="3.91615">
        <ele>254.8</ele>
        <time>2020-08-25T08:04:22.881Z</time>
      </trkpt>
      <trkpt lat="49.11892" lon="3.91611">
        <ele>254.8</ele>
        <time>2020-08-25T08:04:24.076Z</time>
      </trkpt>
      <trkpt lat="49.11886" lon="3.91606">
        <ele>255</ele>
        <time>2020-08-25T08:04:25.717Z</time>
      </trkpt>
      <trkpt lat="49.11853" lon="3.91574">
        <ele>255</ele>
        <time>2020-08-25T08:04:32.719Z</time>
      </trkpt>
      <trkpt lat="49.11848" lon="3.91569">
        <ele>255</ele>
        <time>2020-08-25T08:04:33.888Z</time>
      </trkpt>
      <trkpt lat="49.1182" lon="3.91541">
        <ele>255.4</ele>
        <time>2020-08-25T08:04:40.547Z</time>
      </trkpt>
      <trkpt lat="49.11799" lon="3.91521">
        <ele>255.6</ele>
        <time>2020-08-25T08:04:45.418Z</time>
      </trkpt>
      <trkpt lat="49.11772" lon="3.91496">
        <ele>255.4</ele>
        <time>2020-08-25T08:04:50.399Z</time>
      </trkpt>
      <trkpt lat="49.11767" lon="3.91491">
        <ele>255.4</ele>
        <time>2020-08-25T08:04:51.513Z</time>
      </trkpt>
      <trkpt lat="49.11762" lon="3.91486">
        <ele>255.6</ele>
        <time>2020-08-25T08:04:53.063Z</time>
      </trkpt>
      <trkpt lat="49.11757" lon="3.91481">
        <ele>255.6</ele>
        <time>2020-08-25T08:04:54.172Z</time>
      </trkpt>
      <trkpt lat="49.11747" lon="3.9147">
        <ele>255.4</ele>
        <time>2020-08-25T08:04:55.769Z</time>
      </trkpt>
      <trkpt lat="49.11736" lon="3.91466">
        <ele>255</ele>
        <time>2020-08-25T08:04:56.961Z</time>
      </trkpt>
      <trkpt lat="49.11724" lon="3.91471">
        <ele>254.6</ele>
        <time>2020-08-25T08:04:58.305Z</time>
      </trkpt>
      <trkpt lat="49.1172" lon="3.91476">
        <ele>254.6</ele>
        <time>2020-08-25T08:04:59.371Z</time>
      </trkpt>
      <trkpt lat="49.11715" lon="3.91482">
        <ele>254.4</ele>
        <time>2020-08-25T08:05:00.029Z</time>
      </trkpt>
      <trkpt lat="49.11699" lon="3.9151">
        <ele>254</ele>
        <time>2020-08-25T08:05:03.213Z</time>
      </trkpt>
      <trkpt lat="49.11695" lon="3.91517">
        <ele>253.8</ele>
        <time>2020-08-25T08:05:03.917Z</time>
      </trkpt>
      <trkpt lat="49.1169" lon="3.91524">
        <ele>253.8</ele>
        <time>2020-08-25T08:05:05.099Z</time>
      </trkpt>
      <trkpt lat="49.11684" lon="3.91529">
        <ele>253.6</ele>
        <time>2020-08-25T08:05:05.855Z</time>
      </trkpt>
      <trkpt lat="49.11678" lon="3.91533">
        <ele>253.6</ele>
        <time>2020-08-25T08:05:07.083Z</time>
      </trkpt>
      <trkpt lat="49.11664" lon="3.91536">
        <ele>253.4</ele>
        <time>2020-08-25T08:05:09.001Z</time>
      </trkpt>
      <trkpt lat="49.11657" lon="3.91534">
        <ele>253.2</ele>
        <time>2020-08-25T08:05:09.826Z</time>
      </trkpt>
      <trkpt lat="49.11629" lon="3.91524">
        <ele>252.6</ele>
        <time>2020-08-25T08:05:13.408Z</time>
      </trkpt>
      <trkpt lat="49.11615" lon="3.91519">
        <ele>252.6</ele>
        <time>2020-08-25T08:05:15.952Z</time>
      </trkpt>
      <trkpt lat="49.11563" lon="3.91501">
        <ele>251.4</ele>
        <time>2020-08-25T08:05:22.361Z</time>
      </trkpt>
      <trkpt lat="49.11549" lon="3.91496">
        <ele>251.4</ele>
        <time>2020-08-25T08:05:25.015Z</time>
      </trkpt>
      <trkpt lat="49.11542" lon="3.91494">
        <ele>251.4</ele>
        <time>2020-08-25T08:05:26.318Z</time>
      </trkpt>
      <trkpt lat="49.11528" lon="3.91489">
        <ele>251.2</ele>
        <time>2020-08-25T08:05:28.257Z</time>
      </trkpt>
      <trkpt lat="49.11521" lon="3.91487">
        <ele>250.8</ele>
        <time>2020-08-25T08:05:28.862Z</time>
      </trkpt>
      <trkpt lat="49.11514" lon="3.91484">
        <ele>250.8</ele>
        <time>2020-08-25T08:05:30.078Z</time>
      </trkpt>
      <trkpt lat="49.11466" lon="3.91464">
        <ele>249.4</ele>
        <time>2020-08-25T08:05:35.872Z</time>
      </trkpt>
      <trkpt lat="49.11428" lon="3.91443">
        <ele>248.2</ele>
        <time>2020-08-25T08:05:40.485Z</time>
      </trkpt>
      <trkpt lat="49.11411" lon="3.91436">
        <ele>247.8</ele>
        <time>2020-08-25T08:05:42.622Z</time>
      </trkpt>
      <trkpt lat="49.11374" lon="3.91425">
        <ele>247.4</ele>
        <time>2020-08-25T08:05:47.920Z</time>
      </trkpt>
      <trkpt lat="49.11364" lon="3.91426">
        <ele>247.2</ele>
        <time>2020-08-25T08:05:49.167Z</time>
      </trkpt>
      <trkpt lat="49.11354" lon="3.91428">
        <ele>247</ele>
        <time>2020-08-25T08:05:50.422Z</time>
      </trkpt>
      <trkpt lat="49.11335" lon="3.91439">
        <ele>246.4</ele>
        <time>2020-08-25T08:05:52.743Z</time>
      </trkpt>
      <trkpt lat="49.11306" lon="3.9146">
        <ele>245.8</ele>
        <time>2020-08-25T08:05:56.812Z</time>
      </trkpt>
      <trkpt lat="49.11287" lon="3.91475">
        <ele>244.6</ele>
        <time>2020-08-25T08:05:58.787Z</time>
      </trkpt>
      <trkpt lat="49.11276" lon="3.91483">
        <ele>244</ele>
        <time>2020-08-25T08:05:59.802Z</time>
      </trkpt>
      <trkpt lat="49.11266" lon="3.91491">
        <ele>243.6</ele>
        <time>2020-08-25T08:06:01.027Z</time>
      </trkpt>
      <trkpt lat="49.11256" lon="3.91499">
        <ele>243</ele>
        <time>2020-08-25T08:06:02.097Z</time>
      </trkpt>
      <trkpt lat="49.11226" lon="3.91524">
        <ele>241.6</ele>
        <time>2020-08-25T08:06:05.494Z</time>
      </trkpt>
      <trkpt lat="49.1121" lon="3.91532">
        <ele>240.2</ele>
        <time>2020-08-25T08:06:06.990Z</time>
      </trkpt>
      <trkpt lat="49.11205" lon="3.9153">
        <ele>239.6</ele>
        <time>2020-08-25T08:06:07.488Z</time>
      </trkpt>
      <trkpt lat="49.11202" lon="3.91511">
        <ele>237.6</ele>
        <time>2020-08-25T08:06:08.623Z</time>
      </trkpt>
      <trkpt lat="49.11204" lon="3.91497">
        <ele>236</ele>
        <time>2020-08-25T08:06:09.426Z</time>
      </trkpt>
      <trkpt lat="49.11206" lon="3.91483">
        <ele>234.2</ele>
        <time>2020-08-25T08:06:10.256Z</time>
      </trkpt>
      <trkpt lat="49.11209" lon="3.91469">
        <ele>233</ele>
        <time>2020-08-25T08:06:11.131Z</time>
      </trkpt>
      <trkpt lat="49.11216" lon="3.9144">
        <ele>232.2</ele>
        <time>2020-08-25T08:06:13.222Z</time>
      </trkpt>
      <trkpt lat="49.11219" lon="3.91424">
        <ele>231.8</ele>
        <time>2020-08-25T08:06:14.359Z</time>
      </trkpt>
      <trkpt lat="49.11224" lon="3.91395">
        <ele>230.8</ele>
        <time>2020-08-25T08:06:16.135Z</time>
      </trkpt>
      <trkpt lat="49.11223" lon="3.91375">
        <ele>228.6</ele>
        <time>2020-08-25T08:06:17.332Z</time>
      </trkpt>
      <trkpt lat="49.11218" lon="3.91371">
        <ele>227.2</ele>
        <time>2020-08-25T08:06:17.816Z</time>
      </trkpt>
      <trkpt lat="49.11212" lon="3.91372">
        <ele>225.6</ele>
        <time>2020-08-25T08:06:18.382Z</time>
      </trkpt>
      <trkpt lat="49.11204" lon="3.91378">
        <ele>224.6</ele>
        <time>2020-08-25T08:06:19.146Z</time>
      </trkpt>
      <trkpt lat="49.11197" lon="3.91386">
        <ele>223.8</ele>
        <time>2020-08-25T08:06:19.942Z</time>
      </trkpt>
      <trkpt lat="49.11189" lon="3.91393">
        <ele>223</ele>
        <time>2020-08-25T08:06:20.791Z</time>
      </trkpt>
      <trkpt lat="49.11171" lon="3.9141">
        <ele>222.2</ele>
        <time>2020-08-25T08:06:22.907Z</time>
      </trkpt>
      <trkpt lat="49.11162" lon="3.91418">
        <ele>222</ele>
        <time>2020-08-25T08:06:24.309Z</time>
      </trkpt>
      <trkpt lat="49.11152" lon="3.91427">
        <ele>221.6</ele>
        <time>2020-08-25T08:06:25.496Z</time>
      </trkpt>
      <trkpt lat="49.11143" lon="3.91437">
        <ele>221.2</ele>
        <time>2020-08-25T08:06:26.703Z</time>
      </trkpt>
      <trkpt lat="49.11134" lon="3.91446">
        <ele>219.8</ele>
        <time>2020-08-25T08:06:27.643Z</time>
      </trkpt>
      <trkpt lat="49.11119" lon="3.91459">
        <ele>217.4</ele>
        <time>2020-08-25T08:06:29.158Z</time>
      </trkpt>
      <trkpt lat="49.11105" lon="3.91459">
        <ele>214.4</ele>
        <time>2020-08-25T08:06:30.384Z</time>
      </trkpt>
      <trkpt lat="49.11099" lon="3.91438">
        <ele>211.2</ele>
        <time>2020-08-25T08:06:31.709Z</time>
      </trkpt>
      <trkpt lat="49.11098" lon="3.91425">
        <ele>209.8</ele>
        <time>2020-08-25T08:06:32.490Z</time>
      </trkpt>
      <trkpt lat="49.11097" lon="3.9141">
        <ele>208.4</ele>
        <time>2020-08-25T08:06:33.352Z</time>
      </trkpt>
      <trkpt lat="49.11096" lon="3.91394">
        <ele>208</ele>
        <time>2020-08-25T08:06:34.406Z</time>
      </trkpt>
      <trkpt lat="49.11092" lon="3.91364">
        <ele>207.2</ele>
        <time>2020-08-25T08:06:36.484Z</time>
      </trkpt>
      <trkpt lat="49.11086" lon="3.91351">
        <ele>206.8</ele>
        <time>2020-08-25T08:06:37.537Z</time>
      </trkpt>
      <trkpt lat="49.11078" lon="3.91342">
        <ele>205.8</ele>
        <time>2020-08-25T08:06:38.451Z</time>
      </trkpt>
      <trkpt lat="49.11068" lon="3.91335">
        <ele>204.6</ele>
        <time>2020-08-25T08:06:39.455Z</time>
      </trkpt>
      <trkpt lat="49.11024" lon="3.91316">
        <ele>201.4</ele>
        <time>2020-08-25T08:06:43.526Z</time>
      </trkpt>
      <trkpt lat="49.11004" lon="3.91319">
        <ele>198.8</ele>
        <time>2020-08-25T08:06:45.228Z</time>
      </trkpt>
      <trkpt lat="49.10995" lon="3.91324">
        <ele>198</ele>
        <time>2020-08-25T08:06:46.095Z</time>
      </trkpt>
      <trkpt lat="49.10987" lon="3.9133">
        <ele>196</ele>
        <time>2020-08-25T08:06:46.945Z</time>
      </trkpt>
      <trkpt lat="49.10963" lon="3.91353">
        <ele>190.4</ele>
        <time>2020-08-25T08:06:49.452Z</time>
      </trkpt>
      <trkpt lat="49.10955" lon="3.91361">
        <ele>189.8</ele>
        <time>2020-08-25T08:06:50.227Z</time>
      </trkpt>
      <trkpt lat="49.10948" lon="3.9137">
        <ele>189.2</ele>
        <time>2020-08-25T08:06:50.986Z</time>
      </trkpt>
      <trkpt lat="49.1094" lon="3.91377">
        <ele>188.8</ele>
        <time>2020-08-25T08:06:51.908Z</time>
      </trkpt>
      <trkpt lat="49.10931" lon="3.91382">
        <ele>188.6</ele>
        <time>2020-08-25T08:06:53.025Z</time>
      </trkpt>
      <trkpt lat="49.10923" lon="3.91384">
        <ele>188.2</ele>
        <time>2020-08-25T08:06:53.869Z</time>
      </trkpt>
      <trkpt lat="49.10914" lon="3.91381">
        <ele>187.8</ele>
        <time>2020-08-25T08:06:54.696Z</time>
      </trkpt>
      <trkpt lat="49.10906" lon="3.91375">
        <ele>187.6</ele>
        <time>2020-08-25T08:06:55.767Z</time>
      </trkpt>
      <trkpt lat="49.10898" lon="3.91369">
        <ele>187.4</ele>
        <time>2020-08-25T08:06:56.884Z</time>
      </trkpt>
      <trkpt lat="49.10881" lon="3.91355">
        <ele>187</ele>
        <time>2020-08-25T08:06:59.310Z</time>
      </trkpt>
      <trkpt lat="49.10832" lon="3.91305">
        <ele>185.6</ele>
        <time>2020-08-25T08:07:06.445Z</time>
      </trkpt>
      <trkpt lat="49.10824" lon="3.91296">
        <ele>185.2</ele>
        <time>2020-08-25T08:07:07.416Z</time>
      </trkpt>
      <trkpt lat="49.10801" lon="3.91269">
        <ele>183.4</ele>
        <time>2020-08-25T08:07:09.816Z</time>
      </trkpt>
      <trkpt lat="49.10785" lon="3.91255">
        <ele>182.4</ele>
        <time>2020-08-25T08:07:11.485Z</time>
      </trkpt>
      <trkpt lat="49.10777" lon="3.91249">
        <ele>182</ele>
        <time>2020-08-25T08:07:12.400Z</time>
      </trkpt>
      <trkpt lat="49.10752" lon="3.91233">
        <ele>181.6</ele>
        <time>2020-08-25T08:07:15.976Z</time>
      </trkpt>
      <trkpt lat="49.10745" lon="3.91226">
        <ele>181.6</ele>
        <time>2020-08-25T08:07:17.500Z</time>
      </trkpt>
      <trkpt lat="49.10734" lon="3.91205">
        <ele>181.2</ele>
        <time>2020-08-25T08:07:19.592Z</time>
      </trkpt>
      <trkpt lat="49.10726" lon="3.91181">
        <ele>181</ele>
        <time>2020-08-25T08:07:22.145Z</time>
      </trkpt>
      <trkpt lat="49.10711" lon="3.91129">
        <ele>180</ele>
        <time>2020-08-25T08:07:26.489Z</time>
      </trkpt>
      <trkpt lat="49.10698" lon="3.9109">
        <ele>179.2</ele>
        <time>2020-08-25T08:07:29.779Z</time>
      </trkpt>
      <trkpt lat="49.10692" lon="3.91078">
        <ele>179.2</ele>
        <time>2020-08-25T08:07:31.513Z</time>
      </trkpt>
      <trkpt lat="49.10685" lon="3.91067">
        <ele>179</ele>
        <time>2020-08-25T08:07:32.736Z</time>
      </trkpt>
      <trkpt lat="49.10678" lon="3.91057">
        <ele>178.4</ele>
        <time>2020-08-25T08:07:33.585Z</time>
      </trkpt>
      <trkpt lat="49.1066" lon="3.91042">
        <ele>177.4</ele>
        <time>2020-08-25T08:07:35.487Z</time>
      </trkpt>
      <trkpt lat="49.1065" lon="3.91037">
        <ele>177.2</ele>
        <time>2020-08-25T08:07:36.805Z</time>
      </trkpt>
      <trkpt lat="49.1064" lon="3.91034">
        <ele>176.4</ele>
        <time>2020-08-25T08:07:37.735Z</time>
      </trkpt>
      <trkpt lat="49.10629" lon="3.91033">
        <ele>175.6</ele>
        <time>2020-08-25T08:07:38.678Z</time>
      </trkpt>
      <trkpt lat="49.10597" lon="3.91034">
        <ele>173.8</ele>
        <time>2020-08-25T08:07:41.530Z</time>
      </trkpt>
      <trkpt lat="49.10564" lon="3.91036">
        <ele>172.4</ele>
        <time>2020-08-25T08:07:44.835Z</time>
      </trkpt>
      <trkpt lat="49.10553" lon="3.91036">
        <ele>171.4</ele>
        <time>2020-08-25T08:07:45.820Z</time>
      </trkpt>
      <trkpt lat="49.10542" lon="3.91036">
        <ele>170.4</ele>
        <time>2020-08-25T08:07:46.806Z</time>
      </trkpt>
      <trkpt lat="49.10519" lon="3.91037">
        <ele>169.4</ele>
        <time>2020-08-25T08:07:48.980Z</time>
      </trkpt>
      <trkpt lat="49.10508" lon="3.91038">
        <ele>169</ele>
        <time>2020-08-25T08:07:50.172Z</time>
      </trkpt>
      <trkpt lat="49.10463" lon="3.91043">
        <ele>165.4</ele>
        <time>2020-08-25T08:07:54.175Z</time>
      </trkpt>
      <trkpt lat="49.10442" lon="3.91055">
        <ele>164</ele>
        <time>2020-08-25T08:07:56.153Z</time>
      </trkpt>
      <trkpt lat="49.10432" lon="3.91066">
        <ele>162.8</ele>
        <time>2020-08-25T08:07:57.188Z</time>
      </trkpt>
      <trkpt lat="49.10423" lon="3.91077">
        <ele>161.8</ele>
        <time>2020-08-25T08:07:58.238Z</time>
      </trkpt>
      <trkpt lat="49.10415" lon="3.9109">
        <ele>161.2</ele>
        <time>2020-08-25T08:07:59.334Z</time>
      </trkpt>
      <trkpt lat="49.10406" lon="3.91103">
        <ele>160.2</ele>
        <time>2020-08-25T08:08:00.400Z</time>
      </trkpt>
      <trkpt lat="49.10398" lon="3.91117">
        <ele>159.8</ele>
        <time>2020-08-25T08:08:01.716Z</time>
      </trkpt>
      <trkpt lat="49.10381" lon="3.91144">
        <ele>159.4</ele>
        <time>2020-08-25T08:08:04.971Z</time>
      </trkpt>
      <trkpt lat="49.10372" lon="3.91156">
        <ele>159.2</ele>
        <time>2020-08-25T08:08:06.613Z</time>
      </trkpt>
      <trkpt lat="49.10361" lon="3.91167">
        <ele>158.6</ele>
        <time>2020-08-25T08:08:07.806Z</time>
      </trkpt>
      <trkpt lat="49.1035" lon="3.91175">
        <ele>157.6</ele>
        <time>2020-08-25T08:08:08.922Z</time>
      </trkpt>
      <trkpt lat="49.10337" lon="3.91177">
        <ele>157</ele>
        <time>2020-08-25T08:08:10.119Z</time>
      </trkpt>
      <trkpt lat="49.10325" lon="3.91176">
        <ele>156.2</ele>
        <time>2020-08-25T08:08:11.149Z</time>
      </trkpt>
      <trkpt lat="49.10312" lon="3.91172">
        <ele>155.2</ele>
        <time>2020-08-25T08:08:12.259Z</time>
      </trkpt>
      <trkpt lat="49.103" lon="3.91169">
        <ele>154.2</ele>
        <time>2020-08-25T08:08:13.369Z</time>
      </trkpt>
      <trkpt lat="49.1025" lon="3.91159">
        <ele>151.4</ele>
        <time>2020-08-25T08:08:17.866Z</time>
      </trkpt>
      <trkpt lat="49.10237" lon="3.91158">
        <ele>151</ele>
        <time>2020-08-25T08:08:19.269Z</time>
      </trkpt>
      <trkpt lat="49.10225" lon="3.91156">
        <ele>150</ele>
        <time>2020-08-25T08:08:20.400Z</time>
      </trkpt>
      <trkpt lat="49.10199" lon="3.91152">
        <ele>149.4</ele>
        <time>2020-08-25T08:08:23.469Z</time>
      </trkpt>
      <trkpt lat="49.10187" lon="3.9115">
        <ele>148.4</ele>
        <time>2020-08-25T08:08:24.602Z</time>
      </trkpt>
      <trkpt lat="49.10174" lon="3.91148">
        <ele>147.4</ele>
        <time>2020-08-25T08:08:25.746Z</time>
      </trkpt>
      <trkpt lat="49.10136" lon="3.91138">
        <ele>145.8</ele>
        <time>2020-08-25T08:08:29.607Z</time>
      </trkpt>
      <trkpt lat="49.10123" lon="3.91134">
        <ele>145.2</ele>
        <time>2020-08-25T08:08:30.838Z</time>
      </trkpt>
      <trkpt lat="49.10062" lon="3.91106">
        <ele>138.6</ele>
        <time>2020-08-25T08:08:36.542Z</time>
      </trkpt>
      <trkpt lat="49.1005" lon="3.91099">
        <ele>137.6</ele>
        <time>2020-08-25T08:08:37.687Z</time>
      </trkpt>
      <trkpt lat="49.10014" lon="3.91079">
        <ele>134.4</ele>
        <time>2020-08-25T08:08:41.096Z</time>
      </trkpt>
      <trkpt lat="49.10002" lon="3.91072">
        <ele>133.4</ele>
        <time>2020-08-25T08:08:42.209Z</time>
      </trkpt>
      <trkpt lat="49.0999" lon="3.91066">
        <ele>133</ele>
        <time>2020-08-25T08:08:43.578Z</time>
      </trkpt>
      <trkpt lat="49.09955" lon="3.91048">
        <ele>132.2</ele>
        <time>2020-08-25T08:08:48.109Z</time>
      </trkpt>
      <trkpt lat="49.09933" lon="3.91035">
        <ele>131.2</ele>
        <time>2020-08-25T08:08:50.522Z</time>
      </trkpt>
      <trkpt lat="49.09911" lon="3.91023">
        <ele>130.8</ele>
        <time>2020-08-25T08:08:53.516Z</time>
      </trkpt>
      <trkpt lat="49.0988" lon="3.91006">
        <ele>129.8</ele>
        <time>2020-08-25T08:08:57.256Z</time>
      </trkpt>
      <trkpt lat="49.09822" lon="3.90972">
        <ele>128.4</ele>
        <time>2020-08-25T08:09:04.806Z</time>
      </trkpt>
      <trkpt lat="49.09776" lon="3.90947">
        <ele>128</ele>
        <time>2020-08-25T08:09:11.902Z</time>
      </trkpt>
      <trkpt lat="49.09768" lon="3.90942">
        <ele>127.6</ele>
        <time>2020-08-25T08:09:12.807Z</time>
      </trkpt>
      <trkpt lat="49.0976" lon="3.90937">
        <ele>127.6</ele>
        <time>2020-08-25T08:09:14.389Z</time>
      </trkpt>
      <trkpt lat="49.09752" lon="3.90933">
        <ele>127.4</ele>
        <time>2020-08-25T08:09:15.423Z</time>
      </trkpt>
      <trkpt lat="49.09736" lon="3.90924">
        <ele>127.4</ele>
        <time>2020-08-25T08:09:18.413Z</time>
      </trkpt>
      <trkpt lat="49.09721" lon="3.90914">
        <ele>127.2</ele>
        <time>2020-08-25T08:09:20.688Z</time>
      </trkpt>
      <trkpt lat="49.09708" lon="3.90899">
        <ele>127</ele>
        <time>2020-08-25T08:09:22.968Z</time>
      </trkpt>
      <trkpt lat="49.09688" lon="3.90855">
        <ele>126.2</ele>
        <time>2020-08-25T08:09:27.165Z</time>
      </trkpt>
      <trkpt lat="49.09674" lon="3.90822">
        <ele>125.6</ele>
        <time>2020-08-25T08:09:30.344Z</time>
      </trkpt>
      <trkpt lat="49.0966" lon="3.90788">
        <ele>125.2</ele>
        <time>2020-08-25T08:09:33.850Z</time>
      </trkpt>
      <trkpt lat="49.09637" lon="3.90732">
        <ele>123.8</ele>
        <time>2020-08-25T08:09:38.631Z</time>
      </trkpt>
      <trkpt lat="49.09623" lon="3.90699">
        <ele>122.4</ele>
        <time>2020-08-25T08:09:40.919Z</time>
      </trkpt>
      <trkpt lat="49.09618" lon="3.90688">
        <ele>122.2</ele>
        <time>2020-08-25T08:09:41.920Z</time>
      </trkpt>
      <trkpt lat="49.09587" lon="3.90613">
        <ele>120.4</ele>
        <time>2020-08-25T08:09:48.417Z</time>
      </trkpt>
      <trkpt lat="49.0956" lon="3.90536">
        <ele>119.4</ele>
        <time>2020-08-25T08:09:55.878Z</time>
      </trkpt>
      <trkpt lat="49.09548" lon="3.90503">
        <ele>119</ele>
        <time>2020-08-25T08:09:59.120Z</time>
      </trkpt>
      <trkpt lat="49.09541" lon="3.9048">
        <ele>118.8</ele>
        <time>2020-08-25T08:10:01.387Z</time>
      </trkpt>
      <trkpt lat="49.09534" lon="3.90458">
        <ele>118.8</ele>
        <time>2020-08-25T08:10:04.319Z</time>
      </trkpt>
      <trkpt lat="49.09521" lon="3.90413">
        <ele>118.8</ele>
        <time>2020-08-25T08:10:10.022Z</time>
      </trkpt>
      <trkpt lat="49.09509" lon="3.90343">
        <ele>116.8</ele>
        <time>2020-08-25T08:10:14.771Z</time>
      </trkpt>
      <trkpt lat="49.09507" lon="3.90331">
        <ele>116.6</ele>
        <time>2020-08-25T08:10:15.698Z</time>
      </trkpt>
      <trkpt lat="49.09496" lon="3.90253">
        <ele>115.8</ele>
        <time>2020-08-25T08:10:22.717Z</time>
      </trkpt>
      <trkpt lat="49.09496" lon="3.90218">
        <ele>115.2</ele>
        <time>2020-08-25T08:10:25.357Z</time>
      </trkpt>
      <trkpt lat="49.09499" lon="3.90196">
        <ele>115.2</ele>
        <time>2020-08-25T08:10:28.044Z</time>
      </trkpt>
      <trkpt lat="49.09502" lon="3.90185">
        <ele>115</ele>
        <time>2020-08-25T08:10:28.929Z</time>
      </trkpt>
      <trkpt lat="49.09505" lon="3.90174">
        <ele>115</ele>
        <time>2020-08-25T08:10:30.295Z</time>
      </trkpt>
      <trkpt lat="49.09515" lon="3.90143">
        <ele>114.6</ele>
        <time>2020-08-25T08:10:33.250Z</time>
      </trkpt>
      <trkpt lat="49.09539" lon="3.90077">
        <ele>114.2</ele>
        <time>2020-08-25T08:10:40.489Z</time>
      </trkpt>
      <trkpt lat="49.09543" lon="3.90068">
        <ele>114.2</ele>
        <time>2020-08-25T08:10:41.684Z</time>
      </trkpt>
      <trkpt lat="49.09546" lon="3.9006">
        <ele>114</ele>
        <time>2020-08-25T08:10:42.462Z</time>
      </trkpt>
      <trkpt lat="49.09571" lon="3.90007">
        <ele>113.6</ele>
        <time>2020-08-25T08:10:48.553Z</time>
      </trkpt>
      <trkpt lat="49.09576" lon="3.89999">
        <ele>113.6</ele>
        <time>2020-08-25T08:10:49.829Z</time>
      </trkpt>
      <trkpt lat="49.09606" lon="3.89942">
        <ele>113.8</ele>
        <time>2020-08-25T08:10:58.683Z</time>
      </trkpt>
      <trkpt lat="49.0961" lon="3.89934">
        <ele>113.6</ele>
        <time>2020-08-25T08:10:59.415Z</time>
      </trkpt>
      <trkpt lat="49.09645" lon="3.89866">
        <ele>113.6</ele>
        <time>2020-08-25T08:11:09.587Z</time>
      </trkpt>
      <trkpt lat="49.09679" lon="3.89798">
        <ele>113.6</ele>
        <time>2020-08-25T08:11:19.553Z</time>
      </trkpt>
      <trkpt lat="49.09686" lon="3.89784">
        <ele>113.8</ele>
        <time>2020-08-25T08:11:22.063Z</time>
      </trkpt>
      <trkpt lat="49.09703" lon="3.89751">
        <ele>114</ele>
        <time>2020-08-25T08:11:27.315Z</time>
      </trkpt>
      <trkpt lat="49.09706" lon="3.89744">
        <ele>114</ele>
        <time>2020-08-25T08:11:28.226Z</time>
      </trkpt>
      <trkpt lat="49.09708" lon="3.89737">
        <ele>114.2</ele>
        <time>2020-08-25T08:11:29.645Z</time>
      </trkpt>
      <trkpt lat="49.0971" lon="3.8973">
        <ele>114.2</ele>
        <time>2020-08-25T08:11:30.558Z</time>
      </trkpt>
      <trkpt lat="49.0971" lon="3.89715">
        <ele>114.4</ele>
        <time>2020-08-25T08:11:32.706Z</time>
      </trkpt>
      <trkpt lat="49.09705" lon="3.89702">
        <ele>114.4</ele>
        <time>2020-08-25T08:11:34.406Z</time>
      </trkpt>
      <trkpt lat="49.09698" lon="3.89691">
        <ele>115</ele>
        <time>2020-08-25T08:11:37.760Z</time>
      </trkpt>
      <trkpt lat="49.09667" lon="3.89657">
        <ele>115.8</ele>
        <time>2020-08-25T08:11:46.264Z</time>
      </trkpt>
      <trkpt lat="49.09658" lon="3.89648">
        <ele>116.2</ele>
        <time>2020-08-25T08:11:49.173Z</time>
      </trkpt>
      <trkpt lat="49.09641" lon="3.8963">
        <ele>116.2</ele>
        <time>2020-08-25T08:11:52.870Z</time>
      </trkpt>
      <trkpt lat="49.09633" lon="3.89621">
        <ele>116.2</ele>
        <time>2020-08-25T08:11:54.686Z</time>
      </trkpt>
      <trkpt lat="49.0961" lon="3.896">
        <ele>116.6</ele>
        <time>2020-08-25T08:12:00.258Z</time>
      </trkpt>
      <trkpt lat="49.09604" lon="3.89595">
        <ele>116.8</ele>
        <time>2020-08-25T08:12:01.856Z</time>
      </trkpt>
      <trkpt lat="49.09599" lon="3.8959">
        <ele>116.8</ele>
        <time>2020-08-25T08:12:03.049Z</time>
      </trkpt>
      <trkpt lat="49.0958" lon="3.89572">
        <ele>116.6</ele>
        <time>2020-08-25T08:12:06.159Z</time>
      </trkpt>
      <trkpt lat="49.09574" lon="3.89565">
        <ele>116.8</ele>
        <time>2020-08-25T08:12:07.967Z</time>
      </trkpt>
      <trkpt lat="49.09568" lon="3.89558">
        <ele>116.6</ele>
        <time>2020-08-25T08:12:08.905Z</time>
      </trkpt>
      <trkpt lat="49.09561" lon="3.8955">
        <ele>116.6</ele>
        <time>2020-08-25T08:12:10.333Z</time>
      </trkpt>
      <trkpt lat="49.09548" lon="3.89535">
        <ele>116</ele>
        <time>2020-08-25T08:12:12.096Z</time>
      </trkpt>
      <trkpt lat="49.09522" lon="3.89503">
        <ele>115.2</ele>
        <time>2020-08-25T08:12:16.142Z</time>
      </trkpt>
      <trkpt lat="49.09496" lon="3.8947">
        <ele>113</ele>
        <time>2020-08-25T08:12:18.890Z</time>
      </trkpt>
      <trkpt lat="49.09483" lon="3.89453">
        <ele>111.6</ele>
        <time>2020-08-25T08:12:20.399Z</time>
      </trkpt>
      <trkpt lat="49.09458" lon="3.89421">
        <ele>109</ele>
        <time>2020-08-25T08:12:23.317Z</time>
      </trkpt>
      <trkpt lat="49.09452" lon="3.89413">
        <ele>108.6</ele>
        <time>2020-08-25T08:12:24.045Z</time>
      </trkpt>
      <trkpt lat="49.09434" lon="3.89391">
        <ele>107.4</ele>
        <time>2020-08-25T08:12:26.212Z</time>
      </trkpt>
      <trkpt lat="49.09415" lon="3.8937">
        <ele>106.6</ele>
        <time>2020-08-25T08:12:28.657Z</time>
      </trkpt>
      <trkpt lat="49.09403" lon="3.89357">
        <ele>106.2</ele>
        <time>2020-08-25T08:12:30.402Z</time>
      </trkpt>
      <trkpt lat="49.09362" lon="3.89317">
        <ele>105.8</ele>
        <time>2020-08-25T08:12:37.566Z</time>
      </trkpt>
      <trkpt lat="49.09356" lon="3.89311">
        <ele>106</ele>
        <time>2020-08-25T08:12:39.208Z</time>
      </trkpt>
      <trkpt lat="49.0933" lon="3.89286">
        <ele>106</ele>
        <time>2020-08-25T08:12:44.700Z</time>
      </trkpt>
      <trkpt lat="49.09325" lon="3.89282">
        <ele>105.8</ele>
        <time>2020-08-25T08:12:45.346Z</time>
      </trkpt>
      <trkpt lat="49.09281" lon="3.8924">
        <ele>108.2</ele>
        <time>2020-08-25T08:13:01.143Z</time>
      </trkpt>
      <trkpt lat="49.09246" lon="3.89207">
        <ele>109.2</ele>
        <time>2020-08-25T08:13:10.635Z</time>
      </trkpt>
      <trkpt lat="49.0924" lon="3.89202">
        <ele>109.2</ele>
        <time>2020-08-25T08:13:11.760Z</time>
      </trkpt>
      <trkpt lat="49.09224" lon="3.89185">
        <ele>109.2</ele>
        <time>2020-08-25T08:13:15.277Z</time>
      </trkpt>
      <trkpt lat="49.092" lon="3.8916">
        <ele>108.6</ele>
        <time>2020-08-25T08:13:18.925Z</time>
      </trkpt>
      <trkpt lat="49.09188" lon="3.89146">
        <ele>108</ele>
        <time>2020-08-25T08:13:20.530Z</time>
      </trkpt>
      <trkpt lat="49.09182" lon="3.89138">
        <ele>107.6</ele>
        <time>2020-08-25T08:13:21.247Z</time>
      </trkpt>
      <trkpt lat="49.0917" lon="3.89122">
        <ele>107</ele>
        <time>2020-08-25T08:13:22.879Z</time>
      </trkpt>
      <trkpt lat="49.09152" lon="3.89098">
        <ele>106</ele>
        <time>2020-08-25T08:13:25.291Z</time>
      </trkpt>
      <trkpt lat="49.0914" lon="3.89082">
        <ele>105.6</ele>
        <time>2020-08-25T08:13:27.184Z</time>
      </trkpt>
      <trkpt lat="49.09134" lon="3.89074">
        <ele>105.2</ele>
        <time>2020-08-25T08:13:27.916Z</time>
      </trkpt>
      <trkpt lat="49.09099" lon="3.89027">
        <ele>103.8</ele>
        <time>2020-08-25T08:13:33.117Z</time>
      </trkpt>
      <trkpt lat="49.09094" lon="3.89019">
        <ele>103.6</ele>
        <time>2020-08-25T08:13:33.987Z</time>
      </trkpt>
      <trkpt lat="49.09083" lon="3.89005">
        <ele>103.6</ele>
        <time>2020-08-25T08:13:36.598Z</time>
      </trkpt>
      <trkpt lat="49.09072" lon="3.88992">
        <ele>103.4</ele>
        <time>2020-08-25T08:13:38.459Z</time>
      </trkpt>
      <trkpt lat="49.09056" lon="3.88974">
        <ele>103.4</ele>
        <time>2020-08-25T08:13:41.990Z</time>
      </trkpt>
      <trkpt lat="49.09019" lon="3.88932">
        <ele>103.8</ele>
        <time>2020-08-25T08:13:50.936Z</time>
      </trkpt>
      <trkpt lat="49.09002" lon="3.88914">
        <ele>104</ele>
        <time>2020-08-25T08:13:54.985Z</time>
      </trkpt>
      <trkpt lat="49.08985" lon="3.88894">
        <ele>103.8</ele>
        <time>2020-08-25T08:13:58.117Z</time>
      </trkpt>
      <trkpt lat="49.08979" lon="3.88887">
        <ele>103.8</ele>
        <time>2020-08-25T08:13:59.431Z</time>
      </trkpt>
      <trkpt lat="49.08967" lon="3.88873">
        <ele>103.8</ele>
        <time>2020-08-25T08:14:02.145Z</time>
      </trkpt>
      <trkpt lat="49.08941" lon="3.88844">
        <ele>103.2</ele>
        <time>2020-08-25T08:14:06.237Z</time>
      </trkpt>
      <trkpt lat="49.08934" lon="3.88837">
        <ele>102.8</ele>
        <time>2020-08-25T08:14:07.018Z</time>
      </trkpt>
      <trkpt lat="49.08921" lon="3.88822">
        <ele>101.8</ele>
        <time>2020-08-25T08:14:08.434Z</time>
      </trkpt>
      <trkpt lat="49.08901" lon="3.888">
        <ele>99.8</ele>
        <time>2020-08-25T08:14:10.637Z</time>
      </trkpt>
      <trkpt lat="49.08894" lon="3.88793">
        <ele>99.2</ele>
        <time>2020-08-25T08:14:11.368Z</time>
      </trkpt>
      <trkpt lat="49.0888" lon="3.88779">
        <ele>98.6</ele>
        <time>2020-08-25T08:14:13.097Z</time>
      </trkpt>
      <trkpt lat="49.08866" lon="3.88765">
        <ele>98</ele>
        <time>2020-08-25T08:14:14.836Z</time>
      </trkpt>
      <trkpt lat="49.08845" lon="3.88746">
        <ele>97.4</ele>
        <time>2020-08-25T08:14:17.769Z</time>
      </trkpt>
      <trkpt lat="49.08825" lon="3.88726">
        <ele>96.8</ele>
        <time>2020-08-25T08:14:20.588Z</time>
      </trkpt>
      <trkpt lat="49.08819" lon="3.8872">
        <ele>96.8</ele>
        <time>2020-08-25T08:14:21.934Z</time>
      </trkpt>
      <trkpt lat="49.08806" lon="3.88707">
        <ele>96.4</ele>
        <time>2020-08-25T08:14:23.676Z</time>
      </trkpt>
      <trkpt lat="49.088" lon="3.88701">
        <ele>96.4</ele>
        <time>2020-08-25T08:14:24.964Z</time>
      </trkpt>
      <trkpt lat="49.08794" lon="3.88695">
        <ele>96</ele>
        <time>2020-08-25T08:14:25.605Z</time>
      </trkpt>
      <trkpt lat="49.08777" lon="3.88677">
        <ele>95.8</ele>
        <time>2020-08-25T08:14:28.573Z</time>
      </trkpt>
      <trkpt lat="49.0875" lon="3.88648">
        <ele>96</ele>
        <time>2020-08-25T08:14:34.843Z</time>
      </trkpt>
      <trkpt lat="49.08745" lon="3.88643">
        <ele>96</ele>
        <time>2020-08-25T08:14:35.989Z</time>
      </trkpt>
      <trkpt lat="49.08705" lon="3.88601">
        <ele>96</ele>
        <time>2020-08-25T08:14:44.606Z</time>
      </trkpt>
      <trkpt lat="49.08675" lon="3.88565">
        <ele>96.2</ele>
        <time>2020-08-25T08:14:51.763Z</time>
      </trkpt>
      <trkpt lat="49.08665" lon="3.88552">
        <ele>96</ele>
        <time>2020-08-25T08:14:53.596Z</time>
      </trkpt>
      <trkpt lat="49.08642" lon="3.88524">
        <ele>95.8</ele>
        <time>2020-08-25T08:14:58.245Z</time>
      </trkpt>
      <trkpt lat="49.08625" lon="3.88504">
        <ele>95</ele>
        <time>2020-08-25T08:15:00.587Z</time>
      </trkpt>
      <trkpt lat="49.08619" lon="3.88498">
        <ele>94.4</ele>
        <time>2020-08-25T08:15:01.224Z</time>
      </trkpt>
      <trkpt lat="49.08577" lon="3.88456">
        <ele>93.2</ele>
        <time>2020-08-25T08:15:07.162Z</time>
      </trkpt>
      <trkpt lat="49.08571" lon="3.88451">
        <ele>92.8</ele>
        <time>2020-08-25T08:15:07.762Z</time>
      </trkpt>
      <trkpt lat="49.08566" lon="3.88445">
        <ele>92.6</ele>
        <time>2020-08-25T08:15:08.535Z</time>
      </trkpt>
      <trkpt lat="49.08521" lon="3.88399">
        <ele>91.6</ele>
        <time>2020-08-25T08:15:15.493Z</time>
      </trkpt>
      <trkpt lat="49.08494" lon="3.88357">
        <ele>91.8</ele>
        <time>2020-08-25T08:15:22.739Z</time>
      </trkpt>
      <trkpt lat="49.0849" lon="3.8835">
        <ele>91.8</ele>
        <time>2020-08-25T08:15:23.811Z</time>
      </trkpt>
      <trkpt lat="49.08471" lon="3.88315">
        <ele>91.8</ele>
        <time>2020-08-25T08:15:29.054Z</time>
      </trkpt>
      <trkpt lat="49.08464" lon="3.88302">
        <ele>92</ele>
        <time>2020-08-25T08:15:31.475Z</time>
      </trkpt>
      <trkpt lat="49.0844" lon="3.88269">
        <ele>93</ele>
        <time>2020-08-25T08:15:39.479Z</time>
      </trkpt>
      <trkpt lat="49.08429" lon="3.88254">
        <ele>93.6</ele>
        <time>2020-08-25T08:15:43.749Z</time>
      </trkpt>
      <trkpt lat="49.08409" lon="3.88231">
        <ele>94.2</ele>
        <time>2020-08-25T08:15:49.418Z</time>
      </trkpt>
      <trkpt lat="49.08398" lon="3.8822">
        <ele>94.6</ele>
        <time>2020-08-25T08:15:52.735Z</time>
      </trkpt>
      <trkpt lat="49.08394" lon="3.88216">
        <ele>94.8</ele>
        <time>2020-08-25T08:15:54.091Z</time>
      </trkpt>
      <trkpt lat="49.0838" lon="3.88199">
        <ele>95.4</ele>
        <time>2020-08-25T08:15:58.700Z</time>
      </trkpt>
      <trkpt lat="49.08373" lon="3.88192">
        <ele>96</ele>
        <time>2020-08-25T08:16:01.735Z</time>
      </trkpt>
      <trkpt lat="49.0836" lon="3.88177">
        <ele>98.2</ele>
        <time>2020-08-25T08:16:12.970Z</time>
      </trkpt>
      <trkpt lat="49.08351" lon="3.88166">
        <ele>99.2</ele>
        <time>2020-08-25T08:16:17.716Z</time>
      </trkpt>
      <trkpt lat="49.08348" lon="3.88162">
        <ele>99.4</ele>
        <time>2020-08-25T08:16:18.936Z</time>
      </trkpt>
      <trkpt lat="49.08337" lon="3.88148">
        <ele>100.2</ele>
        <time>2020-08-25T08:16:23.597Z</time>
      </trkpt>
      <trkpt lat="49.08335" lon="3.88143">
        <ele>100.4</ele>
        <time>2020-08-25T08:16:24.758Z</time>
      </trkpt>
      <trkpt lat="49.08323" lon="3.88131">
        <ele>101.2</ele>
        <time>2020-08-25T08:16:29.496Z</time>
      </trkpt>
      <trkpt lat="49.08304" lon="3.88112">
        <ele>103</ele>
        <time>2020-08-25T08:16:38.271Z</time>
      </trkpt>
      <trkpt lat="49.08282" lon="3.88087">
        <ele>104</ele>
        <time>2020-08-25T08:16:45.650Z</time>
      </trkpt>
      <trkpt lat="49.08275" lon="3.88081">
        <ele>104.4</ele>
        <time>2020-08-25T08:16:48.123Z</time>
      </trkpt>
      <trkpt lat="49.08258" lon="3.88064">
        <ele>105.6</ele>
        <time>2020-08-25T08:16:54.814Z</time>
      </trkpt>
      <trkpt lat="49.08251" lon="3.88057">
        <ele>105.6</ele>
        <time>2020-08-25T08:16:56.395Z</time>
      </trkpt>
      <trkpt lat="49.08238" lon="3.88045">
        <ele>106.2</ele>
        <time>2020-08-25T08:17:00.652Z</time>
      </trkpt>
      <trkpt lat="49.08228" lon="3.88034">
        <ele>106.4</ele>
        <time>2020-08-25T08:17:03.191Z</time>
      </trkpt>
      <trkpt lat="49.08206" lon="3.8801">
        <ele>106.4</ele>
        <time>2020-08-25T08:17:08.004Z</time>
      </trkpt>
      <trkpt lat="49.08194" lon="3.87997">
        <ele>106.4</ele>
        <time>2020-08-25T08:17:10.612Z</time>
      </trkpt>
      <trkpt lat="49.08175" lon="3.87977">
        <ele>105.6</ele>
        <time>2020-08-25T08:17:13.094Z</time>
      </trkpt>
      <trkpt lat="49.08148" lon="3.87953">
        <ele>104</ele>
        <time>2020-08-25T08:17:15.966Z</time>
      </trkpt>
      <trkpt lat="49.08141" lon="3.87949">
        <ele>103.6</ele>
        <time>2020-08-25T08:17:16.681Z</time>
      </trkpt>
      <trkpt lat="49.08111" lon="3.87939">
        <ele>103</ele>
        <time>2020-08-25T08:17:20.562Z</time>
      </trkpt>
      <trkpt lat="49.08063" lon="3.87934">
        <ele>100.6</ele>
        <time>2020-08-25T08:17:25.071Z</time>
      </trkpt>
      <trkpt lat="49.08014" lon="3.87933">
        <ele>100.6</ele>
        <time>2020-08-25T08:17:33.759Z</time>
      </trkpt>
      <trkpt lat="49.08007" lon="3.87932">
        <ele>100.4</ele>
        <time>2020-08-25T08:17:34.667Z</time>
      </trkpt>
      <trkpt lat="49.07966" lon="3.87925">
        <ele>100.4</ele>
        <time>2020-08-25T08:17:42.041Z</time>
      </trkpt>
      <trkpt lat="49.07957" lon="3.87923">
        <ele>100.4</ele>
        <time>2020-08-25T08:17:43.613Z</time>
      </trkpt>
      <trkpt lat="49.07939" lon="3.8792">
        <ele>100.2</ele>
        <time>2020-08-25T08:17:46.154Z</time>
      </trkpt>
      <trkpt lat="49.07902" lon="3.87912">
        <ele>100</ele>
        <time>2020-08-25T08:17:52.380Z</time>
      </trkpt>
      <trkpt lat="49.07892" lon="3.87909">
        <ele>99.8</ele>
        <time>2020-08-25T08:17:53.596Z</time>
      </trkpt>
      <trkpt lat="49.07882" lon="3.87907">
        <ele>99.6</ele>
        <time>2020-08-25T08:17:54.828Z</time>
      </trkpt>
      <trkpt lat="49.07852" lon="3.87899">
        <ele>98.2</ele>
        <time>2020-08-25T08:17:57.743Z</time>
      </trkpt>
      <trkpt lat="49.07803" lon="3.87888">
        <ele>95.4</ele>
        <time>2020-08-25T08:18:02.165Z</time>
      </trkpt>
      <trkpt lat="49.07793" lon="3.87886">
        <ele>94.6</ele>
        <time>2020-08-25T08:18:03.036Z</time>
      </trkpt>
      <trkpt lat="49.07765" lon="3.87879">
        <ele>93</ele>
        <time>2020-08-25T08:18:05.568Z</time>
      </trkpt>
      <trkpt lat="49.07728" lon="3.87871">
        <ele>91.6</ele>
        <time>2020-08-25T08:18:09.430Z</time>
      </trkpt>
      <trkpt lat="49.0771" lon="3.87867">
        <ele>90.8</ele>
        <time>2020-08-25T08:18:11.215Z</time>
      </trkpt>
      <trkpt lat="49.07701" lon="3.87865">
        <ele>90.6</ele>
        <time>2020-08-25T08:18:12.318Z</time>
      </trkpt>
      <trkpt lat="49.07665" lon="3.87856">
        <ele>90.2</ele>
        <time>2020-08-25T08:18:17.483Z</time>
      </trkpt>
      <trkpt lat="49.07627" lon="3.87848">
        <ele>89.6</ele>
        <time>2020-08-25T08:18:22.539Z</time>
      </trkpt>
      <trkpt lat="49.07608" lon="3.87844">
        <ele>89.4</ele>
        <time>2020-08-25T08:18:25.312Z</time>
      </trkpt>
      <trkpt lat="49.07598" lon="3.87842">
        <ele>89.4</ele>
        <time>2020-08-25T08:18:27.064Z</time>
      </trkpt>
      <trkpt lat="49.07542" lon="3.87829">
        <ele>87.4</ele>
        <time>2020-08-25T08:18:33.216Z</time>
      </trkpt>
      <trkpt lat="49.0748" lon="3.87816">
        <ele>86</ele>
        <time>2020-08-25T08:18:40.815Z</time>
      </trkpt>
      <trkpt lat="49.07473" lon="3.87815">
        <ele>86</ele>
        <time>2020-08-25T08:18:42.098Z</time>
      </trkpt>
      <trkpt lat="49.07467" lon="3.87814">
        <ele>86</ele>
        <time>2020-08-25T08:18:43.210Z</time>
      </trkpt>
      <trkpt lat="49.07461" lon="3.87814">
        <ele>85.8</ele>
        <time>2020-08-25T08:18:43.834Z</time>
      </trkpt>
      <trkpt lat="49.07455" lon="3.87814">
        <ele>85.8</ele>
        <time>2020-08-25T08:18:44.818Z</time>
      </trkpt>
      <trkpt lat="49.0745" lon="3.87813">
        <ele>85.6</ele>
        <time>2020-08-25T08:18:45.362Z</time>
      </trkpt>
      <trkpt lat="49.07434" lon="3.87809">
        <ele>85.6</ele>
        <time>2020-08-25T08:18:48.366Z</time>
      </trkpt>
      <trkpt lat="49.07414" lon="3.87805">
        <ele>85.4</ele>
        <time>2020-08-25T08:18:51.147Z</time>
      </trkpt>
      <trkpt lat="49.0737" lon="3.87795">
        <ele>84.4</ele>
        <time>2020-08-25T08:18:56.562Z</time>
      </trkpt>
      <trkpt lat="49.07317" lon="3.87784">
        <ele>82.6</ele>
        <time>2020-08-25T08:19:02.484Z</time>
      </trkpt>
      <trkpt lat="49.07301" lon="3.87784">
        <ele>82.2</ele>
        <time>2020-08-25T08:19:04.281Z</time>
      </trkpt>
      <trkpt lat="49.07273" lon="3.87782">
        <ele>81.8</ele>
        <time>2020-08-25T08:19:08.062Z</time>
      </trkpt>
      <trkpt lat="49.07261" lon="3.87776">
        <ele>81.6</ele>
        <time>2020-08-25T08:19:09.718Z</time>
      </trkpt>
      <trkpt lat="49.07255" lon="3.87776">
        <ele>81.4</ele>
        <time>2020-08-25T08:19:10.400Z</time>
      </trkpt>
      <trkpt lat="49.0725" lon="3.8778">
        <ele>81.4</ele>
        <time>2020-08-25T08:19:11.372Z</time>
      </trkpt>
      <trkpt lat="49.07248" lon="3.87786">
        <ele>81.2</ele>
        <time>2020-08-25T08:19:11.905Z</time>
      </trkpt>
      <trkpt lat="49.07247" lon="3.87795">
        <ele>81.2</ele>
        <time>2020-08-25T08:19:12.876Z</time>
      </trkpt>
      <trkpt lat="49.07247" lon="3.87814">
        <ele>81</ele>
        <time>2020-08-25T08:19:14.560Z</time>
      </trkpt>
      <trkpt lat="49.07246" lon="3.87848">
        <ele>80.6</ele>
        <time>2020-08-25T08:19:17.381Z</time>
      </trkpt>
      <trkpt lat="49.07245" lon="3.8787">
        <ele>80.2</ele>
        <time>2020-08-25T08:19:19.101Z</time>
      </trkpt>
      <trkpt lat="49.07235" lon="3.87951">
        <ele>80</ele>
        <time>2020-08-25T08:19:28.212Z</time>
      </trkpt>
      <trkpt lat="49.07233" lon="3.87962">
        <ele>80.2</ele>
        <time>2020-08-25T08:19:30.040Z</time>
      </trkpt>
      <trkpt lat="49.07215" lon="3.88045">
        <ele>79.8</ele>
        <time>2020-08-25T08:19:39.272Z</time>
      </trkpt>
      <trkpt lat="49.07208" lon="3.88069">
        <ele>79.6</ele>
        <time>2020-08-25T08:19:41.651Z</time>
      </trkpt>
      <trkpt lat="49.07194" lon="3.88118">
        <ele>79.6</ele>
        <time>2020-08-25T08:19:47.908Z</time>
      </trkpt>
      <trkpt lat="49.07173" lon="3.88193">
        <ele>78.6</ele>
        <time>2020-08-25T08:19:54.769Z</time>
      </trkpt>
      <trkpt lat="49.07165" lon="3.88218">
        <ele>78.2</ele>
        <time>2020-08-25T08:19:56.926Z</time>
      </trkpt>
      <trkpt lat="49.0714" lon="3.88304">
        <ele>77</ele>
        <time>2020-08-25T08:20:04.822Z</time>
      </trkpt>
      <trkpt lat="49.07129" lon="3.88342">
        <ele>76.8</ele>
        <time>2020-08-25T08:20:08.847Z</time>
      </trkpt>
      <trkpt lat="49.07111" lon="3.88418">
        <ele>75.8</ele>
        <time>2020-08-25T08:20:15.621Z</time>
      </trkpt>
      <trkpt lat="49.07098" lon="3.88487">
        <ele>75.6</ele>
        <time>2020-08-25T08:20:23.414Z</time>
      </trkpt>
      <trkpt lat="49.07095" lon="3.88515">
        <ele>75.2</ele>
        <time>2020-08-25T08:20:25.734Z</time>
      </trkpt>
      <trkpt lat="49.07088" lon="3.88572">
        <ele>74.6</ele>
        <time>2020-08-25T08:20:30.808Z</time>
      </trkpt>
      <trkpt lat="49.07081" lon="3.88631">
        <ele>73.4</ele>
        <time>2020-08-25T08:20:35.128Z</time>
      </trkpt>
      <trkpt lat="49.07075" lon="3.88689">
        <ele>71.8</ele>
        <time>2020-08-25T08:20:39.052Z</time>
      </trkpt>
      <trkpt lat="49.0707" lon="3.88733">
        <ele>71.6</ele>
        <time>2020-08-25T08:20:43.768Z</time>
      </trkpt>
      <trkpt lat="49.07068" lon="3.88748">
        <ele>71.2</ele>
        <time>2020-08-25T08:20:44.747Z</time>
      </trkpt>
      <trkpt lat="49.07058" lon="3.88833">
        <ele>69.8</ele>
        <time>2020-08-25T08:20:51.534Z</time>
      </trkpt>
      <trkpt lat="49.07054" lon="3.88873">
        <ele>69</ele>
        <time>2020-08-25T08:20:54.547Z</time>
      </trkpt>
      <trkpt lat="49.07045" lon="3.88948">
        <ele>69</ele>
        <time>2020-08-25T08:21:03.434Z</time>
      </trkpt>
      <trkpt lat="49.07043" lon="3.88971">
        <ele>69</ele>
        <time>2020-08-25T08:21:06.133Z</time>
      </trkpt>
      <trkpt lat="49.07037" lon="3.89024">
        <ele>69.8</ele>
        <time>2020-08-25T08:21:14.086Z</time>
      </trkpt>
      <trkpt lat="49.07036" lon="3.89034">
        <ele>70</ele>
        <time>2020-08-25T08:21:15.758Z</time>
      </trkpt>
      <trkpt lat="49.07028" lon="3.89096">
        <ele>72.6</ele>
        <time>2020-08-25T08:21:29.839Z</time>
      </trkpt>
      <trkpt lat="49.07025" lon="3.89116">
        <ele>73</ele>
        <time>2020-08-25T08:21:33.189Z</time>
      </trkpt>
      <trkpt lat="49.07015" lon="3.89201">
        <ele>74.8</ele>
        <time>2020-08-25T08:21:47.440Z</time>
      </trkpt>
      <trkpt lat="49.0701" lon="3.89246">
        <ele>75.2</ele>
        <time>2020-08-25T08:21:53.490Z</time>
      </trkpt>
      <trkpt lat="49.07007" lon="3.89268">
        <ele>75</ele>
        <time>2020-08-25T08:21:55.522Z</time>
      </trkpt>
      <trkpt lat="49.07006" lon="3.89279">
        <ele>75</ele>
        <time>2020-08-25T08:21:56.846Z</time>
      </trkpt>
      <trkpt lat="49.07002" lon="3.89302">
        <ele>75.2</ele>
        <time>2020-08-25T08:21:59.953Z</time>
      </trkpt>
      <trkpt lat="49.06997" lon="3.8935">
        <ele>75</ele>
        <time>2020-08-25T08:22:05.169Z</time>
      </trkpt>
      <trkpt lat="49.06989" lon="3.89432">
        <ele>74.4</ele>
        <time>2020-08-25T08:22:12.761Z</time>
      </trkpt>
      <trkpt lat="49.06983" lon="3.89488">
        <ele>74</ele>
        <time>2020-08-25T08:22:18.087Z</time>
      </trkpt>
      <trkpt lat="49.06979" lon="3.89544">
        <ele>73.8</ele>
        <time>2020-08-25T08:22:24.142Z</time>
      </trkpt>
      <trkpt lat="49.06978" lon="3.89613">
        <ele>73.6</ele>
        <time>2020-08-25T08:22:31.711Z</time>
      </trkpt>
      <trkpt lat="49.06979" lon="3.89627">
        <ele>73.6</ele>
        <time>2020-08-25T08:22:33.309Z</time>
      </trkpt>
      <trkpt lat="49.06987" lon="3.89709">
        <ele>73.8</ele>
        <time>2020-08-25T08:22:43.318Z</time>
      </trkpt>
      <trkpt lat="49.06988" lon="3.89722">
        <ele>73.8</ele>
        <time>2020-08-25T08:22:44.922Z</time>
      </trkpt>
      <trkpt lat="49.06989" lon="3.89736">
        <ele>74</ele>
        <time>2020-08-25T08:22:46.932Z</time>
      </trkpt>
      <trkpt lat="49.06992" lon="3.89788">
        <ele>74.6</ele>
        <time>2020-08-25T08:22:54.305Z</time>
      </trkpt>
      <trkpt lat="49.06993" lon="3.89827">
        <ele>74.8</ele>
        <time>2020-08-25T08:22:59.134Z</time>
      </trkpt>
      <trkpt lat="49.06994" lon="3.89863">
        <ele>74.8</ele>
        <time>2020-08-25T08:23:03.353Z</time>
      </trkpt>
      <trkpt lat="49.06995" lon="3.89897">
        <ele>75</ele>
        <time>2020-08-25T08:23:07.775Z</time>
      </trkpt>
      <trkpt lat="49.06993" lon="3.89967">
        <ele>76.6</ele>
        <time>2020-08-25T08:23:19.845Z</time>
      </trkpt>
      <trkpt lat="49.06993" lon="3.89979">
        <ele>76.6</ele>
        <time>2020-08-25T08:23:21.240Z</time>
      </trkpt>
      <trkpt lat="49.06991" lon="3.90014">
        <ele>77.4</ele>
        <time>2020-08-25T08:23:27.270Z</time>
      </trkpt>
      <trkpt lat="49.06989" lon="3.90071">
        <ele>77.8</ele>
        <time>2020-08-25T08:23:34.654Z</time>
      </trkpt>
      <trkpt lat="49.06982" lon="3.90142">
        <ele>78.8</ele>
        <time>2020-08-25T08:23:45.090Z</time>
      </trkpt>
      <trkpt lat="49.06978" lon="3.9018">
        <ele>79</ele>
        <time>2020-08-25T08:23:49.893Z</time>
      </trkpt>
      <trkpt lat="49.0697" lon="3.90261">
        <ele>78.8</ele>
        <time>2020-08-25T08:23:58.976Z</time>
      </trkpt>
      <trkpt lat="49.06968" lon="3.90275">
        <ele>78.8</ele>
        <time>2020-08-25T08:24:00.706Z</time>
      </trkpt>
      <trkpt lat="49.06967" lon="3.9029">
        <ele>78.4</ele>
        <time>2020-08-25T08:24:01.704Z</time>
      </trkpt>
      <trkpt lat="49.06961" lon="3.90336">
        <ele>78.2</ele>
        <time>2020-08-25T08:24:06.661Z</time>
      </trkpt>
      <trkpt lat="49.06955" lon="3.90399">
        <ele>77.4</ele>
        <time>2020-08-25T08:24:11.950Z</time>
      </trkpt>
      <trkpt lat="49.06952" lon="3.90429">
        <ele>76.6</ele>
        <time>2020-08-25T08:24:13.997Z</time>
      </trkpt>
      <trkpt lat="49.06947" lon="3.90487">
        <ele>76.4</ele>
        <time>2020-08-25T08:24:20.345Z</time>
      </trkpt>
      <trkpt lat="49.06946" lon="3.90501">
        <ele>76.4</ele>
        <time>2020-08-25T08:24:21.983Z</time>
      </trkpt>
      <trkpt lat="49.06942" lon="3.90568">
        <ele>76.2</ele>
        <time>2020-08-25T08:24:29.393Z</time>
      </trkpt>
      <trkpt lat="49.06937" lon="3.90632">
        <ele>78</ele>
        <time>2020-08-25T08:24:41.773Z</time>
      </trkpt>
      <trkpt lat="49.06927" lon="3.90727">
        <ele>79.2</ele>
        <time>2020-08-25T08:24:55.352Z</time>
      </trkpt>
      <trkpt lat="49.06926" lon="3.90741">
        <ele>79.2</ele>
        <time>2020-08-25T08:24:57.031Z</time>
      </trkpt>
      <trkpt lat="49.06922" lon="3.90769">
        <ele>79.2</ele>
        <time>2020-08-25T08:25:00.446Z</time>
      </trkpt>
      <trkpt lat="49.06919" lon="3.90799">
        <ele>79.4</ele>
        <time>2020-08-25T08:25:04.310Z</time>
      </trkpt>
      <trkpt lat="49.06911" lon="3.90862">
        <ele>79</ele>
        <time>2020-08-25T08:25:10.299Z</time>
      </trkpt>
      <trkpt lat="49.06909" lon="3.90878">
        <ele>79</ele>
        <time>2020-08-25T08:25:12.288Z</time>
      </trkpt>
      <trkpt lat="49.06905" lon="3.90913">
        <ele>78.6</ele>
        <time>2020-08-25T08:25:15.314Z</time>
      </trkpt>
      <trkpt lat="49.06902" lon="3.9095">
        <ele>78</ele>
        <time>2020-08-25T08:25:18.186Z</time>
      </trkpt>
      <trkpt lat="49.06901" lon="3.90968">
        <ele>77.4</ele>
        <time>2020-08-25T08:25:19.326Z</time>
      </trkpt>
      <trkpt lat="49.06902" lon="3.91061">
        <ele>74.4</ele>
        <time>2020-08-25T08:25:25.010Z</time>
      </trkpt>
      <trkpt lat="49.06913" lon="3.91152">
        <ele>71.4</ele>
        <time>2020-08-25T08:25:30.688Z</time>
      </trkpt>
      <trkpt lat="49.06916" lon="3.9117">
        <ele>71.2</ele>
        <time>2020-08-25T08:25:32.333Z</time>
      </trkpt>
      <trkpt lat="49.06931" lon="3.91243">
        <ele>71</ele>
        <time>2020-08-25T08:25:40.749Z</time>
      </trkpt>
      <trkpt lat="49.06943" lon="3.91296">
        <ele>70.4</ele>
        <time>2020-08-25T08:25:45.525Z</time>
      </trkpt>
      <trkpt lat="49.06961" lon="3.9138">
        <ele>68.2</ele>
        <time>2020-08-25T08:25:51.612Z</time>
      </trkpt>
      <trkpt lat="49.06974" lon="3.91447">
        <ele>67.8</ele>
        <time>2020-08-25T08:25:58.177Z</time>
      </trkpt>
      <trkpt lat="49.0699" lon="3.91526">
        <ele>67.6</ele>
        <time>2020-08-25T08:26:07.397Z</time>
      </trkpt>
      <trkpt lat="49.06998" lon="3.91571">
        <ele>67.6</ele>
        <time>2020-08-25T08:26:12.876Z</time>
      </trkpt>
      <trkpt lat="49.07013" lon="3.9164">
        <ele>67.8</ele>
        <time>2020-08-25T08:26:21.641Z</time>
      </trkpt>
      <trkpt lat="49.07019" lon="3.91667">
        <ele>68.2</ele>
        <time>2020-08-25T08:26:25.795Z</time>
      </trkpt>
      <trkpt lat="49.07037" lon="3.91749">
        <ele>69</ele>
        <time>2020-08-25T08:26:37.487Z</time>
      </trkpt>
      <trkpt lat="49.07042" lon="3.91777">
        <ele>69</ele>
        <time>2020-08-25T08:26:40.822Z</time>
      </trkpt>
      <trkpt lat="49.07049" lon="3.91831">
        <ele>69</ele>
        <time>2020-08-25T08:26:47.256Z</time>
      </trkpt>
      <trkpt lat="49.07057" lon="3.91881">
        <ele>69.2</ele>
        <time>2020-08-25T08:26:53.668Z</time>
      </trkpt>
      <trkpt lat="49.07064" lon="3.91917">
        <ele>69.2</ele>
        <time>2020-08-25T08:26:58.043Z</time>
      </trkpt>
      <trkpt lat="49.07078" lon="3.91988">
        <ele>70.2</ele>
        <time>2020-08-25T08:27:08.777Z</time>
      </trkpt>
      <trkpt lat="49.07089" lon="3.92035">
        <ele>70.6</ele>
        <time>2020-08-25T08:27:15.326Z</time>
      </trkpt>
      <trkpt lat="49.07097" lon="3.9207">
        <ele>70.8</ele>
        <time>2020-08-25T08:27:20.025Z</time>
      </trkpt>
      <trkpt lat="49.071" lon="3.92081">
        <ele>70.8</ele>
        <time>2020-08-25T08:27:21.443Z</time>
      </trkpt>
      <trkpt lat="49.07103" lon="3.92092">
        <ele>70.6</ele>
        <time>2020-08-25T08:27:22.396Z</time>
      </trkpt>
      <trkpt lat="49.07116" lon="3.92148">
        <ele>70.8</ele>
        <time>2020-08-25T08:27:29.660Z</time>
      </trkpt>
      <trkpt lat="49.07125" lon="3.9218">
        <ele>70.6</ele>
        <time>2020-08-25T08:27:32.922Z</time>
      </trkpt>
      <trkpt lat="49.07129" lon="3.9219">
        <ele>70.6</ele>
        <time>2020-08-25T08:27:34.322Z</time>
      </trkpt>
      <trkpt lat="49.07138" lon="3.9221">
        <ele>70.6</ele>
        <time>2020-08-25T08:27:37.154Z</time>
      </trkpt>
      <trkpt lat="49.07155" lon="3.92273">
        <ele>70.8</ele>
        <time>2020-08-25T08:27:45.496Z</time>
      </trkpt>
      <trkpt lat="49.07159" lon="3.92294">
        <ele>71</ele>
        <time>2020-08-25T08:27:48.404Z</time>
      </trkpt>
      <trkpt lat="49.07172" lon="3.92354">
        <ele>72.2</ele>
        <time>2020-08-25T08:27:58.519Z</time>
      </trkpt>
      <trkpt lat="49.07178" lon="3.92372">
        <ele>72.6</ele>
        <time>2020-08-25T08:28:01.847Z</time>
      </trkpt>
      <trkpt lat="49.0719" lon="3.92396">
        <ele>74.2</ele>
        <time>2020-08-25T08:28:09.551Z</time>
      </trkpt>
      <trkpt lat="49.07197" lon="3.92412">
        <ele>74.6</ele>
        <time>2020-08-25T08:28:12.696Z</time>
      </trkpt>
      <trkpt lat="49.07204" lon="3.92427">
        <ele>75</ele>
        <time>2020-08-25T08:28:15.843Z</time>
      </trkpt>
      <trkpt lat="49.07211" lon="3.92442">
        <ele>75.2</ele>
        <time>2020-08-25T08:28:18.426Z</time>
      </trkpt>
      <trkpt lat="49.07215" lon="3.9245">
        <ele>75.4</ele>
        <time>2020-08-25T08:28:19.982Z</time>
      </trkpt>
      <trkpt lat="49.07227" lon="3.92483">
        <ele>76.4</ele>
        <time>2020-08-25T08:28:27.021Z</time>
      </trkpt>
      <trkpt lat="49.07229" lon="3.92492">
        <ele>77</ele>
        <time>2020-08-25T08:28:29.814Z</time>
      </trkpt>
      <trkpt lat="49.07247" lon="3.92549">
        <ele>78.4</ele>
        <time>2020-08-25T08:28:40.518Z</time>
      </trkpt>
      <trkpt lat="49.07251" lon="3.92564">
        <ele>78.4</ele>
        <time>2020-08-25T08:28:42.522Z</time>
      </trkpt>
      <trkpt lat="49.07266" lon="3.92613">
        <ele>79.4</ele>
        <time>2020-08-25T08:28:50.972Z</time>
      </trkpt>
      <trkpt lat="49.07292" lon="3.92681">
        <ele>80.2</ele>
        <time>2020-08-25T08:29:01.713Z</time>
      </trkpt>
      <trkpt lat="49.07295" lon="3.92688">
        <ele>80.4</ele>
        <time>2020-08-25T08:29:03.222Z</time>
      </trkpt>
      <trkpt lat="49.07302" lon="3.92713">
        <ele>80.4</ele>
        <time>2020-08-25T08:29:06.366Z</time>
      </trkpt>
      <trkpt lat="49.07303" lon="3.92722">
        <ele>80.4</ele>
        <time>2020-08-25T08:29:07.469Z</time>
      </trkpt>
      <trkpt lat="49.07304" lon="3.92732">
        <ele>80.4</ele>
        <time>2020-08-25T08:29:08.621Z</time>
      </trkpt>
      <trkpt lat="49.07305" lon="3.92741">
        <ele>80.6</ele>
        <time>2020-08-25T08:29:10.217Z</time>
      </trkpt>
      <trkpt lat="49.07307" lon="3.9276">
        <ele>80.4</ele>
        <time>2020-08-25T08:29:11.820Z</time>
      </trkpt>
      <trkpt lat="49.07306" lon="3.92813">
        <ele>80.4</ele>
        <time>2020-08-25T08:29:18.004Z</time>
      </trkpt>
      <trkpt lat="49.07306" lon="3.92824">
        <ele>80.4</ele>
        <time>2020-08-25T08:29:19.327Z</time>
      </trkpt>
      <trkpt lat="49.07305" lon="3.92836">
        <ele>80.4</ele>
        <time>2020-08-25T08:29:20.686Z</time>
      </trkpt>
      <trkpt lat="49.07304" lon="3.92872">
        <ele>80.2</ele>
        <time>2020-08-25T08:29:24.165Z</time>
      </trkpt>
      <trkpt lat="49.07303" lon="3.92897">
        <ele>79.8</ele>
        <time>2020-08-25T08:29:26.165Z</time>
      </trkpt>
      <trkpt lat="49.07304" lon="3.92937">
        <ele>79</ele>
        <time>2020-08-25T08:29:29.072Z</time>
      </trkpt>
      <trkpt lat="49.07305" lon="3.92992">
        <ele>76.4</ele>
        <time>2020-08-25T08:29:32.274Z</time>
      </trkpt>
      <trkpt lat="49.07306" lon="3.93005">
        <ele>76.4</ele>
        <time>2020-08-25T08:29:33.822Z</time>
      </trkpt>
      <trkpt lat="49.07307" lon="3.93036">
        <ele>74.6</ele>
        <time>2020-08-25T08:29:35.621Z</time>
      </trkpt>
      <trkpt lat="49.07307" lon="3.93043">
        <ele>74.4</ele>
        <time>2020-08-25T08:29:36.055Z</time>
      </trkpt>
      <trkpt lat="49.07306" lon="3.93056">
        <ele>74</ele>
        <time>2020-08-25T08:29:36.890Z</time>
      </trkpt>
      <trkpt lat="49.07306" lon="3.93064">
        <ele>74</ele>
        <time>2020-08-25T08:29:37.827Z</time>
      </trkpt>
      <trkpt lat="49.07305" lon="3.9309">
        <ele>73.6</ele>
        <time>2020-08-25T08:29:39.894Z</time>
      </trkpt>
      <trkpt lat="49.07301" lon="3.93108">
        <ele>73.2</ele>
        <time>2020-08-25T08:29:41.202Z</time>
      </trkpt>
      <trkpt lat="49.07295" lon="3.93133">
        <ele>73.4</ele>
        <time>2020-08-25T08:29:44.814Z</time>
      </trkpt>
      <trkpt lat="49.07286" lon="3.93166">
        <ele>73.6</ele>
        <time>2020-08-25T08:29:49.294Z</time>
      </trkpt>
      <trkpt lat="49.07284" lon="3.93174">
        <ele>73.6</ele>
        <time>2020-08-25T08:29:50.240Z</time>
      </trkpt>
      <trkpt lat="49.07278" lon="3.93203">
        <ele>73.8</ele>
        <time>2020-08-25T08:29:54.157Z</time>
      </trkpt>
      <trkpt lat="49.07276" lon="3.93215">
        <ele>74.2</ele>
        <time>2020-08-25T08:29:56.675Z</time>
      </trkpt>
      <trkpt lat="49.07277" lon="3.9322">
        <ele>74.6</ele>
        <time>2020-08-25T08:29:58.548Z</time>
      </trkpt>
      <trkpt lat="49.07281" lon="3.93229">
        <ele>75</ele>
        <time>2020-08-25T08:30:00.868Z</time>
      </trkpt>
      <trkpt lat="49.07283" lon="3.93233">
        <ele>75.4</ele>
        <time>2020-08-25T08:30:02.758Z</time>
      </trkpt>
      <trkpt lat="49.07289" lon="3.93243">
        <ele>76</ele>
        <time>2020-08-25T08:30:05.835Z</time>
      </trkpt>
      <trkpt lat="49.07292" lon="3.93249">
        <ele>77</ele>
        <time>2020-08-25T08:30:09.181Z</time>
      </trkpt>
      <trkpt lat="49.07293" lon="3.93252">
        <ele>77.4</ele>
        <time>2020-08-25T08:30:10.882Z</time>
      </trkpt>
      <trkpt lat="49.07297" lon="3.93261">
        <ele>78.6</ele>
        <time>2020-08-25T08:30:15.869Z</time>
      </trkpt>
      <trkpt lat="49.07301" lon="3.9327">
        <ele>80.2</ele>
        <time>2020-08-25T08:30:20.558Z</time>
      </trkpt>
      <trkpt lat="49.07306" lon="3.93282">
        <ele>81.6</ele>
        <time>2020-08-25T08:30:27.173Z</time>
      </trkpt>
      <trkpt lat="49.07311" lon="3.9329">
        <ele>82.8</ele>
        <time>2020-08-25T08:30:32.134Z</time>
      </trkpt>
      <trkpt lat="49.07318" lon="3.93301">
        <ele>84.2</ele>
        <time>2020-08-25T08:30:39.109Z</time>
      </trkpt>
      <trkpt lat="49.07324" lon="3.93309">
        <ele>85.4</ele>
        <time>2020-08-25T08:30:44.286Z</time>
      </trkpt>
      <trkpt lat="49.07333" lon="3.93316">
        <ele>86.6</ele>
        <time>2020-08-25T08:30:49.978Z</time>
      </trkpt>
      <trkpt lat="49.07337" lon="3.9332">
        <ele>87.6</ele>
        <time>2020-08-25T08:30:53.465Z</time>
      </trkpt>
      <trkpt lat="49.07339" lon="3.93323">
        <ele>88.2</ele>
        <time>2020-08-25T08:30:55.361Z</time>
      </trkpt>
      <trkpt lat="49.07351" lon="3.93333">
        <ele>89.6</ele>
        <time>2020-08-25T08:31:01.878Z</time>
      </trkpt>
      <trkpt lat="49.07355" lon="3.93338">
        <ele>90.2</ele>
        <time>2020-08-25T08:31:04.744Z</time>
      </trkpt>
      <trkpt lat="49.07357" lon="3.9334">
        <ele>90.6</ele>
        <time>2020-08-25T08:31:06.585Z</time>
      </trkpt>
      <trkpt lat="49.07365" lon="3.93351">
        <ele>91.4</ele>
        <time>2020-08-25T08:31:10.549Z</time>
      </trkpt>
      <trkpt lat="49.0737" lon="3.9336">
        <ele>92.8</ele>
        <time>2020-08-25T08:31:16.076Z</time>
      </trkpt>
      <trkpt lat="49.07372" lon="3.93363">
        <ele>93.2</ele>
        <time>2020-08-25T08:31:17.947Z</time>
      </trkpt>
      <trkpt lat="49.07378" lon="3.93372">
        <ele>94.2</ele>
        <time>2020-08-25T08:31:22.713Z</time>
      </trkpt>
      <trkpt lat="49.07387" lon="3.93389">
        <ele>95.8</ele>
        <time>2020-08-25T08:31:30.213Z</time>
      </trkpt>
      <trkpt lat="49.074" lon="3.93409">
        <ele>97.8</ele>
        <time>2020-08-25T08:31:39.623Z</time>
      </trkpt>
      <trkpt lat="49.07411" lon="3.93423">
        <ele>99</ele>
        <time>2020-08-25T08:31:45.438Z</time>
      </trkpt>
      <trkpt lat="49.0742" lon="3.93435">
        <ele>99.8</ele>
        <time>2020-08-25T08:31:49.580Z</time>
      </trkpt>
      <trkpt lat="49.07433" lon="3.93445">
        <ele>101</ele>
        <time>2020-08-25T08:31:55.343Z</time>
      </trkpt>
      <trkpt lat="49.07442" lon="3.93449">
        <ele>102</ele>
        <time>2020-08-25T08:32:00.012Z</time>
      </trkpt>
      <trkpt lat="49.07453" lon="3.93457">
        <ele>103</ele>
        <time>2020-08-25T08:32:04.867Z</time>
      </trkpt>
      <trkpt lat="49.07467" lon="3.93465">
        <ele>104.2</ele>
        <time>2020-08-25T08:32:10.757Z</time>
      </trkpt>
      <trkpt lat="49.07482" lon="3.93473">
        <ele>105.2</ele>
        <time>2020-08-25T08:32:16.050Z</time>
      </trkpt>
      <trkpt lat="49.0749" lon="3.93479">
        <ele>106</ele>
        <time>2020-08-25T08:32:19.848Z</time>
      </trkpt>
      <trkpt lat="49.07495" lon="3.93483">
        <ele>106.6</ele>
        <time>2020-08-25T08:32:22.639Z</time>
      </trkpt>
      <trkpt lat="49.07498" lon="3.93485">
        <ele>106.8</ele>
        <time>2020-08-25T08:32:23.699Z</time>
      </trkpt>
      <trkpt lat="49.07513" lon="3.93501">
        <ele>108</ele>
        <time>2020-08-25T08:32:29.995Z</time>
      </trkpt>
      <trkpt lat="49.07514" lon="3.93505">
        <ele>108.4</ele>
        <time>2020-08-25T08:32:32.048Z</time>
      </trkpt>
      <trkpt lat="49.07524" lon="3.93522">
        <ele>110</ele>
        <time>2020-08-25T08:32:39.498Z</time>
      </trkpt>
      <trkpt lat="49.07531" lon="3.93532">
        <ele>111.2</ele>
        <time>2020-08-25T08:32:45.640Z</time>
      </trkpt>
      <trkpt lat="49.07535" lon="3.93539">
        <ele>111.6</ele>
        <time>2020-08-25T08:32:47.755Z</time>
      </trkpt>
      <trkpt lat="49.07539" lon="3.93546">
        <ele>112.2</ele>
        <time>2020-08-25T08:32:50.545Z</time>
      </trkpt>
      <trkpt lat="49.07549" lon="3.93563">
        <ele>113.4</ele>
        <time>2020-08-25T08:32:56.346Z</time>
      </trkpt>
      <trkpt lat="49.07553" lon="3.9357">
        <ele>113.8</ele>
        <time>2020-08-25T08:32:58.428Z</time>
      </trkpt>
      <trkpt lat="49.07557" lon="3.93576">
        <ele>114</ele>
        <time>2020-08-25T08:32:59.950Z</time>
      </trkpt>
      <trkpt lat="49.07564" lon="3.9359">
        <ele>115</ele>
        <time>2020-08-25T08:33:04.703Z</time>
      </trkpt>
      <trkpt lat="49.07569" lon="3.93601">
        <ele>116</ele>
        <time>2020-08-25T08:33:09.433Z</time>
      </trkpt>
      <trkpt lat="49.07571" lon="3.93604">
        <ele>116.6</ele>
        <time>2020-08-25T08:33:11.436Z</time>
      </trkpt>
      <trkpt lat="49.07575" lon="3.93615">
        <ele>117.2</ele>
        <time>2020-08-25T08:33:14.524Z</time>
      </trkpt>
      <trkpt lat="49.07579" lon="3.93627">
        <ele>118.6</ele>
        <time>2020-08-25T08:33:20.361Z</time>
      </trkpt>
      <trkpt lat="49.0758" lon="3.93631">
        <ele>118.8</ele>
        <time>2020-08-25T08:33:21.373Z</time>
      </trkpt>
      <trkpt lat="49.07581" lon="3.93635">
        <ele>119.4</ele>
        <time>2020-08-25T08:33:23.303Z</time>
      </trkpt>
      <trkpt lat="49.07586" lon="3.93649">
        <ele>121</ele>
        <time>2020-08-25T08:33:30.833Z</time>
      </trkpt>
      <trkpt lat="49.07593" lon="3.93672">
        <ele>123.2</ele>
        <time>2020-08-25T08:33:42.065Z</time>
      </trkpt>
      <trkpt lat="49.07597" lon="3.93687">
        <ele>125</ele>
        <time>2020-08-25T08:33:49.406Z</time>
      </trkpt>
      <trkpt lat="49.076" lon="3.93699">
        <ele>126</ele>
        <time>2020-08-25T08:33:54.311Z</time>
      </trkpt>
      <trkpt lat="49.07601" lon="3.93707">
        <ele>126.6</ele>
        <time>2020-08-25T08:33:57.132Z</time>
      </trkpt>
      <trkpt lat="49.07602" lon="3.9371">
        <ele>126.8</ele>
        <time>2020-08-25T08:33:58.141Z</time>
      </trkpt>
      <trkpt lat="49.07604" lon="3.93727">
        <ele>128.2</ele>
        <time>2020-08-25T08:34:05.062Z</time>
      </trkpt>
      <trkpt lat="49.07604" lon="3.93736">
        <ele>128.8</ele>
        <time>2020-08-25T08:34:07.865Z</time>
      </trkpt>
      <trkpt lat="49.07605" lon="3.9374">
        <ele>129.4</ele>
        <time>2020-08-25T08:34:09.838Z</time>
      </trkpt>
      <trkpt lat="49.07606" lon="3.93753">
        <ele>129.8</ele>
        <time>2020-08-25T08:34:12.418Z</time>
      </trkpt>
      <trkpt lat="49.07607" lon="3.93765">
        <ele>130.6</ele>
        <time>2020-08-25T08:34:16.157Z</time>
      </trkpt>
      <trkpt lat="49.07608" lon="3.93778">
        <ele>131.8</ele>
        <time>2020-08-25T08:34:22.061Z</time>
      </trkpt>
      <trkpt lat="49.0761" lon="3.93796">
        <ele>132.8</ele>
        <time>2020-08-25T08:34:26.820Z</time>
      </trkpt>
      <trkpt lat="49.07611" lon="3.93805">
        <ele>133.8</ele>
        <time>2020-08-25T08:34:30.866Z</time>
      </trkpt>
      <trkpt lat="49.07615" lon="3.93826">
        <ele>135.4</ele>
        <time>2020-08-25T08:34:38.355Z</time>
      </trkpt>
      <trkpt lat="49.07618" lon="3.93834">
        <ele>136</ele>
        <time>2020-08-25T08:34:41.143Z</time>
      </trkpt>
      <trkpt lat="49.07621" lon="3.93842">
        <ele>136.4</ele>
        <time>2020-08-25T08:34:43.234Z</time>
      </trkpt>
      <trkpt lat="49.07629" lon="3.9386">
        <ele>137.2</ele>
        <time>2020-08-25T08:34:47.874Z</time>
      </trkpt>
      <trkpt lat="49.07632" lon="3.93867">
        <ele>137.8</ele>
        <time>2020-08-25T08:34:50.670Z</time>
      </trkpt>
      <trkpt lat="49.07638" lon="3.93881">
        <ele>139.4</ele>
        <time>2020-08-25T08:34:58.151Z</time>
      </trkpt>
      <trkpt lat="49.07643" lon="3.93891">
        <ele>140.4</ele>
        <time>2020-08-25T08:35:02.979Z</time>
      </trkpt>
      <trkpt lat="49.07645" lon="3.93894">
        <ele>140.6</ele>
        <time>2020-08-25T08:35:03.994Z</time>
      </trkpt>
      <trkpt lat="49.07648" lon="3.93901">
        <ele>141.2</ele>
        <time>2020-08-25T08:35:06.805Z</time>
      </trkpt>
      <trkpt lat="49.07653" lon="3.9391">
        <ele>142</ele>
        <time>2020-08-25T08:35:10.524Z</time>
      </trkpt>
      <trkpt lat="49.07656" lon="3.93917">
        <ele>142.8</ele>
        <time>2020-08-25T08:35:14.076Z</time>
      </trkpt>
      <trkpt lat="49.07657" lon="3.9392">
        <ele>143.2</ele>
        <time>2020-08-25T08:35:15.890Z</time>
      </trkpt>
      <trkpt lat="49.07664" lon="3.93937">
        <ele>144.6</ele>
        <time>2020-08-25T08:35:22.406Z</time>
      </trkpt>
      <trkpt lat="49.07666" lon="3.9394">
        <ele>145</ele>
        <time>2020-08-25T08:35:24.267Z</time>
      </trkpt>
      <trkpt lat="49.07671" lon="3.9395">
        <ele>146.4</ele>
        <time>2020-08-25T08:35:29.789Z</time>
      </trkpt>
      <trkpt lat="49.07673" lon="3.93957">
        <ele>147</ele>
        <time>2020-08-25T08:35:32.613Z</time>
      </trkpt>
      <trkpt lat="49.07678" lon="3.93968">
        <ele>148.2</ele>
        <time>2020-08-25T08:35:38.054Z</time>
      </trkpt>
      <trkpt lat="49.07679" lon="3.93971">
        <ele>148.4</ele>
        <time>2020-08-25T08:35:39.045Z</time>
      </trkpt>
      <trkpt lat="49.07682" lon="3.93978">
        <ele>149</ele>
        <time>2020-08-25T08:35:41.895Z</time>
      </trkpt>
      <trkpt lat="49.07688" lon="3.9399">
        <ele>150.4</ele>
        <time>2020-08-25T08:35:48.814Z</time>
      </trkpt>
      <trkpt lat="49.07691" lon="3.93996">
        <ele>151.2</ele>
        <time>2020-08-25T08:35:52.178Z</time>
      </trkpt>
      <trkpt lat="49.07692" lon="3.93999">
        <ele>151.6</ele>
        <time>2020-08-25T08:35:53.903Z</time>
      </trkpt>
      <trkpt lat="49.07703" lon="3.94008">
        <ele>153</ele>
        <time>2020-08-25T08:36:00.578Z</time>
      </trkpt>
      <trkpt lat="49.07709" lon="3.94014">
        <ele>154</ele>
        <time>2020-08-25T08:36:05.642Z</time>
      </trkpt>
      <trkpt lat="49.07715" lon="3.94021">
        <ele>155.2</ele>
        <time>2020-08-25T08:36:10.441Z</time>
      </trkpt>
      <trkpt lat="49.07722" lon="3.94024">
        <ele>156.2</ele>
        <time>2020-08-25T08:36:15.521Z</time>
      </trkpt>
      <trkpt lat="49.07731" lon="3.94029">
        <ele>157.8</ele>
        <time>2020-08-25T08:36:22.204Z</time>
      </trkpt>
      <trkpt lat="49.07737" lon="3.94033">
        <ele>159</ele>
        <time>2020-08-25T08:36:27.082Z</time>
      </trkpt>
      <trkpt lat="49.07743" lon="3.9404">
        <ele>160.2</ele>
        <time>2020-08-25T08:36:31.960Z</time>
      </trkpt>
      <trkpt lat="49.07753" lon="3.94043">
        <ele>161.2</ele>
        <time>2020-08-25T08:36:36.608Z</time>
      </trkpt>
      <trkpt lat="49.07755" lon="3.94043">
        <ele>161.6</ele>
        <time>2020-08-25T08:36:38.415Z</time>
      </trkpt>
      <trkpt lat="49.0776" lon="3.94045">
        <ele>162.6</ele>
        <time>2020-08-25T08:36:41.949Z</time>
      </trkpt>
      <trkpt lat="49.07765" lon="3.94047">
        <ele>163.6</ele>
        <time>2020-08-25T08:36:45.260Z</time>
      </trkpt>
      <trkpt lat="49.0777" lon="3.94047">
        <ele>164.2</ele>
        <time>2020-08-25T08:36:48.121Z</time>
      </trkpt>
      <trkpt lat="49.07775" lon="3.94048">
        <ele>165</ele>
        <time>2020-08-25T08:36:51.679Z</time>
      </trkpt>
      <trkpt lat="49.07783" lon="3.94051">
        <ele>166.6</ele>
        <time>2020-08-25T08:36:56.936Z</time>
      </trkpt>
      <trkpt lat="49.07788" lon="3.94053">
        <ele>167.6</ele>
        <time>2020-08-25T08:37:00.524Z</time>
      </trkpt>
      <trkpt lat="49.07798" lon="3.94057">
        <ele>169</ele>
        <time>2020-08-25T08:37:07.559Z</time>
      </trkpt>
      <trkpt lat="49.07808" lon="3.94058">
        <ele>170</ele>
        <time>2020-08-25T08:37:12.233Z</time>
      </trkpt>
      <trkpt lat="49.07813" lon="3.9406">
        <ele>171.2</ele>
        <time>2020-08-25T08:37:15.958Z</time>
      </trkpt>
      <trkpt lat="49.07825" lon="3.94062">
        <ele>172.8</ele>
        <time>2020-08-25T08:37:23.993Z</time>
      </trkpt>
      <trkpt lat="49.07828" lon="3.94062">
        <ele>173</ele>
        <time>2020-08-25T08:37:25.029Z</time>
      </trkpt>
      <trkpt lat="49.07843" lon="3.94063">
        <ele>174.4</ele>
        <time>2020-08-25T08:37:31.560Z</time>
      </trkpt>
      <trkpt lat="49.07856" lon="3.94065">
        <ele>175.6</ele>
        <time>2020-08-25T08:37:37.196Z</time>
      </trkpt>
      <trkpt lat="49.07871" lon="3.94068">
        <ele>176.4</ele>
        <time>2020-08-25T08:37:42.071Z</time>
      </trkpt>
      <trkpt lat="49.07884" lon="3.9407">
        <ele>177</ele>
        <time>2020-08-25T08:37:45.947Z</time>
      </trkpt>
      <trkpt lat="49.07922" lon="3.94078">
        <ele>177.8</ele>
        <time>2020-08-25T08:37:54.445Z</time>
      </trkpt>
      <trkpt lat="49.07959" lon="3.94085">
        <ele>178.8</ele>
        <time>2020-08-25T08:38:03.345Z</time>
      </trkpt>
      <trkpt lat="49.07965" lon="3.94087">
        <ele>178.8</ele>
        <time>2020-08-25T08:38:04.341Z</time>
      </trkpt>
      <trkpt lat="49.07976" lon="3.94092">
        <ele>179</ele>
        <time>2020-08-25T08:38:06.947Z</time>
      </trkpt>
      <trkpt lat="49.0799" lon="3.941">
        <ele>179</ele>
        <time>2020-08-25T08:38:09.465Z</time>
      </trkpt>
      <trkpt lat="49.07996" lon="3.94105">
        <ele>178.8</ele>
        <time>2020-08-25T08:38:10.345Z</time>
      </trkpt>
      <trkpt lat="49.08004" lon="3.94109">
        <ele>179</ele>
        <time>2020-08-25T08:38:12.194Z</time>
      </trkpt>
      <trkpt lat="49.08019" lon="3.94119">
        <ele>179</ele>
        <time>2020-08-25T08:38:15.088Z</time>
      </trkpt>
      <trkpt lat="49.08034" lon="3.94129">
        <ele>178.2</ele>
        <time>2020-08-25T08:38:16.689Z</time>
      </trkpt>
      <trkpt lat="49.0805" lon="3.94139">
        <ele>177.4</ele>
        <time>2020-08-25T08:38:18.373Z</time>
      </trkpt>
      <trkpt lat="49.08058" lon="3.94145">
        <ele>176.8</ele>
        <time>2020-08-25T08:38:19.098Z</time>
      </trkpt>
      <trkpt lat="49.08078" lon="3.94162">
        <ele>175.4</ele>
        <time>2020-08-25T08:38:21.030Z</time>
      </trkpt>
      <trkpt lat="49.08084" lon="3.94167">
        <ele>175.2</ele>
        <time>2020-08-25T08:38:21.849Z</time>
      </trkpt>
      <trkpt lat="49.08114" lon="3.94186">
        <ele>175</ele>
        <time>2020-08-25T08:38:27.106Z</time>
      </trkpt>
      <trkpt lat="49.08119" lon="3.94189">
        <ele>175</ele>
        <time>2020-08-25T08:38:28.120Z</time>
      </trkpt>
      <trkpt lat="49.08129" lon="3.94195">
        <ele>175.2</ele>
        <time>2020-08-25T08:38:30.456Z</time>
      </trkpt>
      <trkpt lat="49.08143" lon="3.94203">
        <ele>175.2</ele>
        <time>2020-08-25T08:38:33.170Z</time>
      </trkpt>
      <trkpt lat="49.08152" lon="3.94208">
        <ele>175.4</ele>
        <time>2020-08-25T08:38:35.291Z</time>
      </trkpt>
      <trkpt lat="49.08156" lon="3.94211">
        <ele>175.4</ele>
        <time>2020-08-25T08:38:36.104Z</time>
      </trkpt>
      <trkpt lat="49.08161" lon="3.94214">
        <ele>175.6</ele>
        <time>2020-08-25T08:38:37.485Z</time>
      </trkpt>
      <trkpt lat="49.0817" lon="3.94218">
        <ele>176.6</ele>
        <time>2020-08-25T08:38:42.133Z</time>
      </trkpt>
      <trkpt lat="49.0818" lon="3.94222">
        <ele>177.6</ele>
        <time>2020-08-25T08:38:46.789Z</time>
      </trkpt>
      <trkpt lat="49.082" lon="3.94232">
        <ele>178.8</ele>
        <time>2020-08-25T08:38:53.729Z</time>
      </trkpt>
      <trkpt lat="49.08205" lon="3.94235">
        <ele>179</ele>
        <time>2020-08-25T08:38:55.162Z</time>
      </trkpt>
      <trkpt lat="49.0821" lon="3.94238">
        <ele>179</ele>
        <time>2020-08-25T08:38:56.073Z</time>
      </trkpt>
      <trkpt lat="49.0823" lon="3.94252">
        <ele>180</ele>
        <time>2020-08-25T08:39:02.712Z</time>
      </trkpt>
      <trkpt lat="49.0824" lon="3.9426">
        <ele>180</ele>
        <time>2020-08-25T08:39:04.741Z</time>
      </trkpt>
      <trkpt lat="49.08247" lon="3.94274">
        <ele>180.2</ele>
        <time>2020-08-25T08:39:07.222Z</time>
      </trkpt>
      <trkpt lat="49.08259" lon="3.9431">
        <ele>180.4</ele>
        <time>2020-08-25T08:39:12.321Z</time>
      </trkpt>
      <trkpt lat="49.08262" lon="3.94321">
        <ele>180.2</ele>
        <time>2020-08-25T08:39:13.182Z</time>
      </trkpt>
      <trkpt lat="49.08269" lon="3.94343">
        <ele>180.2</ele>
        <time>2020-08-25T08:39:16.035Z</time>
      </trkpt>
      <trkpt lat="49.0828" lon="3.94376">
        <ele>179.6</ele>
        <time>2020-08-25T08:39:18.981Z</time>
      </trkpt>
      <trkpt lat="49.08291" lon="3.94409">
        <ele>178.8</ele>
        <time>2020-08-25T08:39:21.602Z</time>
      </trkpt>
      <trkpt lat="49.08303" lon="3.9444">
        <ele>178.2</ele>
        <time>2020-08-25T08:39:24.361Z</time>
      </trkpt>
      <trkpt lat="49.08307" lon="3.9445">
        <ele>178.2</ele>
        <time>2020-08-25T08:39:25.753Z</time>
      </trkpt>
      <trkpt lat="49.08319" lon="3.94491">
        <ele>178</ele>
        <time>2020-08-25T08:39:30.561Z</time>
      </trkpt>
      <trkpt lat="49.08321" lon="3.94501">
        <ele>178.2</ele>
        <time>2020-08-25T08:39:32.199Z</time>
      </trkpt>
      <trkpt lat="49.08322" lon="3.9451">
        <ele>178.2</ele>
        <time>2020-08-25T08:39:33.285Z</time>
      </trkpt>
      <trkpt lat="49.08321" lon="3.94519">
        <ele>178.4</ele>
        <time>2020-08-25T08:39:34.861Z</time>
      </trkpt>
      <trkpt lat="49.08317" lon="3.94528">
        <ele>178.6</ele>
        <time>2020-08-25T08:39:36.491Z</time>
      </trkpt>
      <trkpt lat="49.08312" lon="3.94535">
        <ele>178.8</ele>
        <time>2020-08-25T08:39:38.243Z</time>
      </trkpt>
      <trkpt lat="49.08298" lon="3.94549">
        <ele>178.8</ele>
        <time>2020-08-25T08:39:41.292Z</time>
      </trkpt>
      <trkpt lat="49.08281" lon="3.94564">
        <ele>179</ele>
        <time>2020-08-25T08:39:45.123Z</time>
      </trkpt>
      <trkpt lat="49.08265" lon="3.94578">
        <ele>179</ele>
        <time>2020-08-25T08:39:48.327Z</time>
      </trkpt>
      <trkpt lat="49.08259" lon="3.94584">
        <ele>179</ele>
        <time>2020-08-25T08:39:49.624Z</time>
      </trkpt>
      <trkpt lat="49.08254" lon="3.94589">
        <ele>179</ele>
        <time>2020-08-25T08:39:50.657Z</time>
      </trkpt>
      <trkpt lat="49.08247" lon="3.94598">
        <ele>177.2</ele>
        <time>2020-08-25T08:39:51.499Z</time>
      </trkpt>
      <trkpt lat="49.08246" lon="3.94604">
        <ele>176</ele>
        <time>2020-08-25T08:39:51.856Z</time>
      </trkpt>
      <trkpt lat="49.08246" lon="3.9461">
        <ele>174.8</ele>
        <time>2020-08-25T08:39:52.227Z</time>
      </trkpt>
      <trkpt lat="49.08249" lon="3.94617">
        <ele>174</ele>
        <time>2020-08-25T08:39:52.651Z</time>
      </trkpt>
      <trkpt lat="49.08258" lon="3.94637">
        <ele>172</ele>
        <time>2020-08-25T08:39:54.072Z</time>
      </trkpt>
      <trkpt lat="49.08266" lon="3.94647">
        <ele>171.2</ele>
        <time>2020-08-25T08:39:55.022Z</time>
      </trkpt>
      <trkpt lat="49.0827" lon="3.94642">
        <ele>169.6</ele>
        <time>2020-08-25T08:39:55.514Z</time>
      </trkpt>
      <trkpt lat="49.08277" lon="3.9465">
        <ele>169.4</ele>
        <time>2020-08-25T08:39:56.609Z</time>
      </trkpt>
      <trkpt lat="49.0828" lon="3.94654">
        <ele>169.4</ele>
        <time>2020-08-25T08:39:57.298Z</time>
      </trkpt>
      <trkpt lat="49.08285" lon="3.94664">
        <ele>169.2</ele>
        <time>2020-08-25T08:39:58.292Z</time>
      </trkpt>
      <trkpt lat="49.08286" lon="3.94672">
        <ele>169.4</ele>
        <time>2020-08-25T08:39:59.692Z</time>
      </trkpt>
      <trkpt lat="49.08286" lon="3.9468">
        <ele>169.2</ele>
        <time>2020-08-25T08:40:00.263Z</time>
      </trkpt>
      <trkpt lat="49.08286" lon="3.9469">
        <ele>169</ele>
        <time>2020-08-25T08:40:00.968Z</time>
      </trkpt>
      <trkpt lat="49.08286" lon="3.94712">
        <ele>168.6</ele>
        <time>2020-08-25T08:40:02.699Z</time>
      </trkpt>
      <trkpt lat="49.08286" lon="3.94725">
        <ele>168.4</ele>
        <time>2020-08-25T08:40:03.709Z</time>
      </trkpt>
      <trkpt lat="49.08285" lon="3.94754">
        <ele>167.6</ele>
        <time>2020-08-25T08:40:05.574Z</time>
      </trkpt>
      <trkpt lat="49.08285" lon="3.94769">
        <ele>167</ele>
        <time>2020-08-25T08:40:06.434Z</time>
      </trkpt>
      <trkpt lat="49.08284" lon="3.94819">
        <ele>166</ele>
        <time>2020-08-25T08:40:10.094Z</time>
      </trkpt>
      <trkpt lat="49.08284" lon="3.94855">
        <ele>163.8</ele>
        <time>2020-08-25T08:40:12.169Z</time>
      </trkpt>
      <trkpt lat="49.08284" lon="3.94873">
        <ele>163</ele>
        <time>2020-08-25T08:40:13.176Z</time>
      </trkpt>
      <trkpt lat="49.08283" lon="3.94892">
        <ele>161.4</ele>
        <time>2020-08-25T08:40:14.275Z</time>
      </trkpt>
      <trkpt lat="49.08283" lon="3.94911">
        <ele>160.2</ele>
        <time>2020-08-25T08:40:15.392Z</time>
      </trkpt>
      <trkpt lat="49.08281" lon="3.94931">
        <ele>159.2</ele>
        <time>2020-08-25T08:40:16.542Z</time>
      </trkpt>
      <trkpt lat="49.08279" lon="3.94951">
        <ele>157.2</ele>
        <time>2020-08-25T08:40:17.710Z</time>
      </trkpt>
      <trkpt lat="49.08276" lon="3.94971">
        <ele>155.8</ele>
        <time>2020-08-25T08:40:18.884Z</time>
      </trkpt>
      <trkpt lat="49.0827" lon="3.95032">
        <ele>152.8</ele>
        <time>2020-08-25T08:40:22.467Z</time>
      </trkpt>
      <trkpt lat="49.08264" lon="3.95088">
        <ele>147.8</ele>
        <time>2020-08-25T08:40:25.811Z</time>
      </trkpt>
      <trkpt lat="49.08262" lon="3.95107">
        <ele>146.6</ele>
        <time>2020-08-25T08:40:26.883Z</time>
      </trkpt>
      <trkpt lat="49.08257" lon="3.95162">
        <ele>142.6</ele>
        <time>2020-08-25T08:40:30.156Z</time>
      </trkpt>
      <trkpt lat="49.08254" lon="3.95181">
        <ele>142.2</ele>
        <time>2020-08-25T08:40:31.555Z</time>
      </trkpt>
      <trkpt lat="49.08252" lon="3.952">
        <ele>141.2</ele>
        <time>2020-08-25T08:40:32.689Z</time>
      </trkpt>
      <trkpt lat="49.08248" lon="3.95239">
        <ele>140.4</ele>
        <time>2020-08-25T08:40:35.584Z</time>
      </trkpt>
      <trkpt lat="49.08246" lon="3.95259">
        <ele>139.6</ele>
        <time>2020-08-25T08:40:36.710Z</time>
      </trkpt>
      <trkpt lat="49.08243" lon="3.95279">
        <ele>138.6</ele>
        <time>2020-08-25T08:40:37.898Z</time>
      </trkpt>
      <trkpt lat="49.0824" lon="3.953">
        <ele>138</ele>
        <time>2020-08-25T08:40:39.230Z</time>
      </trkpt>
      <trkpt lat="49.08236" lon="3.9532">
        <ele>137.2</ele>
        <time>2020-08-25T08:40:40.424Z</time>
      </trkpt>
      <trkpt lat="49.08232" lon="3.9534">
        <ele>137</ele>
        <time>2020-08-25T08:40:42.309Z</time>
      </trkpt>
      <trkpt lat="49.08228" lon="3.95361">
        <ele>136.6</ele>
        <time>2020-08-25T08:40:43.938Z</time>
      </trkpt>
      <trkpt lat="49.08218" lon="3.95402">
        <ele>134.6</ele>
        <time>2020-08-25T08:40:46.514Z</time>
      </trkpt>
      <trkpt lat="49.08208" lon="3.95446">
        <ele>132.6</ele>
        <time>2020-08-25T08:40:49.167Z</time>
      </trkpt>
      <trkpt lat="49.08203" lon="3.95468">
        <ele>131.4</ele>
        <time>2020-08-25T08:40:50.530Z</time>
      </trkpt>
      <trkpt lat="49.08198" lon="3.9549">
        <ele>130.4</ele>
        <time>2020-08-25T08:40:51.835Z</time>
      </trkpt>
      <trkpt lat="49.08193" lon="3.95513">
        <ele>128.8</ele>
        <time>2020-08-25T08:40:53.244Z</time>
      </trkpt>
      <trkpt lat="49.08177" lon="3.95582">
        <ele>124.4</ele>
        <time>2020-08-25T08:40:57.491Z</time>
      </trkpt>
      <trkpt lat="49.08157" lon="3.95672">
        <ele>117.4</ele>
        <time>2020-08-25T08:41:02.984Z</time>
      </trkpt>
      <trkpt lat="49.08152" lon="3.95693">
        <ele>115.8</ele>
        <time>2020-08-25T08:41:04.319Z</time>
      </trkpt>
      <trkpt lat="49.08148" lon="3.95715">
        <ele>113.6</ele>
        <time>2020-08-25T08:41:05.628Z</time>
      </trkpt>
      <trkpt lat="49.0813" lon="3.95796">
        <ele>111.4</ele>
        <time>2020-08-25T08:41:11.409Z</time>
      </trkpt>
      <trkpt lat="49.08125" lon="3.95815">
        <ele>111</ele>
        <time>2020-08-25T08:41:12.910Z</time>
      </trkpt>
      <trkpt lat="49.08121" lon="3.95834">
        <ele>110.8</ele>
        <time>2020-08-25T08:41:14.661Z</time>
      </trkpt>
      <trkpt lat="49.081" lon="3.95925">
        <ele>110.4</ele>
        <time>2020-08-25T08:41:24.959Z</time>
      </trkpt>
      <trkpt lat="49.08092" lon="3.9596">
        <ele>110.2</ele>
        <time>2020-08-25T08:41:28.509Z</time>
      </trkpt>
      <trkpt lat="49.08072" lon="3.96045">
        <ele>109.4</ele>
        <time>2020-08-25T08:41:36.518Z</time>
      </trkpt>
      <trkpt lat="49.08065" lon="3.96078">
        <ele>109</ele>
        <time>2020-08-25T08:41:39.475Z</time>
      </trkpt>
      <trkpt lat="49.08062" lon="3.96095">
        <ele>108.8</ele>
        <time>2020-08-25T08:41:40.965Z</time>
      </trkpt>
      <trkpt lat="49.08058" lon="3.96111">
        <ele>108.6</ele>
        <time>2020-08-25T08:41:42.431Z</time>
      </trkpt>
      <trkpt lat="49.08051" lon="3.96143">
        <ele>108.6</ele>
        <time>2020-08-25T08:41:46.398Z</time>
      </trkpt>
      <trkpt lat="49.08037" lon="3.96206">
        <ele>108.4</ele>
        <time>2020-08-25T08:41:53.649Z</time>
      </trkpt>
      <trkpt lat="49.08033" lon="3.96221">
        <ele>108.4</ele>
        <time>2020-08-25T08:41:55.592Z</time>
      </trkpt>
      <trkpt lat="49.08016" lon="3.96299">
        <ele>106.4</ele>
        <time>2020-08-25T08:42:01.224Z</time>
      </trkpt>
      <trkpt lat="49.08009" lon="3.9633">
        <ele>105.8</ele>
        <time>2020-08-25T08:42:03.651Z</time>
      </trkpt>
      <trkpt lat="49.08002" lon="3.9636">
        <ele>105.2</ele>
        <time>2020-08-25T08:42:06.008Z</time>
      </trkpt>
      <trkpt lat="49.07992" lon="3.96402">
        <ele>104.2</ele>
        <time>2020-08-25T08:42:09.205Z</time>
      </trkpt>
      <trkpt lat="49.07989" lon="3.96416">
        <ele>104</ele>
        <time>2020-08-25T08:42:10.385Z</time>
      </trkpt>
      <trkpt lat="49.07987" lon="3.96429">
        <ele>103.8</ele>
        <time>2020-08-25T08:42:11.507Z</time>
      </trkpt>
      <trkpt lat="49.07985" lon="3.96442">
        <ele>103.6</ele>
        <time>2020-08-25T08:42:12.575Z</time>
      </trkpt>
      <trkpt lat="49.07984" lon="3.96455">
        <ele>103.8</ele>
        <time>2020-08-25T08:42:14.500Z</time>
      </trkpt>
      <trkpt lat="49.07983" lon="3.96479">
        <ele>103.6</ele>
        <time>2020-08-25T08:42:16.686Z</time>
      </trkpt>
      <trkpt lat="49.07983" lon="3.96501">
        <ele>103.8</ele>
        <time>2020-08-25T08:42:19.569Z</time>
      </trkpt>
      <trkpt lat="49.07983" lon="3.96522">
        <ele>103.6</ele>
        <time>2020-08-25T08:42:21.460Z</time>
      </trkpt>
      <trkpt lat="49.07984" lon="3.96545">
        <ele>104.4</ele>
        <time>2020-08-25T08:42:26.203Z</time>
      </trkpt>
      <trkpt lat="49.07984" lon="3.96556">
        <ele>104.8</ele>
        <time>2020-08-25T08:42:28.633Z</time>
      </trkpt>
      <trkpt lat="49.07983" lon="3.96568">
        <ele>105.4</ele>
        <time>2020-08-25T08:42:31.585Z</time>
      </trkpt>
      <trkpt lat="49.07979" lon="3.96604">
        <ele>106.4</ele>
        <time>2020-08-25T08:42:38.522Z</time>
      </trkpt>
      <trkpt lat="49.07978" lon="3.96616">
        <ele>106.6</ele>
        <time>2020-08-25T08:42:40.359Z</time>
      </trkpt>
      <trkpt lat="49.07981" lon="3.9664">
        <ele>106.6</ele>
        <time>2020-08-25T08:42:43.254Z</time>
      </trkpt>
      <trkpt lat="49.07992" lon="3.96675">
        <ele>106.8</ele>
        <time>2020-08-25T08:42:48.093Z</time>
      </trkpt>
      <trkpt lat="49.08002" lon="3.96708">
        <ele>106.6</ele>
        <time>2020-08-25T08:42:51.521Z</time>
      </trkpt>
      <trkpt lat="49.08014" lon="3.96748">
        <ele>106.8</ele>
        <time>2020-08-25T08:42:57.065Z</time>
      </trkpt>
      <trkpt lat="49.08019" lon="3.96768">
        <ele>106.8</ele>
        <time>2020-08-25T08:42:59.515Z</time>
      </trkpt>
      <trkpt lat="49.0802" lon="3.96778">
        <ele>106.6</ele>
        <time>2020-08-25T08:43:00.264Z</time>
      </trkpt>
      <trkpt lat="49.08021" lon="3.96787">
        <ele>106.6</ele>
        <time>2020-08-25T08:43:01.426Z</time>
      </trkpt>
      <trkpt lat="49.08022" lon="3.96797">
        <ele>106.8</ele>
        <time>2020-08-25T08:43:02.995Z</time>
      </trkpt>
      <trkpt lat="49.08024" lon="3.96824">
        <ele>107.2</ele>
        <time>2020-08-25T08:43:07.023Z</time>
      </trkpt>
      <trkpt lat="49.08025" lon="3.96833">
        <ele>107.8</ele>
        <time>2020-08-25T08:43:09.813Z</time>
      </trkpt>
      <trkpt lat="49.08028" lon="3.96857">
        <ele>108.8</ele>
        <time>2020-08-25T08:43:15.341Z</time>
      </trkpt>
      <trkpt lat="49.08032" lon="3.96879">
        <ele>109.2</ele>
        <time>2020-08-25T08:43:18.814Z</time>
      </trkpt>
      <trkpt lat="49.08034" lon="3.96892">
        <ele>109.6</ele>
        <time>2020-08-25T08:43:21.501Z</time>
      </trkpt>
      <trkpt lat="49.08041" lon="3.96919">
        <ele>111.8</ele>
        <time>2020-08-25T08:43:31.872Z</time>
      </trkpt>
      <trkpt lat="49.08044" lon="3.96923">
        <ele>112.4</ele>
        <time>2020-08-25T08:43:34.301Z</time>
      </trkpt>
      <trkpt lat="49.08055" lon="3.96935">
        <ele>114</ele>
        <time>2020-08-25T08:43:41.930Z</time>
      </trkpt>
      <trkpt lat="49.08079" lon="3.96944">
        <ele>116.2</ele>
        <time>2020-08-25T08:43:52.323Z</time>
      </trkpt>
      <trkpt lat="49.08096" lon="3.96947">
        <ele>117.4</ele>
        <time>2020-08-25T08:43:58.376Z</time>
      </trkpt>
      <trkpt lat="49.08109" lon="3.9695">
        <ele>118.2</ele>
        <time>2020-08-25T08:44:02.793Z</time>
      </trkpt>
      <trkpt lat="49.08145" lon="3.96959">
        <ele>118.8</ele>
        <time>2020-08-25T08:44:10.476Z</time>
      </trkpt>
      <trkpt lat="49.08149" lon="3.9696">
        <ele>118.8</ele>
        <time>2020-08-25T08:44:11.310Z</time>
      </trkpt>
      <trkpt lat="49.08175" lon="3.96969">
        <ele>119</ele>
        <time>2020-08-25T08:44:16.445Z</time>
      </trkpt>
      <trkpt lat="49.08192" lon="3.96976">
        <ele>120.2</ele>
        <time>2020-08-25T08:44:22.671Z</time>
      </trkpt>
      <trkpt lat="49.08201" lon="3.96979">
        <ele>120.2</ele>
        <time>2020-08-25T08:44:24.225Z</time>
      </trkpt>
      <trkpt lat="49.08221" lon="3.96986">
        <ele>120.8</ele>
        <time>2020-08-25T08:44:29.274Z</time>
      </trkpt>
      <trkpt lat="49.08233" lon="3.96991">
        <ele>121.2</ele>
        <time>2020-08-25T08:44:32.416Z</time>
      </trkpt>
      <trkpt lat="49.08241" lon="3.96994">
        <ele>121.6</ele>
        <time>2020-08-25T08:44:34.922Z</time>
      </trkpt>
      <trkpt lat="49.08259" lon="3.97003">
        <ele>123</ele>
        <time>2020-08-25T08:44:42.035Z</time>
      </trkpt>
      <trkpt lat="49.08263" lon="3.97005">
        <ele>123.2</ele>
        <time>2020-08-25T08:44:43.256Z</time>
      </trkpt>
      <trkpt lat="49.0828" lon="3.97019">
        <ele>124.6</ele>
        <time>2020-08-25T08:44:50.327Z</time>
      </trkpt>
      <trkpt lat="49.08292" lon="3.97032">
        <ele>125.6</ele>
        <time>2020-08-25T08:44:55.569Z</time>
      </trkpt>
      <trkpt lat="49.08295" lon="3.97035">
        <ele>125.8</ele>
        <time>2020-08-25T08:44:56.749Z</time>
      </trkpt>
      <trkpt lat="49.08307" lon="3.97055">
        <ele>126.8</ele>
        <time>2020-08-25T08:45:02.542Z</time>
      </trkpt>
      <trkpt lat="49.08312" lon="3.97062">
        <ele>127.4</ele>
        <time>2020-08-25T08:45:05.362Z</time>
      </trkpt>
      <trkpt lat="49.08315" lon="3.97071">
        <ele>128</ele>
        <time>2020-08-25T08:45:08.208Z</time>
      </trkpt>
      <trkpt lat="49.08322" lon="3.97089">
        <ele>129</ele>
        <time>2020-08-25T08:45:13.216Z</time>
      </trkpt>
      <trkpt lat="49.08328" lon="3.97101">
        <ele>129.6</ele>
        <time>2020-08-25T08:45:16.541Z</time>
      </trkpt>
      <trkpt lat="49.08333" lon="3.97108">
        <ele>130.2</ele>
        <time>2020-08-25T08:45:19.341Z</time>
      </trkpt>
      <trkpt lat="49.08342" lon="3.97121">
        <ele>131.2</ele>
        <time>2020-08-25T08:45:24.168Z</time>
      </trkpt>
      <trkpt lat="49.08346" lon="3.97126">
        <ele>131.6</ele>
        <time>2020-08-25T08:45:26.247Z</time>
      </trkpt>
      <trkpt lat="49.08357" lon="3.97136">
        <ele>132.4</ele>
        <time>2020-08-25T08:45:30.499Z</time>
      </trkpt>
      <trkpt lat="49.08364" lon="3.97145">
        <ele>133.6</ele>
        <time>2020-08-25T08:45:36.375Z</time>
      </trkpt>
      <trkpt lat="49.0837" lon="3.97151">
        <ele>134</ele>
        <time>2020-08-25T08:45:38.577Z</time>
      </trkpt>
      <trkpt lat="49.0838" lon="3.97162">
        <ele>135</ele>
        <time>2020-08-25T08:45:43.499Z</time>
      </trkpt>
      <trkpt lat="49.08392" lon="3.97179">
        <ele>136.2</ele>
        <time>2020-08-25T08:45:49.547Z</time>
      </trkpt>
      <trkpt lat="49.08407" lon="3.97206">
        <ele>137.6</ele>
        <time>2020-08-25T08:45:57.231Z</time>
      </trkpt>
      <trkpt lat="49.08413" lon="3.97223">
        <ele>138.4</ele>
        <time>2020-08-25T08:46:01.625Z</time>
      </trkpt>
      <trkpt lat="49.08416" lon="3.97237">
        <ele>139</ele>
        <time>2020-08-25T08:46:04.907Z</time>
      </trkpt>
      <trkpt lat="49.08419" lon="3.97256">
        <ele>140</ele>
        <time>2020-08-25T08:46:09.802Z</time>
      </trkpt>
      <trkpt lat="49.08421" lon="3.97274">
        <ele>141.2</ele>
        <time>2020-08-25T08:46:15.381Z</time>
      </trkpt>
      <trkpt lat="49.08425" lon="3.97301">
        <ele>143.2</ele>
        <time>2020-08-25T08:46:24.769Z</time>
      </trkpt>
      <trkpt lat="49.08427" lon="3.9731">
        <ele>143.4</ele>
        <time>2020-08-25T08:46:26.352Z</time>
      </trkpt>
      <trkpt lat="49.0843" lon="3.9733">
        <ele>144.6</ele>
        <time>2020-08-25T08:46:31.993Z</time>
      </trkpt>
      <trkpt lat="49.08435" lon="3.97355">
        <ele>145.6</ele>
        <time>2020-08-25T08:46:37.641Z</time>
      </trkpt>
      <trkpt lat="49.08441" lon="3.97383">
        <ele>146.8</ele>
        <time>2020-08-25T08:46:44.279Z</time>
      </trkpt>
      <trkpt lat="49.08445" lon="3.97397">
        <ele>147.4</ele>
        <time>2020-08-25T08:46:47.654Z</time>
      </trkpt>
      <trkpt lat="49.08446" lon="3.97402">
        <ele>147.6</ele>
        <time>2020-08-25T08:46:48.806Z</time>
      </trkpt>
      <trkpt lat="49.08455" lon="3.97424">
        <ele>148.4</ele>
        <time>2020-08-25T08:46:53.972Z</time>
      </trkpt>
      <trkpt lat="49.08457" lon="3.97428">
        <ele>148.6</ele>
        <time>2020-08-25T08:46:55.067Z</time>
      </trkpt>
      <trkpt lat="49.08462" lon="3.97439">
        <ele>149.2</ele>
        <time>2020-08-25T08:46:58.177Z</time>
      </trkpt>
      <trkpt lat="49.08468" lon="3.97449">
        <ele>150</ele>
        <time>2020-08-25T08:47:01.948Z</time>
      </trkpt>
      <trkpt lat="49.08472" lon="3.97456">
        <ele>150.8</ele>
        <time>2020-08-25T08:47:06.008Z</time>
      </trkpt>
      <trkpt lat="49.08479" lon="3.97465">
        <ele>151.6</ele>
        <time>2020-08-25T08:47:09.775Z</time>
      </trkpt>
      <trkpt lat="49.08485" lon="3.97474">
        <ele>152.8</ele>
        <time>2020-08-25T08:47:15.955Z</time>
      </trkpt>
      <trkpt lat="49.08492" lon="3.97483">
        <ele>154</ele>
        <time>2020-08-25T08:47:21.985Z</time>
      </trkpt>
      <trkpt lat="49.08494" lon="3.97486">
        <ele>154.2</ele>
        <time>2020-08-25T08:47:23.003Z</time>
      </trkpt>
      <trkpt lat="49.08499" lon="3.97495">
        <ele>154.6</ele>
        <time>2020-08-25T08:47:25.489Z</time>
      </trkpt>
      <trkpt lat="49.08503" lon="3.97501">
        <ele>155.2</ele>
        <time>2020-08-25T08:47:28.361Z</time>
      </trkpt>
      <trkpt lat="49.08509" lon="3.97508">
        <ele>156</ele>
        <time>2020-08-25T08:47:32.081Z</time>
      </trkpt>
      <trkpt lat="49.08511" lon="3.97511">
        <ele>156.6</ele>
        <time>2020-08-25T08:47:33.810Z</time>
      </trkpt>
      <trkpt lat="49.08515" lon="3.97515">
        <ele>157.2</ele>
        <time>2020-08-25T08:47:36.711Z</time>
      </trkpt>
      <trkpt lat="49.08519" lon="3.97518">
        <ele>158.2</ele>
        <time>2020-08-25T08:47:39.995Z</time>
      </trkpt>
      <trkpt lat="49.08521" lon="3.9752">
        <ele>158.8</ele>
        <time>2020-08-25T08:47:41.668Z</time>
      </trkpt>
      <trkpt lat="49.08527" lon="3.97527">
        <ele>159.8</ele>
        <time>2020-08-25T08:47:46.804Z</time>
      </trkpt>
      <trkpt lat="49.08532" lon="3.97531">
        <ele>160.6</ele>
        <time>2020-08-25T08:47:50.358Z</time>
      </trkpt>
      <trkpt lat="49.08538" lon="3.97537">
        <ele>162.2</ele>
        <time>2020-08-25T08:47:55.677Z</time>
      </trkpt>
      <trkpt lat="49.08545" lon="3.97542">
        <ele>162.8</ele>
        <time>2020-08-25T08:47:58.606Z</time>
      </trkpt>
      <trkpt lat="49.08549" lon="3.97546">
        <ele>163.6</ele>
        <time>2020-08-25T08:48:01.978Z</time>
      </trkpt>
      <trkpt lat="49.08555" lon="3.97553">
        <ele>165</ele>
        <time>2020-08-25T08:48:07.064Z</time>
      </trkpt>
      <trkpt lat="49.08559" lon="3.97556">
        <ele>165.8</ele>
        <time>2020-08-25T08:48:10.445Z</time>
      </trkpt>
      <trkpt lat="49.08562" lon="3.97558">
        <ele>166.2</ele>
        <time>2020-08-25T08:48:12.145Z</time>
      </trkpt>
      <trkpt lat="49.08572" lon="3.97564">
        <ele>167.4</ele>
        <time>2020-08-25T08:48:17.787Z</time>
      </trkpt>
      <trkpt lat="49.08574" lon="3.97562">
        <ele>167.8</ele>
        <time>2020-08-25T08:48:19.611Z</time>
      </trkpt>
      <trkpt lat="49.08583" lon="3.97545">
        <ele>169.4</ele>
        <time>2020-08-25T08:48:27.099Z</time>
      </trkpt>
      <trkpt lat="49.0859" lon="3.97536">
        <ele>169.4</ele>
        <time>2020-08-25T08:48:28.665Z</time>
      </trkpt>
      <trkpt lat="49.08601" lon="3.97525">
        <ele>170</ele>
        <time>2020-08-25T08:48:32.771Z</time>
      </trkpt>
      <trkpt lat="49.08605" lon="3.9752">
        <ele>170</ele>
        <time>2020-08-25T08:48:33.589Z</time>
      </trkpt>
      <trkpt lat="49.08609" lon="3.97517">
        <ele>170.2</ele>
        <time>2020-08-25T08:48:34.937Z</time>
      </trkpt>
      <trkpt lat="49.08617" lon="3.97511">
        <ele>170.4</ele>
        <time>2020-08-25T08:48:36.941Z</time>
      </trkpt>
      <trkpt lat="49.08621" lon="3.97511">
        <ele>170.6</ele>
        <time>2020-08-25T08:48:38.276Z</time>
      </trkpt>
      <trkpt lat="49.08625" lon="3.97515">
        <ele>170.6</ele>
        <time>2020-08-25T08:48:39.058Z</time>
      </trkpt>
      <trkpt lat="49.0863" lon="3.97526">
        <ele>170.8</ele>
        <time>2020-08-25T08:48:41.048Z</time>
      </trkpt>
      <trkpt lat="49.08632" lon="3.97532">
        <ele>170.8</ele>
        <time>2020-08-25T08:48:41.868Z</time>
      </trkpt>
      <trkpt lat="49.08636" lon="3.97544">
        <ele>171</ele>
        <time>2020-08-25T08:48:43.821Z</time>
      </trkpt>
      <trkpt lat="49.08641" lon="3.9756">
        <ele>171.4</ele>
        <time>2020-08-25T08:48:46.912Z</time>
      </trkpt>
      <trkpt lat="49.08644" lon="3.97563">
        <ele>171.6</ele>
        <time>2020-08-25T08:48:48.044Z</time>
      </trkpt>
      <trkpt lat="49.0865" lon="3.97563">
        <ele>172</ele>
        <time>2020-08-25T08:48:50.186Z</time>
      </trkpt>
      <trkpt lat="49.08653" lon="3.97562">
        <ele>172</ele>
        <time>2020-08-25T08:48:50.709Z</time>
      </trkpt>
      <trkpt lat="49.08658" lon="3.97558">
        <ele>173</ele>
        <time>2020-08-25T08:48:54.746Z</time>
      </trkpt>
      <trkpt lat="49.08666" lon="3.97552">
        <ele>174.4</ele>
        <time>2020-08-25T08:49:00.461Z</time>
      </trkpt>
      <trkpt lat="49.0867" lon="3.97548">
        <ele>175</ele>
        <time>2020-08-25T08:49:03.286Z</time>
      </trkpt>
      <trkpt lat="49.08675" lon="3.97544">
        <ele>175.8</ele>
        <time>2020-08-25T08:49:07.035Z</time>
      </trkpt>
      <trkpt lat="49.08684" lon="3.97535">
        <ele>177.6</ele>
        <time>2020-08-25T08:49:14.574Z</time>
      </trkpt>
      <trkpt lat="49.08688" lon="3.97529">
        <ele>178.6</ele>
        <time>2020-08-25T08:49:18.182Z</time>
      </trkpt>
      <trkpt lat="49.08689" lon="3.97526">
        <ele>179</ele>
        <time>2020-08-25T08:49:20.000Z</time>
      </trkpt>
      <trkpt lat="49.08694" lon="3.97516">
        <ele>179.8</ele>
        <time>2020-08-25T08:49:23.718Z</time>
      </trkpt>
      <trkpt lat="49.08699" lon="3.97502">
        <ele>181</ele>
        <time>2020-08-25T08:49:29.362Z</time>
      </trkpt>
      <trkpt lat="49.08704" lon="3.97485">
        <ele>182.4</ele>
        <time>2020-08-25T08:49:36.046Z</time>
      </trkpt>
      <trkpt lat="49.08709" lon="3.97462">
        <ele>183.6</ele>
        <time>2020-08-25T08:49:42.051Z</time>
      </trkpt>
      <trkpt lat="49.08712" lon="3.97452">
        <ele>184</ele>
        <time>2020-08-25T08:49:44.292Z</time>
      </trkpt>
      <trkpt lat="49.08719" lon="3.97427">
        <ele>184.8</ele>
        <time>2020-08-25T08:49:49.683Z</time>
      </trkpt>
      <trkpt lat="49.0872" lon="3.97422">
        <ele>185</ele>
        <time>2020-08-25T08:49:50.884Z</time>
      </trkpt>
      <trkpt lat="49.08724" lon="3.97412">
        <ele>185.2</ele>
        <time>2020-08-25T08:49:52.731Z</time>
      </trkpt>
      <trkpt lat="49.08733" lon="3.97397">
        <ele>186.2</ele>
        <time>2020-08-25T08:49:57.610Z</time>
      </trkpt>
      <trkpt lat="49.08754" lon="3.97363">
        <ele>187.2</ele>
        <time>2020-08-25T08:50:05.468Z</time>
      </trkpt>
      <trkpt lat="49.08782" lon="3.97323">
        <ele>187.6</ele>
        <time>2020-08-25T08:50:13.073Z</time>
      </trkpt>
      <trkpt lat="49.08792" lon="3.97308">
        <ele>187.8</ele>
        <time>2020-08-25T08:50:15.939Z</time>
      </trkpt>
      <trkpt lat="49.08807" lon="3.97283">
        <ele>188</ele>
        <time>2020-08-25T08:50:20.246Z</time>
      </trkpt>
      <trkpt lat="49.08815" lon="3.97268">
        <ele>188</ele>
        <time>2020-08-25T08:50:22.595Z</time>
      </trkpt>
      <trkpt lat="49.08828" lon="3.97241">
        <ele>188.8</ele>
        <time>2020-08-25T08:50:28.412Z</time>
      </trkpt>
      <trkpt lat="49.08839" lon="3.97224">
        <ele>189.8</ele>
        <time>2020-08-25T08:50:33.842Z</time>
      </trkpt>
      <trkpt lat="49.08845" lon="3.97216">
        <ele>190.8</ele>
        <time>2020-08-25T08:50:38.964Z</time>
      </trkpt>
      <trkpt lat="49.08854" lon="3.972">
        <ele>191.4</ele>
        <time>2020-08-25T08:50:43.124Z</time>
      </trkpt>
      <trkpt lat="49.08857" lon="3.9719">
        <ele>191.4</ele>
        <time>2020-08-25T08:50:44.383Z</time>
      </trkpt>
      <trkpt lat="49.0886" lon="3.97174">
        <ele>193</ele>
        <time>2020-08-25T08:50:51.766Z</time>
      </trkpt>
      <trkpt lat="49.08859" lon="3.97163">
        <ele>193.8</ele>
        <time>2020-08-25T08:50:55.512Z</time>
      </trkpt>
      <trkpt lat="49.08859" lon="3.97142">
        <ele>195.4</ele>
        <time>2020-08-25T08:51:03.115Z</time>
      </trkpt>
      <trkpt lat="49.0886" lon="3.97121">
        <ele>196.4</ele>
        <time>2020-08-25T08:51:08.095Z</time>
      </trkpt>
      <trkpt lat="49.0886" lon="3.97116">
        <ele>196.6</ele>
        <time>2020-08-25T08:51:09.222Z</time>
      </trkpt>
      <trkpt lat="49.08863" lon="3.97101">
        <ele>197</ele>
        <time>2020-08-25T08:51:12.046Z</time>
      </trkpt>
      <trkpt lat="49.08866" lon="3.97086">
        <ele>197.4</ele>
        <time>2020-08-25T08:51:14.924Z</time>
      </trkpt>
      <trkpt lat="49.08867" lon="3.97081">
        <ele>197.8</ele>
        <time>2020-08-25T08:51:16.807Z</time>
      </trkpt>
      <trkpt lat="49.08871" lon="3.97066">
        <ele>198.8</ele>
        <time>2020-08-25T08:51:21.484Z</time>
      </trkpt>
      <trkpt lat="49.08879" lon="3.97035">
        <ele>201.6</ele>
        <time>2020-08-25T08:51:35.462Z</time>
      </trkpt>
      <trkpt lat="49.08881" lon="3.9703">
        <ele>202</ele>
        <time>2020-08-25T08:51:37.322Z</time>
      </trkpt>
      <trkpt lat="49.08891" lon="3.97021">
        <ele>202.6</ele>
        <time>2020-08-25T08:51:40.928Z</time>
      </trkpt>
      <trkpt lat="49.08899" lon="3.97022">
        <ele>202.8</ele>
        <time>2020-08-25T08:51:42.719Z</time>
      </trkpt>
      <trkpt lat="49.08904" lon="3.97028">
        <ele>203</ele>
        <time>2020-08-25T08:51:44.422Z</time>
      </trkpt>
      <trkpt lat="49.08914" lon="3.9704">
        <ele>203.8</ele>
        <time>2020-08-25T08:51:48.774Z</time>
      </trkpt>
      <trkpt lat="49.08919" lon="3.97046">
        <ele>204.2</ele>
        <time>2020-08-25T08:51:50.930Z</time>
      </trkpt>
      <trkpt lat="49.08922" lon="3.97049">
        <ele>204.6</ele>
        <time>2020-08-25T08:51:52.922Z</time>
      </trkpt>
      <trkpt lat="49.08929" lon="3.97058">
        <ele>205.8</ele>
        <time>2020-08-25T08:51:58.861Z</time>
      </trkpt>
      <trkpt lat="49.08937" lon="3.97067">
        <ele>206.8</ele>
        <time>2020-08-25T08:52:03.513Z</time>
      </trkpt>
      <trkpt lat="49.08942" lon="3.97073">
        <ele>207.6</ele>
        <time>2020-08-25T08:52:07.447Z</time>
      </trkpt>
      <trkpt lat="49.08944" lon="3.97076">
        <ele>207.8</ele>
        <time>2020-08-25T08:52:08.525Z</time>
      </trkpt>
      <trkpt lat="49.08959" lon="3.97093">
        <ele>209.8</ele>
        <time>2020-08-25T08:52:17.863Z</time>
      </trkpt>
      <trkpt lat="49.08964" lon="3.97099">
        <ele>210.6</ele>
        <time>2020-08-25T08:52:21.845Z</time>
      </trkpt>
      <trkpt lat="49.08969" lon="3.97105">
        <ele>211.6</ele>
        <time>2020-08-25T08:52:26.202Z</time>
      </trkpt>
      <trkpt lat="49.08976" lon="3.97114">
        <ele>212</ele>
        <time>2020-08-25T08:52:28.979Z</time>
      </trkpt>
      <trkpt lat="49.08983" lon="3.97124">
        <ele>213</ele>
        <time>2020-08-25T08:52:33.637Z</time>
      </trkpt>
      <trkpt lat="49.08986" lon="3.97127">
        <ele>213.4</ele>
        <time>2020-08-25T08:52:35.646Z</time>
      </trkpt>
      <trkpt lat="49.08996" lon="3.97138">
        <ele>214.4</ele>
        <time>2020-08-25T08:52:40.511Z</time>
      </trkpt>
      <trkpt lat="49.09005" lon="3.9715">
        <ele>216.2</ele>
        <time>2020-08-25T08:52:48.873Z</time>
      </trkpt>
      <trkpt lat="49.09007" lon="3.97153">
        <ele>216.4</ele>
        <time>2020-08-25T08:52:49.915Z</time>
      </trkpt>
      <trkpt lat="49.09012" lon="3.97158">
        <ele>216.8</ele>
        <time>2020-08-25T08:52:52.013Z</time>
      </trkpt>
      <trkpt lat="49.09017" lon="3.97164">
        <ele>217.2</ele>
        <time>2020-08-25T08:52:54.101Z</time>
      </trkpt>
      <trkpt lat="49.09023" lon="3.97174">
        <ele>218</ele>
        <time>2020-08-25T08:52:57.879Z</time>
      </trkpt>
      <trkpt lat="49.09026" lon="3.97177">
        <ele>218.4</ele>
        <time>2020-08-25T08:52:59.943Z</time>
      </trkpt>
      <trkpt lat="49.09032" lon="3.97187">
        <ele>219.6</ele>
        <time>2020-08-25T08:53:06.128Z</time>
      </trkpt>
      <trkpt lat="49.09038" lon="3.97197">
        <ele>220.4</ele>
        <time>2020-08-25T08:53:09.946Z</time>
      </trkpt>
      <trkpt lat="49.0904" lon="3.972">
        <ele>220.8</ele>
        <time>2020-08-25T08:53:11.976Z</time>
      </trkpt>
      <trkpt lat="49.09048" lon="3.97215">
        <ele>222</ele>
        <time>2020-08-25T08:53:17.566Z</time>
      </trkpt>
      <trkpt lat="49.09054" lon="3.97226">
        <ele>223</ele>
        <time>2020-08-25T08:53:22.256Z</time>
      </trkpt>
      <trkpt lat="49.09063" lon="3.97246">
        <ele>224.4</ele>
        <time>2020-08-25T08:53:28.865Z</time>
      </trkpt>
      <trkpt lat="49.09068" lon="3.97258">
        <ele>225</ele>
        <time>2020-08-25T08:53:32.111Z</time>
      </trkpt>
      <trkpt lat="49.09074" lon="3.97275">
        <ele>226.2</ele>
        <time>2020-08-25T08:53:37.696Z</time>
      </trkpt>
      <trkpt lat="49.09077" lon="3.97287">
        <ele>227.2</ele>
        <time>2020-08-25T08:53:42.377Z</time>
      </trkpt>
      <trkpt lat="49.09078" lon="3.97292">
        <ele>227.8</ele>
        <time>2020-08-25T08:53:44.504Z</time>
      </trkpt>
      <trkpt lat="49.09082" lon="3.9731">
        <ele>229</ele>
        <time>2020-08-25T08:53:50.092Z</time>
      </trkpt>
      <trkpt lat="49.09085" lon="3.97324">
        <ele>230</ele>
        <time>2020-08-25T08:53:54.740Z</time>
      </trkpt>
      <trkpt lat="49.09086" lon="3.97334">
        <ele>230.2</ele>
        <time>2020-08-25T08:53:56.375Z</time>
      </trkpt>
      <trkpt lat="49.09089" lon="3.97354">
        <ele>231.4</ele>
        <time>2020-08-25T08:54:02.010Z</time>
      </trkpt>
      <trkpt lat="49.0909" lon="3.97359">
        <ele>231.8</ele>
        <time>2020-08-25T08:54:03.954Z</time>
      </trkpt>
      <trkpt lat="49.09091" lon="3.97379">
        <ele>233</ele>
        <time>2020-08-25T08:54:09.590Z</time>
      </trkpt>
      <trkpt lat="49.09093" lon="3.97399">
        <ele>234.4</ele>
        <time>2020-08-25T08:54:16.111Z</time>
      </trkpt>
      <trkpt lat="49.09093" lon="3.9741">
        <ele>234.8</ele>
        <time>2020-08-25T08:54:18.409Z</time>
      </trkpt>
      <trkpt lat="49.09094" lon="3.97427">
        <ele>235.6</ele>
        <time>2020-08-25T08:54:22.472Z</time>
      </trkpt>
      <trkpt lat="49.09094" lon="3.97437">
        <ele>236.2</ele>
        <time>2020-08-25T08:54:25.332Z</time>
      </trkpt>
      <trkpt lat="49.09094" lon="3.97447">
        <ele>236.4</ele>
        <time>2020-08-25T08:54:26.977Z</time>
      </trkpt>
      <trkpt lat="49.09094" lon="3.97462">
        <ele>237.4</ele>
        <time>2020-08-25T08:54:31.626Z</time>
      </trkpt>
      <trkpt lat="49.09094" lon="3.97477">
        <ele>238.2</ele>
        <time>2020-08-25T08:54:35.446Z</time>
      </trkpt>
      <trkpt lat="49.09094" lon="3.97481">
        <ele>238.6</ele>
        <time>2020-08-25T08:54:37.435Z</time>
      </trkpt>
      <trkpt lat="49.09092" lon="3.97526">
        <ele>241.2</ele>
        <time>2020-08-25T08:54:49.700Z</time>
      </trkpt>
      <trkpt lat="49.09091" lon="3.97564">
        <ele>241.8</ele>
        <time>2020-08-25T08:54:55.411Z</time>
      </trkpt>
      <trkpt lat="49.09091" lon="3.9757">
        <ele>242</ele>
        <time>2020-08-25T08:54:56.646Z</time>
      </trkpt>
      <trkpt lat="49.09093" lon="3.97575">
        <ele>242.2</ele>
        <time>2020-08-25T08:54:57.872Z</time>
      </trkpt>
      <trkpt lat="49.09098" lon="3.97583">
        <ele>242.2</ele>
        <time>2020-08-25T08:54:59.196Z</time>
      </trkpt>
      <trkpt lat="49.09101" lon="3.97586">
        <ele>242</ele>
        <time>2020-08-25T08:54:59.507Z</time>
      </trkpt>
      <trkpt lat="49.09111" lon="3.97591">
        <ele>242.4</ele>
        <time>2020-08-25T08:55:02.346Z</time>
      </trkpt>
      <trkpt lat="49.09118" lon="3.97592">
        <ele>242.8</ele>
        <time>2020-08-25T08:55:04.617Z</time>
      </trkpt>
      <trkpt lat="49.09128" lon="3.97593">
        <ele>244.6</ele>
        <time>2020-08-25T08:55:11.793Z</time>
      </trkpt>
      <trkpt lat="49.09142" lon="3.97594">
        <ele>246.4</ele>
        <time>2020-08-25T08:55:20.717Z</time>
      </trkpt>
      <trkpt lat="49.0915" lon="3.97596">
        <ele>247.6</ele>
        <time>2020-08-25T08:55:25.680Z</time>
      </trkpt>
      <trkpt lat="49.0916" lon="3.97599">
        <ele>248.6</ele>
        <time>2020-08-25T08:55:30.373Z</time>
      </trkpt>
      <trkpt lat="49.0917" lon="3.97607">
        <ele>249.2</ele>
        <time>2020-08-25T08:55:33.893Z</time>
      </trkpt>
      <trkpt lat="49.09173" lon="3.97617">
        <ele>250</ele>
        <time>2020-08-25T08:55:37.685Z</time>
      </trkpt>
      <trkpt lat="49.09175" lon="3.97627">
        <ele>250.8</ele>
        <time>2020-08-25T08:55:41.466Z</time>
      </trkpt>
      <trkpt lat="49.09176" lon="3.97638">
        <ele>251.6</ele>
        <time>2020-08-25T08:55:45.220Z</time>
      </trkpt>
      <trkpt lat="49.09179" lon="3.97666">
        <ele>253.2</ele>
        <time>2020-08-25T08:55:52.868Z</time>
      </trkpt>
      <trkpt lat="49.09181" lon="3.97672">
        <ele>253.6</ele>
        <time>2020-08-25T08:55:54.727Z</time>
      </trkpt>
      <trkpt lat="49.09187" lon="3.97681">
        <ele>254.4</ele>
        <time>2020-08-25T08:55:58.460Z</time>
      </trkpt>
      <trkpt lat="49.09191" lon="3.97684">
        <ele>254.6</ele>
        <time>2020-08-25T08:55:59.789Z</time>
      </trkpt>
      <trkpt lat="49.09196" lon="3.97686">
        <ele>254.6</ele>
        <time>2020-08-25T08:56:00.628Z</time>
      </trkpt>
      <trkpt lat="49.092" lon="3.97688">
        <ele>254.6</ele>
        <time>2020-08-25T08:56:01.462Z</time>
      </trkpt>
      <trkpt lat="49.09214" lon="3.97694">
        <ele>255</ele>
        <time>2020-08-25T08:56:04.866Z</time>
      </trkpt>
      <trkpt lat="49.09223" lon="3.97697">
        <ele>255</ele>
        <time>2020-08-25T08:56:06.570Z</time>
      </trkpt>
      <trkpt lat="49.09241" lon="3.97704">
        <ele>255.2</ele>
        <time>2020-08-25T08:56:10.245Z</time>
      </trkpt>
      <trkpt lat="49.09259" lon="3.97712">
        <ele>256.2</ele>
        <time>2020-08-25T08:56:16.237Z</time>
      </trkpt>
      <trkpt lat="49.09273" lon="3.97717">
        <ele>257</ele>
        <time>2020-08-25T08:56:20.868Z</time>
      </trkpt>
      <trkpt lat="49.09296" lon="3.97726">
        <ele>258.8</ele>
        <time>2020-08-25T08:56:29.773Z</time>
      </trkpt>
      <trkpt lat="49.093" lon="3.97728">
        <ele>259.2</ele>
        <time>2020-08-25T08:56:31.688Z</time>
      </trkpt>
      <trkpt lat="49.09326" lon="3.97736">
        <ele>260.8</ele>
        <time>2020-08-25T08:56:40.520Z</time>
      </trkpt>
      <trkpt lat="49.09327" lon="3.97735">
        <ele>261</ele>
        <time>2020-08-25T08:56:41.455Z</time>
      </trkpt>
      <trkpt lat="49.09319" lon="3.97729">
        <ele>261.2</ele>
        <time>2020-08-25T08:56:43.413Z</time>
      </trkpt>
      <trkpt lat="49.09301" lon="3.97721">
        <ele>261.6</ele>
        <time>2020-08-25T08:56:47.711Z</time>
      </trkpt>
      <trkpt lat="49.09295" lon="3.97719">
        <ele>261.6</ele>
        <time>2020-08-25T08:56:48.696Z</time>
      </trkpt>
      <trkpt lat="49.09284" lon="3.97715">
        <ele>261.6</ele>
        <time>2020-08-25T08:56:50.743Z</time>
      </trkpt>
      <trkpt lat="49.09266" lon="3.97708">
        <ele>261.4</ele>
        <time>2020-08-25T08:56:53.326Z</time>
      </trkpt>
      <trkpt lat="49.0926" lon="3.97706">
        <ele>261.2</ele>
        <time>2020-08-25T08:56:54.061Z</time>
      </trkpt>
      <trkpt lat="49.09254" lon="3.97703">
        <ele>261.2</ele>
        <time>2020-08-25T08:56:55.251Z</time>
      </trkpt>
      <trkpt lat="49.09212" lon="3.97687">
        <ele>258.4</ele>
        <time>2020-08-25T08:56:58.745Z</time>
      </trkpt>
      <trkpt lat="49.09205" lon="3.97685">
        <ele>258.2</ele>
        <time>2020-08-25T08:56:59.622Z</time>
      </trkpt>
      <trkpt lat="49.09198" lon="3.97681">
        <ele>257.8</ele>
        <time>2020-08-25T08:57:00.311Z</time>
      </trkpt>
      <trkpt lat="49.09175" lon="3.97674">
        <ele>256.8</ele>
        <time>2020-08-25T08:57:02.602Z</time>
      </trkpt>
      <trkpt lat="49.09167" lon="3.97674">
        <ele>256.6</ele>
        <time>2020-08-25T08:57:03.509Z</time>
      </trkpt>
      <trkpt lat="49.09152" lon="3.97679">
        <ele>256.4</ele>
        <time>2020-08-25T08:57:05.693Z</time>
      </trkpt>
      <trkpt lat="49.09123" lon="3.97704">
        <ele>254.6</ele>
        <time>2020-08-25T08:57:08.706Z</time>
      </trkpt>
      <trkpt lat="49.09115" lon="3.97711">
        <ele>254.2</ele>
        <time>2020-08-25T08:57:09.548Z</time>
      </trkpt>
      <trkpt lat="49.09092" lon="3.97734">
        <ele>253</ele>
        <time>2020-08-25T08:57:12.220Z</time>
      </trkpt>
      <trkpt lat="49.09077" lon="3.97749">
        <ele>252.8</ele>
        <time>2020-08-25T08:57:14.905Z</time>
      </trkpt>
      <trkpt lat="49.09061" lon="3.97768">
        <ele>252.4</ele>
        <time>2020-08-25T08:57:17.335Z</time>
      </trkpt>
      <trkpt lat="49.09055" lon="3.97778">
        <ele>252</ele>
        <time>2020-08-25T08:57:18.301Z</time>
      </trkpt>
      <trkpt lat="49.09048" lon="3.9779">
        <ele>251.8</ele>
        <time>2020-08-25T08:57:19.520Z</time>
      </trkpt>
      <trkpt lat="49.09043" lon="3.97802">
        <ele>251.8</ele>
        <time>2020-08-25T08:57:21.253Z</time>
      </trkpt>
      <trkpt lat="49.09039" lon="3.97816">
        <ele>251.2</ele>
        <time>2020-08-25T08:57:22.081Z</time>
      </trkpt>
      <trkpt lat="49.09036" lon="3.9783">
        <ele>250.6</ele>
        <time>2020-08-25T08:57:22.905Z</time>
      </trkpt>
      <trkpt lat="49.09033" lon="3.97844">
        <ele>250</ele>
        <time>2020-08-25T08:57:23.733Z</time>
      </trkpt>
      <trkpt lat="49.09023" lon="3.97887">
        <ele>248.2</ele>
        <time>2020-08-25T08:57:26.247Z</time>
      </trkpt>
      <trkpt lat="49.09015" lon="3.97915">
        <ele>247</ele>
        <time>2020-08-25T08:57:27.939Z</time>
      </trkpt>
      <trkpt lat="49.0901" lon="3.97928">
        <ele>246.6</ele>
        <time>2020-08-25T08:57:28.962Z</time>
      </trkpt>
      <trkpt lat="49.08998" lon="3.97953">
        <ele>245.8</ele>
        <time>2020-08-25T08:57:31.041Z</time>
      </trkpt>
      <trkpt lat="49.08979" lon="3.9799">
        <ele>244</ele>
        <time>2020-08-25T08:57:33.722Z</time>
      </trkpt>
      <trkpt lat="49.08972" lon="3.98002">
        <ele>243.2</ele>
        <time>2020-08-25T08:57:34.662Z</time>
      </trkpt>
      <trkpt lat="49.08965" lon="3.98014">
        <ele>242.6</ele>
        <time>2020-08-25T08:57:35.620Z</time>
      </trkpt>
      <trkpt lat="49.08949" lon="3.98036">
        <ele>241.4</ele>
        <time>2020-08-25T08:57:37.541Z</time>
      </trkpt>
      <trkpt lat="49.08939" lon="3.98045">
        <ele>240.4</ele>
        <time>2020-08-25T08:57:38.516Z</time>
      </trkpt>
      <trkpt lat="49.0893" lon="3.98052">
        <ele>239.6</ele>
        <time>2020-08-25T08:57:39.484Z</time>
      </trkpt>
      <trkpt lat="49.08909" lon="3.98062">
        <ele>238.8</ele>
        <time>2020-08-25T08:57:41.800Z</time>
      </trkpt>
      <trkpt lat="49.08886" lon="3.98066">
        <ele>237.4</ele>
        <time>2020-08-25T08:57:43.688Z</time>
      </trkpt>
      <trkpt lat="49.08875" lon="3.98066">
        <ele>236.4</ele>
        <time>2020-08-25T08:57:44.700Z</time>
      </trkpt>
      <trkpt lat="49.08863" lon="3.98067">
        <ele>235.6</ele>
        <time>2020-08-25T08:57:45.721Z</time>
      </trkpt>
      <trkpt lat="49.08805" lon="3.98073">
        <ele>232.8</ele>
        <time>2020-08-25T08:57:51.266Z</time>
      </trkpt>
      <trkpt lat="49.08781" lon="3.98077">
        <ele>232.2</ele>
        <time>2020-08-25T08:57:54.093Z</time>
      </trkpt>
      <trkpt lat="49.08769" lon="3.98079">
        <ele>231.4</ele>
        <time>2020-08-25T08:57:55.077Z</time>
      </trkpt>
      <trkpt lat="49.08745" lon="3.98083">
        <ele>230</ele>
        <time>2020-08-25T08:57:57.217Z</time>
      </trkpt>
      <trkpt lat="49.0872" lon="3.98089">
        <ele>229.6</ele>
        <time>2020-08-25T08:58:00.511Z</time>
      </trkpt>
      <trkpt lat="49.08708" lon="3.98093">
        <ele>229.2</ele>
        <time>2020-08-25T08:58:01.888Z</time>
      </trkpt>
      <trkpt lat="49.08697" lon="3.98099">
        <ele>228.4</ele>
        <time>2020-08-25T08:58:02.914Z</time>
      </trkpt>
      <trkpt lat="49.08674" lon="3.98115">
        <ele>226.6</ele>
        <time>2020-08-25T08:58:05.131Z</time>
      </trkpt>
      <trkpt lat="49.08662" lon="3.98122">
        <ele>225.6</ele>
        <time>2020-08-25T08:58:06.238Z</time>
      </trkpt>
      <trkpt lat="49.0865" lon="3.98127">
        <ele>224.8</ele>
        <time>2020-08-25T08:58:07.282Z</time>
      </trkpt>
      <trkpt lat="49.08638" lon="3.9813">
        <ele>224</ele>
        <time>2020-08-25T08:58:08.312Z</time>
      </trkpt>
      <trkpt lat="49.08613" lon="3.9813">
        <ele>222.8</ele>
        <time>2020-08-25T08:58:10.653Z</time>
      </trkpt>
      <trkpt lat="49.08601" lon="3.98127">
        <ele>221.8</ele>
        <time>2020-08-25T08:58:11.754Z</time>
      </trkpt>
      <trkpt lat="49.08552" lon="3.98112">
        <ele>219.6</ele>
        <time>2020-08-25T08:58:16.700Z</time>
      </trkpt>
      <trkpt lat="49.08539" lon="3.9811">
        <ele>218.8</ele>
        <time>2020-08-25T08:58:17.726Z</time>
      </trkpt>
      <trkpt lat="49.08527" lon="3.98108">
        <ele>217.4</ele>
        <time>2020-08-25T08:58:18.824Z</time>
      </trkpt>
      <trkpt lat="49.08466" lon="3.98098">
        <ele>213.2</ele>
        <time>2020-08-25T08:58:24.307Z</time>
      </trkpt>
      <trkpt lat="49.08453" lon="3.98094">
        <ele>212.6</ele>
        <time>2020-08-25T08:58:25.477Z</time>
      </trkpt>
      <trkpt lat="49.08442" lon="3.98088">
        <ele>211.6</ele>
        <time>2020-08-25T08:58:26.582Z</time>
      </trkpt>
      <trkpt lat="49.08421" lon="3.98072">
        <ele>210</ele>
        <time>2020-08-25T08:58:28.658Z</time>
      </trkpt>
      <trkpt lat="49.08413" lon="3.98063">
        <ele>209.4</ele>
        <time>2020-08-25T08:58:29.501Z</time>
      </trkpt>
      <trkpt lat="49.08406" lon="3.98052">
        <ele>209</ele>
        <time>2020-08-25T08:58:30.498Z</time>
      </trkpt>
      <trkpt lat="49.084" lon="3.9804">
        <ele>208.8</ele>
        <time>2020-08-25T08:58:31.739Z</time>
      </trkpt>
      <trkpt lat="49.08376" lon="3.97993">
        <ele>206.4</ele>
        <time>2020-08-25T08:58:35.082Z</time>
      </trkpt>
      <trkpt lat="49.08356" lon="3.97958">
        <ele>205.2</ele>
        <time>2020-08-25T08:58:38.170Z</time>
      </trkpt>
      <trkpt lat="49.08333" lon="3.97909">
        <ele>204.2</ele>
        <time>2020-08-25T08:58:42.881Z</time>
      </trkpt>
      <trkpt lat="49.08316" lon="3.9787">
        <ele>202.4</ele>
        <time>2020-08-25T08:58:45.447Z</time>
      </trkpt>
      <trkpt lat="49.08304" lon="3.97845">
        <ele>200.4</ele>
        <time>2020-08-25T08:58:47.269Z</time>
      </trkpt>
      <trkpt lat="49.08291" lon="3.9782">
        <ele>199.4</ele>
        <time>2020-08-25T08:58:49.240Z</time>
      </trkpt>
      <trkpt lat="49.08278" lon="3.97795">
        <ele>198.2</ele>
        <time>2020-08-25T08:58:51.088Z</time>
      </trkpt>
      <trkpt lat="49.08271" lon="3.97783">
        <ele>197.4</ele>
        <time>2020-08-25T08:58:52.025Z</time>
      </trkpt>
      <trkpt lat="49.08259" lon="3.97756">
        <ele>196</ele>
        <time>2020-08-25T08:58:53.772Z</time>
      </trkpt>
      <trkpt lat="49.08253" lon="3.97742">
        <ele>195.4</ele>
        <time>2020-08-25T08:58:54.716Z</time>
      </trkpt>
      <trkpt lat="49.08248" lon="3.97728">
        <ele>194.8</ele>
        <time>2020-08-25T08:58:55.659Z</time>
      </trkpt>
      <trkpt lat="49.08245" lon="3.97712">
        <ele>194.6</ele>
        <time>2020-08-25T08:58:57.062Z</time>
      </trkpt>
      <trkpt lat="49.08243" lon="3.97696">
        <ele>194</ele>
        <time>2020-08-25T08:58:58.001Z</time>
      </trkpt>
      <trkpt lat="49.08241" lon="3.97664">
        <ele>193.6</ele>
        <time>2020-08-25T08:59:00.670Z</time>
      </trkpt>
      <trkpt lat="49.08242" lon="3.97648">
        <ele>192.8</ele>
        <time>2020-08-25T08:59:01.593Z</time>
      </trkpt>
      <trkpt lat="49.08244" lon="3.97617">
        <ele>191.2</ele>
        <time>2020-08-25T08:59:03.434Z</time>
      </trkpt>
      <trkpt lat="49.08248" lon="3.97586">
        <ele>188.6</ele>
        <time>2020-08-25T08:59:05.244Z</time>
      </trkpt>
      <trkpt lat="49.08248" lon="3.97571">
        <ele>187.8</ele>
        <time>2020-08-25T08:59:06.128Z</time>
      </trkpt>
      <trkpt lat="49.08247" lon="3.97556">
        <ele>187.4</ele>
        <time>2020-08-25T08:59:07.116Z</time>
      </trkpt>
      <trkpt lat="49.08244" lon="3.97542">
        <ele>186.6</ele>
        <time>2020-08-25T08:59:07.969Z</time>
      </trkpt>
      <trkpt lat="49.08241" lon="3.97528">
        <ele>186.2</ele>
        <time>2020-08-25T08:59:08.936Z</time>
      </trkpt>
      <trkpt lat="49.08236" lon="3.97516">
        <ele>185.8</ele>
        <time>2020-08-25T08:59:09.887Z</time>
      </trkpt>
      <trkpt lat="49.0823" lon="3.97504">
        <ele>185.8</ele>
        <time>2020-08-25T08:59:11.575Z</time>
      </trkpt>
      <trkpt lat="49.08224" lon="3.97494">
        <ele>184.8</ele>
        <time>2020-08-25T08:59:12.417Z</time>
      </trkpt>
      <trkpt lat="49.08216" lon="3.97485">
        <ele>184.4</ele>
        <time>2020-08-25T08:59:13.356Z</time>
      </trkpt>
      <trkpt lat="49.08208" lon="3.97477">
        <ele>183.8</ele>
        <time>2020-08-25T08:59:14.163Z</time>
      </trkpt>
      <trkpt lat="49.08199" lon="3.97472">
        <ele>183.2</ele>
        <time>2020-08-25T08:59:14.981Z</time>
      </trkpt>
      <trkpt lat="49.0819" lon="3.97467">
        <ele>182.6</ele>
        <time>2020-08-25T08:59:15.843Z</time>
      </trkpt>
      <trkpt lat="49.0818" lon="3.97463">
        <ele>182.4</ele>
        <time>2020-08-25T08:59:17.117Z</time>
      </trkpt>
      <trkpt lat="49.08149" lon="3.97456">
        <ele>181.2</ele>
        <time>2020-08-25T08:59:20.307Z</time>
      </trkpt>
      <trkpt lat="49.08139" lon="3.97455">
        <ele>181</ele>
        <time>2020-08-25T08:59:21.647Z</time>
      </trkpt>
      <trkpt lat="49.08117" lon="3.97457">
        <ele>181</ele>
        <time>2020-08-25T08:59:25.476Z</time>
      </trkpt>
      <trkpt lat="49.08107" lon="3.9746">
        <ele>180.4</ele>
        <time>2020-08-25T08:59:26.443Z</time>
      </trkpt>
      <trkpt lat="49.08096" lon="3.97466">
        <ele>179.8</ele>
        <time>2020-08-25T08:59:27.431Z</time>
      </trkpt>
      <trkpt lat="49.08076" lon="3.97481">
        <ele>178</ele>
        <time>2020-08-25T08:59:29.441Z</time>
      </trkpt>
      <trkpt lat="49.08057" lon="3.97501">
        <ele>177</ele>
        <time>2020-08-25T08:59:31.739Z</time>
      </trkpt>
      <trkpt lat="49.08037" lon="3.97523">
        <ele>175.8</ele>
        <time>2020-08-25T08:59:33.970Z</time>
      </trkpt>
      <trkpt lat="49.08028" lon="3.97534">
        <ele>175.4</ele>
        <time>2020-08-25T08:59:35.300Z</time>
      </trkpt>
      <trkpt lat="49.08018" lon="3.97545">
        <ele>175</ele>
        <time>2020-08-25T08:59:36.652Z</time>
      </trkpt>
      <trkpt lat="49.07988" lon="3.97579">
        <ele>173.6</ele>
        <time>2020-08-25T08:59:40.532Z</time>
      </trkpt>
      <trkpt lat="49.07978" lon="3.97591">
        <ele>173</ele>
        <time>2020-08-25T08:59:41.730Z</time>
      </trkpt>
      <trkpt lat="49.0796" lon="3.97619">
        <ele>171.8</ele>
        <time>2020-08-25T08:59:44.130Z</time>
      </trkpt>
      <trkpt lat="49.07945" lon="3.9765">
        <ele>169.8</ele>
        <time>2020-08-25T08:59:46.406Z</time>
      </trkpt>
      <trkpt lat="49.07939" lon="3.97667">
        <ele>169</ele>
        <time>2020-08-25T08:59:47.513Z</time>
      </trkpt>
      <trkpt lat="49.07932" lon="3.97685">
        <ele>168.8</ele>
        <time>2020-08-25T08:59:49.281Z</time>
      </trkpt>
      <trkpt lat="49.07913" lon="3.97739">
        <ele>167.6</ele>
        <time>2020-08-25T08:59:53.838Z</time>
      </trkpt>
      <trkpt lat="49.07905" lon="3.97756">
        <ele>166.4</ele>
        <time>2020-08-25T08:59:55.041Z</time>
      </trkpt>
      <trkpt lat="49.07896" lon="3.97771">
        <ele>165.6</ele>
        <time>2020-08-25T08:59:56.198Z</time>
      </trkpt>
      <trkpt lat="49.07885" lon="3.97783">
        <ele>165.4</ele>
        <time>2020-08-25T08:59:57.997Z</time>
      </trkpt>
      <trkpt lat="49.07873" lon="3.97792">
        <ele>164.8</ele>
        <time>2020-08-25T08:59:59.295Z</time>
      </trkpt>
      <trkpt lat="49.0786" lon="3.97798">
        <ele>164.6</ele>
        <time>2020-08-25T09:00:01.081Z</time>
      </trkpt>
      <trkpt lat="49.07847" lon="3.97802">
        <ele>164</ele>
        <time>2020-08-25T09:00:02.393Z</time>
      </trkpt>
      <trkpt lat="49.07834" lon="3.97804">
        <ele>163</ele>
        <time>2020-08-25T09:00:03.578Z</time>
      </trkpt>
      <trkpt lat="49.07768" lon="3.97803">
        <ele>156.6</ele>
        <time>2020-08-25T09:00:09.367Z</time>
      </trkpt>
      <trkpt lat="49.07755" lon="3.97803">
        <ele>155</ele>
        <time>2020-08-25T09:00:10.521Z</time>
      </trkpt>
      <trkpt lat="49.07729" lon="3.97802">
        <ele>153</ele>
        <time>2020-08-25T09:00:12.829Z</time>
      </trkpt>
      <trkpt lat="49.07717" lon="3.978">
        <ele>152.4</ele>
        <time>2020-08-25T09:00:14.074Z</time>
      </trkpt>
      <trkpt lat="49.07691" lon="3.97793">
        <ele>151.8</ele>
        <time>2020-08-25T09:00:17.184Z</time>
      </trkpt>
      <trkpt lat="49.07679" lon="3.97787">
        <ele>151.6</ele>
        <time>2020-08-25T09:00:18.867Z</time>
      </trkpt>
      <trkpt lat="49.07668" lon="3.97779">
        <ele>151.4</ele>
        <time>2020-08-25T09:00:20.499Z</time>
      </trkpt>
      <trkpt lat="49.07657" lon="3.9777">
        <ele>151.2</ele>
        <time>2020-08-25T09:00:22.105Z</time>
      </trkpt>
      <trkpt lat="49.07615" lon="3.97733">
        <ele>148</ele>
        <time>2020-08-25T09:00:26.088Z</time>
      </trkpt>
      <trkpt lat="49.07604" lon="3.97727">
        <ele>146.2</ele>
        <time>2020-08-25T09:00:27.147Z</time>
      </trkpt>
      <trkpt lat="49.07592" lon="3.97722">
        <ele>145.4</ele>
        <time>2020-08-25T09:00:28.131Z</time>
      </trkpt>
      <trkpt lat="49.07568" lon="3.97716">
        <ele>144</ele>
        <time>2020-08-25T09:00:30.250Z</time>
      </trkpt>
      <trkpt lat="49.07556" lon="3.97713">
        <ele>143.8</ele>
        <time>2020-08-25T09:00:31.880Z</time>
      </trkpt>
      <trkpt lat="49.07532" lon="3.97704">
        <ele>143.2</ele>
        <time>2020-08-25T09:00:34.883Z</time>
      </trkpt>
      <trkpt lat="49.0752" lon="3.97696">
        <ele>142.8</ele>
        <time>2020-08-25T09:00:36.270Z</time>
      </trkpt>
      <trkpt lat="49.0751" lon="3.97686">
        <ele>142.8</ele>
        <time>2020-08-25T09:00:38.467Z</time>
      </trkpt>
      <trkpt lat="49.07491" lon="3.97662">
        <ele>142.2</ele>
        <time>2020-08-25T09:00:41.386Z</time>
      </trkpt>
      <trkpt lat="49.07464" lon="3.97624">
        <ele>140.4</ele>
        <time>2020-08-25T09:00:44.796Z</time>
      </trkpt>
      <trkpt lat="49.07438" lon="3.97586">
        <ele>135.8</ele>
        <time>2020-08-25T09:00:48.061Z</time>
      </trkpt>
      <trkpt lat="49.0742" lon="3.97559">
        <ele>133.8</ele>
        <time>2020-08-25T09:00:50.255Z</time>
      </trkpt>
      <trkpt lat="49.07412" lon="3.97544">
        <ele>133.8</ele>
        <time>2020-08-25T09:00:52.464Z</time>
      </trkpt>
      <trkpt lat="49.07405" lon="3.97529">
        <ele>133</ele>
        <time>2020-08-25T09:00:53.480Z</time>
      </trkpt>
      <trkpt lat="49.07399" lon="3.97513">
        <ele>132.6</ele>
        <time>2020-08-25T09:00:54.822Z</time>
      </trkpt>
      <trkpt lat="49.07384" lon="3.97463">
        <ele>130.8</ele>
        <time>2020-08-25T09:00:58.192Z</time>
      </trkpt>
      <trkpt lat="49.07369" lon="3.97414">
        <ele>128.8</ele>
        <time>2020-08-25T09:01:01.282Z</time>
      </trkpt>
      <trkpt lat="49.07357" lon="3.97384">
        <ele>127.6</ele>
        <time>2020-08-25T09:01:03.406Z</time>
      </trkpt>
      <trkpt lat="49.07351" lon="3.97369">
        <ele>127</ele>
        <time>2020-08-25T09:01:04.466Z</time>
      </trkpt>
      <trkpt lat="49.07343" lon="3.97356">
        <ele>126.6</ele>
        <time>2020-08-25T09:01:05.697Z</time>
      </trkpt>
      <trkpt lat="49.07326" lon="3.97332">
        <ele>125</ele>
        <time>2020-08-25T09:01:07.734Z</time>
      </trkpt>
      <trkpt lat="49.07307" lon="3.97313">
        <ele>123.6</ele>
        <time>2020-08-25T09:01:09.705Z</time>
      </trkpt>
      <trkpt lat="49.07274" lon="3.97294">
        <ele>122.2</ele>
        <time>2020-08-25T09:01:13.341Z</time>
      </trkpt>
      <trkpt lat="49.07262" lon="3.9729">
        <ele>121.6</ele>
        <time>2020-08-25T09:01:14.458Z</time>
      </trkpt>
      <trkpt lat="49.0725" lon="3.97286">
        <ele>120.6</ele>
        <time>2020-08-25T09:01:15.525Z</time>
      </trkpt>
      <trkpt lat="49.07226" lon="3.9728">
        <ele>119.8</ele>
        <time>2020-08-25T09:01:18.192Z</time>
      </trkpt>
      <trkpt lat="49.07214" lon="3.9728">
        <ele>119.2</ele>
        <time>2020-08-25T09:01:19.349Z</time>
      </trkpt>
      <trkpt lat="49.07202" lon="3.97283">
        <ele>119</ele>
        <time>2020-08-25T09:01:20.979Z</time>
      </trkpt>
      <trkpt lat="49.07178" lon="3.97298">
        <ele>118.2</ele>
        <time>2020-08-25T09:01:23.763Z</time>
      </trkpt>
      <trkpt lat="49.07158" lon="3.97322">
        <ele>117.6</ele>
        <time>2020-08-25T09:01:26.933Z</time>
      </trkpt>
      <trkpt lat="49.07149" lon="3.97338">
        <ele>116.8</ele>
        <time>2020-08-25T09:01:28.064Z</time>
      </trkpt>
      <trkpt lat="49.07142" lon="3.97355">
        <ele>116.4</ele>
        <time>2020-08-25T09:01:29.580Z</time>
      </trkpt>
      <trkpt lat="49.07133" lon="3.97394">
        <ele>115.4</ele>
        <time>2020-08-25T09:01:32.463Z</time>
      </trkpt>
      <trkpt lat="49.07125" lon="3.97436">
        <ele>114.6</ele>
        <time>2020-08-25T09:01:35.715Z</time>
      </trkpt>
      <trkpt lat="49.07119" lon="3.97456">
        <ele>114.2</ele>
        <time>2020-08-25T09:01:37.356Z</time>
      </trkpt>
      <trkpt lat="49.07111" lon="3.97475">
        <ele>113.6</ele>
        <time>2020-08-25T09:01:38.803Z</time>
      </trkpt>
      <trkpt lat="49.07102" lon="3.97491">
        <ele>113</ele>
        <time>2020-08-25T09:01:40.254Z</time>
      </trkpt>
      <trkpt lat="49.0709" lon="3.97504">
        <ele>112.2</ele>
        <time>2020-08-25T09:01:41.522Z</time>
      </trkpt>
      <trkpt lat="49.07078" lon="3.97515">
        <ele>111.6</ele>
        <time>2020-08-25T09:01:42.945Z</time>
      </trkpt>
      <trkpt lat="49.07051" lon="3.97526">
        <ele>110.4</ele>
        <time>2020-08-25T09:01:45.722Z</time>
      </trkpt>
      <trkpt lat="49.07037" lon="3.97526">
        <ele>109.8</ele>
        <time>2020-08-25T09:01:47.098Z</time>
      </trkpt>
      <trkpt lat="49.07023" lon="3.97522">
        <ele>108.8</ele>
        <time>2020-08-25T09:01:48.323Z</time>
      </trkpt>
      <trkpt lat="49.07011" lon="3.97515">
        <ele>107.8</ele>
        <time>2020-08-25T09:01:49.537Z</time>
      </trkpt>
      <trkpt lat="49.06999" lon="3.97506">
        <ele>107.8</ele>
        <time>2020-08-25T09:01:51.937Z</time>
      </trkpt>
      <trkpt lat="49.06988" lon="3.97494">
        <ele>106</ele>
        <time>2020-08-25T09:01:53.102Z</time>
      </trkpt>
      <trkpt lat="49.06979" lon="3.97479">
        <ele>104.6</ele>
        <time>2020-08-25T09:01:54.257Z</time>
      </trkpt>
      <trkpt lat="49.06972" lon="3.97463">
        <ele>103.6</ele>
        <time>2020-08-25T09:01:55.396Z</time>
      </trkpt>
      <trkpt lat="49.06966" lon="3.97446">
        <ele>102.8</ele>
        <time>2020-08-25T09:01:56.457Z</time>
      </trkpt>
      <trkpt lat="49.0696" lon="3.97409">
        <ele>101.6</ele>
        <time>2020-08-25T09:01:58.832Z</time>
      </trkpt>
      <trkpt lat="49.0696" lon="3.9739">
        <ele>100.4</ele>
        <time>2020-08-25T09:01:59.919Z</time>
      </trkpt>
      <trkpt lat="49.0696" lon="3.97363">
        <ele>99.8</ele>
        <time>2020-08-25T09:02:01.891Z</time>
      </trkpt>
      <trkpt lat="49.06959" lon="3.97354">
        <ele>99</ele>
        <time>2020-08-25T09:02:02.412Z</time>
      </trkpt>
      <trkpt lat="49.06957" lon="3.97318">
        <ele>97.8</ele>
        <time>2020-08-25T09:02:04.571Z</time>
      </trkpt>
      <trkpt lat="49.06952" lon="3.97302">
        <ele>97.2</ele>
        <time>2020-08-25T09:02:05.646Z</time>
      </trkpt>
      <trkpt lat="49.06946" lon="3.97286">
        <ele>96.8</ele>
        <time>2020-08-25T09:02:06.905Z</time>
      </trkpt>
      <trkpt lat="49.06939" lon="3.97273">
        <ele>96.4</ele>
        <time>2020-08-25T09:02:08.167Z</time>
      </trkpt>
      <trkpt lat="49.0693" lon="3.97261">
        <ele>96.4</ele>
        <time>2020-08-25T09:02:10.246Z</time>
      </trkpt>
      <trkpt lat="49.069" lon="3.97233">
        <ele>95.2</ele>
        <time>2020-08-25T09:02:14.030Z</time>
      </trkpt>
      <trkpt lat="49.0687" lon="3.97206">
        <ele>94.6</ele>
        <time>2020-08-25T09:02:18.615Z</time>
      </trkpt>
      <trkpt lat="49.06819" lon="3.97163">
        <ele>92</ele>
        <time>2020-08-25T09:02:24.331Z</time>
      </trkpt>
      <trkpt lat="49.06808" lon="3.97154">
        <ele>91</ele>
        <time>2020-08-25T09:02:25.371Z</time>
      </trkpt>
      <trkpt lat="49.06778" lon="3.97127">
        <ele>90</ele>
        <time>2020-08-25T09:02:29.434Z</time>
      </trkpt>
      <trkpt lat="49.06757" lon="3.9711">
        <ele>88.8</ele>
        <time>2020-08-25T09:02:31.609Z</time>
      </trkpt>
      <trkpt lat="49.06726" lon="3.97084">
        <ele>87.2</ele>
        <time>2020-08-25T09:02:35.019Z</time>
      </trkpt>
      <trkpt lat="49.06706" lon="3.97067">
        <ele>86.6</ele>
        <time>2020-08-25T09:02:37.779Z</time>
      </trkpt>
      <trkpt lat="49.06674" lon="3.97044">
        <ele>85.4</ele>
        <time>2020-08-25T09:02:41.530Z</time>
      </trkpt>
      <trkpt lat="49.06663" lon="3.97038">
        <ele>84.6</ele>
        <time>2020-08-25T09:02:42.559Z</time>
      </trkpt>
      <trkpt lat="49.06656" lon="3.97035">
        <ele>83.8</ele>
        <time>2020-08-25T09:02:43.191Z</time>
      </trkpt>
      <trkpt lat="49.06649" lon="3.97033">
        <ele>83.2</ele>
        <time>2020-08-25T09:02:43.822Z</time>
      </trkpt>
      <trkpt lat="49.06636" lon="3.97027">
        <ele>83</ele>
        <time>2020-08-25T09:02:45.750Z</time>
      </trkpt>
      <trkpt lat="49.06594" lon="3.97011">
        <ele>82</ele>
        <time>2020-08-25T09:02:50.917Z</time>
      </trkpt>
      <trkpt lat="49.06571" lon="3.97003">
        <ele>80.4</ele>
        <time>2020-08-25T09:02:52.897Z</time>
      </trkpt>
      <trkpt lat="49.06559" lon="3.96999">
        <ele>80</ele>
        <time>2020-08-25T09:02:54.237Z</time>
      </trkpt>
      <trkpt lat="49.06547" lon="3.96994">
        <ele>79.8</ele>
        <time>2020-08-25T09:02:55.809Z</time>
      </trkpt>
      <trkpt lat="49.06535" lon="3.9699">
        <ele>79.6</ele>
        <time>2020-08-25T09:02:57.381Z</time>
      </trkpt>
      <trkpt lat="49.06524" lon="3.96985">
        <ele>79.2</ele>
        <time>2020-08-25T09:02:58.701Z</time>
      </trkpt>
      <trkpt lat="49.06513" lon="3.96979">
        <ele>79</ele>
        <time>2020-08-25T09:03:00.249Z</time>
      </trkpt>
      <trkpt lat="49.06502" lon="3.96973">
        <ele>78.8</ele>
        <time>2020-08-25T09:03:01.729Z</time>
      </trkpt>
      <trkpt lat="49.06485" lon="3.96961">
        <ele>78</ele>
        <time>2020-08-25T09:03:03.632Z</time>
      </trkpt>
      <trkpt lat="49.06477" lon="3.96955">
        <ele>77.4</ele>
        <time>2020-08-25T09:03:04.360Z</time>
      </trkpt>
      <trkpt lat="49.06471" lon="3.9695">
        <ele>77</ele>
        <time>2020-08-25T09:03:05.033Z</time>
      </trkpt>
      <trkpt lat="49.06459" lon="3.96941">
        <ele>75.6</ele>
        <time>2020-08-25T09:03:06.183Z</time>
      </trkpt>
      <trkpt lat="49.06446" lon="3.96931">
        <ele>75.2</ele>
        <time>2020-08-25T09:03:07.918Z</time>
      </trkpt>
      <trkpt lat="49.06441" lon="3.96929">
        <ele>75.2</ele>
        <time>2020-08-25T09:03:08.716Z</time>
      </trkpt>
      <trkpt lat="49.06438" lon="3.96926">
        <ele>74.8</ele>
        <time>2020-08-25T09:03:09.104Z</time>
      </trkpt>
      <trkpt lat="49.06431" lon="3.96916">
        <ele>74.6</ele>
        <time>2020-08-25T09:03:10.255Z</time>
      </trkpt>
      <trkpt lat="49.06423" lon="3.96909">
        <ele>74.2</ele>
        <time>2020-08-25T09:03:11.109Z</time>
      </trkpt>
      <trkpt lat="49.06423" lon="3.96909">
        <ele>74.2</ele>
        <time>2020-08-25T09:03:11.109Z</time>
      </trkpt>
      <trkpt lat="49.0642" lon="3.96908">
        <ele>74.2</ele>
        <time>2020-08-25T09:03:11.676Z</time>
      </trkpt>
      <trkpt lat="49.06417" lon="3.96908">
        <ele>74.4</ele>
        <time>2020-08-25T09:03:12.824Z</time>
      </trkpt>
      <trkpt lat="49.0641" lon="3.96915">
        <ele>74.2</ele>
        <time>2020-08-25T09:03:13.775Z</time>
      </trkpt>
      <trkpt lat="49.06396" lon="3.96952">
        <ele>74</ele>
        <time>2020-08-25T09:03:18.319Z</time>
      </trkpt>
      <trkpt lat="49.06393" lon="3.96959">
        <ele>74</ele>
        <time>2020-08-25T09:03:19.263Z</time>
      </trkpt>
      <trkpt lat="49.06384" lon="3.9699">
        <ele>74.2</ele>
        <time>2020-08-25T09:03:23.574Z</time>
      </trkpt>
      <trkpt lat="49.06384" lon="3.9699">
        <ele>74.2</ele>
        <time>2020-08-25T09:03:23.574Z</time>
      </trkpt>
      <trkpt lat="49.06375" lon="3.97032">
        <ele>74.8</ele>
        <time>2020-08-25T09:03:29.967Z</time>
      </trkpt>
      <trkpt lat="49.06372" lon="3.97049">
        <ele>75.8</ele>
        <time>2020-08-25T09:03:34.748Z</time>
      </trkpt>
      <trkpt lat="49.06369" lon="3.97067">
        <ele>76.2</ele>
        <time>2020-08-25T09:03:37.791Z</time>
      </trkpt>
      <trkpt lat="49.06356" lon="3.97139">
        <ele>78.8</ele>
        <time>2020-08-25T09:03:53.449Z</time>
      </trkpt>
      <trkpt lat="49.06351" lon="3.97168">
        <ele>79.2</ele>
        <time>2020-08-25T09:03:57.803Z</time>
      </trkpt>
      <trkpt lat="49.06341" lon="3.97234">
        <ele>80</ele>
        <time>2020-08-25T09:04:07.324Z</time>
      </trkpt>
      <trkpt lat="49.0633" lon="3.97319">
        <ele>81.2</ele>
        <time>2020-08-25T09:04:19.851Z</time>
      </trkpt>
      <trkpt lat="49.06329" lon="3.97328">
        <ele>81.4</ele>
        <time>2020-08-25T09:04:21.426Z</time>
      </trkpt>
      <trkpt lat="49.06326" lon="3.97347">
        <ele>81.8</ele>
        <time>2020-08-25T09:04:24.597Z</time>
      </trkpt>
      <trkpt lat="49.06313" lon="3.97434">
        <ele>82.2</ele>
        <time>2020-08-25T09:04:35.744Z</time>
      </trkpt>
      <trkpt lat="49.06308" lon="3.97464">
        <ele>82.4</ele>
        <time>2020-08-25T09:04:39.808Z</time>
      </trkpt>
      <trkpt lat="49.06297" lon="3.97517">
        <ele>83</ele>
        <time>2020-08-25T09:04:47.398Z</time>
      </trkpt>
      <trkpt lat="49.06295" lon="3.97528">
        <ele>83</ele>
        <time>2020-08-25T09:04:48.734Z</time>
      </trkpt>
      <trkpt lat="49.06278" lon="3.97609">
        <ele>83.4</ele>
        <time>2020-08-25T09:04:59.391Z</time>
      </trkpt>
      <trkpt lat="49.06275" lon="3.97621">
        <ele>83.2</ele>
        <time>2020-08-25T09:05:00.452Z</time>
      </trkpt>
      <trkpt lat="49.06272" lon="3.97634">
        <ele>83.2</ele>
        <time>2020-08-25T09:05:02.024Z</time>
      </trkpt>
      <trkpt lat="49.0626" lon="3.97671">
        <ele>83</ele>
        <time>2020-08-25T09:05:06.041Z</time>
      </trkpt>
      <trkpt lat="49.06251" lon="3.97695">
        <ele>82.8</ele>
        <time>2020-08-25T09:05:08.594Z</time>
      </trkpt>
      <trkpt lat="49.06235" lon="3.97728">
        <ele>82</ele>
        <time>2020-08-25T09:05:11.673Z</time>
      </trkpt>
      <trkpt lat="49.06219" lon="3.97766">
        <ele>80</ele>
        <time>2020-08-25T09:05:14.301Z</time>
      </trkpt>
      <trkpt lat="49.06216" lon="3.97775">
        <ele>79.8</ele>
        <time>2020-08-25T09:05:15.053Z</time>
      </trkpt>
      <trkpt lat="49.06213" lon="3.97784">
        <ele>79.6</ele>
        <time>2020-08-25T09:05:15.803Z</time>
      </trkpt>
      <trkpt lat="49.06194" lon="3.97839">
        <ele>79</ele>
        <time>2020-08-25T09:05:21.150Z</time>
      </trkpt>
      <trkpt lat="49.0618" lon="3.97881">
        <ele>78.6</ele>
        <time>2020-08-25T09:05:25.425Z</time>
      </trkpt>
      <trkpt lat="49.06166" lon="3.97923">
        <ele>77.4</ele>
        <time>2020-08-25T09:05:28.608Z</time>
      </trkpt>
      <trkpt lat="49.06139" lon="3.98009">
        <ele>76.4</ele>
        <time>2020-08-25T09:05:36.883Z</time>
      </trkpt>
      <trkpt lat="49.06129" lon="3.98038">
        <ele>76.2</ele>
        <time>2020-08-25T09:05:40.007Z</time>
      </trkpt>
      <trkpt lat="49.06119" lon="3.98068">
        <ele>76</ele>
        <time>2020-08-25T09:05:43.176Z</time>
      </trkpt>
      <trkpt lat="49.06114" lon="3.98083">
        <ele>75.8</ele>
        <time>2020-08-25T09:05:44.597Z</time>
      </trkpt>
      <trkpt lat="49.06094" lon="3.98144">
        <ele>75.6</ele>
        <time>2020-08-25T09:05:52.047Z</time>
      </trkpt>
      <trkpt lat="49.0607" lon="3.98219">
        <ele>75.2</ele>
        <time>2020-08-25T09:06:00.185Z</time>
      </trkpt>
      <trkpt lat="49.0606" lon="3.98249">
        <ele>74.8</ele>
        <time>2020-08-25T09:06:02.910Z</time>
      </trkpt>
      <trkpt lat="49.0606" lon="3.98249">
        <ele>74.8</ele>
        <time>2020-08-25T09:06:02.910Z</time>
      </trkpt>
      <trkpt lat="49.06037" lon="3.98318">
        <ele>74.8</ele>
        <time>2020-08-25T09:06:12.030Z</time>
      </trkpt>
      <trkpt lat="49.06033" lon="3.98332">
        <ele>74.6</ele>
        <time>2020-08-25T09:06:13.279Z</time>
      </trkpt>
      <trkpt lat="49.06012" lon="3.984">
        <ele>74.6</ele>
        <time>2020-08-25T09:06:22.093Z</time>
      </trkpt>
      <trkpt lat="49.05998" lon="3.9844">
        <ele>74.6</ele>
        <time>2020-08-25T09:06:27.360Z</time>
      </trkpt>
      <trkpt lat="49.05972" lon="3.98518">
        <ele>74.8</ele>
        <time>2020-08-25T09:06:38.048Z</time>
      </trkpt>
      <trkpt lat="49.05967" lon="3.98531">
        <ele>74.6</ele>
        <time>2020-08-25T09:06:39.235Z</time>
      </trkpt>
      <trkpt lat="49.05959" lon="3.98558">
        <ele>74.6</ele>
        <time>2020-08-25T09:06:42.697Z</time>
      </trkpt>
      <trkpt lat="49.05932" lon="3.98639">
        <ele>75</ele>
        <time>2020-08-25T09:06:54.047Z</time>
      </trkpt>
      <trkpt lat="49.05923" lon="3.98666">
        <ele>74.8</ele>
        <time>2020-08-25T09:06:56.909Z</time>
      </trkpt>
      <trkpt lat="49.05914" lon="3.98694">
        <ele>74.8</ele>
        <time>2020-08-25T09:07:00.539Z</time>
      </trkpt>
      <trkpt lat="49.05914" lon="3.98694">
        <ele>74.8</ele>
        <time>2020-08-25T09:07:00.539Z</time>
      </trkpt>
      <trkpt lat="49.05886" lon="3.9878">
        <ele>74.8</ele>
        <time>2020-08-25T09:07:11.721Z</time>
      </trkpt>
      <trkpt lat="49.05881" lon="3.98794">
        <ele>74.4</ele>
        <time>2020-08-25T09:07:12.864Z</time>
      </trkpt>
      <trkpt lat="49.05876" lon="3.98809">
        <ele>74.4</ele>
        <time>2020-08-25T09:07:14.843Z</time>
      </trkpt>
      <trkpt lat="49.05871" lon="3.98824">
        <ele>74</ele>
        <time>2020-08-25T09:07:16.010Z</time>
      </trkpt>
      <trkpt lat="49.05848" lon="3.98902">
        <ele>73</ele>
        <time>2020-08-25T09:07:23.198Z</time>
      </trkpt>
      <trkpt lat="49.05838" lon="3.98932">
        <ele>71.8</ele>
        <time>2020-08-25T09:07:25.171Z</time>
      </trkpt>
      <trkpt lat="49.05833" lon="3.98947">
        <ele>71</ele>
        <time>2020-08-25T09:07:26.141Z</time>
      </trkpt>
      <trkpt lat="49.05805" lon="3.99034">
        <ele>70</ele>
        <time>2020-08-25T09:07:34.586Z</time>
      </trkpt>
      <trkpt lat="49.05791" lon="3.99076">
        <ele>69.2</ele>
        <time>2020-08-25T09:07:38.247Z</time>
      </trkpt>
      <trkpt lat="49.05765" lon="3.99157">
        <ele>68.8</ele>
        <time>2020-08-25T09:07:47.871Z</time>
      </trkpt>
      <trkpt lat="49.05756" lon="3.99184">
        <ele>68.8</ele>
        <time>2020-08-25T09:07:51.314Z</time>
      </trkpt>
      <trkpt lat="49.05752" lon="3.99197">
        <ele>68.8</ele>
        <time>2020-08-25T09:07:53.012Z</time>
      </trkpt>
      <trkpt lat="49.05748" lon="3.9921">
        <ele>68.8</ele>
        <time>2020-08-25T09:07:54.710Z</time>
      </trkpt>
      <trkpt lat="49.05721" lon="3.99286">
        <ele>69</ele>
        <time>2020-08-25T09:08:05.116Z</time>
      </trkpt>
      <trkpt lat="49.05713" lon="3.99311">
        <ele>68.8</ele>
        <time>2020-08-25T09:08:07.720Z</time>
      </trkpt>
      <trkpt lat="49.05689" lon="3.99385">
        <ele>69</ele>
        <time>2020-08-25T09:08:17.760Z</time>
      </trkpt>
      <trkpt lat="49.05673" lon="3.99433">
        <ele>68.6</ele>
        <time>2020-08-25T09:08:22.709Z</time>
      </trkpt>
      <trkpt lat="49.05668" lon="3.99445">
        <ele>68.8</ele>
        <time>2020-08-25T09:08:24.736Z</time>
      </trkpt>
      <trkpt lat="49.05648" lon="3.99506">
        <ele>68.6</ele>
        <time>2020-08-25T09:08:32.248Z</time>
      </trkpt>
      <trkpt lat="49.0564" lon="3.9953">
        <ele>68.6</ele>
        <time>2020-08-25T09:08:35.418Z</time>
      </trkpt>
      <trkpt lat="49.05612" lon="3.99615">
        <ele>68.4</ele>
        <time>2020-08-25T09:08:45.951Z</time>
      </trkpt>
      <trkpt lat="49.05604" lon="3.99639">
        <ele>68.4</ele>
        <time>2020-08-25T09:08:49.110Z</time>
      </trkpt>
      <trkpt lat="49.056" lon="3.99651">
        <ele>68.2</ele>
        <time>2020-08-25T09:08:50.201Z</time>
      </trkpt>
      <trkpt lat="49.0557" lon="3.99727">
        <ele>67.8</ele>
        <time>2020-08-25T09:08:59.644Z</time>
      </trkpt>
      <trkpt lat="49.05556" lon="3.99733">
        <ele>67.8</ele>
        <time>2020-08-25T09:09:02.208Z</time>
      </trkpt>
      <trkpt lat="49.05544" lon="3.99721">
        <ele>67.8</ele>
        <time>2020-08-25T09:09:04.772Z</time>
      </trkpt>
      <trkpt lat="49.05533" lon="3.99707">
        <ele>67.6</ele>
        <time>2020-08-25T09:09:06.780Z</time>
      </trkpt>
      <trkpt lat="49.05526" lon="3.99705">
        <ele>67.4</ele>
        <time>2020-08-25T09:09:07.579Z</time>
      </trkpt>
      <trkpt lat="49.05519" lon="3.99708">
        <ele>67.4</ele>
        <time>2020-08-25T09:09:08.855Z</time>
      </trkpt>
      <trkpt lat="49.05513" lon="3.99715">
        <ele>67.2</ele>
        <time>2020-08-25T09:09:09.649Z</time>
      </trkpt>
      <trkpt lat="49.05506" lon="3.99734">
        <ele>67.2</ele>
        <time>2020-08-25T09:09:12.173Z</time>
      </trkpt>
      <trkpt lat="49.05501" lon="3.99754">
        <ele>67.2</ele>
        <time>2020-08-25T09:09:14.725Z</time>
      </trkpt>
      <trkpt lat="49.05499" lon="3.99764">
        <ele>67.4</ele>
        <time>2020-08-25T09:09:16.465Z</time>
      </trkpt>
      <trkpt lat="49.05486" lon="3.99828">
        <ele>67.4</ele>
        <time>2020-08-25T09:09:24.187Z</time>
      </trkpt>
      <trkpt lat="49.0548" lon="3.99847">
        <ele>67.6</ele>
        <time>2020-08-25T09:09:27.128Z</time>
      </trkpt>
      <trkpt lat="49.0547" lon="3.99863">
        <ele>67.4</ele>
        <time>2020-08-25T09:09:29.166Z</time>
      </trkpt>
      <trkpt lat="49.0543" lon="3.99917">
        <ele>67.8</ele>
        <time>2020-08-25T09:09:39.395Z</time>
      </trkpt>
      <trkpt lat="49.05389" lon="3.99972">
        <ele>67.8</ele>
        <time>2020-08-25T09:09:49.140Z</time>
      </trkpt>
      <trkpt lat="49.05378" lon="3.99986">
        <ele>68</ele>
        <time>2020-08-25T09:09:52.104Z</time>
      </trkpt>
      <trkpt lat="49.05363" lon="4.00011">
        <ele>68.2</ele>
        <time>2020-08-25T09:09:56.443Z</time>
      </trkpt>
      <trkpt lat="49.05335" lon="4.00054">
        <ele>68.2</ele>
        <time>2020-08-25T09:10:03.519Z</time>
      </trkpt>
      <trkpt lat="49.05298" lon="4.00113">
        <ele>68.4</ele>
        <time>2020-08-25T09:10:13.374Z</time>
      </trkpt>
      <trkpt lat="49.05287" lon="4.00137">
        <ele>68.6</ele>
        <time>2020-08-25T09:10:17.235Z</time>
      </trkpt>
      <trkpt lat="49.05282" lon="4.00156">
        <ele>68.6</ele>
        <time>2020-08-25T09:10:19.614Z</time>
      </trkpt>
      <trkpt lat="49.05279" lon="4.00166">
        <ele>68.8</ele>
        <time>2020-08-25T09:10:21.263Z</time>
      </trkpt>
      <trkpt lat="49.05264" lon="4.00213">
        <ele>68.4</ele>
        <time>2020-08-25T09:10:26.138Z</time>
      </trkpt>
      <trkpt lat="49.05238" lon="4.00288">
        <ele>68.6</ele>
        <time>2020-08-25T09:10:36.379Z</time>
      </trkpt>
      <trkpt lat="49.05216" lon="4.00354">
        <ele>68.2</ele>
        <time>2020-08-25T09:10:43.461Z</time>
      </trkpt>
      <trkpt lat="49.05208" lon="4.0037">
        <ele>68.2</ele>
        <time>2020-08-25T09:10:45.792Z</time>
      </trkpt>
      <trkpt lat="49.05201" lon="4.00399">
        <ele>68</ele>
        <time>2020-08-25T09:10:48.656Z</time>
      </trkpt>
      <trkpt lat="49.05183" lon="4.00443">
        <ele>68.2</ele>
        <time>2020-08-25T09:10:55.100Z</time>
      </trkpt>
      <trkpt lat="49.05152" lon="4.00516">
        <ele>68</ele>
        <time>2020-08-25T09:11:04.820Z</time>
      </trkpt>
      <trkpt lat="49.05148" lon="4.00526">
        <ele>68</ele>
        <time>2020-08-25T09:11:06.084Z</time>
      </trkpt>
      <trkpt lat="49.05118" lon="4.00597">
        <ele>68.4</ele>
        <time>2020-08-25T09:11:16.731Z</time>
      </trkpt>
      <trkpt lat="49.05115" lon="4.00606">
        <ele>68.4</ele>
        <time>2020-08-25T09:11:17.966Z</time>
      </trkpt>
      <trkpt lat="49.05093" lon="4.00665">
        <ele>68</ele>
        <time>2020-08-25T09:11:24.376Z</time>
      </trkpt>
      <trkpt lat="49.05086" lon="4.00679">
        <ele>68</ele>
        <time>2020-08-25T09:11:26.453Z</time>
      </trkpt>
      <trkpt lat="49.05082" lon="4.00694">
        <ele>68.2</ele>
        <time>2020-08-25T09:11:28.732Z</time>
      </trkpt>
      <trkpt lat="49.05087" lon="4.00706">
        <ele>68.2</ele>
        <time>2020-08-25T09:11:30.437Z</time>
      </trkpt>
      <trkpt lat="49.05102" lon="4.00724">
        <ele>68</ele>
        <time>2020-08-25T09:11:33.115Z</time>
      </trkpt>
      <trkpt lat="49.05105" lon="4.00734">
        <ele>68.2</ele>
        <time>2020-08-25T09:11:34.811Z</time>
      </trkpt>
      <trkpt lat="49.0511" lon="4.00756">
        <ele>68</ele>
        <time>2020-08-25T09:11:36.875Z</time>
      </trkpt>
      <trkpt lat="49.05114" lon="4.00777">
        <ele>68.2</ele>
        <time>2020-08-25T09:11:39.844Z</time>
      </trkpt>
      <trkpt lat="49.0512" lon="4.00807">
        <ele>68.2</ele>
        <time>2020-08-25T09:11:43.535Z</time>
      </trkpt>
      <trkpt lat="49.05128" lon="4.00843">
        <ele>68.6</ele>
        <time>2020-08-25T09:11:48.762Z</time>
      </trkpt>
      <trkpt lat="49.05134" lon="4.0087">
        <ele>68.8</ele>
        <time>2020-08-25T09:11:52.389Z</time>
      </trkpt>
      <trkpt lat="49.05141" lon="4.00886">
        <ele>68.8</ele>
        <time>2020-08-25T09:11:54.673Z</time>
      </trkpt>
      <trkpt lat="49.05148" lon="4.00902">
        <ele>69.6</ele>
        <time>2020-08-25T09:11:58.995Z</time>
      </trkpt>
      <trkpt lat="49.05171" lon="4.0095">
        <ele>70.2</ele>
        <time>2020-08-25T09:12:07.114Z</time>
      </trkpt>
      <trkpt lat="49.0519" lon="4.0099">
        <ele>70.4</ele>
        <time>2020-08-25T09:12:13.234Z</time>
      </trkpt>
      <trkpt lat="49.05194" lon="4.00997">
        <ele>70.4</ele>
        <time>2020-08-25T09:12:14.334Z</time>
      </trkpt>
      <trkpt lat="49.05199" lon="4.01003">
        <ele>70.6</ele>
        <time>2020-08-25T09:12:15.858Z</time>
      </trkpt>
      <trkpt lat="49.05221" lon="4.01028">
        <ele>70.6</ele>
        <time>2020-08-25T09:12:20.768Z</time>
      </trkpt>
      <trkpt lat="49.05222" lon="4.01044">
        <ele>71.2</ele>
        <time>2020-08-25T09:12:24.259Z</time>
      </trkpt>
      <trkpt lat="49.05216" lon="4.0108">
        <ele>71.8</ele>
        <time>2020-08-25T09:12:29.825Z</time>
      </trkpt>
      <trkpt lat="49.05214" lon="4.01098">
        <ele>71.8</ele>
        <time>2020-08-25T09:12:31.938Z</time>
      </trkpt>
      <trkpt lat="49.05211" lon="4.01124">
        <ele>72.2</ele>
        <time>2020-08-25T09:12:35.983Z</time>
      </trkpt>
      <trkpt lat="49.05211" lon="4.01133">
        <ele>72.4</ele>
        <time>2020-08-25T09:12:37.517Z</time>
      </trkpt>
      <trkpt lat="49.05214" lon="4.01142">
        <ele>72.6</ele>
        <time>2020-08-25T09:12:39.031Z</time>
      </trkpt>
      <trkpt lat="49.05217" lon="4.01148">
        <ele>72.6</ele>
        <time>2020-08-25T09:12:40.021Z</time>
      </trkpt>
      <trkpt lat="49.05226" lon="4.01156">
        <ele>72.8</ele>
        <time>2020-08-25T09:12:42.265Z</time>
      </trkpt>
      <trkpt lat="49.05231" lon="4.01158">
        <ele>72.8</ele>
        <time>2020-08-25T09:12:43.155Z</time>
      </trkpt>
      <trkpt lat="49.05248" lon="4.01164">
        <ele>73</ele>
        <time>2020-08-25T09:12:46.618Z</time>
      </trkpt>
      <trkpt lat="49.05259" lon="4.01167">
        <ele>73.2</ele>
        <time>2020-08-25T09:12:49.059Z</time>
      </trkpt>
      <trkpt lat="49.05286" lon="4.01178">
        <ele>73.2</ele>
        <time>2020-08-25T09:12:53.979Z</time>
      </trkpt>
      <trkpt lat="49.05312" lon="4.01188">
        <ele>73</ele>
        <time>2020-08-25T09:12:57.932Z</time>
      </trkpt>
      <trkpt lat="49.05333" lon="4.01196">
        <ele>73.4</ele>
        <time>2020-08-25T09:13:02.627Z</time>
      </trkpt>
      <trkpt lat="49.05349" lon="4.01202">
        <ele>73.6</ele>
        <time>2020-08-25T09:13:05.916Z</time>
      </trkpt>
      <trkpt lat="49.05374" lon="4.01214">
        <ele>74.4</ele>
        <time>2020-08-25T09:13:12.448Z</time>
      </trkpt>
      <trkpt lat="49.05404" lon="4.01226">
        <ele>75.2</ele>
        <time>2020-08-25T09:13:19.668Z</time>
      </trkpt>
      <trkpt lat="49.05418" lon="4.01232">
        <ele>75.2</ele>
        <time>2020-08-25T09:13:22.293Z</time>
      </trkpt>
      <trkpt lat="49.05449" lon="4.01246">
        <ele>76.6</ele>
        <time>2020-08-25T09:13:31.925Z</time>
      </trkpt>
      <trkpt lat="49.05458" lon="4.0125">
        <ele>76.8</ele>
        <time>2020-08-25T09:13:33.959Z</time>
      </trkpt>
      <trkpt lat="49.0548" lon="4.01259">
        <ele>77.4</ele>
        <time>2020-08-25T09:13:39.222Z</time>
      </trkpt>
      <trkpt lat="49.055" lon="4.01268">
        <ele>78.4</ele>
        <time>2020-08-25T09:13:45.727Z</time>
      </trkpt>
      <trkpt lat="49.05508" lon="4.01271">
        <ele>78.4</ele>
        <time>2020-08-25T09:13:47.177Z</time>
      </trkpt>
      <trkpt lat="49.05519" lon="4.01275">
        <ele>78.8</ele>
        <time>2020-08-25T09:13:50.250Z</time>
      </trkpt>
      <trkpt lat="49.05527" lon="4.01272">
        <ele>79</ele>
        <time>2020-08-25T09:13:52.128Z</time>
      </trkpt>
      <trkpt lat="49.05538" lon="4.01263">
        <ele>79.6</ele>
        <time>2020-08-25T09:13:55.926Z</time>
      </trkpt>
      <trkpt lat="49.05546" lon="4.01258">
        <ele>80</ele>
        <time>2020-08-25T09:13:58.640Z</time>
      </trkpt>
      <trkpt lat="49.05551" lon="4.01256">
        <ele>80.2</ele>
        <time>2020-08-25T09:14:00.002Z</time>
      </trkpt>
      <trkpt lat="49.05564" lon="4.01253">
        <ele>80.6</ele>
        <time>2020-08-25T09:14:03.368Z</time>
      </trkpt>
      <trkpt lat="49.05578" lon="4.01251">
        <ele>81</ele>
        <time>2020-08-25T09:14:06.779Z</time>
      </trkpt>
      <trkpt lat="49.05616" lon="4.01244">
        <ele>81.4</ele>
        <time>2020-08-25T09:14:14.337Z</time>
      </trkpt>
      <trkpt lat="49.05621" lon="4.01243">
        <ele>81.4</ele>
        <time>2020-08-25T09:14:15.201Z</time>
      </trkpt>
      <trkpt lat="49.05626" lon="4.01242">
        <ele>81.4</ele>
        <time>2020-08-25T09:14:16.083Z</time>
      </trkpt>
      <trkpt lat="49.05661" lon="4.01237">
        <ele>81.4</ele>
        <time>2020-08-25T09:14:22.364Z</time>
      </trkpt>
      <trkpt lat="49.05666" lon="4.01236">
        <ele>81.4</ele>
        <time>2020-08-25T09:14:23.251Z</time>
      </trkpt>
      <trkpt lat="49.05703" lon="4.01228">
        <ele>81.2</ele>
        <time>2020-08-25T09:14:29.489Z</time>
      </trkpt>
      <trkpt lat="49.05708" lon="4.01229">
        <ele>81.2</ele>
        <time>2020-08-25T09:14:30.311Z</time>
      </trkpt>
      <trkpt lat="49.05721" lon="4.01234">
        <ele>81.4</ele>
        <time>2020-08-25T09:14:33.163Z</time>
      </trkpt>
      <trkpt lat="49.0573" lon="4.0124">
        <ele>81.4</ele>
        <time>2020-08-25T09:14:34.811Z</time>
      </trkpt>
      <trkpt lat="49.05737" lon="4.01245">
        <ele>81.8</ele>
        <time>2020-08-25T09:14:37.373Z</time>
      </trkpt>
      <trkpt lat="49.05743" lon="4.01252">
        <ele>82.4</ele>
        <time>2020-08-25T09:14:40.252Z</time>
      </trkpt>
      <trkpt lat="49.05745" lon="4.01256">
        <ele>82.4</ele>
        <time>2020-08-25T09:14:40.825Z</time>
      </trkpt>
      <trkpt lat="49.05747" lon="4.01264">
        <ele>83</ele>
        <time>2020-08-25T09:14:43.614Z</time>
      </trkpt>
      <trkpt lat="49.05749" lon="4.01276">
        <ele>83.4</ele>
        <time>2020-08-25T09:14:46.138Z</time>
      </trkpt>
      <trkpt lat="49.0575" lon="4.01295">
        <ele>85.4</ele>
        <time>2020-08-25T09:14:54.552Z</time>
      </trkpt>
      <trkpt lat="49.0575" lon="4.01302">
        <ele>86.4</ele>
        <time>2020-08-25T09:14:57.840Z</time>
      </trkpt>
      <trkpt lat="49.05751" lon="4.01306">
        <ele>86.6</ele>
        <time>2020-08-25T09:14:58.789Z</time>
      </trkpt>
      <trkpt lat="49.05751" lon="4.01312">
        <ele>87.2</ele>
        <time>2020-08-25T09:15:01.889Z</time>
      </trkpt>
      <trkpt lat="49.05753" lon="4.01318">
        <ele>87.6</ele>
        <time>2020-08-25T09:15:03.777Z</time>
      </trkpt>
      <trkpt lat="49.05754" lon="4.01321">
        <ele>88</ele>
        <time>2020-08-25T09:15:05.258Z</time>
      </trkpt>
      <trkpt lat="49.05757" lon="4.01327">
        <ele>88.4</ele>
        <time>2020-08-25T09:15:07.125Z</time>
      </trkpt>
      <trkpt lat="49.05761" lon="4.01337">
        <ele>90.2</ele>
        <time>2020-08-25T09:15:12.703Z</time>
      </trkpt>
      <trkpt lat="49.05764" lon="4.01345">
        <ele>90.8</ele>
        <time>2020-08-25T09:15:15.495Z</time>
      </trkpt>
      <trkpt lat="49.05768" lon="4.01356">
        <ele>92.4</ele>
        <time>2020-08-25T09:15:20.909Z</time>
      </trkpt>
      <trkpt lat="49.0577" lon="4.01361">
        <ele>93</ele>
        <time>2020-08-25T09:15:23.706Z</time>
      </trkpt>
      <trkpt lat="49.05771" lon="4.01363">
        <ele>93.2</ele>
        <time>2020-08-25T09:15:24.635Z</time>
      </trkpt>
      <trkpt lat="49.05772" lon="4.01366">
        <ele>93.8</ele>
        <time>2020-08-25T09:15:25.999Z</time>
      </trkpt>
      <trkpt lat="49.05777" lon="4.01379">
        <ele>95.2</ele>
        <time>2020-08-25T09:15:32.668Z</time>
      </trkpt>
      <trkpt lat="49.05778" lon="4.01384">
        <ele>95.6</ele>
        <time>2020-08-25T09:15:34.530Z</time>
      </trkpt>
      <trkpt lat="49.0578" lon="4.01396">
        <ele>97.6</ele>
        <time>2020-08-25T09:15:39.993Z</time>
      </trkpt>
      <trkpt lat="49.0578" lon="4.01402">
        <ele>98.2</ele>
        <time>2020-08-25T09:15:42.747Z</time>
      </trkpt>
      <trkpt lat="49.05779" lon="4.01408">
        <ele>99</ele>
        <time>2020-08-25T09:15:45.513Z</time>
      </trkpt>
      <trkpt lat="49.05778" lon="4.0142">
        <ele>100.4</ele>
        <time>2020-08-25T09:15:51.176Z</time>
      </trkpt>
      <trkpt lat="49.05777" lon="4.01433">
        <ele>101.6</ele>
        <time>2020-08-25T09:15:56.935Z</time>
      </trkpt>
      <trkpt lat="49.05776" lon="4.01446">
        <ele>102.4</ele>
        <time>2020-08-25T09:16:00.661Z</time>
      </trkpt>
      <trkpt lat="49.05775" lon="4.01455">
        <ele>103.6</ele>
        <time>2020-08-25T09:16:05.142Z</time>
      </trkpt>
      <trkpt lat="49.05775" lon="4.01459">
        <ele>103.8</ele>
        <time>2020-08-25T09:16:06.084Z</time>
      </trkpt>
      <trkpt lat="49.05775" lon="4.01472">
        <ele>105.2</ele>
        <time>2020-08-25T09:16:12.013Z</time>
      </trkpt>
      <trkpt lat="49.05774" lon="4.01485">
        <ele>106.6</ele>
        <time>2020-08-25T09:16:17.897Z</time>
      </trkpt>
      <trkpt lat="49.05773" lon="4.01494">
        <ele>107.4</ele>
        <time>2020-08-25T09:16:21.880Z</time>
      </trkpt>
      <trkpt lat="49.05773" lon="4.01498">
        <ele>107.6</ele>
        <time>2020-08-25T09:16:22.817Z</time>
      </trkpt>
      <trkpt lat="49.05772" lon="4.01514">
        <ele>109</ele>
        <time>2020-08-25T09:16:29.887Z</time>
      </trkpt>
      <trkpt lat="49.05772" lon="4.0152">
        <ele>109.6</ele>
        <time>2020-08-25T09:16:32.845Z</time>
      </trkpt>
      <trkpt lat="49.05772" lon="4.01527">
        <ele>110.4</ele>
        <time>2020-08-25T09:16:35.920Z</time>
      </trkpt>
      <trkpt lat="49.05775" lon="4.01539">
        <ele>111.8</ele>
        <time>2020-08-25T09:16:41.869Z</time>
      </trkpt>
      <trkpt lat="49.05781" lon="4.01549">
        <ele>112.8</ele>
        <time>2020-08-25T09:16:46.603Z</time>
      </trkpt>
      <trkpt lat="49.05786" lon="4.01555">
        <ele>114</ele>
        <time>2020-08-25T09:16:51.080Z</time>
      </trkpt>
      <trkpt lat="49.05792" lon="4.01564">
        <ele>115</ele>
        <time>2020-08-25T09:16:55.849Z</time>
      </trkpt>
      <trkpt lat="49.05799" lon="4.01573">
        <ele>116.2</ele>
        <time>2020-08-25T09:17:01.656Z</time>
      </trkpt>
      <trkpt lat="49.05805" lon="4.01581">
        <ele>117.6</ele>
        <time>2020-08-25T09:17:07.553Z</time>
      </trkpt>
      <trkpt lat="49.05811" lon="4.01586">
        <ele>118.4</ele>
        <time>2020-08-25T09:17:11.449Z</time>
      </trkpt>
      <trkpt lat="49.05815" lon="4.01588">
        <ele>119.4</ele>
        <time>2020-08-25T09:17:14.606Z</time>
      </trkpt>
      <trkpt lat="49.05824" lon="4.01593">
        <ele>120.4</ele>
        <time>2020-08-25T09:17:19.298Z</time>
      </trkpt>
      <trkpt lat="49.0583" lon="4.01596">
        <ele>121.4</ele>
        <time>2020-08-25T09:17:24.059Z</time>
      </trkpt>
      <trkpt lat="49.05832" lon="4.01597">
        <ele>121.6</ele>
        <time>2020-08-25T09:17:25.001Z</time>
      </trkpt>
      <trkpt lat="49.05839" lon="4.01599">
        <ele>122.6</ele>
        <time>2020-08-25T09:17:29.679Z</time>
      </trkpt>
      <trkpt lat="49.0585" lon="4.01605">
        <ele>124</ele>
        <time>2020-08-25T09:17:36.474Z</time>
      </trkpt>
      <trkpt lat="49.05859" lon="4.01607">
        <ele>125.4</ele>
        <time>2020-08-25T09:17:42.713Z</time>
      </trkpt>
      <trkpt lat="49.05868" lon="4.0161">
        <ele>126.8</ele>
        <time>2020-08-25T09:17:49.132Z</time>
      </trkpt>
      <trkpt lat="49.05875" lon="4.01612">
        <ele>128</ele>
        <time>2020-08-25T09:17:53.781Z</time>
      </trkpt>
      <trkpt lat="49.05885" lon="4.01616">
        <ele>129.6</ele>
        <time>2020-08-25T09:18:01.387Z</time>
      </trkpt>
      <trkpt lat="49.05887" lon="4.01618">
        <ele>130.2</ele>
        <time>2020-08-25T09:18:02.918Z</time>
      </trkpt>
      <trkpt lat="49.05894" lon="4.01621">
        <ele>131</ele>
        <time>2020-08-25T09:18:06.776Z</time>
      </trkpt>
      <trkpt lat="49.05902" lon="4.01626">
        <ele>132</ele>
        <time>2020-08-25T09:18:11.483Z</time>
      </trkpt>
      <trkpt lat="49.05906" lon="4.01629">
        <ele>132.6</ele>
        <time>2020-08-25T09:18:14.561Z</time>
      </trkpt>
      <trkpt lat="49.05908" lon="4.0163">
        <ele>133</ele>
        <time>2020-08-25T09:18:16.141Z</time>
      </trkpt>
      <trkpt lat="49.05916" lon="4.01635">
        <ele>134.2</ele>
        <time>2020-08-25T09:18:22.154Z</time>
      </trkpt>
      <trkpt lat="49.05924" lon="4.0164">
        <ele>136</ele>
        <time>2020-08-25T09:18:28.210Z</time>
      </trkpt>
      <trkpt lat="49.05926" lon="4.01641">
        <ele>136.6</ele>
        <time>2020-08-25T09:18:29.727Z</time>
      </trkpt>
      <trkpt lat="49.05933" lon="4.01645">
        <ele>137.4</ele>
        <time>2020-08-25T09:18:33.591Z</time>
      </trkpt>
      <trkpt lat="49.05939" lon="4.01649">
        <ele>138</ele>
        <time>2020-08-25T09:18:36.407Z</time>
      </trkpt>
      <trkpt lat="49.05941" lon="4.0165">
        <ele>138.2</ele>
        <time>2020-08-25T09:18:37.343Z</time>
      </trkpt>
      <trkpt lat="49.05951" lon="4.01656">
        <ele>140</ele>
        <time>2020-08-25T09:18:44.783Z</time>
      </trkpt>
      <trkpt lat="49.05959" lon="4.01661">
        <ele>141.8</ele>
        <time>2020-08-25T09:18:50.680Z</time>
      </trkpt>
      <trkpt lat="49.05969" lon="4.01667">
        <ele>143</ele>
        <time>2020-08-25T09:18:56.283Z</time>
      </trkpt>
      <trkpt lat="49.05975" lon="4.0167">
        <ele>144</ele>
        <time>2020-08-25T09:19:00.696Z</time>
      </trkpt>
      <trkpt lat="49.05981" lon="4.01674">
        <ele>145.2</ele>
        <time>2020-08-25T09:19:05.111Z</time>
      </trkpt>
      <trkpt lat="49.05991" lon="4.0168">
        <ele>146.4</ele>
        <time>2020-08-25T09:19:10.729Z</time>
      </trkpt>
      <trkpt lat="49.05995" lon="4.01682">
        <ele>147</ele>
        <time>2020-08-25T09:19:13.664Z</time>
      </trkpt>
      <trkpt lat="49.06003" lon="4.01687">
        <ele>148.6</ele>
        <time>2020-08-25T09:19:19.707Z</time>
      </trkpt>
      <trkpt lat="49.06005" lon="4.01688">
        <ele>148.8</ele>
        <time>2020-08-25T09:19:20.639Z</time>
      </trkpt>
      <trkpt lat="49.06011" lon="4.01692">
        <ele>150</ele>
        <time>2020-08-25T09:19:25.165Z</time>
      </trkpt>
      <trkpt lat="49.06015" lon="4.01694">
        <ele>150.8</ele>
        <time>2020-08-25T09:19:28.226Z</time>
      </trkpt>
      <trkpt lat="49.06017" lon="4.01695">
        <ele>151</ele>
        <time>2020-08-25T09:19:29.162Z</time>
      </trkpt>
      <trkpt lat="49.06023" lon="4.017">
        <ele>152.2</ele>
        <time>2020-08-25T09:19:33.713Z</time>
      </trkpt>
      <trkpt lat="49.06034" lon="4.01705">
        <ele>153.6</ele>
        <time>2020-08-25T09:19:40.675Z</time>
      </trkpt>
      <trkpt lat="49.06036" lon="4.01706">
        <ele>154.2</ele>
        <time>2020-08-25T09:19:42.110Z</time>
      </trkpt>
      <trkpt lat="49.06042" lon="4.01708">
        <ele>155.4</ele>
        <time>2020-08-25T09:19:46.494Z</time>
      </trkpt>
      <trkpt lat="49.06049" lon="4.01709">
        <ele>156.2</ele>
        <time>2020-08-25T09:19:50.350Z</time>
      </trkpt>
      <trkpt lat="49.06051" lon="4.01709">
        <ele>156.2</ele>
        <time>2020-08-25T09:19:50.727Z</time>
      </trkpt>
      <trkpt lat="49.06062" lon="4.01708">
        <ele>158.4</ele>
        <time>2020-08-25T09:19:58.178Z</time>
      </trkpt>
      <trkpt lat="49.06066" lon="4.01709">
        <ele>159.4</ele>
        <time>2020-08-25T09:20:01.007Z</time>
      </trkpt>
      <trkpt lat="49.06074" lon="4.01711">
        <ele>160.4</ele>
        <time>2020-08-25T09:20:05.752Z</time>
      </trkpt>
      <trkpt lat="49.06082" lon="4.01711">
        <ele>161.2</ele>
        <time>2020-08-25T09:20:09.473Z</time>
      </trkpt>
      <trkpt lat="49.06091" lon="4.01714">
        <ele>163.2</ele>
        <time>2020-08-25T09:20:15.468Z</time>
      </trkpt>
      <trkpt lat="49.06098" lon="4.01719">
        <ele>164.4</ele>
        <time>2020-08-25T09:20:21.220Z</time>
      </trkpt>
      <trkpt lat="49.06105" lon="4.01722">
        <ele>165.8</ele>
        <time>2020-08-25T09:20:25.668Z</time>
      </trkpt>
      <trkpt lat="49.06111" lon="4.01726">
        <ele>166.6</ele>
        <time>2020-08-25T09:20:29.531Z</time>
      </trkpt>
      <trkpt lat="49.06115" lon="4.01728">
        <ele>167.2</ele>
        <time>2020-08-25T09:20:32.547Z</time>
      </trkpt>
      <trkpt lat="49.06119" lon="4.01732">
        <ele>167.8</ele>
        <time>2020-08-25T09:20:35.598Z</time>
      </trkpt>
      <trkpt lat="49.06128" lon="4.01738">
        <ele>169.6</ele>
        <time>2020-08-25T09:20:42.815Z</time>
      </trkpt>
      <trkpt lat="49.0613" lon="4.01739">
        <ele>170</ele>
        <time>2020-08-25T09:20:44.314Z</time>
      </trkpt>
      <trkpt lat="49.06136" lon="4.01743">
        <ele>171</ele>
        <time>2020-08-25T09:20:48.712Z</time>
      </trkpt>
      <trkpt lat="49.06146" lon="4.01748">
        <ele>172.6</ele>
        <time>2020-08-25T09:20:55.943Z</time>
      </trkpt>
      <trkpt lat="49.06148" lon="4.0175">
        <ele>173</ele>
        <time>2020-08-25T09:20:57.408Z</time>
      </trkpt>
      <trkpt lat="49.06154" lon="4.01753">
        <ele>173.8</ele>
        <time>2020-08-25T09:21:01.292Z</time>
      </trkpt>
      <trkpt lat="49.06165" lon="4.01757">
        <ele>175.4</ele>
        <time>2020-08-25T09:21:08.679Z</time>
      </trkpt>
      <trkpt lat="49.06171" lon="4.0176">
        <ele>176.2</ele>
        <time>2020-08-25T09:21:12.617Z</time>
      </trkpt>
      <trkpt lat="49.06178" lon="4.01763">
        <ele>177.4</ele>
        <time>2020-08-25T09:21:18.029Z</time>
      </trkpt>
      <trkpt lat="49.06182" lon="4.01765">
        <ele>178</ele>
        <time>2020-08-25T09:21:20.813Z</time>
      </trkpt>
      <trkpt lat="49.06186" lon="4.01767">
        <ele>178.6</ele>
        <time>2020-08-25T09:21:23.665Z</time>
      </trkpt>
      <trkpt lat="49.06188" lon="4.01768">
        <ele>179</ele>
        <time>2020-08-25T09:21:25.051Z</time>
      </trkpt>
      <trkpt lat="49.06194" lon="4.01771">
        <ele>180.4</ele>
        <time>2020-08-25T09:21:29.206Z</time>
      </trkpt>
      <trkpt lat="49.06202" lon="4.01774">
        <ele>182</ele>
        <time>2020-08-25T09:21:34.875Z</time>
      </trkpt>
      <trkpt lat="49.06208" lon="4.01779">
        <ele>183.2</ele>
        <time>2020-08-25T09:21:39.567Z</time>
      </trkpt>
      <trkpt lat="49.06212" lon="4.01782">
        <ele>184</ele>
        <time>2020-08-25T09:21:42.733Z</time>
      </trkpt>
      <trkpt lat="49.06213" lon="4.01784">
        <ele>184.4</ele>
        <time>2020-08-25T09:21:44.159Z</time>
      </trkpt>
      <trkpt lat="49.06222" lon="4.01801">
        <ele>186.4</ele>
        <time>2020-08-25T09:21:53.563Z</time>
      </trkpt>
      <trkpt lat="49.06227" lon="4.01809">
        <ele>187.6</ele>
        <time>2020-08-25T09:21:58.803Z</time>
      </trkpt>
      <trkpt lat="49.06233" lon="4.01822">
        <ele>189</ele>
        <time>2020-08-25T09:22:05.814Z</time>
      </trkpt>
      <trkpt lat="49.06239" lon="4.01835">
        <ele>190</ele>
        <time>2020-08-25T09:22:10.484Z</time>
      </trkpt>
      <trkpt lat="49.06243" lon="4.01841">
        <ele>190.8</ele>
        <time>2020-08-25T09:22:14.320Z</time>
      </trkpt>
      <trkpt lat="49.06248" lon="4.0185">
        <ele>191.6</ele>
        <time>2020-08-25T09:22:18.040Z</time>
      </trkpt>
      <trkpt lat="49.06255" lon="4.01865">
        <ele>192.2</ele>
        <time>2020-08-25T09:22:21.745Z</time>
      </trkpt>
      <trkpt lat="49.0626" lon="4.01877">
        <ele>193.4</ele>
        <time>2020-08-25T09:22:27.627Z</time>
      </trkpt>
      <trkpt lat="49.0627" lon="4.01899">
        <ele>194.8</ele>
        <time>2020-08-25T09:22:34.392Z</time>
      </trkpt>
      <trkpt lat="49.06275" lon="4.01906">
        <ele>195</ele>
        <time>2020-08-25T09:22:36.073Z</time>
      </trkpt>
      <trkpt lat="49.06289" lon="4.01922">
        <ele>195.8</ele>
        <time>2020-08-25T09:22:41.400Z</time>
      </trkpt>
      <trkpt lat="49.06292" lon="4.01926">
        <ele>196</ele>
        <time>2020-08-25T09:22:42.525Z</time>
      </trkpt>
      <trkpt lat="49.06299" lon="4.01942">
        <ele>196.8</ele>
        <time>2020-08-25T09:22:46.887Z</time>
      </trkpt>
      <trkpt lat="49.06299" lon="4.01948">
        <ele>196.8</ele>
        <time>2020-08-25T09:22:47.549Z</time>
      </trkpt>
      <trkpt lat="49.06302" lon="4.01991">
        <ele>198.6</ele>
        <time>2020-08-25T09:22:57.294Z</time>
      </trkpt>
      <trkpt lat="49.06302" lon="4.01999">
        <ele>198.8</ele>
        <time>2020-08-25T09:22:58.779Z</time>
      </trkpt>
      <trkpt lat="49.06302" lon="4.02057">
        <ele>198.8</ele>
        <time>2020-08-25T09:23:05.478Z</time>
      </trkpt>
      <trkpt lat="49.06302" lon="4.02096">
        <ele>198.8</ele>
        <time>2020-08-25T09:23:10.058Z</time>
      </trkpt>
      <trkpt lat="49.06302" lon="4.02106">
        <ele>198.8</ele>
        <time>2020-08-25T09:23:11.218Z</time>
      </trkpt>
      <trkpt lat="49.06302" lon="4.02126">
        <ele>198.6</ele>
        <time>2020-08-25T09:23:12.976Z</time>
      </trkpt>
      <trkpt lat="49.06302" lon="4.02136">
        <ele>198.6</ele>
        <time>2020-08-25T09:23:14.183Z</time>
      </trkpt>
      <trkpt lat="49.06303" lon="4.02214">
        <ele>198</ele>
        <time>2020-08-25T09:23:21.277Z</time>
      </trkpt>
      <trkpt lat="49.06306" lon="4.02293">
        <ele>197.8</ele>
        <time>2020-08-25T09:23:30.080Z</time>
      </trkpt>
      <trkpt lat="49.06307" lon="4.02315">
        <ele>197.6</ele>
        <time>2020-08-25T09:23:32.021Z</time>
      </trkpt>
      <trkpt lat="49.06313" lon="4.02357">
        <ele>197.8</ele>
        <time>2020-08-25T09:23:37.380Z</time>
      </trkpt>
      <trkpt lat="49.06314" lon="4.02367">
        <ele>197.8</ele>
        <time>2020-08-25T09:23:38.647Z</time>
      </trkpt>
      <trkpt lat="49.06316" lon="4.02378">
        <ele>197.8</ele>
        <time>2020-08-25T09:23:39.936Z</time>
      </trkpt>
      <trkpt lat="49.06318" lon="4.02389">
        <ele>197.8</ele>
        <time>2020-08-25T09:23:41.222Z</time>
      </trkpt>
      <trkpt lat="49.06321" lon="4.0241">
        <ele>197.8</ele>
        <time>2020-08-25T09:23:43.781Z</time>
      </trkpt>
      <trkpt lat="49.06329" lon="4.0246">
        <ele>198.2</ele>
        <time>2020-08-25T09:23:50.484Z</time>
      </trkpt>
      <trkpt lat="49.06331" lon="4.0247">
        <ele>198.6</ele>
        <time>2020-08-25T09:23:52.739Z</time>
      </trkpt>
      <trkpt lat="49.06344" lon="4.0253">
        <ele>199.4</ele>
        <time>2020-08-25T09:24:01.828Z</time>
      </trkpt>
      <trkpt lat="49.06359" lon="4.02575">
        <ele>200.2</ele>
        <time>2020-08-25T09:24:09.382Z</time>
      </trkpt>
      <trkpt lat="49.06362" lon="4.02583">
        <ele>200.4</ele>
        <time>2020-08-25T09:24:10.972Z</time>
      </trkpt>
      <trkpt lat="49.06383" lon="4.02635">
        <ele>201.8</ele>
        <time>2020-08-25T09:24:21.432Z</time>
      </trkpt>
      <trkpt lat="49.06402" lon="4.02665">
        <ele>202.6</ele>
        <time>2020-08-25T09:24:28.236Z</time>
      </trkpt>
      <trkpt lat="49.06413" lon="4.02681">
        <ele>202.6</ele>
        <time>2020-08-25T09:24:30.828Z</time>
      </trkpt>
      <trkpt lat="49.06424" lon="4.02694">
        <ele>202.8</ele>
        <time>2020-08-25T09:24:33.803Z</time>
      </trkpt>
      <trkpt lat="49.0643" lon="4.02701">
        <ele>202.8</ele>
        <time>2020-08-25T09:24:35.047Z</time>
      </trkpt>
      <trkpt lat="49.06446" lon="4.0272">
        <ele>202.8</ele>
        <time>2020-08-25T09:24:38.664Z</time>
      </trkpt>
      <trkpt lat="49.06463" lon="4.02749">
        <ele>202.6</ele>
        <time>2020-08-25T09:24:42.480Z</time>
      </trkpt>
      <trkpt lat="49.06466" lon="4.02757">
        <ele>202.6</ele>
        <time>2020-08-25T09:24:43.578Z</time>
      </trkpt>
      <trkpt lat="49.0647" lon="4.02765">
        <ele>202.6</ele>
        <time>2020-08-25T09:24:44.636Z</time>
      </trkpt>
      <trkpt lat="49.06473" lon="4.02771">
        <ele>202.6</ele>
        <time>2020-08-25T09:24:45.639Z</time>
      </trkpt>
      <trkpt lat="49.06483" lon="4.02774">
        <ele>202.4</ele>
        <time>2020-08-25T09:24:46.840Z</time>
      </trkpt>
      <trkpt lat="49.06495" lon="4.02761">
        <ele>202.6</ele>
        <time>2020-08-25T09:24:49.802Z</time>
      </trkpt>
      <trkpt lat="49.06502" lon="4.02755">
        <ele>203</ele>
        <time>2020-08-25T09:24:52.380Z</time>
      </trkpt>
      <trkpt lat="49.06509" lon="4.02749">
        <ele>203.8</ele>
        <time>2020-08-25T09:24:56.105Z</time>
      </trkpt>
      <trkpt lat="49.06513" lon="4.02745">
        <ele>204</ele>
        <time>2020-08-25T09:24:57.394Z</time>
      </trkpt>
      <trkpt lat="49.06516" lon="4.02742">
        <ele>204.2</ele>
        <time>2020-08-25T09:24:58.683Z</time>
      </trkpt>
      <trkpt lat="49.06527" lon="4.02731">
        <ele>204.8</ele>
        <time>2020-08-25T09:25:02.653Z</time>
      </trkpt>
      <trkpt lat="49.06537" lon="4.02721">
        <ele>205.6</ele>
        <time>2020-08-25T09:25:06.907Z</time>
      </trkpt>
      <trkpt lat="49.06541" lon="4.02718">
        <ele>206.4</ele>
        <time>2020-08-25T09:25:09.675Z</time>
      </trkpt>
      <trkpt lat="49.06547" lon="4.02709">
        <ele>207.4</ele>
        <time>2020-08-25T09:25:14.501Z</time>
      </trkpt>
      <trkpt lat="49.0656" lon="4.02692">
        <ele>208.6</ele>
        <time>2020-08-25T09:25:20.651Z</time>
      </trkpt>
      <trkpt lat="49.06567" lon="4.02684">
        <ele>209.6</ele>
        <time>2020-08-25T09:25:25.383Z</time>
      </trkpt>
      <trkpt lat="49.06577" lon="4.02673">
        <ele>210.6</ele>
        <time>2020-08-25T09:25:30.266Z</time>
      </trkpt>
      <trkpt lat="49.06583" lon="4.02664">
        <ele>211.2</ele>
        <time>2020-08-25T09:25:33.347Z</time>
      </trkpt>
      <trkpt lat="49.06597" lon="4.02641">
        <ele>212.2</ele>
        <time>2020-08-25T09:25:39.767Z</time>
      </trkpt>
      <trkpt lat="49.066" lon="4.02636">
        <ele>212.4</ele>
        <time>2020-08-25T09:25:41.006Z</time>
      </trkpt>
      <trkpt lat="49.06602" lon="4.02631">
        <ele>212.2</ele>
        <time>2020-08-25T09:25:41.374Z</time>
      </trkpt>
      <trkpt lat="49.06605" lon="4.02627">
        <ele>212.6</ele>
        <time>2020-08-25T09:25:43.238Z</time>
      </trkpt>
      <trkpt lat="49.06612" lon="4.0262">
        <ele>212.6</ele>
        <time>2020-08-25T09:25:44.724Z</time>
      </trkpt>
      <trkpt lat="49.06616" lon="4.02616">
        <ele>213</ele>
        <time>2020-08-25T09:25:46.600Z</time>
      </trkpt>
      <trkpt lat="49.0662" lon="4.02613">
        <ele>213</ele>
        <time>2020-08-25T09:25:47.450Z</time>
      </trkpt>
      <trkpt lat="49.06625" lon="4.02609">
        <ele>213.4</ele>
        <time>2020-08-25T09:25:49.415Z</time>
      </trkpt>
      <trkpt lat="49.06643" lon="4.0259">
        <ele>213.4</ele>
        <time>2020-08-25T09:25:53.446Z</time>
      </trkpt>
      <trkpt lat="49.06648" lon="4.02584">
        <ele>213.2</ele>
        <time>2020-08-25T09:25:54.100Z</time>
      </trkpt>
      <trkpt lat="49.06658" lon="4.02572">
        <ele>213.2</ele>
        <time>2020-08-25T09:25:56.354Z</time>
      </trkpt>
      <trkpt lat="49.06663" lon="4.02566">
        <ele>213</ele>
        <time>2020-08-25T09:25:57.073Z</time>
      </trkpt>
      <trkpt lat="49.06673" lon="4.02556">
        <ele>213</ele>
        <time>2020-08-25T09:25:59.234Z</time>
      </trkpt>
      <trkpt lat="49.06683" lon="4.02546">
        <ele>212.6</ele>
        <time>2020-08-25T09:26:00.503Z</time>
      </trkpt>
      <trkpt lat="49.06702" lon="4.02526">
        <ele>212.4</ele>
        <time>2020-08-25T09:26:03.861Z</time>
      </trkpt>
      <trkpt lat="49.0671" lon="4.0252">
        <ele>212.4</ele>
        <time>2020-08-25T09:26:05.547Z</time>
      </trkpt>
      <trkpt lat="49.06713" lon="4.0251">
        <ele>212.4</ele>
        <time>2020-08-25T09:26:06.810Z</time>
      </trkpt>
      <trkpt lat="49.06712" lon="4.02506">
        <ele>212.4</ele>
        <time>2020-08-25T09:26:07.310Z</time>
      </trkpt>
      <trkpt lat="49.0671" lon="4.02504">
        <ele>212.4</ele>
        <time>2020-08-25T09:26:07.698Z</time>
      </trkpt>
      <trkpt lat="49.06708" lon="4.02505">
        <ele>212.4</ele>
        <time>2020-08-25T09:26:08.074Z</time>
      </trkpt>
      <trkpt lat="49.06704" lon="4.02513">
        <ele>212.6</ele>
        <time>2020-08-25T09:26:09.760Z</time>
      </trkpt>
      <trkpt lat="49.067" lon="4.02517">
        <ele>212.6</ele>
        <time>2020-08-25T09:26:10.549Z</time>
      </trkpt>
      <trkpt lat="49.06697" lon="4.02522">
        <ele>212.6</ele>
        <time>2020-08-25T09:26:11.367Z</time>
      </trkpt>
      <trkpt lat="49.06681" lon="4.02539">
        <ele>213.2</ele>
        <time>2020-08-25T09:26:16.152Z</time>
      </trkpt>
      <trkpt lat="49.06651" lon="4.02575">
        <ele>213.6</ele>
        <time>2020-08-25T09:26:23.740Z</time>
      </trkpt>
      <trkpt lat="49.06633" lon="4.02596">
        <ele>213.8</ele>
        <time>2020-08-25T09:26:28.196Z</time>
      </trkpt>
      <trkpt lat="49.06628" lon="4.026">
        <ele>213.8</ele>
        <time>2020-08-25T09:26:29.174Z</time>
      </trkpt>
      <trkpt lat="49.06623" lon="4.02603">
        <ele>213.6</ele>
        <time>2020-08-25T09:26:29.737Z</time>
      </trkpt>
      <trkpt lat="49.066" lon="4.02613">
        <ele>214</ele>
        <time>2020-08-25T09:26:34.719Z</time>
      </trkpt>
      <trkpt lat="49.06593" lon="4.02616">
        <ele>214</ele>
        <time>2020-08-25T09:26:35.999Z</time>
      </trkpt>
      <trkpt lat="49.06593" lon="4.02619">
        <ele>214.2</ele>
        <time>2020-08-25T09:26:36.952Z</time>
      </trkpt>
      <trkpt lat="49.06596" lon="4.02623">
        <ele>214.4</ele>
        <time>2020-08-25T09:26:38.219Z</time>
      </trkpt>
      <trkpt lat="49.06599" lon="4.0262">
        <ele>214.6</ele>
        <time>2020-08-25T09:26:39.300Z</time>
      </trkpt>
      <trkpt lat="49.06609" lon="4.02613">
        <ele>215.2</ele>
        <time>2020-08-25T09:26:42.993Z</time>
      </trkpt>
      <trkpt lat="49.06624" lon="4.02604">
        <ele>215.6</ele>
        <time>2020-08-25T09:26:46.570Z</time>
      </trkpt>
      <trkpt lat="49.06628" lon="4.02601">
        <ele>215.4</ele>
        <time>2020-08-25T09:26:47.112Z</time>
      </trkpt>
      <trkpt lat="49.06633" lon="4.02597">
        <ele>215.6</ele>
        <time>2020-08-25T09:26:48.527Z</time>
      </trkpt>
      <trkpt lat="49.06646" lon="4.02581">
        <ele>215.6</ele>
        <time>2020-08-25T09:26:51.476Z</time>
      </trkpt>
      <trkpt lat="49.0665" lon="4.02576">
        <ele>215.4</ele>
        <time>2020-08-25T09:26:52.129Z</time>
      </trkpt>
      <trkpt lat="49.06655" lon="4.0257">
        <ele>215.4</ele>
        <time>2020-08-25T09:26:53.181Z</time>
      </trkpt>
      <trkpt lat="49.0666" lon="4.02565">
        <ele>215.2</ele>
        <time>2020-08-25T09:26:53.799Z</time>
      </trkpt>
      <trkpt lat="49.06685" lon="4.02536">
        <ele>213.4</ele>
        <time>2020-08-25T09:26:56.599Z</time>
      </trkpt>
      <trkpt lat="49.0669" lon="4.02531">
        <ele>213</ele>
        <time>2020-08-25T09:26:57.095Z</time>
      </trkpt>
      <trkpt lat="49.06704" lon="4.02521">
        <ele>212.8</ele>
        <time>2020-08-25T09:26:59.234Z</time>
      </trkpt>
      <trkpt lat="49.06709" lon="4.02521">
        <ele>212.8</ele>
        <time>2020-08-25T09:27:00.169Z</time>
      </trkpt>
      <trkpt lat="49.06715" lon="4.02522">
        <ele>212.8</ele>
        <time>2020-08-25T09:27:01.179Z</time>
      </trkpt>
      <trkpt lat="49.0672" lon="4.02525">
        <ele>212.6</ele>
        <time>2020-08-25T09:27:01.817Z</time>
      </trkpt>
      <trkpt lat="49.06726" lon="4.02533">
        <ele>212.6</ele>
        <time>2020-08-25T09:27:03.143Z</time>
      </trkpt>
      <trkpt lat="49.06734" lon="4.02556">
        <ele>212.6</ele>
        <time>2020-08-25T09:27:06.247Z</time>
      </trkpt>
      <trkpt lat="49.06737" lon="4.02571">
        <ele>212.4</ele>
        <time>2020-08-25T09:27:07.534Z</time>
      </trkpt>
      <trkpt lat="49.0674" lon="4.02586">
        <ele>212.4</ele>
        <time>2020-08-25T09:27:09.406Z</time>
      </trkpt>
      <trkpt lat="49.06743" lon="4.02619">
        <ele>212.2</ele>
        <time>2020-08-25T09:27:12.517Z</time>
      </trkpt>
      <trkpt lat="49.06745" lon="4.02636">
        <ele>212</ele>
        <time>2020-08-25T09:27:13.935Z</time>
      </trkpt>
      <trkpt lat="49.06746" lon="4.02652">
        <ele>211.6</ele>
        <time>2020-08-25T09:27:15.077Z</time>
      </trkpt>
      <trkpt lat="49.06749" lon="4.02685">
        <ele>209</ele>
        <time>2020-08-25T09:27:17.014Z</time>
      </trkpt>
      <trkpt lat="49.06753" lon="4.02717">
        <ele>207.8</ele>
        <time>2020-08-25T09:27:18.921Z</time>
      </trkpt>
      <trkpt lat="49.06755" lon="4.02733">
        <ele>206.8</ele>
        <time>2020-08-25T09:27:19.836Z</time>
      </trkpt>
      <trkpt lat="49.06758" lon="4.02747">
        <ele>205.2</ele>
        <time>2020-08-25T09:27:20.721Z</time>
      </trkpt>
      <trkpt lat="49.06763" lon="4.02773">
        <ele>203.2</ele>
        <time>2020-08-25T09:27:22.307Z</time>
      </trkpt>
      <trkpt lat="49.06765" lon="4.02786">
        <ele>202.2</ele>
        <time>2020-08-25T09:27:23.069Z</time>
      </trkpt>
      <trkpt lat="49.06763" lon="4.02813">
        <ele>199.8</ele>
        <time>2020-08-25T09:27:24.610Z</time>
      </trkpt>
      <trkpt lat="49.06751" lon="4.02851">
        <ele>196.2</ele>
        <time>2020-08-25T09:27:27.084Z</time>
      </trkpt>
      <trkpt lat="49.06747" lon="4.02864">
        <ele>195.6</ele>
        <time>2020-08-25T09:27:27.837Z</time>
      </trkpt>
      <trkpt lat="49.06736" lon="4.02901">
        <ele>194.8</ele>
        <time>2020-08-25T09:27:30.885Z</time>
      </trkpt>
      <trkpt lat="49.06724" lon="4.02937">
        <ele>193.8</ele>
        <time>2020-08-25T09:27:33.617Z</time>
      </trkpt>
      <trkpt lat="49.06721" lon="4.0295">
        <ele>193.6</ele>
        <time>2020-08-25T09:27:34.741Z</time>
      </trkpt>
      <trkpt lat="49.06715" lon="4.02978">
        <ele>192.2</ele>
        <time>2020-08-25T09:27:36.439Z</time>
      </trkpt>
      <trkpt lat="49.06713" lon="4.02993">
        <ele>192</ele>
        <time>2020-08-25T09:27:37.722Z</time>
      </trkpt>
      <trkpt lat="49.0671" lon="4.03025">
        <ele>191.6</ele>
        <time>2020-08-25T09:27:40.411Z</time>
      </trkpt>
      <trkpt lat="49.06706" lon="4.03057">
        <ele>191</ele>
        <time>2020-08-25T09:27:42.889Z</time>
      </trkpt>
      <trkpt lat="49.06704" lon="4.03073">
        <ele>190.6</ele>
        <time>2020-08-25T09:27:44.028Z</time>
      </trkpt>
      <trkpt lat="49.06698" lon="4.03105">
        <ele>189.2</ele>
        <time>2020-08-25T09:27:45.825Z</time>
      </trkpt>
      <trkpt lat="49.06694" lon="4.03121">
        <ele>188.4</ele>
        <time>2020-08-25T09:27:46.816Z</time>
      </trkpt>
      <trkpt lat="49.06688" lon="4.03136">
        <ele>187.6</ele>
        <time>2020-08-25T09:27:47.844Z</time>
      </trkpt>
      <trkpt lat="49.06674" lon="4.03167">
        <ele>186</ele>
        <time>2020-08-25T09:27:49.850Z</time>
      </trkpt>
      <trkpt lat="49.06667" lon="4.03183">
        <ele>185.4</ele>
        <time>2020-08-25T09:27:51.066Z</time>
      </trkpt>
      <trkpt lat="49.06658" lon="4.03198">
        <ele>184.8</ele>
        <time>2020-08-25T09:27:52.288Z</time>
      </trkpt>
      <trkpt lat="49.06649" lon="4.0321">
        <ele>183.8</ele>
        <time>2020-08-25T09:27:53.387Z</time>
      </trkpt>
      <trkpt lat="49.06639" lon="4.0322">
        <ele>183.2</ele>
        <time>2020-08-25T09:27:54.538Z</time>
      </trkpt>
      <trkpt lat="49.06627" lon="4.03228">
        <ele>183.2</ele>
        <time>2020-08-25T09:27:56.779Z</time>
      </trkpt>
      <trkpt lat="49.06602" lon="4.03236">
        <ele>181.6</ele>
        <time>2020-08-25T09:27:58.993Z</time>
      </trkpt>
      <trkpt lat="49.06589" lon="4.03239">
        <ele>180.8</ele>
        <time>2020-08-25T09:28:00.110Z</time>
      </trkpt>
      <trkpt lat="49.06565" lon="4.03249">
        <ele>178.2</ele>
        <time>2020-08-25T09:28:02.310Z</time>
      </trkpt>
      <trkpt lat="49.06555" lon="4.03257">
        <ele>176.6</ele>
        <time>2020-08-25T09:28:03.347Z</time>
      </trkpt>
      <trkpt lat="49.06546" lon="4.03269">
        <ele>175.6</ele>
        <time>2020-08-25T09:28:04.379Z</time>
      </trkpt>
      <trkpt lat="49.06531" lon="4.03297">
        <ele>174.6</ele>
        <time>2020-08-25T09:28:06.752Z</time>
      </trkpt>
      <trkpt lat="49.06516" lon="4.03324">
        <ele>172.8</ele>
        <time>2020-08-25T09:28:08.787Z</time>
      </trkpt>
      <trkpt lat="49.06501" lon="4.03347">
        <ele>169</ele>
        <time>2020-08-25T09:28:10.690Z</time>
      </trkpt>
      <trkpt lat="49.06493" lon="4.03356">
        <ele>167.6</ele>
        <time>2020-08-25T09:28:11.566Z</time>
      </trkpt>
      <trkpt lat="49.06479" lon="4.0337">
        <ele>164.8</ele>
        <time>2020-08-25T09:28:13.058Z</time>
      </trkpt>
      <trkpt lat="49.0647" lon="4.0339">
        <ele>162.8</ele>
        <time>2020-08-25T09:28:14.454Z</time>
      </trkpt>
      <trkpt lat="49.06468" lon="4.03403">
        <ele>161.8</ele>
        <time>2020-08-25T09:28:15.237Z</time>
      </trkpt>
      <trkpt lat="49.06467" lon="4.03418">
        <ele>160.8</ele>
        <time>2020-08-25T09:28:16.107Z</time>
      </trkpt>
      <trkpt lat="49.06467" lon="4.03451">
        <ele>158.8</ele>
        <time>2020-08-25T09:28:18.079Z</time>
      </trkpt>
      <trkpt lat="49.06467" lon="4.0347">
        <ele>158.4</ele>
        <time>2020-08-25T09:28:19.413Z</time>
      </trkpt>
      <trkpt lat="49.06467" lon="4.0349">
        <ele>157.6</ele>
        <time>2020-08-25T09:28:20.485Z</time>
      </trkpt>
      <trkpt lat="49.06465" lon="4.03531">
        <ele>157</ele>
        <time>2020-08-25T09:28:23.832Z</time>
      </trkpt>
      <trkpt lat="49.06465" lon="4.03553">
        <ele>156.4</ele>
        <time>2020-08-25T09:28:25.264Z</time>
      </trkpt>
      <trkpt lat="49.06464" lon="4.03575">
        <ele>155.2</ele>
        <time>2020-08-25T09:28:26.563Z</time>
      </trkpt>
      <trkpt lat="49.06463" lon="4.03598">
        <ele>154</ele>
        <time>2020-08-25T09:28:27.886Z</time>
      </trkpt>
      <trkpt lat="49.06462" lon="4.03644">
        <ele>151.6</ele>
        <time>2020-08-25T09:28:30.562Z</time>
      </trkpt>
      <trkpt lat="49.06462" lon="4.03667">
        <ele>149.2</ele>
        <time>2020-08-25T09:28:31.912Z</time>
      </trkpt>
      <trkpt lat="49.06462" lon="4.03714">
        <ele>146</ele>
        <time>2020-08-25T09:28:34.640Z</time>
      </trkpt>
      <trkpt lat="49.06462" lon="4.03737">
        <ele>144.6</ele>
        <time>2020-08-25T09:28:36.001Z</time>
      </trkpt>
      <trkpt lat="49.06461" lon="4.03761">
        <ele>142.6</ele>
        <time>2020-08-25T09:28:37.358Z</time>
      </trkpt>
      <trkpt lat="49.06458" lon="4.03808">
        <ele>138.6</ele>
        <time>2020-08-25T09:28:40.112Z</time>
      </trkpt>
      <trkpt lat="49.06453" lon="4.03854">
        <ele>135</ele>
        <time>2020-08-25T09:28:42.846Z</time>
      </trkpt>
      <trkpt lat="49.06447" lon="4.03899">
        <ele>132.4</ele>
        <time>2020-08-25T09:28:45.515Z</time>
      </trkpt>
      <trkpt lat="49.06444" lon="4.03921">
        <ele>131.4</ele>
        <time>2020-08-25T09:28:46.839Z</time>
      </trkpt>
      <trkpt lat="49.0644" lon="4.03944">
        <ele>129.4</ele>
        <time>2020-08-25T09:28:48.178Z</time>
      </trkpt>
      <trkpt lat="49.06435" lon="4.03988">
        <ele>126.2</ele>
        <time>2020-08-25T09:28:50.797Z</time>
      </trkpt>
      <trkpt lat="49.0643" lon="4.0403">
        <ele>123.2</ele>
        <time>2020-08-25T09:28:53.303Z</time>
      </trkpt>
      <trkpt lat="49.06424" lon="4.04113">
        <ele>118.2</ele>
        <time>2020-08-25T09:28:58.115Z</time>
      </trkpt>
      <trkpt lat="49.06421" lon="4.04151">
        <ele>115.2</ele>
        <time>2020-08-25T09:29:00.379Z</time>
      </trkpt>
      <trkpt lat="49.06418" lon="4.04188">
        <ele>114.2</ele>
        <time>2020-08-25T09:29:02.811Z</time>
      </trkpt>
      <trkpt lat="49.06417" lon="4.04205">
        <ele>113.4</ele>
        <time>2020-08-25T09:29:03.834Z</time>
      </trkpt>
      <trkpt lat="49.06416" lon="4.04222">
        <ele>112.4</ele>
        <time>2020-08-25T09:29:04.810Z</time>
      </trkpt>
      <trkpt lat="49.06415" lon="4.04237">
        <ele>112</ele>
        <time>2020-08-25T09:29:05.820Z</time>
      </trkpt>
      <trkpt lat="49.06411" lon="4.04289">
        <ele>110</ele>
        <time>2020-08-25T09:29:08.784Z</time>
      </trkpt>
      <trkpt lat="49.06411" lon="4.04299">
        <ele>109</ele>
        <time>2020-08-25T09:29:09.360Z</time>
      </trkpt>
      <trkpt lat="49.06415" lon="4.04316">
        <ele>106.6</ele>
        <time>2020-08-25T09:29:10.441Z</time>
      </trkpt>
      <trkpt lat="49.06417" lon="4.04321">
        <ele>106.2</ele>
        <time>2020-08-25T09:29:10.778Z</time>
      </trkpt>
      <trkpt lat="49.06424" lon="4.04328">
        <ele>105.6</ele>
        <time>2020-08-25T09:29:11.555Z</time>
      </trkpt>
      <trkpt lat="49.06428" lon="4.04333">
        <ele>105.4</ele>
        <time>2020-08-25T09:29:12.067Z</time>
      </trkpt>
      <trkpt lat="49.06434" lon="4.04346">
        <ele>105</ele>
        <time>2020-08-25T09:29:13.107Z</time>
      </trkpt>
      <trkpt lat="49.06435" lon="4.04354">
        <ele>105</ele>
        <time>2020-08-25T09:29:14.099Z</time>
      </trkpt>
      <trkpt lat="49.06436" lon="4.04363">
        <ele>105</ele>
        <time>2020-08-25T09:29:15.093Z</time>
      </trkpt>
      <trkpt lat="49.06436" lon="4.04371">
        <ele>104.8</ele>
        <time>2020-08-25T09:29:15.674Z</time>
      </trkpt>
      <trkpt lat="49.06436" lon="4.0438">
        <ele>104.8</ele>
        <time>2020-08-25T09:29:16.694Z</time>
      </trkpt>
      <trkpt lat="49.06437" lon="4.04389">
        <ele>104.6</ele>
        <time>2020-08-25T09:29:17.359Z</time>
      </trkpt>
      <trkpt lat="49.06442" lon="4.04407">
        <ele>104.8</ele>
        <time>2020-08-25T09:29:20.041Z</time>
      </trkpt>
      <trkpt lat="49.06452" lon="4.04423">
        <ele>104.4</ele>
        <time>2020-08-25T09:29:21.651Z</time>
      </trkpt>
      <trkpt lat="49.06458" lon="4.04429">
        <ele>104.4</ele>
        <time>2020-08-25T09:29:23.019Z</time>
      </trkpt>
      <trkpt lat="49.06465" lon="4.04434">
        <ele>104.2</ele>
        <time>2020-08-25T09:29:23.969Z</time>
      </trkpt>
      <trkpt lat="49.06482" lon="4.04439">
        <ele>104.2</ele>
        <time>2020-08-25T09:29:27.006Z</time>
      </trkpt>
      <trkpt lat="49.0651" lon="4.0444">
        <ele>104</ele>
        <time>2020-08-25T09:29:31.503Z</time>
      </trkpt>
      <trkpt lat="49.0652" lon="4.04441">
        <ele>103.8</ele>
        <time>2020-08-25T09:29:32.732Z</time>
      </trkpt>
      <trkpt lat="49.0653" lon="4.04442">
        <ele>103.6</ele>
        <time>2020-08-25T09:29:33.976Z</time>
      </trkpt>
      <trkpt lat="49.0654" lon="4.04442">
        <ele>103.4</ele>
        <time>2020-08-25T09:29:35.221Z</time>
      </trkpt>
      <trkpt lat="49.0656" lon="4.04443">
        <ele>101.8</ele>
        <time>2020-08-25T09:29:37.015Z</time>
      </trkpt>
      <trkpt lat="49.0658" lon="4.04445">
        <ele>100.8</ele>
        <time>2020-08-25T09:29:38.935Z</time>
      </trkpt>
      <trkpt lat="49.06611" lon="4.04448">
        <ele>98.6</ele>
        <time>2020-08-25T09:29:41.682Z</time>
      </trkpt>
      <trkpt lat="49.06621" lon="4.04448">
        <ele>97.2</ele>
        <time>2020-08-25T09:29:42.587Z</time>
      </trkpt>
      <trkpt lat="49.06652" lon="4.04451">
        <ele>95</ele>
        <time>2020-08-25T09:29:45.345Z</time>
      </trkpt>
      <trkpt lat="49.06663" lon="4.04453">
        <ele>94</ele>
        <time>2020-08-25T09:29:46.256Z</time>
      </trkpt>
      <trkpt lat="49.06683" lon="4.04458">
        <ele>92.6</ele>
        <time>2020-08-25T09:29:48.070Z</time>
      </trkpt>
      <trkpt lat="49.06692" lon="4.04463">
        <ele>92.2</ele>
        <time>2020-08-25T09:29:49.128Z</time>
      </trkpt>
      <trkpt lat="49.06711" lon="4.04477">
        <ele>90.6</ele>
        <time>2020-08-25T09:29:50.940Z</time>
      </trkpt>
      <trkpt lat="49.06719" lon="4.04486">
        <ele>90.2</ele>
        <time>2020-08-25T09:29:52.004Z</time>
      </trkpt>
      <trkpt lat="49.06728" lon="4.04496">
        <ele>89.8</ele>
        <time>2020-08-25T09:29:53.099Z</time>
      </trkpt>
      <trkpt lat="49.06742" lon="4.0452">
        <ele>87.8</ele>
        <time>2020-08-25T09:29:54.995Z</time>
      </trkpt>
      <trkpt lat="49.06747" lon="4.04535">
        <ele>87.6</ele>
        <time>2020-08-25T09:29:56.380Z</time>
      </trkpt>
      <trkpt lat="49.06751" lon="4.0455">
        <ele>87</ele>
        <time>2020-08-25T09:29:57.335Z</time>
      </trkpt>
      <trkpt lat="49.06754" lon="4.04565">
        <ele>86.8</ele>
        <time>2020-08-25T09:29:58.625Z</time>
      </trkpt>
      <trkpt lat="49.06755" lon="4.0458">
        <ele>86.4</ele>
        <time>2020-08-25T09:29:59.594Z</time>
      </trkpt>
      <trkpt lat="49.06755" lon="4.04605">
        <ele>85.6</ele>
        <time>2020-08-25T09:30:01.152Z</time>
      </trkpt>
      <trkpt lat="49.06755" lon="4.04615">
        <ele>85</ele>
        <time>2020-08-25T09:30:01.747Z</time>
      </trkpt>
      <trkpt lat="49.0676" lon="4.0463">
        <ele>83.8</ele>
        <time>2020-08-25T09:30:02.703Z</time>
      </trkpt>
      <trkpt lat="49.06769" lon="4.04635">
        <ele>83.2</ele>
        <time>2020-08-25T09:30:03.544Z</time>
      </trkpt>
      <trkpt lat="49.0679" lon="4.04627">
        <ele>82.8</ele>
        <time>2020-08-25T09:30:06.311Z</time>
      </trkpt>
      <trkpt lat="49.06795" lon="4.04624">
        <ele>82.8</ele>
        <time>2020-08-25T09:30:07.293Z</time>
      </trkpt>
      <trkpt lat="49.06822" lon="4.04608">
        <ele>82.6</ele>
        <time>2020-08-25T09:30:11.867Z</time>
      </trkpt>
      <trkpt lat="49.06827" lon="4.04605">
        <ele>82.8</ele>
        <time>2020-08-25T09:30:13.352Z</time>
      </trkpt>
      <trkpt lat="49.06857" lon="4.04589">
        <ele>83.2</ele>
        <time>2020-08-25T09:30:19.901Z</time>
      </trkpt>
      <trkpt lat="49.06887" lon="4.04573">
        <ele>84.6</ele>
        <time>2020-08-25T09:30:29.417Z</time>
      </trkpt>
      <trkpt lat="49.06892" lon="4.0457">
        <ele>84.6</ele>
        <time>2020-08-25T09:30:30.327Z</time>
      </trkpt>
      <trkpt lat="49.06922" lon="4.04557">
        <ele>85.8</ele>
        <time>2020-08-25T09:30:38.939Z</time>
      </trkpt>
      <trkpt lat="49.06927" lon="4.04555">
        <ele>85.8</ele>
        <time>2020-08-25T09:30:39.901Z</time>
      </trkpt>
      <trkpt lat="49.06947" lon="4.04546">
        <ele>86.8</ele>
        <time>2020-08-25T09:30:46.263Z</time>
      </trkpt>
      <trkpt lat="49.06966" lon="4.04536">
        <ele>87.8</ele>
        <time>2020-08-25T09:30:52.471Z</time>
      </trkpt>
      <trkpt lat="49.0699" lon="4.04527">
        <ele>88.8</ele>
        <time>2020-08-25T09:30:59.540Z</time>
      </trkpt>
      <trkpt lat="49.07001" lon="4.04526">
        <ele>89.4</ele>
        <time>2020-08-25T09:31:03.004Z</time>
      </trkpt>
      <trkpt lat="49.07034" lon="4.04529">
        <ele>89.4</ele>
        <time>2020-08-25T09:31:09.052Z</time>
      </trkpt>
      <trkpt lat="49.07082" lon="4.04537">
        <ele>89.6</ele>
        <time>2020-08-25T09:31:17.958Z</time>
      </trkpt>
      <trkpt lat="49.07088" lon="4.04538">
        <ele>89.6</ele>
        <time>2020-08-25T09:31:19.004Z</time>
      </trkpt>
      <trkpt lat="49.07099" lon="4.0454">
        <ele>89.6</ele>
        <time>2020-08-25T09:31:20.932Z</time>
      </trkpt>
      <trkpt lat="49.07119" lon="4.04543">
        <ele>89.6</ele>
        <time>2020-08-25T09:31:24.597Z</time>
      </trkpt>
      <trkpt lat="49.07124" lon="4.04544">
        <ele>89.8</ele>
        <time>2020-08-25T09:31:25.966Z</time>
      </trkpt>
      <trkpt lat="49.07138" lon="4.04548">
        <ele>90</ele>
        <time>2020-08-25T09:31:28.890Z</time>
      </trkpt>
      <trkpt lat="49.07146" lon="4.04556">
        <ele>91</ele>
        <time>2020-08-25T09:31:33.556Z</time>
      </trkpt>
      <trkpt lat="49.07152" lon="4.04567">
        <ele>91.8</ele>
        <time>2020-08-25T09:31:37.390Z</time>
      </trkpt>
      <trkpt lat="49.07156" lon="4.04578">
        <ele>92.2</ele>
        <time>2020-08-25T09:31:40.055Z</time>
      </trkpt>
      <trkpt lat="49.07166" lon="4.04599">
        <ele>93.2</ele>
        <time>2020-08-25T09:31:45.643Z</time>
      </trkpt>
      <trkpt lat="49.07173" lon="4.04613">
        <ele>93.4</ele>
        <time>2020-08-25T09:31:48.110Z</time>
      </trkpt>
      <trkpt lat="49.07192" lon="4.04643">
        <ele>96.2</ele>
        <time>2020-08-25T09:32:01.129Z</time>
      </trkpt>
      <trkpt lat="49.07195" lon="4.04647">
        <ele>96.2</ele>
        <time>2020-08-25T09:32:01.826Z</time>
      </trkpt>
      <trkpt lat="49.07207" lon="4.04659">
        <ele>97.4</ele>
        <time>2020-08-25T09:32:07.637Z</time>
      </trkpt>
      <trkpt lat="49.07217" lon="4.04667">
        <ele>97.8</ele>
        <time>2020-08-25T09:32:10.526Z</time>
      </trkpt>
      <trkpt lat="49.07223" lon="4.04671">
        <ele>98.4</ele>
        <time>2020-08-25T09:32:13.355Z</time>
      </trkpt>
      <trkpt lat="49.07229" lon="4.04675">
        <ele>99</ele>
        <time>2020-08-25T09:32:16.178Z</time>
      </trkpt>
      <trkpt lat="49.07242" lon="4.04683">
        <ele>100</ele>
        <time>2020-08-25T09:32:21.388Z</time>
      </trkpt>
      <trkpt lat="49.07252" lon="4.04689">
        <ele>100.8</ele>
        <time>2020-08-25T09:32:25.351Z</time>
      </trkpt>
      <trkpt lat="49.07272" lon="4.04699">
        <ele>102.8</ele>
        <time>2020-08-25T09:32:34.689Z</time>
      </trkpt>
      <trkpt lat="49.07282" lon="4.04704">
        <ele>104</ele>
        <time>2020-08-25T09:32:40.435Z</time>
      </trkpt>
      <trkpt lat="49.07288" lon="4.04708">
        <ele>104.6</ele>
        <time>2020-08-25T09:32:43.270Z</time>
      </trkpt>
      <trkpt lat="49.07298" lon="4.04712">
        <ele>105</ele>
        <time>2020-08-25T09:32:46.130Z</time>
      </trkpt>
      <trkpt lat="49.07308" lon="4.04717">
        <ele>106</ele>
        <time>2020-08-25T09:32:50.793Z</time>
      </trkpt>
      <trkpt lat="49.07325" lon="4.04724">
        <ele>108</ele>
        <time>2020-08-25T09:33:00.258Z</time>
      </trkpt>
      <trkpt lat="49.07332" lon="4.04728">
        <ele>108.4</ele>
        <time>2020-08-25T09:33:02.654Z</time>
      </trkpt>
      <trkpt lat="49.0736" lon="4.0474">
        <ele>110</ele>
        <time>2020-08-25T09:33:12.103Z</time>
      </trkpt>
      <trkpt lat="49.07395" lon="4.04759">
        <ele>110.8</ele>
        <time>2020-08-25T09:33:20.344Z</time>
      </trkpt>
      <trkpt lat="49.07429" lon="4.04784">
        <ele>110.8</ele>
        <time>2020-08-25T09:33:27.062Z</time>
      </trkpt>
      <trkpt lat="49.07435" lon="4.04789">
        <ele>110.8</ele>
        <time>2020-08-25T09:33:28.258Z</time>
      </trkpt>
      <trkpt lat="49.07483" lon="4.04829">
        <ele>109.8</ele>
        <time>2020-08-25T09:33:35.353Z</time>
      </trkpt>
      <trkpt lat="49.0749" lon="4.04834">
        <ele>109.8</ele>
        <time>2020-08-25T09:33:36.622Z</time>
      </trkpt>
      <trkpt lat="49.07496" lon="4.04839">
        <ele>109.6</ele>
        <time>2020-08-25T09:33:37.451Z</time>
      </trkpt>
      <trkpt lat="49.07543" lon="4.04868">
        <ele>108.8</ele>
        <time>2020-08-25T09:33:44.114Z</time>
      </trkpt>
      <trkpt lat="49.0755" lon="4.0487">
        <ele>108.8</ele>
        <time>2020-08-25T09:33:45.442Z</time>
      </trkpt>
      <trkpt lat="49.07558" lon="4.04871">
        <ele>108.4</ele>
        <time>2020-08-25T09:33:46.125Z</time>
      </trkpt>
      <trkpt lat="49.07565" lon="4.04871">
        <ele>108.2</ele>
        <time>2020-08-25T09:33:47.046Z</time>
      </trkpt>
      <trkpt lat="49.07574" lon="4.0487">
        <ele>108.2</ele>
        <time>2020-08-25T09:33:48.516Z</time>
      </trkpt>
      <trkpt lat="49.07591" lon="4.04864">
        <ele>107.8</ele>
        <time>2020-08-25T09:33:50.647Z</time>
      </trkpt>
      <trkpt lat="49.07599" lon="4.04859">
        <ele>107.8</ele>
        <time>2020-08-25T09:33:52.242Z</time>
      </trkpt>
      <trkpt lat="49.07606" lon="4.04852">
        <ele>107.6</ele>
        <time>2020-08-25T09:33:53.290Z</time>
      </trkpt>
      <trkpt lat="49.07617" lon="4.04834">
        <ele>107</ele>
        <time>2020-08-25T09:33:54.917Z</time>
      </trkpt>
      <trkpt lat="49.07619" lon="4.04823">
        <ele>106.8</ele>
        <time>2020-08-25T09:33:55.793Z</time>
      </trkpt>
      <trkpt lat="49.07619" lon="4.04813">
        <ele>106.8</ele>
        <time>2020-08-25T09:33:57.012Z</time>
      </trkpt>
      <trkpt lat="49.07616" lon="4.04795">
        <ele>105</ele>
        <time>2020-08-25T09:33:58.090Z</time>
      </trkpt>
      <trkpt lat="49.07614" lon="4.04786">
        <ele>104.6</ele>
        <time>2020-08-25T09:33:58.618Z</time>
      </trkpt>
      <trkpt lat="49.07612" lon="4.04761">
        <ele>102.6</ele>
        <time>2020-08-25T09:34:00.098Z</time>
      </trkpt>
      <trkpt lat="49.07612" lon="4.04753">
        <ele>102.2</ele>
        <time>2020-08-25T09:34:00.586Z</time>
      </trkpt>
      <trkpt lat="49.07612" lon="4.04745">
        <ele>102.2</ele>
        <time>2020-08-25T09:34:01.503Z</time>
      </trkpt>
      <trkpt lat="49.07615" lon="4.04724">
        <ele>102.2</ele>
        <time>2020-08-25T09:34:04.035Z</time>
      </trkpt>
      <trkpt lat="49.07621" lon="4.04698">
        <ele>102.4</ele>
        <time>2020-08-25T09:34:07.550Z</time>
      </trkpt>
      <trkpt lat="49.07624" lon="4.04679">
        <ele>103.8</ele>
        <time>2020-08-25T09:34:14.118Z</time>
      </trkpt>
      <trkpt lat="49.0763" lon="4.04653">
        <ele>105.6</ele>
        <time>2020-08-25T09:34:22.494Z</time>
      </trkpt>
      <trkpt lat="49.07631" lon="4.04645">
        <ele>105.6</ele>
        <time>2020-08-25T09:34:23.491Z</time>
      </trkpt>
      <trkpt lat="49.07638" lon="4.04623">
        <ele>106.8</ele>
        <time>2020-08-25T09:34:29.396Z</time>
      </trkpt>
      <trkpt lat="49.07641" lon="4.04616">
        <ele>107</ele>
        <time>2020-08-25T09:34:30.891Z</time>
      </trkpt>
      <trkpt lat="49.07647" lon="4.04599">
        <ele>107.2</ele>
        <time>2020-08-25T09:34:33.594Z</time>
      </trkpt>
      <trkpt lat="49.07656" lon="4.04581">
        <ele>107.4</ele>
        <time>2020-08-25T09:34:36.656Z</time>
      </trkpt>
      <trkpt lat="49.07661" lon="4.04571">
        <ele>107.4</ele>
        <time>2020-08-25T09:34:38.074Z</time>
      </trkpt>
      <trkpt lat="49.07678" lon="4.04542">
        <ele>107.4</ele>
        <time>2020-08-25T09:34:42.584Z</time>
      </trkpt>
      <trkpt lat="49.07694" lon="4.0451">
        <ele>106.6</ele>
        <time>2020-08-25T09:34:45.622Z</time>
      </trkpt>
      <trkpt lat="49.077" lon="4.04499">
        <ele>106.2</ele>
        <time>2020-08-25T09:34:46.530Z</time>
      </trkpt>
      <trkpt lat="49.07712" lon="4.04476">
        <ele>105.4</ele>
        <time>2020-08-25T09:34:48.408Z</time>
      </trkpt>
      <trkpt lat="49.07742" lon="4.04436">
        <ele>103.8</ele>
        <time>2020-08-25T09:34:52.494Z</time>
      </trkpt>
      <trkpt lat="49.07751" lon="4.04428">
        <ele>103.6</ele>
        <time>2020-08-25T09:34:53.769Z</time>
      </trkpt>
      <trkpt lat="49.0776" lon="4.04421">
        <ele>103</ele>
        <time>2020-08-25T09:34:54.654Z</time>
      </trkpt>
      <trkpt lat="49.07769" lon="4.04416">
        <ele>102</ele>
        <time>2020-08-25T09:34:55.532Z</time>
      </trkpt>
      <trkpt lat="49.07779" lon="4.04414">
        <ele>101.6</ele>
        <time>2020-08-25T09:34:56.474Z</time>
      </trkpt>
      <trkpt lat="49.07796" lon="4.04416">
        <ele>99.8</ele>
        <time>2020-08-25T09:34:58.032Z</time>
      </trkpt>
      <trkpt lat="49.07819" lon="4.04431">
        <ele>98.8</ele>
        <time>2020-08-25T09:35:00.530Z</time>
      </trkpt>
      <trkpt lat="49.07825" lon="4.04437">
        <ele>98.6</ele>
        <time>2020-08-25T09:35:01.421Z</time>
      </trkpt>
      <trkpt lat="49.07831" lon="4.04444">
        <ele>98.6</ele>
        <time>2020-08-25T09:35:02.721Z</time>
      </trkpt>
      <trkpt lat="49.07851" lon="4.04469">
        <ele>98.4</ele>
        <time>2020-08-25T09:35:06.540Z</time>
      </trkpt>
      <trkpt lat="49.07869" lon="4.04491">
        <ele>98.8</ele>
        <time>2020-08-25T09:35:11.440Z</time>
      </trkpt>
      <trkpt lat="49.07877" lon="4.04502">
        <ele>99.8</ele>
        <time>2020-08-25T09:35:16.126Z</time>
      </trkpt>
      <trkpt lat="49.07889" lon="4.04517">
        <ele>100.4</ele>
        <time>2020-08-25T09:35:20.435Z</time>
      </trkpt>
      <trkpt lat="49.07908" lon="4.0454">
        <ele>101.8</ele>
        <time>2020-08-25T09:35:28.397Z</time>
      </trkpt>
      <trkpt lat="49.07922" lon="4.04558">
        <ele>103.2</ele>
        <time>2020-08-25T09:35:35.305Z</time>
      </trkpt>
      <trkpt lat="49.0794" lon="4.0458">
        <ele>104.4</ele>
        <time>2020-08-25T09:35:42.563Z</time>
      </trkpt>
      <trkpt lat="49.0795" lon="4.04592">
        <ele>105.8</ele>
        <time>2020-08-25T09:35:49.098Z</time>
      </trkpt>
      <trkpt lat="49.07966" lon="4.04612">
        <ele>106.8</ele>
        <time>2020-08-25T09:35:55.551Z</time>
      </trkpt>
      <trkpt lat="49.07973" lon="4.0462">
        <ele>107.2</ele>
        <time>2020-08-25T09:35:58.193Z</time>
      </trkpt>
      <trkpt lat="49.0799" lon="4.04642">
        <ele>108.6</ele>
        <time>2020-08-25T09:36:05.765Z</time>
      </trkpt>
      <trkpt lat="49.07997" lon="4.0465">
        <ele>109</ele>
        <time>2020-08-25T09:36:08.409Z</time>
      </trkpt>
      <trkpt lat="49.08004" lon="4.04659">
        <ele>109.6</ele>
        <time>2020-08-25T09:36:11.509Z</time>
      </trkpt>
      <trkpt lat="49.08017" lon="4.04675">
        <ele>110.4</ele>
        <time>2020-08-25T09:36:16.733Z</time>
      </trkpt>
      <trkpt lat="49.08034" lon="4.04695">
        <ele>111.6</ele>
        <time>2020-08-25T09:36:23.640Z</time>
      </trkpt>
      <trkpt lat="49.08037" lon="4.04698">
        <ele>112</ele>
        <time>2020-08-25T09:36:25.507Z</time>
      </trkpt>
      <trkpt lat="49.08041" lon="4.04702">
        <ele>112.2</ele>
        <time>2020-08-25T09:36:26.794Z</time>
      </trkpt>
      <trkpt lat="49.08069" lon="4.04729">
        <ele>114</ele>
        <time>2020-08-25T09:36:37.553Z</time>
      </trkpt>
      <trkpt lat="49.08073" lon="4.04732">
        <ele>114.4</ele>
        <time>2020-08-25T09:36:39.427Z</time>
      </trkpt>
      <trkpt lat="49.08093" lon="4.04744">
        <ele>116</ele>
        <time>2020-08-25T09:36:47.393Z</time>
      </trkpt>
      <trkpt lat="49.08105" lon="4.04748">
        <ele>116.4</ele>
        <time>2020-08-25T09:36:50.615Z</time>
      </trkpt>
      <trkpt lat="49.08126" lon="4.04754">
        <ele>117.2</ele>
        <time>2020-08-25T09:36:56.418Z</time>
      </trkpt>
      <trkpt lat="49.08139" lon="4.04758">
        <ele>117.6</ele>
        <time>2020-08-25T09:36:59.599Z</time>
      </trkpt>
      <trkpt lat="49.08147" lon="4.04761">
        <ele>118</ele>
        <time>2020-08-25T09:37:02.171Z</time>
      </trkpt>
      <trkpt lat="49.08171" lon="4.0477">
        <ele>119</ele>
        <time>2020-08-25T09:37:09.240Z</time>
      </trkpt>
      <trkpt lat="49.08175" lon="4.04771">
        <ele>119.2</ele>
        <time>2020-08-25T09:37:10.507Z</time>
      </trkpt>
      <trkpt lat="49.08187" lon="4.04774">
        <ele>120.2</ele>
        <time>2020-08-25T09:37:15.334Z</time>
      </trkpt>
      <trkpt lat="49.08204" lon="4.04777">
        <ele>120.8</ele>
        <time>2020-08-25T09:37:19.721Z</time>
      </trkpt>
      <trkpt lat="49.08216" lon="4.04779">
        <ele>121.8</ele>
        <time>2020-08-25T09:37:24.545Z</time>
      </trkpt>
      <trkpt lat="49.08236" lon="4.04784">
        <ele>122.6</ele>
        <time>2020-08-25T09:37:30.248Z</time>
      </trkpt>
      <trkpt lat="49.08248" lon="4.04786">
        <ele>123.6</ele>
        <time>2020-08-25T09:37:35.096Z</time>
      </trkpt>
      <trkpt lat="49.08252" lon="4.04787">
        <ele>124</ele>
        <time>2020-08-25T09:37:36.956Z</time>
      </trkpt>
      <trkpt lat="49.08264" lon="4.0479">
        <ele>124.8</ele>
        <time>2020-08-25T09:37:41.172Z</time>
      </trkpt>
      <trkpt lat="49.08276" lon="4.04792">
        <ele>125.8</ele>
        <time>2020-08-25T09:37:45.958Z</time>
      </trkpt>
      <trkpt lat="49.0828" lon="4.04793">
        <ele>126.2</ele>
        <time>2020-08-25T09:37:47.817Z</time>
      </trkpt>
      <trkpt lat="49.08291" lon="4.04795">
        <ele>127.2</ele>
        <time>2020-08-25T09:37:52.581Z</time>
      </trkpt>
      <trkpt lat="49.08307" lon="4.04797">
        <ele>128.4</ele>
        <time>2020-08-25T09:37:58.466Z</time>
      </trkpt>
      <trkpt lat="49.08319" lon="4.04798">
        <ele>129.2</ele>
        <time>2020-08-25T09:38:02.666Z</time>
      </trkpt>
      <trkpt lat="49.0833" lon="4.048">
        <ele>130.2</ele>
        <time>2020-08-25T09:38:07.435Z</time>
      </trkpt>
      <trkpt lat="49.08342" lon="4.04802">
        <ele>131.2</ele>
        <time>2020-08-25T09:38:12.228Z</time>
      </trkpt>
      <trkpt lat="49.08346" lon="4.04802">
        <ele>131.6</ele>
        <time>2020-08-25T09:38:14.087Z</time>
      </trkpt>
      <trkpt lat="49.0835" lon="4.04802">
        <ele>131.8</ele>
        <time>2020-08-25T09:38:15.340Z</time>
      </trkpt>
      <trkpt lat="49.08379" lon="4.04806">
        <ele>134</ele>
        <time>2020-08-25T09:38:26.180Z</time>
      </trkpt>
      <trkpt lat="49.08383" lon="4.04807">
        <ele>134.6</ele>
        <time>2020-08-25T09:38:29.020Z</time>
      </trkpt>
      <trkpt lat="49.08387" lon="4.04807">
        <ele>135.2</ele>
        <time>2020-08-25T09:38:31.928Z</time>
      </trkpt>
      <trkpt lat="49.08421" lon="4.04816">
        <ele>136.6</ele>
        <time>2020-08-25T09:38:41.752Z</time>
      </trkpt>
      <trkpt lat="49.08429" lon="4.04819">
        <ele>137.2</ele>
        <time>2020-08-25T09:38:44.835Z</time>
      </trkpt>
      <trkpt lat="49.08445" lon="4.04824">
        <ele>138</ele>
        <time>2020-08-25T09:38:49.941Z</time>
      </trkpt>
      <trkpt lat="49.08458" lon="4.04829">
        <ele>138.6</ele>
        <time>2020-08-25T09:38:53.815Z</time>
      </trkpt>
      <trkpt lat="49.08466" lon="4.04832">
        <ele>139</ele>
        <time>2020-08-25T09:38:56.422Z</time>
      </trkpt>
      <trkpt lat="49.08479" lon="4.04836">
        <ele>139.6</ele>
        <time>2020-08-25T09:39:00.382Z</time>
      </trkpt>
      <trkpt lat="49.08499" lon="4.04844">
        <ele>141.2</ele>
        <time>2020-08-25T09:39:08.363Z</time>
      </trkpt>
      <trkpt lat="49.08504" lon="4.04845">
        <ele>141.4</ele>
        <time>2020-08-25T09:39:09.671Z</time>
      </trkpt>
      <trkpt lat="49.08524" lon="4.04852">
        <ele>142.2</ele>
        <time>2020-08-25T09:39:15.466Z</time>
      </trkpt>
      <trkpt lat="49.08537" lon="4.04856">
        <ele>143</ele>
        <time>2020-08-25T09:39:19.877Z</time>
      </trkpt>
      <trkpt lat="49.08555" lon="4.0486">
        <ele>144.6</ele>
        <time>2020-08-25T09:39:27.403Z</time>
      </trkpt>
      <trkpt lat="49.08577" lon="4.04864">
        <ele>145.6</ele>
        <time>2020-08-25T09:39:34.134Z</time>
      </trkpt>
      <trkpt lat="49.08586" lon="4.04864">
        <ele>146.2</ele>
        <time>2020-08-25T09:39:37.256Z</time>
      </trkpt>
      <trkpt lat="49.0859" lon="4.04864">
        <ele>146.6</ele>
        <time>2020-08-25T09:39:39.144Z</time>
      </trkpt>
      <trkpt lat="49.08609" lon="4.0486">
        <ele>148</ele>
        <time>2020-08-25T09:39:46.255Z</time>
      </trkpt>
      <trkpt lat="49.08641" lon="4.04844">
        <ele>148.2</ele>
        <time>2020-08-25T09:39:52.529Z</time>
      </trkpt>
      <trkpt lat="49.08678" lon="4.04825">
        <ele>148.4</ele>
        <time>2020-08-25T09:39:59.891Z</time>
      </trkpt>
      <trkpt lat="49.08685" lon="4.04823">
        <ele>148.4</ele>
        <time>2020-08-25T09:40:01.127Z</time>
      </trkpt>
      <trkpt lat="49.08712" lon="4.04822">
        <ele>148</ele>
        <time>2020-08-25T09:40:04.809Z</time>
      </trkpt>
      <trkpt lat="49.08733" lon="4.04825">
        <ele>147.8</ele>
        <time>2020-08-25T09:40:07.792Z</time>
      </trkpt>
      <trkpt lat="49.08767" lon="4.04831">
        <ele>147.8</ele>
        <time>2020-08-25T09:40:13.873Z</time>
      </trkpt>
      <trkpt lat="49.08813" lon="4.04831">
        <ele>147.6</ele>
        <time>2020-08-25T09:40:21.636Z</time>
      </trkpt>
      <trkpt lat="49.08832" lon="4.04829">
        <ele>147.4</ele>
        <time>2020-08-25T09:40:24.283Z</time>
      </trkpt>
      <trkpt lat="49.08873" lon="4.04824">
        <ele>147.6</ele>
        <time>2020-08-25T09:40:32.037Z</time>
      </trkpt>
      <trkpt lat="49.08879" lon="4.04823">
        <ele>147.6</ele>
        <time>2020-08-25T09:40:33.045Z</time>
      </trkpt>
      <trkpt lat="49.08912" lon="4.04814">
        <ele>148.4</ele>
        <time>2020-08-25T09:40:40.781Z</time>
      </trkpt>
      <trkpt lat="49.08924" lon="4.04811">
        <ele>148.8</ele>
        <time>2020-08-25T09:40:43.880Z</time>
      </trkpt>
      <trkpt lat="49.0893" lon="4.0481">
        <ele>148.8</ele>
        <time>2020-08-25T09:40:45.018Z</time>
      </trkpt>
      <trkpt lat="49.08958" lon="4.04804">
        <ele>149.4</ele>
        <time>2020-08-25T09:40:51.170Z</time>
      </trkpt>
      <trkpt lat="49.08965" lon="4.04803">
        <ele>149.4</ele>
        <time>2020-08-25T09:40:52.470Z</time>
      </trkpt>
      <trkpt lat="49.09006" lon="4.04787">
        <ele>149.4</ele>
        <time>2020-08-25T09:41:00.084Z</time>
      </trkpt>
      <trkpt lat="49.09037" lon="4.04771">
        <ele>148.8</ele>
        <time>2020-08-25T09:41:04.224Z</time>
      </trkpt>
      <trkpt lat="49.09054" lon="4.0476">
        <ele>148.6</ele>
        <time>2020-08-25T09:41:06.830Z</time>
      </trkpt>
      <trkpt lat="49.0906" lon="4.04756">
        <ele>148.6</ele>
        <time>2020-08-25T09:41:07.952Z</time>
      </trkpt>
      <trkpt lat="49.09074" lon="4.04741">
        <ele>148.6</ele>
        <time>2020-08-25T09:41:11.124Z</time>
      </trkpt>
      <trkpt lat="49.09079" lon="4.04734">
        <ele>148.8</ele>
        <time>2020-08-25T09:41:12.696Z</time>
      </trkpt>
      <trkpt lat="49.09089" lon="4.0472">
        <ele>148.8</ele>
        <time>2020-08-25T09:41:15.168Z</time>
      </trkpt>
      <trkpt lat="49.09106" lon="4.04696">
        <ele>148.8</ele>
        <time>2020-08-25T09:41:19.352Z</time>
      </trkpt>
      <trkpt lat="49.09113" lon="4.04688">
        <ele>148.6</ele>
        <time>2020-08-25T09:41:20.332Z</time>
      </trkpt>
      <trkpt lat="49.09133" lon="4.04663">
        <ele>148.6</ele>
        <time>2020-08-25T09:41:25.009Z</time>
      </trkpt>
      <trkpt lat="49.09147" lon="4.04644">
        <ele>148.6</ele>
        <time>2020-08-25T09:41:28.374Z</time>
      </trkpt>
      <trkpt lat="49.09154" lon="4.04634">
        <ele>148.4</ele>
        <time>2020-08-25T09:41:29.573Z</time>
      </trkpt>
      <trkpt lat="49.0917" lon="4.04615">
        <ele>147.4</ele>
        <time>2020-08-25T09:41:31.488Z</time>
      </trkpt>
      <trkpt lat="49.09197" lon="4.04586">
        <ele>144.8</ele>
        <time>2020-08-25T09:41:34.367Z</time>
      </trkpt>
      <trkpt lat="49.09243" lon="4.0455">
        <ele>142.6</ele>
        <time>2020-08-25T09:41:39.609Z</time>
      </trkpt>
      <trkpt lat="49.09288" lon="4.04524">
        <ele>139.8</ele>
        <time>2020-08-25T09:41:43.672Z</time>
      </trkpt>
      <trkpt lat="49.09296" lon="4.0452">
        <ele>139.6</ele>
        <time>2020-08-25T09:41:44.732Z</time>
      </trkpt>
      <trkpt lat="49.09318" lon="4.04508">
        <ele>139.6</ele>
        <time>2020-08-25T09:41:48.994Z</time>
      </trkpt>
      <trkpt lat="49.09331" lon="4.04502">
        <ele>139.4</ele>
        <time>2020-08-25T09:41:50.834Z</time>
      </trkpt>
      <trkpt lat="49.09337" lon="4.04499">
        <ele>139.4</ele>
        <time>2020-08-25T09:41:51.946Z</time>
      </trkpt>
      <trkpt lat="49.09357" lon="4.04487">
        <ele>140.2</ele>
        <time>2020-08-25T09:41:57.673Z</time>
      </trkpt>
      <trkpt lat="49.09361" lon="4.04483">
        <ele>140.4</ele>
        <time>2020-08-25T09:41:59.082Z</time>
      </trkpt>
      <trkpt lat="49.09365" lon="4.04479">
        <ele>141</ele>
        <time>2020-08-25T09:42:02.053Z</time>
      </trkpt>
      <trkpt lat="49.09368" lon="4.04475">
        <ele>141.4</ele>
        <time>2020-08-25T09:42:03.955Z</time>
      </trkpt>
      <trkpt lat="49.09372" lon="4.0447">
        <ele>141.6</ele>
        <time>2020-08-25T09:42:05.344Z</time>
      </trkpt>
      <trkpt lat="49.09376" lon="4.04465">
        <ele>141.6</ele>
        <time>2020-08-25T09:42:06.193Z</time>
      </trkpt>
      <trkpt lat="49.09382" lon="4.04456">
        <ele>142.6</ele>
        <time>2020-08-25T09:42:10.885Z</time>
      </trkpt>
      <trkpt lat="49.09388" lon="4.04448">
        <ele>143.6</ele>
        <time>2020-08-25T09:42:15.920Z</time>
      </trkpt>
      <trkpt lat="49.09393" lon="4.04441">
        <ele>144.4</ele>
        <time>2020-08-25T09:42:19.683Z</time>
      </trkpt>
      <trkpt lat="49.09396" lon="4.04438">
        <ele>145.2</ele>
        <time>2020-08-25T09:42:22.021Z</time>
      </trkpt>
      <trkpt lat="49.09407" lon="4.04423">
        <ele>147.4</ele>
        <time>2020-08-25T09:42:31.958Z</time>
      </trkpt>
      <trkpt lat="49.09412" lon="4.04416">
        <ele>148.6</ele>
        <time>2020-08-25T09:42:36.840Z</time>
      </trkpt>
      <trkpt lat="49.09415" lon="4.04412">
        <ele>149.2</ele>
        <time>2020-08-25T09:42:39.230Z</time>
      </trkpt>
      <trkpt lat="49.09423" lon="4.04402">
        <ele>150.2</ele>
        <time>2020-08-25T09:42:43.905Z</time>
      </trkpt>
      <trkpt lat="49.0943" lon="4.04392">
        <ele>151.6</ele>
        <time>2020-08-25T09:42:50.800Z</time>
      </trkpt>
      <trkpt lat="49.09436" lon="4.04384">
        <ele>152.2</ele>
        <time>2020-08-25T09:42:53.675Z</time>
      </trkpt>
      <trkpt lat="49.0945" lon="4.04367">
        <ele>153.8</ele>
        <time>2020-08-25T09:43:01.252Z</time>
      </trkpt>
      <trkpt lat="49.09456" lon="4.0436">
        <ele>154.4</ele>
        <time>2020-08-25T09:43:04.151Z</time>
      </trkpt>
      <trkpt lat="49.09469" lon="4.04343">
        <ele>155.6</ele>
        <time>2020-08-25T09:43:10.457Z</time>
      </trkpt>
      <trkpt lat="49.09472" lon="4.04339">
        <ele>155.8</ele>
        <time>2020-08-25T09:43:11.654Z</time>
      </trkpt>
      <trkpt lat="49.09483" lon="4.04324">
        <ele>156.6</ele>
        <time>2020-08-25T09:43:16.294Z</time>
      </trkpt>
      <trkpt lat="49.09487" lon="4.04316">
        <ele>157</ele>
        <time>2020-08-25T09:43:18.565Z</time>
      </trkpt>
      <trkpt lat="49.09489" lon="4.04312">
        <ele>157.4</ele>
        <time>2020-08-25T09:43:20.474Z</time>
      </trkpt>
      <trkpt lat="49.09504" lon="4.04285">
        <ele>158.6</ele>
        <time>2020-08-25T09:43:27.728Z</time>
      </trkpt>
      <trkpt lat="49.0952" lon="4.04247">
        <ele>159.2</ele>
        <time>2020-08-25T09:43:34.270Z</time>
      </trkpt>
      <trkpt lat="49.09532" lon="4.04224">
        <ele>159</ele>
        <time>2020-08-25T09:43:36.953Z</time>
      </trkpt>
      <trkpt lat="49.0954" lon="4.04207">
        <ele>159.2</ele>
        <time>2020-08-25T09:43:39.806Z</time>
      </trkpt>
      <trkpt lat="49.09546" lon="4.04199">
        <ele>159</ele>
        <time>2020-08-25T09:43:40.667Z</time>
      </trkpt>
      <trkpt lat="49.09551" lon="4.04191">
        <ele>159</ele>
        <time>2020-08-25T09:43:42.075Z</time>
      </trkpt>
      <trkpt lat="49.09564" lon="4.04173">
        <ele>159</ele>
        <time>2020-08-25T09:43:45.159Z</time>
      </trkpt>
      <trkpt lat="49.09584" lon="4.04143">
        <ele>158.4</ele>
        <time>2020-08-25T09:43:48.652Z</time>
      </trkpt>
      <trkpt lat="49.09604" lon="4.0411">
        <ele>157.6</ele>
        <time>2020-08-25T09:43:52.104Z</time>
      </trkpt>
      <trkpt lat="49.09612" lon="4.04099">
        <ele>157.2</ele>
        <time>2020-08-25T09:43:53.149Z</time>
      </trkpt>
      <trkpt lat="49.09642" lon="4.04063">
        <ele>152</ele>
        <time>2020-08-25T09:43:56.575Z</time>
      </trkpt>
      <trkpt lat="49.0965" lon="4.04057">
        <ele>151.6</ele>
        <time>2020-08-25T09:43:57.444Z</time>
      </trkpt>
      <trkpt lat="49.09673" lon="4.04043">
        <ele>150</ele>
        <time>2020-08-25T09:43:59.428Z</time>
      </trkpt>
      <trkpt lat="49.09679" lon="4.04038">
        <ele>149.8</ele>
        <time>2020-08-25T09:44:00.274Z</time>
      </trkpt>
      <trkpt lat="49.09692" lon="4.04029">
        <ele>149.6</ele>
        <time>2020-08-25T09:44:02.141Z</time>
      </trkpt>
      <trkpt lat="49.09698" lon="4.04026">
        <ele>149.8</ele>
        <time>2020-08-25T09:44:03.746Z</time>
      </trkpt>
      <trkpt lat="49.09704" lon="4.04024">
        <ele>149.8</ele>
        <time>2020-08-25T09:44:04.840Z</time>
      </trkpt>
      <trkpt lat="49.09709" lon="4.04022">
        <ele>149.6</ele>
        <time>2020-08-25T09:44:05.453Z</time>
      </trkpt>
      <trkpt lat="49.0972" lon="4.0402">
        <ele>149.6</ele>
        <time>2020-08-25T09:44:07.344Z</time>
      </trkpt>
      <trkpt lat="49.0973" lon="4.04019">
        <ele>150.4</ele>
        <time>2020-08-25T09:44:11.184Z</time>
      </trkpt>
      <trkpt lat="49.09743" lon="4.04021">
        <ele>151.2</ele>
        <time>2020-08-25T09:44:15.648Z</time>
      </trkpt>
      <trkpt lat="49.09761" lon="4.04023">
        <ele>153.4</ele>
        <time>2020-08-25T09:44:26.386Z</time>
      </trkpt>
      <trkpt lat="49.09774" lon="4.04022">
        <ele>154.4</ele>
        <time>2020-08-25T09:44:31.334Z</time>
      </trkpt>
      <trkpt lat="49.09788" lon="4.04021">
        <ele>155.8</ele>
        <time>2020-08-25T09:44:37.841Z</time>
      </trkpt>
      <trkpt lat="49.09796" lon="4.0402">
        <ele>156.4</ele>
        <time>2020-08-25T09:44:40.887Z</time>
      </trkpt>
      <trkpt lat="49.09812" lon="4.04015">
        <ele>158</ele>
        <time>2020-08-25T09:44:48.341Z</time>
      </trkpt>
      <trkpt lat="49.09816" lon="4.04014">
        <ele>158.2</ele>
        <time>2020-08-25T09:44:49.541Z</time>
      </trkpt>
      <trkpt lat="49.09827" lon="4.0401">
        <ele>159.4</ele>
        <time>2020-08-25T09:44:55.127Z</time>
      </trkpt>
      <trkpt lat="49.09839" lon="4.04007">
        <ele>160.4</ele>
        <time>2020-08-25T09:44:59.900Z</time>
      </trkpt>
      <trkpt lat="49.09851" lon="4.04004">
        <ele>161.2</ele>
        <time>2020-08-25T09:45:04.139Z</time>
      </trkpt>
      <trkpt lat="49.09863" lon="4.04001">
        <ele>162.2</ele>
        <time>2020-08-25T09:45:09.049Z</time>
      </trkpt>
      <trkpt lat="49.09893" lon="4.03997">
        <ele>163.6</ele>
        <time>2020-08-25T09:45:18.199Z</time>
      </trkpt>
      <trkpt lat="49.09931" lon="4.03993">
        <ele>164</ele>
        <time>2020-08-25T09:45:25.692Z</time>
      </trkpt>
      <trkpt lat="49.09946" lon="4.03993">
        <ele>164.2</ele>
        <time>2020-08-25T09:45:28.818Z</time>
      </trkpt>
      <trkpt lat="49.09966" lon="4.03991">
        <ele>164.4</ele>
        <time>2020-08-25T09:45:32.774Z</time>
      </trkpt>
      <trkpt lat="49.09972" lon="4.03991">
        <ele>164.4</ele>
        <time>2020-08-25T09:45:33.722Z</time>
      </trkpt>
      <trkpt lat="49.10004" lon="4.03987">
        <ele>165</ele>
        <time>2020-08-25T09:45:40.699Z</time>
      </trkpt>
      <trkpt lat="49.1001" lon="4.03986">
        <ele>165</ele>
        <time>2020-08-25T09:45:41.701Z</time>
      </trkpt>
      <trkpt lat="49.10039" lon="4.03985">
        <ele>165.4</ele>
        <time>2020-08-25T09:45:47.743Z</time>
      </trkpt>
      <trkpt lat="49.10045" lon="4.03984">
        <ele>165.4</ele>
        <time>2020-08-25T09:45:48.764Z</time>
      </trkpt>
      <trkpt lat="49.10085" lon="4.03982">
        <ele>165.6</ele>
        <time>2020-08-25T09:45:56.260Z</time>
      </trkpt>
      <trkpt lat="49.10118" lon="4.03979">
        <ele>166</ele>
        <time>2020-08-25T09:46:02.981Z</time>
      </trkpt>
      <trkpt lat="49.10131" lon="4.03977">
        <ele>166</ele>
        <time>2020-08-25T09:46:05.312Z</time>
      </trkpt>
      <trkpt lat="49.10153" lon="4.03975">
        <ele>166.2</ele>
        <time>2020-08-25T09:46:09.625Z</time>
      </trkpt>
      <trkpt lat="49.10161" lon="4.03975">
        <ele>166</ele>
        <time>2020-08-25T09:46:10.534Z</time>
      </trkpt>
      <trkpt lat="49.10196" lon="4.03972">
        <ele>165.6</ele>
        <time>2020-08-25T09:46:15.391Z</time>
      </trkpt>
      <trkpt lat="49.10205" lon="4.03971">
        <ele>165.6</ele>
        <time>2020-08-25T09:46:17.037Z</time>
      </trkpt>
      <trkpt lat="49.10214" lon="4.0397">
        <ele>165.4</ele>
        <time>2020-08-25T09:46:18.174Z</time>
      </trkpt>
      <trkpt lat="49.1025" lon="4.03966">
        <ele>163.2</ele>
        <time>2020-08-25T09:46:21.266Z</time>
      </trkpt>
      <trkpt lat="49.1026" lon="4.03966">
        <ele>162.6</ele>
        <time>2020-08-25T09:46:22.049Z</time>
      </trkpt>
      <trkpt lat="49.10289" lon="4.03963">
        <ele>162</ele>
        <time>2020-08-25T09:46:25.785Z</time>
      </trkpt>
      <trkpt lat="49.10309" lon="4.03962">
        <ele>161</ele>
        <time>2020-08-25T09:46:27.624Z</time>
      </trkpt>
      <trkpt lat="49.10319" lon="4.03961">
        <ele>160.4</ele>
        <time>2020-08-25T09:46:28.482Z</time>
      </trkpt>
      <trkpt lat="49.10377" lon="4.03956">
        <ele>156.4</ele>
        <time>2020-08-25T09:46:33.584Z</time>
      </trkpt>
      <trkpt lat="49.10386" lon="4.03955">
        <ele>156</ele>
        <time>2020-08-25T09:46:34.454Z</time>
      </trkpt>
      <trkpt lat="49.10438" lon="4.03952">
        <ele>155</ele>
        <time>2020-08-25T09:46:41.126Z</time>
      </trkpt>
      <trkpt lat="49.10455" lon="4.03951">
        <ele>154.8</ele>
        <time>2020-08-25T09:46:43.529Z</time>
      </trkpt>
      <trkpt lat="49.10464" lon="4.03951">
        <ele>154.8</ele>
        <time>2020-08-25T09:46:45.032Z</time>
      </trkpt>
      <trkpt lat="49.10488" lon="4.03949">
        <ele>154.8</ele>
        <time>2020-08-25T09:46:49.325Z</time>
      </trkpt>
      <trkpt lat="49.1051" lon="4.03948">
        <ele>154.6</ele>
        <time>2020-08-25T09:46:52.503Z</time>
      </trkpt>
      <trkpt lat="49.10517" lon="4.03946">
        <ele>154.8</ele>
        <time>2020-08-25T09:46:54.207Z</time>
      </trkpt>
      <trkpt lat="49.10523" lon="4.03945">
        <ele>154.8</ele>
        <time>2020-08-25T09:46:55.416Z</time>
      </trkpt>
      <trkpt lat="49.10551" lon="4.03941">
        <ele>155</ele>
        <time>2020-08-25T09:47:00.664Z</time>
      </trkpt>
      <trkpt lat="49.10558" lon="4.03941">
        <ele>155</ele>
        <time>2020-08-25T09:47:01.916Z</time>
      </trkpt>
      <trkpt lat="49.10597" lon="4.03937">
        <ele>154.6</ele>
        <time>2020-08-25T09:47:07.555Z</time>
      </trkpt>
      <trkpt lat="49.10606" lon="4.03936">
        <ele>154.6</ele>
        <time>2020-08-25T09:47:09.183Z</time>
      </trkpt>
      <trkpt lat="49.10615" lon="4.03935">
        <ele>154.6</ele>
        <time>2020-08-25T09:47:10.849Z</time>
      </trkpt>
      <trkpt lat="49.10625" lon="4.03934">
        <ele>154.4</ele>
        <time>2020-08-25T09:47:12.034Z</time>
      </trkpt>
      <trkpt lat="49.10644" lon="4.03931">
        <ele>154.4</ele>
        <time>2020-08-25T09:47:15.427Z</time>
      </trkpt>
      <trkpt lat="49.10654" lon="4.0393">
        <ele>154.2</ele>
        <time>2020-08-25T09:47:16.673Z</time>
      </trkpt>
      <trkpt lat="49.10664" lon="4.03929">
        <ele>154.2</ele>
        <time>2020-08-25T09:47:18.481Z</time>
      </trkpt>
      <trkpt lat="49.10722" lon="4.03924">
        <ele>151</ele>
        <time>2020-08-25T09:47:23.661Z</time>
      </trkpt>
      <trkpt lat="49.1074" lon="4.03922">
        <ele>149.8</ele>
        <time>2020-08-25T09:47:25.147Z</time>
      </trkpt>
      <trkpt lat="49.10775" lon="4.03919">
        <ele>148</ele>
        <time>2020-08-25T09:47:28.347Z</time>
      </trkpt>
      <trkpt lat="49.10807" lon="4.03915">
        <ele>147.6</ele>
        <time>2020-08-25T09:47:32.838Z</time>
      </trkpt>
      <trkpt lat="49.1083" lon="4.03913">
        <ele>147.4</ele>
        <time>2020-08-25T09:47:36.148Z</time>
      </trkpt>
      <trkpt lat="49.10837" lon="4.03912">
        <ele>147.4</ele>
        <time>2020-08-25T09:47:37.378Z</time>
      </trkpt>
      <trkpt lat="49.10849" lon="4.03907">
        <ele>147.4</ele>
        <time>2020-08-25T09:47:39.722Z</time>
      </trkpt>
      <trkpt lat="49.10861" lon="4.039">
        <ele>147.2</ele>
        <time>2020-08-25T09:47:41.350Z</time>
      </trkpt>
      <trkpt lat="49.10876" lon="4.0389">
        <ele>147.4</ele>
        <time>2020-08-25T09:47:44.670Z</time>
      </trkpt>
      <trkpt lat="49.10885" lon="4.03886">
        <ele>147.4</ele>
        <time>2020-08-25T09:47:46.367Z</time>
      </trkpt>
      <trkpt lat="49.10907" lon="4.03875">
        <ele>148.2</ele>
        <time>2020-08-25T09:47:52.347Z</time>
      </trkpt>
      <trkpt lat="49.10911" lon="4.03872">
        <ele>148.6</ele>
        <time>2020-08-25T09:47:54.238Z</time>
      </trkpt>
      <trkpt lat="49.10919" lon="4.03865">
        <ele>149.6</ele>
        <time>2020-08-25T09:47:58.917Z</time>
      </trkpt>
      <trkpt lat="49.10934" lon="4.03849">
        <ele>150.6</ele>
        <time>2020-08-25T09:48:04.892Z</time>
      </trkpt>
      <trkpt lat="49.10938" lon="4.03845">
        <ele>150.6</ele>
        <time>2020-08-25T09:48:05.717Z</time>
      </trkpt>
      <trkpt lat="49.10956" lon="4.03825">
        <ele>152.4</ele>
        <time>2020-08-25T09:48:14.481Z</time>
      </trkpt>
      <trkpt lat="49.10968" lon="4.03814">
        <ele>152.8</ele>
        <time>2020-08-25T09:48:17.852Z</time>
      </trkpt>
      <trkpt lat="49.1098" lon="4.03803">
        <ele>153.6</ele>
        <time>2020-08-25T09:48:22.330Z</time>
      </trkpt>
      <trkpt lat="49.10999" lon="4.03788">
        <ele>154.6</ele>
        <time>2020-08-25T09:48:29.023Z</time>
      </trkpt>
      <trkpt lat="49.11003" lon="4.03785">
        <ele>154.8</ele>
        <time>2020-08-25T09:48:30.339Z</time>
      </trkpt>
      <trkpt lat="49.11007" lon="4.03782">
        <ele>154.8</ele>
        <time>2020-08-25T09:48:31.083Z</time>
      </trkpt>
      <trkpt lat="49.11027" lon="4.03763">
        <ele>156.4</ele>
        <time>2020-08-25T09:48:39.475Z</time>
      </trkpt>
      <trkpt lat="49.11033" lon="4.03746">
        <ele>157.8</ele>
        <time>2020-08-25T09:48:46.085Z</time>
      </trkpt>
      <trkpt lat="49.11034" lon="4.0374">
        <ele>158.2</ele>
        <time>2020-08-25T09:48:47.946Z</time>
      </trkpt>
      <trkpt lat="49.11034" lon="4.03724">
        <ele>158.6</ele>
        <time>2020-08-25T09:48:50.877Z</time>
      </trkpt>
      <trkpt lat="49.11033" lon="4.03714">
        <ele>158.8</ele>
        <time>2020-08-25T09:48:52.476Z</time>
      </trkpt>
      <trkpt lat="49.11032" lon="4.0371">
        <ele>158.8</ele>
        <time>2020-08-25T09:48:53.005Z</time>
      </trkpt>
      <trkpt lat="49.1103" lon="4.03692">
        <ele>159.4</ele>
        <time>2020-08-25T09:48:56.690Z</time>
      </trkpt>
      <trkpt lat="49.11028" lon="4.0368">
        <ele>160.8</ele>
        <time>2020-08-25T09:49:02.472Z</time>
      </trkpt>
      <trkpt lat="49.11028" lon="4.03676">
        <ele>161.6</ele>
        <time>2020-08-25T09:49:04.237Z</time>
      </trkpt>
      <trkpt lat="49.11029" lon="4.03661">
        <ele>162.8</ele>
        <time>2020-08-25T09:49:10.059Z</time>
      </trkpt>
      <trkpt lat="49.1103" lon="4.03654">
        <ele>163.8</ele>
        <time>2020-08-25T09:49:13.044Z</time>
      </trkpt>
      <trkpt lat="49.11029" lon="4.03651">
        <ele>164.2</ele>
        <time>2020-08-25T09:49:14.445Z</time>
      </trkpt>
      <trkpt lat="49.1103" lon="4.03645">
        <ele>165.2</ele>
        <time>2020-08-25T09:49:17.130Z</time>
      </trkpt>
      <trkpt lat="49.11034" lon="4.03635">
        <ele>165.8</ele>
        <time>2020-08-25T09:49:20.074Z</time>
      </trkpt>
      <trkpt lat="49.11045" lon="4.03616">
        <ele>167.8</ele>
        <time>2020-08-25T09:49:29.647Z</time>
      </trkpt>
      <trkpt lat="49.11055" lon="4.036">
        <ele>168.6</ele>
        <time>2020-08-25T09:49:34.396Z</time>
      </trkpt>
      <trkpt lat="49.11058" lon="4.03596">
        <ele>169</ele>
        <time>2020-08-25T09:49:36.300Z</time>
      </trkpt>
      <trkpt lat="49.11073" lon="4.03568">
        <ele>170.4</ele>
        <time>2020-08-25T09:49:44.216Z</time>
      </trkpt>
      <trkpt lat="49.11082" lon="4.03554">
        <ele>171</ele>
        <time>2020-08-25T09:49:48.182Z</time>
      </trkpt>
      <trkpt lat="49.11089" lon="4.03543">
        <ele>171.4</ele>
        <time>2020-08-25T09:49:51.009Z</time>
      </trkpt>
      <trkpt lat="49.11096" lon="4.03534">
        <ele>172</ele>
        <time>2020-08-25T09:49:54.211Z</time>
      </trkpt>
      <trkpt lat="49.11104" lon="4.03527">
        <ele>173.2</ele>
        <time>2020-08-25T09:50:00.353Z</time>
      </trkpt>
      <trkpt lat="49.11114" lon="4.03523">
        <ele>173.6</ele>
        <time>2020-08-25T09:50:03.198Z</time>
      </trkpt>
      <trkpt lat="49.1112" lon="4.03521">
        <ele>174</ele>
        <time>2020-08-25T09:50:05.452Z</time>
      </trkpt>
      <trkpt lat="49.11145" lon="4.03526">
        <ele>175.4</ele>
        <time>2020-08-25T09:50:13.592Z</time>
      </trkpt>
      <trkpt lat="49.11171" lon="4.03536">
        <ele>175.6</ele>
        <time>2020-08-25T09:50:18.616Z</time>
      </trkpt>
      <trkpt lat="49.11191" lon="4.0354">
        <ele>175.8</ele>
        <time>2020-08-25T09:50:22.580Z</time>
      </trkpt>
      <trkpt lat="49.11194" lon="4.0354">
        <ele>176</ele>
        <time>2020-08-25T09:50:23.748Z</time>
      </trkpt>
      <trkpt lat="49.11201" lon="4.03539">
        <ele>175.8</ele>
        <time>2020-08-25T09:50:24.554Z</time>
      </trkpt>
      <trkpt lat="49.11212" lon="4.03535">
        <ele>176.2</ele>
        <time>2020-08-25T09:50:27.496Z</time>
      </trkpt>
      <trkpt lat="49.11214" lon="4.03533">
        <ele>176.6</ele>
        <time>2020-08-25T09:50:29.157Z</time>
      </trkpt>
      <trkpt lat="49.11226" lon="4.03525">
        <ele>177.8</ele>
        <time>2020-08-25T09:50:34.823Z</time>
      </trkpt>
      <trkpt lat="49.1123" lon="4.03523">
        <ele>178.2</ele>
        <time>2020-08-25T09:50:36.689Z</time>
      </trkpt>
      <trkpt lat="49.11239" lon="4.03515">
        <ele>178.2</ele>
        <time>2020-08-25T09:50:38.617Z</time>
      </trkpt>
      <trkpt lat="49.11248" lon="4.03506">
        <ele>179.6</ele>
        <time>2020-08-25T09:50:45.583Z</time>
      </trkpt>
      <trkpt lat="49.11254" lon="4.03499">
        <ele>180.4</ele>
        <time>2020-08-25T09:50:49.371Z</time>
      </trkpt>
      <trkpt lat="49.11263" lon="4.03491">
        <ele>181.8</ele>
        <time>2020-08-25T09:50:56.491Z</time>
      </trkpt>
      <trkpt lat="49.11272" lon="4.03483">
        <ele>182.8</ele>
        <time>2020-08-25T09:51:01.165Z</time>
      </trkpt>
      <trkpt lat="49.11275" lon="4.03481">
        <ele>183.2</ele>
        <time>2020-08-25T09:51:03.095Z</time>
      </trkpt>
      <trkpt lat="49.1128" lon="4.03476">
        <ele>183.6</ele>
        <time>2020-08-25T09:51:05.280Z</time>
      </trkpt>
      <trkpt lat="49.11286" lon="4.0347">
        <ele>184.2</ele>
        <time>2020-08-25T09:51:08.093Z</time>
      </trkpt>
      <trkpt lat="49.11294" lon="4.03464">
        <ele>185.4</ele>
        <time>2020-08-25T09:51:14.215Z</time>
      </trkpt>
      <trkpt lat="49.11297" lon="4.03461">
        <ele>185.6</ele>
        <time>2020-08-25T09:51:15.274Z</time>
      </trkpt>
      <trkpt lat="49.11307" lon="4.03452">
        <ele>186.8</ele>
        <time>2020-08-25T09:51:20.855Z</time>
      </trkpt>
      <trkpt lat="49.11317" lon="4.03444">
        <ele>188.6</ele>
        <time>2020-08-25T09:51:28.618Z</time>
      </trkpt>
      <trkpt lat="49.1132" lon="4.03442">
        <ele>189</ele>
        <time>2020-08-25T09:51:30.605Z</time>
      </trkpt>
      <trkpt lat="49.11328" lon="4.03437">
        <ele>190.4</ele>
        <time>2020-08-25T09:51:36.428Z</time>
      </trkpt>
      <trkpt lat="49.1134" lon="4.03428">
        <ele>191.4</ele>
        <time>2020-08-25T09:51:41.512Z</time>
      </trkpt>
      <trkpt lat="49.11345" lon="4.03424">
        <ele>192.2</ele>
        <time>2020-08-25T09:51:45.281Z</time>
      </trkpt>
      <trkpt lat="49.1135" lon="4.03421">
        <ele>192.6</ele>
        <time>2020-08-25T09:51:47.268Z</time>
      </trkpt>
      <trkpt lat="49.11357" lon="4.03415">
        <ele>193.2</ele>
        <time>2020-08-25T09:51:50.323Z</time>
      </trkpt>
      <trkpt lat="49.1136" lon="4.03412">
        <ele>193.2</ele>
        <time>2020-08-25T09:51:50.815Z</time>
      </trkpt>
      <trkpt lat="49.11371" lon="4.03393">
        <ele>194.8</ele>
        <time>2020-08-25T09:51:58.282Z</time>
      </trkpt>
      <trkpt lat="49.11375" lon="4.03382">
        <ele>196</ele>
        <time>2020-08-25T09:52:04.065Z</time>
      </trkpt>
      <trkpt lat="49.11377" lon="4.03366">
        <ele>196.6</ele>
        <time>2020-08-25T09:52:07.574Z</time>
      </trkpt>
      <trkpt lat="49.1138" lon="4.03346">
        <ele>198.6</ele>
        <time>2020-08-25T09:52:16.850Z</time>
      </trkpt>
      <trkpt lat="49.11382" lon="4.0333">
        <ele>200</ele>
        <time>2020-08-25T09:52:23.999Z</time>
      </trkpt>
      <trkpt lat="49.11384" lon="4.03322">
        <ele>200.2</ele>
        <time>2020-08-25T09:52:25.458Z</time>
      </trkpt>
      <trkpt lat="49.11385" lon="4.03311">
        <ele>200.8</ele>
        <time>2020-08-25T09:52:28.403Z</time>
      </trkpt>
      <trkpt lat="49.11386" lon="4.03303">
        <ele>201.4</ele>
        <time>2020-08-25T09:52:31.240Z</time>
      </trkpt>
      <trkpt lat="49.11386" lon="4.03299">
        <ele>201.6</ele>
        <time>2020-08-25T09:52:32.240Z</time>
      </trkpt>
      <trkpt lat="49.11386" lon="4.03275">
        <ele>203.4</ele>
        <time>2020-08-25T09:52:40.731Z</time>
      </trkpt>
      <trkpt lat="49.11385" lon="4.03266">
        <ele>204</ele>
        <time>2020-08-25T09:52:43.524Z</time>
      </trkpt>
      <trkpt lat="49.11385" lon="4.03258">
        <ele>204.8</ele>
        <time>2020-08-25T09:52:47.292Z</time>
      </trkpt>
      <trkpt lat="49.11383" lon="4.03237">
        <ele>205.8</ele>
        <time>2020-08-25T09:52:52.282Z</time>
      </trkpt>
      <trkpt lat="49.11382" lon="4.0323">
        <ele>206</ele>
        <time>2020-08-25T09:52:53.711Z</time>
      </trkpt>
      <trkpt lat="49.1138" lon="4.03215">
        <ele>207</ele>
        <time>2020-08-25T09:52:58.359Z</time>
      </trkpt>
      <trkpt lat="49.11378" lon="4.03199">
        <ele>208.4</ele>
        <time>2020-08-25T09:53:05.517Z</time>
      </trkpt>
      <trkpt lat="49.11373" lon="4.03178">
        <ele>209.6</ele>
        <time>2020-08-25T09:53:11.325Z</time>
      </trkpt>
      <trkpt lat="49.11371" lon="4.03173">
        <ele>209.8</ele>
        <time>2020-08-25T09:53:12.413Z</time>
      </trkpt>
      <trkpt lat="49.11367" lon="4.03145">
        <ele>211.6</ele>
        <time>2020-08-25T09:53:20.815Z</time>
      </trkpt>
      <trkpt lat="49.11366" lon="4.03141">
        <ele>211.8</ele>
        <time>2020-08-25T09:53:21.850Z</time>
      </trkpt>
      <trkpt lat="49.11361" lon="4.03115">
        <ele>212.6</ele>
        <time>2020-08-25T09:53:27.268Z</time>
      </trkpt>
      <trkpt lat="49.11354" lon="4.03082">
        <ele>214</ele>
        <time>2020-08-25T09:53:34.858Z</time>
      </trkpt>
      <trkpt lat="49.11353" lon="4.03077">
        <ele>214</ele>
        <time>2020-08-25T09:53:35.449Z</time>
      </trkpt>
      <trkpt lat="49.11349" lon="4.0305">
        <ele>215.2</ele>
        <time>2020-08-25T09:53:41.896Z</time>
      </trkpt>
      <trkpt lat="49.11348" lon="4.03045">
        <ele>215.4</ele>
        <time>2020-08-25T09:53:42.970Z</time>
      </trkpt>
      <trkpt lat="49.11345" lon="4.03023">
        <ele>216.2</ele>
        <time>2020-08-25T09:53:47.687Z</time>
      </trkpt>
      <trkpt lat="49.11348" lon="4.0301">
        <ele>216.8</ele>
        <time>2020-08-25T09:53:50.810Z</time>
      </trkpt>
      <trkpt lat="49.11347" lon="4.03007">
        <ele>216.8</ele>
        <time>2020-08-25T09:53:51.279Z</time>
      </trkpt>
      <trkpt lat="49.11342" lon="4.03012">
        <ele>217.2</ele>
        <time>2020-08-25T09:53:53.371Z</time>
      </trkpt>
      <trkpt lat="49.11344" lon="4.03039">
        <ele>218</ele>
        <time>2020-08-25T09:53:58.627Z</time>
      </trkpt>
      <trkpt lat="49.11345" lon="4.03047">
        <ele>217.8</ele>
        <time>2020-08-25T09:53:59.199Z</time>
      </trkpt>
      <trkpt lat="49.11349" lon="4.03064">
        <ele>218</ele>
        <time>2020-08-25T09:54:01.706Z</time>
      </trkpt>
      <trkpt lat="49.11352" lon="4.03083">
        <ele>217.8</ele>
        <time>2020-08-25T09:54:03.437Z</time>
      </trkpt>
      <trkpt lat="49.11357" lon="4.03116">
        <ele>217.8</ele>
        <time>2020-08-25T09:54:07.340Z</time>
      </trkpt>
      <trkpt lat="49.11363" lon="4.0315">
        <ele>217.2</ele>
        <time>2020-08-25T09:54:10.118Z</time>
      </trkpt>
      <trkpt lat="49.11365" lon="4.03162">
        <ele>216.6</ele>
        <time>2020-08-25T09:54:10.836Z</time>
      </trkpt>
      <trkpt lat="49.11368" lon="4.03174">
        <ele>215.6</ele>
        <time>2020-08-25T09:54:11.548Z</time>
      </trkpt>
      <trkpt lat="49.11378" lon="4.03192">
        <ele>214.8</ele>
        <time>2020-08-25T09:54:13.041Z</time>
      </trkpt>
      <trkpt lat="49.11393" lon="4.03205">
        <ele>214</ele>
        <time>2020-08-25T09:54:14.698Z</time>
      </trkpt>
      <trkpt lat="49.11402" lon="4.03211">
        <ele>213.8</ele>
        <time>2020-08-25T09:54:15.828Z</time>
      </trkpt>
      <trkpt lat="49.11419" lon="4.03222">
        <ele>213.2</ele>
        <time>2020-08-25T09:54:17.941Z</time>
      </trkpt>
      <trkpt lat="49.11429" lon="4.03228">
        <ele>212.6</ele>
        <time>2020-08-25T09:54:18.819Z</time>
      </trkpt>
      <trkpt lat="49.11448" lon="4.03238">
        <ele>211.8</ele>
        <time>2020-08-25T09:54:20.953Z</time>
      </trkpt>
      <trkpt lat="49.11459" lon="4.03241">
        <ele>211.2</ele>
        <time>2020-08-25T09:54:21.898Z</time>
      </trkpt>
      <trkpt lat="49.1147" lon="4.03241">
        <ele>210.6</ele>
        <time>2020-08-25T09:54:22.896Z</time>
      </trkpt>
      <trkpt lat="49.1148" lon="4.03237">
        <ele>209.2</ele>
        <time>2020-08-25T09:54:23.818Z</time>
      </trkpt>
      <trkpt lat="49.11488" lon="4.0323">
        <ele>208.4</ele>
        <time>2020-08-25T09:54:24.670Z</time>
      </trkpt>
      <trkpt lat="49.11495" lon="4.0322">
        <ele>207.8</ele>
        <time>2020-08-25T09:54:25.456Z</time>
      </trkpt>
      <trkpt lat="49.115" lon="4.0321">
        <ele>207.2</ele>
        <time>2020-08-25T09:54:26.224Z</time>
      </trkpt>
      <trkpt lat="49.11517" lon="4.03178">
        <ele>204.4</ele>
        <time>2020-08-25T09:54:28.596Z</time>
      </trkpt>
      <trkpt lat="49.11529" lon="4.03157">
        <ele>203.8</ele>
        <time>2020-08-25T09:54:30.613Z</time>
      </trkpt>
      <trkpt lat="49.11536" lon="4.03148">
        <ele>202.2</ele>
        <time>2020-08-25T09:54:31.440Z</time>
      </trkpt>
      <trkpt lat="49.11543" lon="4.03139">
        <ele>201</ele>
        <time>2020-08-25T09:54:32.273Z</time>
      </trkpt>
      <trkpt lat="49.1156" lon="4.03123">
        <ele>199.6</ele>
        <time>2020-08-25T09:54:33.975Z</time>
      </trkpt>
      <trkpt lat="49.11577" lon="4.0311">
        <ele>198.8</ele>
        <time>2020-08-25T09:54:36.000Z</time>
      </trkpt>
      <trkpt lat="49.11596" lon="4.03097">
        <ele>197.6</ele>
        <time>2020-08-25T09:54:37.792Z</time>
      </trkpt>
      <trkpt lat="49.11606" lon="4.03091">
        <ele>196</ele>
        <time>2020-08-25T09:54:38.731Z</time>
      </trkpt>
      <trkpt lat="49.11626" lon="4.03083">
        <ele>194.6</ele>
        <time>2020-08-25T09:54:40.447Z</time>
      </trkpt>
      <trkpt lat="49.11637" lon="4.0308">
        <ele>193.6</ele>
        <time>2020-08-25T09:54:41.405Z</time>
      </trkpt>
      <trkpt lat="49.11648" lon="4.03077">
        <ele>193</ele>
        <time>2020-08-25T09:54:42.370Z</time>
      </trkpt>
      <trkpt lat="49.1167" lon="4.03074">
        <ele>192.4</ele>
        <time>2020-08-25T09:54:44.922Z</time>
      </trkpt>
      <trkpt lat="49.11681" lon="4.03073">
        <ele>192</ele>
        <time>2020-08-25T09:54:46.112Z</time>
      </trkpt>
      <trkpt lat="49.11703" lon="4.03076">
        <ele>190</ele>
        <time>2020-08-25T09:54:48.072Z</time>
      </trkpt>
      <trkpt lat="49.11725" lon="4.03082">
        <ele>188.8</ele>
        <time>2020-08-25T09:54:50.055Z</time>
      </trkpt>
      <trkpt lat="49.11786" lon="4.03101">
        <ele>187</ele>
        <time>2020-08-25T09:54:57.276Z</time>
      </trkpt>
      <trkpt lat="49.11796" lon="4.03104">
        <ele>186.4</ele>
        <time>2020-08-25T09:54:58.107Z</time>
      </trkpt>
      <trkpt lat="49.11842" lon="4.03113">
        <ele>183</ele>
        <time>2020-08-25T09:55:02.213Z</time>
      </trkpt>
      <trkpt lat="49.11852" lon="4.03112">
        <ele>182.8</ele>
        <time>2020-08-25T09:55:03.445Z</time>
      </trkpt>
      <trkpt lat="49.11873" lon="4.03109">
        <ele>182.6</ele>
        <time>2020-08-25T09:55:06.435Z</time>
      </trkpt>
      <trkpt lat="49.11883" lon="4.03108">
        <ele>182.4</ele>
        <time>2020-08-25T09:55:07.820Z</time>
      </trkpt>
      <trkpt lat="49.11894" lon="4.03108">
        <ele>182.4</ele>
        <time>2020-08-25T09:55:09.752Z</time>
      </trkpt>
      <trkpt lat="49.11927" lon="4.03103">
        <ele>181.6</ele>
        <time>2020-08-25T09:55:13.760Z</time>
      </trkpt>
      <trkpt lat="49.1195" lon="4.031">
        <ele>181.2</ele>
        <time>2020-08-25T09:55:16.678Z</time>
      </trkpt>
      <trkpt lat="49.11961" lon="4.031">
        <ele>180.8</ele>
        <time>2020-08-25T09:55:17.899Z</time>
      </trkpt>
      <trkpt lat="49.11984" lon="4.03097">
        <ele>178</ele>
        <time>2020-08-25T09:55:19.956Z</time>
      </trkpt>
      <trkpt lat="49.12019" lon="4.03092">
        <ele>175.8</ele>
        <time>2020-08-25T09:55:22.914Z</time>
      </trkpt>
      <trkpt lat="49.12031" lon="4.03091">
        <ele>175.4</ele>
        <time>2020-08-25T09:55:24.182Z</time>
      </trkpt>
      <trkpt lat="49.12043" lon="4.0309">
        <ele>174.4</ele>
        <time>2020-08-25T09:55:25.214Z</time>
      </trkpt>
      <trkpt lat="49.12066" lon="4.03087">
        <ele>173</ele>
        <time>2020-08-25T09:55:27.164Z</time>
      </trkpt>
      <trkpt lat="49.12089" lon="4.03084">
        <ele>171.8</ele>
        <time>2020-08-25T09:55:29.263Z</time>
      </trkpt>
      <trkpt lat="49.121" lon="4.03083">
        <ele>171.2</ele>
        <time>2020-08-25T09:55:30.303Z</time>
      </trkpt>
      <trkpt lat="49.12111" lon="4.03084">
        <ele>170.4</ele>
        <time>2020-08-25T09:55:31.316Z</time>
      </trkpt>
      <trkpt lat="49.12132" lon="4.03094">
        <ele>168.6</ele>
        <time>2020-08-25T09:55:33.262Z</time>
      </trkpt>
      <trkpt lat="49.12141" lon="4.03103">
        <ele>167.8</ele>
        <time>2020-08-25T09:55:34.189Z</time>
      </trkpt>
      <trkpt lat="49.12148" lon="4.03114">
        <ele>167.4</ele>
        <time>2020-08-25T09:55:35.256Z</time>
      </trkpt>
      <trkpt lat="49.12155" lon="4.03125">
        <ele>166.8</ele>
        <time>2020-08-25T09:55:36.115Z</time>
      </trkpt>
      <trkpt lat="49.12169" lon="4.03146">
        <ele>165.8</ele>
        <time>2020-08-25T09:55:37.928Z</time>
      </trkpt>
      <trkpt lat="49.12176" lon="4.03158">
        <ele>165</ele>
        <time>2020-08-25T09:55:38.814Z</time>
      </trkpt>
      <trkpt lat="49.12211" lon="4.03227">
        <ele>163.4</ele>
        <time>2020-08-25T09:55:45.465Z</time>
      </trkpt>
      <trkpt lat="49.12216" lon="4.03238">
        <ele>163.4</ele>
        <time>2020-08-25T09:55:46.993Z</time>
      </trkpt>
      <trkpt lat="49.12233" lon="4.03277">
        <ele>163.2</ele>
        <time>2020-08-25T09:55:52.016Z</time>
      </trkpt>
      <trkpt lat="49.12237" lon="4.03287">
        <ele>163.8</ele>
        <time>2020-08-25T09:55:54.913Z</time>
      </trkpt>
      <trkpt lat="49.12249" lon="4.03315">
        <ele>164.6</ele>
        <time>2020-08-25T09:56:00.811Z</time>
      </trkpt>
      <trkpt lat="49.12256" lon="4.03335">
        <ele>165</ele>
        <time>2020-08-25T09:56:04.301Z</time>
      </trkpt>
      <trkpt lat="49.12274" lon="4.0338">
        <ele>165.8</ele>
        <time>2020-08-25T09:56:12.213Z</time>
      </trkpt>
      <trkpt lat="49.12281" lon="4.03396">
        <ele>166.2</ele>
        <time>2020-08-25T09:56:15.404Z</time>
      </trkpt>
      <trkpt lat="49.12288" lon="4.03411">
        <ele>166.4</ele>
        <time>2020-08-25T09:56:17.965Z</time>
      </trkpt>
      <trkpt lat="49.12301" lon="4.0344">
        <ele>166.8</ele>
        <time>2020-08-25T09:56:22.808Z</time>
      </trkpt>
      <trkpt lat="49.12304" lon="4.03447">
        <ele>167</ele>
        <time>2020-08-25T09:56:24.258Z</time>
      </trkpt>
      <trkpt lat="49.12313" lon="4.03467">
        <ele>167.6</ele>
        <time>2020-08-25T09:56:28.551Z</time>
      </trkpt>
      <trkpt lat="49.12323" lon="4.03486">
        <ele>168.4</ele>
        <time>2020-08-25T09:56:33.628Z</time>
      </trkpt>
      <trkpt lat="49.12333" lon="4.03505">
        <ele>169.4</ele>
        <time>2020-08-25T09:56:38.994Z</time>
      </trkpt>
      <trkpt lat="49.1234" lon="4.03515">
        <ele>170</ele>
        <time>2020-08-25T09:56:42.370Z</time>
      </trkpt>
      <trkpt lat="49.12344" lon="4.0352">
        <ele>170.6</ele>
        <time>2020-08-25T09:56:45.246Z</time>
      </trkpt>
      <trkpt lat="49.12352" lon="4.0353">
        <ele>170.8</ele>
        <time>2020-08-25T09:56:47.456Z</time>
      </trkpt>
      <trkpt lat="49.1236" lon="4.03539">
        <ele>171.2</ele>
        <time>2020-08-25T09:56:50.279Z</time>
      </trkpt>
      <trkpt lat="49.12372" lon="4.03554">
        <ele>172.2</ele>
        <time>2020-08-25T09:56:55.620Z</time>
      </trkpt>
      <trkpt lat="49.12375" lon="4.0356">
        <ele>172.4</ele>
        <time>2020-08-25T09:56:57.047Z</time>
      </trkpt>
      <trkpt lat="49.12382" lon="4.03573">
        <ele>172.6</ele>
        <time>2020-08-25T09:56:59.380Z</time>
      </trkpt>
      <trkpt lat="49.12385" lon="4.03589">
        <ele>173</ele>
        <time>2020-08-25T09:57:02.351Z</time>
      </trkpt>
      <trkpt lat="49.12386" lon="4.03598">
        <ele>173.2</ele>
        <time>2020-08-25T09:57:03.847Z</time>
      </trkpt>
      <trkpt lat="49.12386" lon="4.03606">
        <ele>173.2</ele>
        <time>2020-08-25T09:57:04.853Z</time>
      </trkpt>
      <trkpt lat="49.12385" lon="4.03624">
        <ele>173.2</ele>
        <time>2020-08-25T09:57:06.855Z</time>
      </trkpt>
      <trkpt lat="49.12384" lon="4.03656">
        <ele>173.6</ele>
        <time>2020-08-25T09:57:11.491Z</time>
      </trkpt>
      <trkpt lat="49.12383" lon="4.0368">
        <ele>174</ele>
        <time>2020-08-25T09:57:15.083Z</time>
      </trkpt>
      <trkpt lat="49.12383" lon="4.03687">
        <ele>174</ele>
        <time>2020-08-25T09:57:15.927Z</time>
      </trkpt>
      <trkpt lat="49.12382" lon="4.037">
        <ele>174.2</ele>
        <time>2020-08-25T09:57:17.931Z</time>
      </trkpt>
      <trkpt lat="49.12379" lon="4.03732">
        <ele>174.8</ele>
        <time>2020-08-25T09:57:22.987Z</time>
      </trkpt>
      <trkpt lat="49.12371" lon="4.03759">
        <ele>176.2</ele>
        <time>2020-08-25T09:57:30.087Z</time>
      </trkpt>
      <trkpt lat="49.12368" lon="4.03763">
        <ele>176.6</ele>
        <time>2020-08-25T09:57:31.949Z</time>
      </trkpt>
      <trkpt lat="49.12361" lon="4.03776">
        <ele>177.2</ele>
        <time>2020-08-25T09:57:35.489Z</time>
      </trkpt>
      <trkpt lat="49.12354" lon="4.03789">
        <ele>178</ele>
        <time>2020-08-25T09:57:39.502Z</time>
      </trkpt>
      <trkpt lat="49.12352" lon="4.03793">
        <ele>178.4</ele>
        <time>2020-08-25T09:57:41.370Z</time>
      </trkpt>
      <trkpt lat="49.12337" lon="4.03811">
        <ele>180</ele>
        <time>2020-08-25T09:57:49.006Z</time>
      </trkpt>
      <trkpt lat="49.12333" lon="4.03814">
        <ele>180.2</ele>
        <time>2020-08-25T09:57:50.236Z</time>
      </trkpt>
      <trkpt lat="49.12314" lon="4.03816">
        <ele>181.6</ele>
        <time>2020-08-25T09:57:57.370Z</time>
      </trkpt>
      <trkpt lat="49.12306" lon="4.03812">
        <ele>181.8</ele>
        <time>2020-08-25T09:57:59.265Z</time>
      </trkpt>
      <trkpt lat="49.12299" lon="4.03806">
        <ele>182.4</ele>
        <time>2020-08-25T09:58:02.310Z</time>
      </trkpt>
      <trkpt lat="49.12295" lon="4.03802">
        <ele>182.6</ele>
        <time>2020-08-25T09:58:03.597Z</time>
      </trkpt>
      <trkpt lat="49.12292" lon="4.03798">
        <ele>182.8</ele>
        <time>2020-08-25T09:58:04.903Z</time>
      </trkpt>
      <trkpt lat="49.1228" lon="4.03781">
        <ele>183</ele>
        <time>2020-08-25T09:58:08.248Z</time>
      </trkpt>
      <trkpt lat="49.12258" lon="4.03753">
        <ele>183.6</ele>
        <time>2020-08-25T09:58:14.568Z</time>
      </trkpt>
      <trkpt lat="49.12254" lon="4.0375">
        <ele>183.8</ele>
        <time>2020-08-25T09:58:15.803Z</time>
      </trkpt>
      <trkpt lat="49.1224" lon="4.03743">
        <ele>184.2</ele>
        <time>2020-08-25T09:58:19.369Z</time>
      </trkpt>
      <trkpt lat="49.12236" lon="4.03743">
        <ele>184.2</ele>
        <time>2020-08-25T09:58:20.013Z</time>
      </trkpt>
      <trkpt lat="49.12229" lon="4.03744">
        <ele>184.2</ele>
        <time>2020-08-25T09:58:21.296Z</time>
      </trkpt>
      <trkpt lat="49.12219" lon="4.03751">
        <ele>184.8</ele>
        <time>2020-08-25T09:58:24.914Z</time>
      </trkpt>
      <trkpt lat="49.12204" lon="4.03776">
        <ele>187.4</ele>
        <time>2020-08-25T09:58:37.347Z</time>
      </trkpt>
      <trkpt lat="49.122" lon="4.03798">
        <ele>188.4</ele>
        <time>2020-08-25T09:58:42.623Z</time>
      </trkpt>
      <trkpt lat="49.122" lon="4.0381">
        <ele>188.4</ele>
        <time>2020-08-25T09:58:43.972Z</time>
      </trkpt>
      <trkpt lat="49.12199" lon="4.03827">
        <ele>189</ele>
        <time>2020-08-25T09:58:47.600Z</time>
      </trkpt>
      <trkpt lat="49.12198" lon="4.03851">
        <ele>189.8</ele>
        <time>2020-08-25T09:58:52.462Z</time>
      </trkpt>
      <trkpt lat="49.12198" lon="4.03862">
        <ele>190.6</ele>
        <time>2020-08-25T09:58:56.189Z</time>
      </trkpt>
      <trkpt lat="49.12198" lon="4.03886">
        <ele>191.4</ele>
        <time>2020-08-25T09:59:01.034Z</time>
      </trkpt>
      <trkpt lat="49.12198" lon="4.03902">
        <ele>192.4</ele>
        <time>2020-08-25T09:59:05.731Z</time>
      </trkpt>
      <trkpt lat="49.12198" lon="4.03914">
        <ele>192.8</ele>
        <time>2020-08-25T09:59:08.107Z</time>
      </trkpt>
      <trkpt lat="49.12195" lon="4.03953">
        <ele>194.6</ele>
        <time>2020-08-25T09:59:17.408Z</time>
      </trkpt>
      <trkpt lat="49.12194" lon="4.03965">
        <ele>195.8</ele>
        <time>2020-08-25T09:59:22.697Z</time>
      </trkpt>
      <trkpt lat="49.1219" lon="4.03999">
        <ele>196.8</ele>
        <time>2020-08-25T09:59:29.509Z</time>
      </trkpt>
      <trkpt lat="49.12189" lon="4.04005">
        <ele>197</ele>
        <time>2020-08-25T09:59:30.730Z</time>
      </trkpt>
      <trkpt lat="49.12186" lon="4.04028">
        <ele>197.8</ele>
        <time>2020-08-25T09:59:35.635Z</time>
      </trkpt>
      <trkpt lat="49.12182" lon="4.04051">
        <ele>198.2</ele>
        <time>2020-08-25T09:59:39.236Z</time>
      </trkpt>
      <trkpt lat="49.1218" lon="4.04076">
        <ele>199.4</ele>
        <time>2020-08-25T09:59:45.304Z</time>
      </trkpt>
      <trkpt lat="49.12178" lon="4.04088">
        <ele>199.8</ele>
        <time>2020-08-25T09:59:47.790Z</time>
      </trkpt>
      <trkpt lat="49.12177" lon="4.041">
        <ele>200.2</ele>
        <time>2020-08-25T09:59:50.313Z</time>
      </trkpt>
      <trkpt lat="49.12172" lon="4.04137">
        <ele>201.4</ele>
        <time>2020-08-25T09:59:57.929Z</time>
      </trkpt>
      <trkpt lat="49.12172" lon="4.04155">
        <ele>202.4</ele>
        <time>2020-08-25T10:00:02.744Z</time>
      </trkpt>
      <trkpt lat="49.12172" lon="4.04192">
        <ele>204.2</ele>
        <time>2020-08-25T10:00:11.688Z</time>
      </trkpt>
      <trkpt lat="49.12173" lon="4.04204">
        <ele>204.8</ele>
        <time>2020-08-25T10:00:14.700Z</time>
      </trkpt>
      <trkpt lat="49.12174" lon="4.04223">
        <ele>205.4</ele>
        <time>2020-08-25T10:00:18.559Z</time>
      </trkpt>
      <trkpt lat="49.12178" lon="4.04249">
        <ele>206.2</ele>
        <time>2020-08-25T10:00:23.843Z</time>
      </trkpt>
      <trkpt lat="49.12179" lon="4.04256">
        <ele>206.4</ele>
        <time>2020-08-25T10:00:25.187Z</time>
      </trkpt>
      <trkpt lat="49.1218" lon="4.04269">
        <ele>207</ele>
        <time>2020-08-25T10:00:28.319Z</time>
      </trkpt>
      <trkpt lat="49.12182" lon="4.04288">
        <ele>207.4</ele>
        <time>2020-08-25T10:00:31.523Z</time>
      </trkpt>
      <trkpt lat="49.12183" lon="4.04294">
        <ele>207.6</ele>
        <time>2020-08-25T10:00:32.763Z</time>
      </trkpt>
      <trkpt lat="49.1219" lon="4.04323">
        <ele>208.4</ele>
        <time>2020-08-25T10:00:38.376Z</time>
      </trkpt>
      <trkpt lat="49.12193" lon="4.04334">
        <ele>209</ele>
        <time>2020-08-25T10:00:41.412Z</time>
      </trkpt>
      <trkpt lat="49.12194" lon="4.04341">
        <ele>209.6</ele>
        <time>2020-08-25T10:00:44.417Z</time>
      </trkpt>
      <trkpt lat="49.12197" lon="4.04354">
        <ele>209.8</ele>
        <time>2020-08-25T10:00:46.398Z</time>
      </trkpt>
      <trkpt lat="49.12203" lon="4.0437">
        <ele>210.4</ele>
        <time>2020-08-25T10:00:50.179Z</time>
      </trkpt>
      <trkpt lat="49.12216" lon="4.044">
        <ele>212.2</ele>
        <time>2020-08-25T10:00:59.058Z</time>
      </trkpt>
      <trkpt lat="49.12219" lon="4.04404">
        <ele>212.2</ele>
        <time>2020-08-25T10:00:59.726Z</time>
      </trkpt>
      <trkpt lat="49.12226" lon="4.04415">
        <ele>213.2</ele>
        <time>2020-08-25T10:01:04.378Z</time>
      </trkpt>
      <trkpt lat="49.12228" lon="4.04419">
        <ele>213.2</ele>
        <time>2020-08-25T10:01:04.992Z</time>
      </trkpt>
      <trkpt lat="49.12242" lon="4.04436">
        <ele>214.4</ele>
        <time>2020-08-25T10:01:11.272Z</time>
      </trkpt>
      <trkpt lat="49.12245" lon="4.04439">
        <ele>214.6</ele>
        <time>2020-08-25T10:01:12.514Z</time>
      </trkpt>
      <trkpt lat="49.12259" lon="4.04453">
        <ele>215.8</ele>
        <time>2020-08-25T10:01:18.517Z</time>
      </trkpt>
      <trkpt lat="49.12266" lon="4.0446">
        <ele>216.4</ele>
        <time>2020-08-25T10:01:21.552Z</time>
      </trkpt>
      <trkpt lat="49.12269" lon="4.04463">
        <ele>216.2</ele>
        <time>2020-08-25T10:01:21.928Z</time>
      </trkpt>
      <trkpt lat="49.12284" lon="4.04485">
        <ele>217.6</ele>
        <time>2020-08-25T10:01:29.332Z</time>
      </trkpt>
      <trkpt lat="49.12293" lon="4.04501">
        <ele>218.2</ele>
        <time>2020-08-25T10:01:33.335Z</time>
      </trkpt>
      <trkpt lat="49.12297" lon="4.04505">
        <ele>218.2</ele>
        <time>2020-08-25T10:01:34.217Z</time>
      </trkpt>
      <trkpt lat="49.12311" lon="4.04527">
        <ele>219.4</ele>
        <time>2020-08-25T10:01:40.982Z</time>
      </trkpt>
      <trkpt lat="49.12317" lon="4.0454">
        <ele>219.6</ele>
        <time>2020-08-25T10:01:43.186Z</time>
      </trkpt>
      <trkpt lat="49.12324" lon="4.04561">
        <ele>220.6</ele>
        <time>2020-08-25T10:01:48.507Z</time>
      </trkpt>
      <trkpt lat="49.12326" lon="4.04576">
        <ele>220.8</ele>
        <time>2020-08-25T10:01:50.673Z</time>
      </trkpt>
      <trkpt lat="49.12328" lon="4.04597">
        <ele>221.2</ele>
        <time>2020-08-25T10:01:54.092Z</time>
      </trkpt>
      <trkpt lat="49.12329" lon="4.04625">
        <ele>221.8</ele>
        <time>2020-08-25T10:01:58.811Z</time>
      </trkpt>
      <trkpt lat="49.12331" lon="4.04632">
        <ele>222</ele>
        <time>2020-08-25T10:02:00.124Z</time>
      </trkpt>
      <trkpt lat="49.12331" lon="4.04639">
        <ele>222</ele>
        <time>2020-08-25T10:02:00.947Z</time>
      </trkpt>
      <trkpt lat="49.12332" lon="4.04645">
        <ele>222</ele>
        <time>2020-08-25T10:02:01.717Z</time>
      </trkpt>
      <trkpt lat="49.12334" lon="4.04651">
        <ele>222.6</ele>
        <time>2020-08-25T10:02:04.750Z</time>
      </trkpt>
      <trkpt lat="49.12338" lon="4.04663">
        <ele>223.2</ele>
        <time>2020-08-25T10:02:07.812Z</time>
      </trkpt>
      <trkpt lat="49.12339" lon="4.04669">
        <ele>223.4</ele>
        <time>2020-08-25T10:02:09.127Z</time>
      </trkpt>
      <trkpt lat="49.12343" lon="4.04681">
        <ele>224</ele>
        <time>2020-08-25T10:02:12.194Z</time>
      </trkpt>
      <trkpt lat="49.12349" lon="4.04698">
        <ele>225.2</ele>
        <time>2020-08-25T10:02:17.790Z</time>
      </trkpt>
      <trkpt lat="49.12359" lon="4.04731">
        <ele>226.8</ele>
        <time>2020-08-25T10:02:26.283Z</time>
      </trkpt>
      <trkpt lat="49.12361" lon="4.04737">
        <ele>227</ele>
        <time>2020-08-25T10:02:27.514Z</time>
      </trkpt>
      <trkpt lat="49.12367" lon="4.0476">
        <ele>228.2</ele>
        <time>2020-08-25T10:02:33.593Z</time>
      </trkpt>
      <trkpt lat="49.12368" lon="4.04767">
        <ele>228.4</ele>
        <time>2020-08-25T10:02:34.892Z</time>
      </trkpt>
      <trkpt lat="49.12369" lon="4.04773">
        <ele>228.6</ele>
        <time>2020-08-25T10:02:36.140Z</time>
      </trkpt>
      <trkpt lat="49.1237" lon="4.04798">
        <ele>230</ele>
        <time>2020-08-25T10:02:42.818Z</time>
      </trkpt>
      <trkpt lat="49.12369" lon="4.0481">
        <ele>230.6</ele>
        <time>2020-08-25T10:02:45.820Z</time>
      </trkpt>
      <trkpt lat="49.1237" lon="4.04822">
        <ele>231</ele>
        <time>2020-08-25T10:02:48.303Z</time>
      </trkpt>
      <trkpt lat="49.12372" lon="4.04846">
        <ele>231.8</ele>
        <time>2020-08-25T10:02:53.204Z</time>
      </trkpt>
      <trkpt lat="49.12373" lon="4.04857">
        <ele>232.6</ele>
        <time>2020-08-25T10:02:56.942Z</time>
      </trkpt>
      <trkpt lat="49.12377" lon="4.04874">
        <ele>233.8</ele>
        <time>2020-08-25T10:03:02.523Z</time>
      </trkpt>
      <trkpt lat="49.12382" lon="4.04898">
        <ele>234.8</ele>
        <time>2020-08-25T10:03:07.991Z</time>
      </trkpt>
      <trkpt lat="49.12386" lon="4.04916">
        <ele>235.8</ele>
        <time>2020-08-25T10:03:12.856Z</time>
      </trkpt>
      <trkpt lat="49.1239" lon="4.04933">
        <ele>236.6</ele>
        <time>2020-08-25T10:03:17.053Z</time>
      </trkpt>
      <trkpt lat="49.124" lon="4.04961">
        <ele>237.8</ele>
        <time>2020-08-25T10:03:23.871Z</time>
      </trkpt>
      <trkpt lat="49.12402" lon="4.04967">
        <ele>238.2</ele>
        <time>2020-08-25T10:03:25.737Z</time>
      </trkpt>
      <trkpt lat="49.12405" lon="4.04978">
        <ele>238.6</ele>
        <time>2020-08-25T10:03:28.357Z</time>
      </trkpt>
      <trkpt lat="49.12409" lon="4.0499">
        <ele>239</ele>
        <time>2020-08-25T10:03:30.969Z</time>
      </trkpt>
      <trkpt lat="49.12413" lon="4.05001">
        <ele>239.6</ele>
        <time>2020-08-25T10:03:34.042Z</time>
      </trkpt>
      <trkpt lat="49.12424" lon="4.0503">
        <ele>240.6</ele>
        <time>2020-08-25T10:03:40.635Z</time>
      </trkpt>
      <trkpt lat="49.12429" lon="4.05042">
        <ele>241</ele>
        <time>2020-08-25T10:03:43.338Z</time>
      </trkpt>
      <trkpt lat="49.12435" lon="4.05061">
        <ele>242</ele>
        <time>2020-08-25T10:03:48.500Z</time>
      </trkpt>
      <trkpt lat="49.12444" lon="4.0509">
        <ele>243</ele>
        <time>2020-08-25T10:03:54.888Z</time>
      </trkpt>
      <trkpt lat="49.12447" lon="4.05096">
        <ele>243.2</ele>
        <time>2020-08-25T10:03:56.305Z</time>
      </trkpt>
      <trkpt lat="49.1246" lon="4.05132">
        <ele>244.6</ele>
        <time>2020-08-25T10:04:04.854Z</time>
      </trkpt>
      <trkpt lat="49.12476" lon="4.05193">
        <ele>245.2</ele>
        <time>2020-08-25T10:04:13.679Z</time>
      </trkpt>
      <trkpt lat="49.12481" lon="4.05214">
        <ele>245.2</ele>
        <time>2020-08-25T10:04:16.236Z</time>
      </trkpt>
      <trkpt lat="49.12489" lon="4.05258">
        <ele>245</ele>
        <time>2020-08-25T10:04:21.034Z</time>
      </trkpt>
      <trkpt lat="49.12489" lon="4.0527">
        <ele>244.8</ele>
        <time>2020-08-25T10:04:21.954Z</time>
      </trkpt>
      <trkpt lat="49.12486" lon="4.05303">
        <ele>244.6</ele>
        <time>2020-08-25T10:04:25.093Z</time>
      </trkpt>
      <trkpt lat="49.12483" lon="4.05323">
        <ele>244.4</ele>
        <time>2020-08-25T10:04:26.925Z</time>
      </trkpt>
      <trkpt lat="49.12479" lon="4.05343">
        <ele>244.4</ele>
        <time>2020-08-25T10:04:29.439Z</time>
      </trkpt>
      <trkpt lat="49.12478" lon="4.05353">
        <ele>244.4</ele>
        <time>2020-08-25T10:04:30.553Z</time>
      </trkpt>
      <trkpt lat="49.12477" lon="4.05389">
        <ele>244.4</ele>
        <time>2020-08-25T10:04:34.823Z</time>
      </trkpt>
      <trkpt lat="49.12478" lon="4.05399">
        <ele>244.4</ele>
        <time>2020-08-25T10:04:35.935Z</time>
      </trkpt>
      <trkpt lat="49.1248" lon="4.05408">
        <ele>244.6</ele>
        <time>2020-08-25T10:04:37.502Z</time>
      </trkpt>
      <trkpt lat="49.12482" lon="4.05425">
        <ele>244.8</ele>
        <time>2020-08-25T10:04:39.948Z</time>
      </trkpt>
      <trkpt lat="49.12485" lon="4.05441">
        <ele>246.2</ele>
        <time>2020-08-25T10:04:46.980Z</time>
      </trkpt>
      <trkpt lat="49.12487" lon="4.05448">
        <ele>246.6</ele>
        <time>2020-08-25T10:04:48.968Z</time>
      </trkpt>
      <trkpt lat="49.12492" lon="4.05461">
        <ele>247.4</ele>
        <time>2020-08-25T10:04:52.841Z</time>
      </trkpt>
      <trkpt lat="49.12501" lon="4.05478">
        <ele>248.2</ele>
        <time>2020-08-25T10:04:57.405Z</time>
      </trkpt>
      <trkpt lat="49.12503" lon="4.05483">
        <ele>248.8</ele>
        <time>2020-08-25T10:05:00.126Z</time>
      </trkpt>
      <trkpt lat="49.12515" lon="4.05503">
        <ele>250.2</ele>
        <time>2020-08-25T10:05:06.948Z</time>
      </trkpt>
      <trkpt lat="49.1252" lon="4.05514">
        <ele>251</ele>
        <time>2020-08-25T10:05:10.726Z</time>
      </trkpt>
      <trkpt lat="49.12527" lon="4.05525">
        <ele>251.4</ele>
        <time>2020-08-25T10:05:13.474Z</time>
      </trkpt>
      <trkpt lat="49.12539" lon="4.05543">
        <ele>252.8</ele>
        <time>2020-08-25T10:05:20.314Z</time>
      </trkpt>
      <trkpt lat="49.12552" lon="4.05564">
        <ele>254</ele>
        <time>2020-08-25T10:05:26.701Z</time>
      </trkpt>
      <trkpt lat="49.12558" lon="4.05575">
        <ele>254.4</ele>
        <time>2020-08-25T10:05:29.454Z</time>
      </trkpt>
      <trkpt lat="49.12561" lon="4.0558">
        <ele>255</ele>
        <time>2020-08-25T10:05:32.515Z</time>
      </trkpt>
      <trkpt lat="49.12574" lon="4.05602">
        <ele>255.4</ele>
        <time>2020-08-25T10:05:36.809Z</time>
      </trkpt>
      <trkpt lat="49.12594" lon="4.05635">
        <ele>257.2</ele>
        <time>2020-08-25T10:05:46.749Z</time>
      </trkpt>
      <trkpt lat="49.126" lon="4.05647">
        <ele>257.4</ele>
        <time>2020-08-25T10:05:48.932Z</time>
      </trkpt>
      <trkpt lat="49.12606" lon="4.0566">
        <ele>257.6</ele>
        <time>2020-08-25T10:05:51.170Z</time>
      </trkpt>
      <trkpt lat="49.12619" lon="4.05698">
        <ele>258.4</ele>
        <time>2020-08-25T10:05:57.961Z</time>
      </trkpt>
      <trkpt lat="49.12623" lon="4.05714">
        <ele>259</ele>
        <time>2020-08-25T10:06:01.605Z</time>
      </trkpt>
      <trkpt lat="49.12625" lon="4.05723">
        <ele>259</ele>
        <time>2020-08-25T10:06:02.640Z</time>
      </trkpt>
      <trkpt lat="49.12627" lon="4.05741">
        <ele>259.6</ele>
        <time>2020-08-25T10:06:06.397Z</time>
      </trkpt>
      <trkpt lat="49.12627" lon="4.0575">
        <ele>259.8</ele>
        <time>2020-08-25T10:06:07.944Z</time>
      </trkpt>
      <trkpt lat="49.12624" lon="4.05788">
        <ele>260.4</ele>
        <time>2020-08-25T10:06:13.637Z</time>
      </trkpt>
      <trkpt lat="49.12621" lon="4.05815">
        <ele>260.6</ele>
        <time>2020-08-25T10:06:17.217Z</time>
      </trkpt>
      <trkpt lat="49.12612" lon="4.05898">
        <ele>261.8</ele>
        <time>2020-08-25T10:06:29.470Z</time>
      </trkpt>
      <trkpt lat="49.1261" lon="4.05916">
        <ele>262</ele>
        <time>2020-08-25T10:06:32.060Z</time>
      </trkpt>
      <trkpt lat="49.12604" lon="4.05985">
        <ele>262.4</ele>
        <time>2020-08-25T10:06:40.891Z</time>
      </trkpt>
      <trkpt lat="49.12596" lon="4.06069">
        <ele>262.4</ele>
        <time>2020-08-25T10:06:50.864Z</time>
      </trkpt>
      <trkpt lat="49.12593" lon="4.06101">
        <ele>262.4</ele>
        <time>2020-08-25T10:06:54.634Z</time>
      </trkpt>
      <trkpt lat="49.12592" lon="4.06122">
        <ele>262.4</ele>
        <time>2020-08-25T10:06:57.130Z</time>
      </trkpt>
      <trkpt lat="49.12586" lon="4.06185">
        <ele>262.4</ele>
        <time>2020-08-25T10:07:04.523Z</time>
      </trkpt>
      <trkpt lat="49.12583" lon="4.06226">
        <ele>262.8</ele>
        <time>2020-08-25T10:07:10.138Z</time>
      </trkpt>
      <trkpt lat="49.12579" lon="4.06264">
        <ele>263</ele>
        <time>2020-08-25T10:07:14.971Z</time>
      </trkpt>
      <trkpt lat="49.12578" lon="4.06273">
        <ele>262.8</ele>
        <time>2020-08-25T10:07:15.586Z</time>
      </trkpt>
      <trkpt lat="49.12574" lon="4.06319">
        <ele>264.2</ele>
        <time>2020-08-25T10:07:24.894Z</time>
      </trkpt>
      <trkpt lat="49.12569" lon="4.06399">
        <ele>265.4</ele>
        <time>2020-08-25T10:07:36.738Z</time>
      </trkpt>
      <trkpt lat="49.12566" lon="4.06477">
        <ele>265.4</ele>
        <time>2020-08-25T10:07:45.883Z</time>
      </trkpt>
      <trkpt lat="49.12567" lon="4.06561">
        <ele>265</ele>
        <time>2020-08-25T10:07:54.003Z</time>
      </trkpt>
      <trkpt lat="49.12567" lon="4.06573">
        <ele>264.8</ele>
        <time>2020-08-25T10:07:54.953Z</time>
      </trkpt>
      <trkpt lat="49.1257" lon="4.06661">
        <ele>263.8</ele>
        <time>2020-08-25T10:08:02.460Z</time>
      </trkpt>
      <trkpt lat="49.1257" lon="4.06674">
        <ele>263.8</ele>
        <time>2020-08-25T10:08:03.981Z</time>
      </trkpt>
      <trkpt lat="49.1257" lon="4.06714">
        <ele>263.6</ele>
        <time>2020-08-25T10:08:07.802Z</time>
      </trkpt>
      <trkpt lat="49.12568" lon="4.06754">
        <ele>263.6</ele>
        <time>2020-08-25T10:08:12.518Z</time>
      </trkpt>
      <trkpt lat="49.12566" lon="4.06768">
        <ele>263.4</ele>
        <time>2020-08-25T10:08:13.619Z</time>
      </trkpt>
      <trkpt lat="49.12556" lon="4.0682">
        <ele>262.8</ele>
        <time>2020-08-25T10:08:18.282Z</time>
      </trkpt>
      <trkpt lat="49.12552" lon="4.06832">
        <ele>262.6</ele>
        <time>2020-08-25T10:08:19.377Z</time>
      </trkpt>
      <trkpt lat="49.12531" lon="4.06909">
        <ele>261.2</ele>
        <time>2020-08-25T10:08:25.874Z</time>
      </trkpt>
      <trkpt lat="49.12527" lon="4.06924">
        <ele>260.8</ele>
        <time>2020-08-25T10:08:26.870Z</time>
      </trkpt>
      <trkpt lat="49.12524" lon="4.06938">
        <ele>260.8</ele>
        <time>2020-08-25T10:08:28.611Z</time>
      </trkpt>
      <trkpt lat="49.12519" lon="4.06982">
        <ele>259.8</ele>
        <time>2020-08-25T10:08:31.782Z</time>
      </trkpt>
      <trkpt lat="49.12518" lon="4.06997">
        <ele>259.4</ele>
        <time>2020-08-25T10:08:32.762Z</time>
      </trkpt>
      <trkpt lat="49.12518" lon="4.07027">
        <ele>259.2</ele>
        <time>2020-08-25T10:08:35.545Z</time>
      </trkpt>
      <trkpt lat="49.1252" lon="4.07086">
        <ele>257.6</ele>
        <time>2020-08-25T10:08:39.489Z</time>
      </trkpt>
      <trkpt lat="49.12523" lon="4.07171">
        <ele>256</ele>
        <time>2020-08-25T10:08:45.872Z</time>
      </trkpt>
      <trkpt lat="49.12523" lon="4.07185">
        <ele>256</ele>
        <time>2020-08-25T10:08:47.488Z</time>
      </trkpt>
      <trkpt lat="49.12526" lon="4.07254">
        <ele>255.6</ele>
        <time>2020-08-25T10:08:53.979Z</time>
      </trkpt>
      <trkpt lat="49.12529" lon="4.07321">
        <ele>255.6</ele>
        <time>2020-08-25T10:09:01.838Z</time>
      </trkpt>
      <trkpt lat="49.12528" lon="4.07361">
        <ele>255.4</ele>
        <time>2020-08-25T10:09:05.723Z</time>
      </trkpt>
      <trkpt lat="49.12525" lon="4.07387">
        <ele>255.4</ele>
        <time>2020-08-25T10:09:08.861Z</time>
      </trkpt>
      <trkpt lat="49.12515" lon="4.07426">
        <ele>255.2</ele>
        <time>2020-08-25T10:09:12.819Z</time>
      </trkpt>
      <trkpt lat="49.12511" lon="4.07438">
        <ele>255.2</ele>
        <time>2020-08-25T10:09:14.450Z</time>
      </trkpt>
      <trkpt lat="49.12506" lon="4.0745">
        <ele>255.2</ele>
        <time>2020-08-25T10:09:16.065Z</time>
      </trkpt>
      <trkpt lat="49.125" lon="4.07461">
        <ele>255.2</ele>
        <time>2020-08-25T10:09:17.736Z</time>
      </trkpt>
      <trkpt lat="49.12494" lon="4.07472">
        <ele>255.2</ele>
        <time>2020-08-25T10:09:19.432Z</time>
      </trkpt>
      <trkpt lat="49.12488" lon="4.07483">
        <ele>255.2</ele>
        <time>2020-08-25T10:09:21.095Z</time>
      </trkpt>
      <trkpt lat="49.12483" lon="4.07494">
        <ele>255</ele>
        <time>2020-08-25T10:09:22.262Z</time>
      </trkpt>
      <trkpt lat="49.12448" lon="4.07561">
        <ele>253.8</ele>
        <time>2020-08-25T10:09:29.167Z</time>
      </trkpt>
      <trkpt lat="49.12437" lon="4.07585">
        <ele>252.8</ele>
        <time>2020-08-25T10:09:30.935Z</time>
      </trkpt>
      <trkpt lat="49.12421" lon="4.07625">
        <ele>251.8</ele>
        <time>2020-08-25T10:09:34.297Z</time>
      </trkpt>
      <trkpt lat="49.12415" lon="4.07639">
        <ele>251.8</ele>
        <time>2020-08-25T10:09:36.158Z</time>
      </trkpt>
      <trkpt lat="49.12399" lon="4.07681">
        <ele>250.8</ele>
        <time>2020-08-25T10:09:39.742Z</time>
      </trkpt>
      <trkpt lat="49.12388" lon="4.07711">
        <ele>249</ele>
        <time>2020-08-25T10:09:41.743Z</time>
      </trkpt>
      <trkpt lat="49.12376" lon="4.07741">
        <ele>247.6</ele>
        <time>2020-08-25T10:09:43.674Z</time>
      </trkpt>
      <trkpt lat="49.1237" lon="4.07756">
        <ele>247</ele>
        <time>2020-08-25T10:09:44.739Z</time>
      </trkpt>
      <trkpt lat="49.12359" lon="4.07787">
        <ele>246</ele>
        <time>2020-08-25T10:09:47.026Z</time>
      </trkpt>
      <trkpt lat="49.12355" lon="4.07804">
        <ele>245.4</ele>
        <time>2020-08-25T10:09:48.087Z</time>
      </trkpt>
      <trkpt lat="49.12354" lon="4.07821">
        <ele>245</ele>
        <time>2020-08-25T10:09:49.320Z</time>
      </trkpt>
      <trkpt lat="49.12356" lon="4.07839">
        <ele>244.4</ele>
        <time>2020-08-25T10:09:50.362Z</time>
      </trkpt>
      <trkpt lat="49.12359" lon="4.07856">
        <ele>244</ele>
        <time>2020-08-25T10:09:51.608Z</time>
      </trkpt>
      <trkpt lat="49.12363" lon="4.07872">
        <ele>242.8</ele>
        <time>2020-08-25T10:09:52.650Z</time>
      </trkpt>
      <trkpt lat="49.12369" lon="4.07888">
        <ele>242</ele>
        <time>2020-08-25T10:09:53.631Z</time>
      </trkpt>
      <trkpt lat="49.12375" lon="4.07904">
        <ele>241.4</ele>
        <time>2020-08-25T10:09:54.756Z</time>
      </trkpt>
      <trkpt lat="49.12381" lon="4.0792">
        <ele>241.2</ele>
        <time>2020-08-25T10:09:56.336Z</time>
      </trkpt>
      <trkpt lat="49.12388" lon="4.07936">
        <ele>240.6</ele>
        <time>2020-08-25T10:09:57.503Z</time>
      </trkpt>
      <trkpt lat="49.12407" lon="4.07984">
        <ele>239.4</ele>
        <time>2020-08-25T10:10:01.538Z</time>
      </trkpt>
      <trkpt lat="49.12413" lon="4.07999">
        <ele>238.8</ele>
        <time>2020-08-25T10:10:02.597Z</time>
      </trkpt>
      <trkpt lat="49.12419" lon="4.08014">
        <ele>238</ele>
        <time>2020-08-25T10:10:03.609Z</time>
      </trkpt>
      <trkpt lat="49.12425" lon="4.08029">
        <ele>237.4</ele>
        <time>2020-08-25T10:10:04.654Z</time>
      </trkpt>
      <trkpt lat="49.12432" lon="4.08043">
        <ele>236.2</ele>
        <time>2020-08-25T10:10:05.675Z</time>
      </trkpt>
      <trkpt lat="49.1244" lon="4.08056">
        <ele>235</ele>
        <time>2020-08-25T10:10:06.715Z</time>
      </trkpt>
      <trkpt lat="49.12449" lon="4.08068">
        <ele>233.6</ele>
        <time>2020-08-25T10:10:07.756Z</time>
      </trkpt>
      <trkpt lat="49.12458" lon="4.08076">
        <ele>232.6</ele>
        <time>2020-08-25T10:10:08.764Z</time>
      </trkpt>
      <trkpt lat="49.1247" lon="4.08079">
        <ele>232</ele>
        <time>2020-08-25T10:10:09.809Z</time>
      </trkpt>
      <trkpt lat="49.12492" lon="4.08073">
        <ele>231.4</ele>
        <time>2020-08-25T10:10:12.381Z</time>
      </trkpt>
      <trkpt lat="49.125" lon="4.08068">
        <ele>230.8</ele>
        <time>2020-08-25T10:10:13.127Z</time>
      </trkpt>
      <trkpt lat="49.12507" lon="4.08063">
        <ele>230</ele>
        <time>2020-08-25T10:10:13.827Z</time>
      </trkpt>
      <trkpt lat="49.12513" lon="4.08061">
        <ele>228.6</ele>
        <time>2020-08-25T10:10:14.397Z</time>
      </trkpt>
      <trkpt lat="49.12518" lon="4.08065">
        <ele>227.6</ele>
        <time>2020-08-25T10:10:14.872Z</time>
      </trkpt>
      <trkpt lat="49.12525" lon="4.08083">
        <ele>226.8</ele>
        <time>2020-08-25T10:10:16.007Z</time>
      </trkpt>
      <trkpt lat="49.12528" lon="4.08094">
        <ele>226.2</ele>
        <time>2020-08-25T10:10:16.691Z</time>
      </trkpt>
      <trkpt lat="49.12531" lon="4.08105">
        <ele>225.8</ele>
        <time>2020-08-25T10:10:17.475Z</time>
      </trkpt>
      <trkpt lat="49.12535" lon="4.08117">
        <ele>225.4</ele>
        <time>2020-08-25T10:10:18.312Z</time>
      </trkpt>
      <trkpt lat="49.12542" lon="4.0814">
        <ele>225</ele>
        <time>2020-08-25T10:10:20.290Z</time>
      </trkpt>
      <trkpt lat="49.12545" lon="4.08149">
        <ele>224.6</ele>
        <time>2020-08-25T10:10:20.901Z</time>
      </trkpt>
      <trkpt lat="49.12556" lon="4.08159">
        <ele>224.2</ele>
        <time>2020-08-25T10:10:22.249Z</time>
      </trkpt>
      <trkpt lat="49.12562" lon="4.08159">
        <ele>224</ele>
        <time>2020-08-25T10:10:22.888Z</time>
      </trkpt>
      <trkpt lat="49.12567" lon="4.08157">
        <ele>223.4</ele>
        <time>2020-08-25T10:10:23.386Z</time>
      </trkpt>
      <trkpt lat="49.12572" lon="4.08155">
        <ele>223</ele>
        <time>2020-08-25T10:10:23.864Z</time>
      </trkpt>
      <trkpt lat="49.12583" lon="4.08149">
        <ele>221.6</ele>
        <time>2020-08-25T10:10:24.862Z</time>
      </trkpt>
      <trkpt lat="49.12595" lon="4.08145">
        <ele>220.2</ele>
        <time>2020-08-25T10:10:25.953Z</time>
      </trkpt>
      <trkpt lat="49.12601" lon="4.08142">
        <ele>219.8</ele>
        <time>2020-08-25T10:10:26.525Z</time>
      </trkpt>
      <trkpt lat="49.12613" lon="4.0813">
        <ele>219.6</ele>
        <time>2020-08-25T10:10:28.465Z</time>
      </trkpt>
      <trkpt lat="49.12618" lon="4.08122">
        <ele>219.2</ele>
        <time>2020-08-25T10:10:29.132Z</time>
      </trkpt>
      <trkpt lat="49.12651" lon="4.08084">
        <ele>218</ele>
        <time>2020-08-25T10:10:33.727Z</time>
      </trkpt>
      <trkpt lat="49.12662" lon="4.08074">
        <ele>217.6</ele>
        <time>2020-08-25T10:10:35.193Z</time>
      </trkpt>
      <trkpt lat="49.12674" lon="4.08068">
        <ele>217.2</ele>
        <time>2020-08-25T10:10:36.672Z</time>
      </trkpt>
      <trkpt lat="49.12681" lon="4.08066">
        <ele>217.2</ele>
        <time>2020-08-25T10:10:37.888Z</time>
      </trkpt>
      <trkpt lat="49.12688" lon="4.08066">
        <ele>217.2</ele>
        <time>2020-08-25T10:10:39.194Z</time>
      </trkpt>
      <trkpt lat="49.12696" lon="4.08067">
        <ele>217.2</ele>
        <time>2020-08-25T10:10:40.595Z</time>
      </trkpt>
      <trkpt lat="49.12704" lon="4.08069">
        <ele>217</ele>
        <time>2020-08-25T10:10:41.554Z</time>
      </trkpt>
      <trkpt lat="49.12721" lon="4.08076">
        <ele>217</ele>
        <time>2020-08-25T10:10:44.601Z</time>
      </trkpt>
      <trkpt lat="49.12729" lon="4.08081">
        <ele>216.8</ele>
        <time>2020-08-25T10:10:45.653Z</time>
      </trkpt>
      <trkpt lat="49.12737" lon="4.08085">
        <ele>217</ele>
        <time>2020-08-25T10:10:47.603Z</time>
      </trkpt>
      <trkpt lat="49.12745" lon="4.08088">
        <ele>217</ele>
        <time>2020-08-25T10:10:49.047Z</time>
      </trkpt>
      <trkpt lat="49.12759" lon="4.08088">
        <ele>216.8</ele>
        <time>2020-08-25T10:10:51.031Z</time>
      </trkpt>
      <trkpt lat="49.12766" lon="4.08085">
        <ele>216.4</ele>
        <time>2020-08-25T10:10:51.656Z</time>
      </trkpt>
      <trkpt lat="49.12778" lon="4.08078">
        <ele>215.4</ele>
        <time>2020-08-25T10:10:52.777Z</time>
      </trkpt>
      <trkpt lat="49.12783" lon="4.08074">
        <ele>215</ele>
        <time>2020-08-25T10:10:53.284Z</time>
      </trkpt>
      <trkpt lat="49.12792" lon="4.08068">
        <ele>214.8</ele>
        <time>2020-08-25T10:10:54.542Z</time>
      </trkpt>
      <trkpt lat="49.12804" lon="4.08061">
        <ele>214.8</ele>
        <time>2020-08-25T10:10:56.848Z</time>
      </trkpt>
      <trkpt lat="49.12811" lon="4.08056">
        <ele>214.8</ele>
        <time>2020-08-25T10:10:58.278Z</time>
      </trkpt>
      <trkpt lat="49.12826" lon="4.0805">
        <ele>215.6</ele>
        <time>2020-08-25T10:11:03.039Z</time>
      </trkpt>
      <trkpt lat="49.12837" lon="4.08047">
        <ele>216.8</ele>
        <time>2020-08-25T10:11:08.627Z</time>
      </trkpt>
      <trkpt lat="49.12851" lon="4.08041">
        <ele>218.8</ele>
        <time>2020-08-25T10:11:18.484Z</time>
      </trkpt>
      <trkpt lat="49.12859" lon="4.08023">
        <ele>219.6</ele>
        <time>2020-08-25T10:11:23.168Z</time>
      </trkpt>
      <trkpt lat="49.12861" lon="4.08013">
        <ele>220.6</ele>
        <time>2020-08-25T10:11:27.901Z</time>
      </trkpt>
      <trkpt lat="49.12864" lon="4.07992">
        <ele>222</ele>
        <time>2020-08-25T10:11:34.409Z</time>
      </trkpt>
      <trkpt lat="49.12865" lon="4.07987">
        <ele>222.6</ele>
        <time>2020-08-25T10:11:36.878Z</time>
      </trkpt>
      <trkpt lat="49.12868" lon="4.07977">
        <ele>223</ele>
        <time>2020-08-25T10:11:39.234Z</time>
      </trkpt>
      <trkpt lat="49.12877" lon="4.07954">
        <ele>224.2</ele>
        <time>2020-08-25T10:11:45.450Z</time>
      </trkpt>
      <trkpt lat="49.1288" lon="4.07944">
        <ele>224.8</ele>
        <time>2020-08-25T10:11:48.323Z</time>
      </trkpt>
      <trkpt lat="49.1289" lon="4.07919">
        <ele>226.2</ele>
        <time>2020-08-25T10:11:55.397Z</time>
      </trkpt>
      <trkpt lat="49.12901" lon="4.079">
        <ele>226.8</ele>
        <time>2020-08-25T10:11:59.757Z</time>
      </trkpt>
      <trkpt lat="49.1291" lon="4.07881">
        <ele>227.8</ele>
        <time>2020-08-25T10:12:05.098Z</time>
      </trkpt>
      <trkpt lat="49.12917" lon="4.07868">
        <ele>228.8</ele>
        <time>2020-08-25T10:12:09.813Z</time>
      </trkpt>
      <trkpt lat="49.12923" lon="4.07855">
        <ele>229.4</ele>
        <time>2020-08-25T10:12:13.340Z</time>
      </trkpt>
      <trkpt lat="49.12926" lon="4.0785">
        <ele>229.6</ele>
        <time>2020-08-25T10:12:14.518Z</time>
      </trkpt>
      <trkpt lat="49.1293" lon="4.07841">
        <ele>230.4</ele>
        <time>2020-08-25T10:12:18.248Z</time>
      </trkpt>
      <trkpt lat="49.12939" lon="4.07822">
        <ele>232.2</ele>
        <time>2020-08-25T10:12:26.843Z</time>
      </trkpt>
      <trkpt lat="49.12942" lon="4.07812">
        <ele>232.6</ele>
        <time>2020-08-25T10:12:29.256Z</time>
      </trkpt>
      <trkpt lat="49.12946" lon="4.07801">
        <ele>233.6</ele>
        <time>2020-08-25T10:12:34.342Z</time>
      </trkpt>
      <trkpt lat="49.12952" lon="4.07786">
        <ele>234.6</ele>
        <time>2020-08-25T10:12:39.061Z</time>
      </trkpt>
      <trkpt lat="49.12957" lon="4.07771">
        <ele>235.4</ele>
        <time>2020-08-25T10:12:43.135Z</time>
      </trkpt>
      <trkpt lat="49.12965" lon="4.07747">
        <ele>237</ele>
        <time>2020-08-25T10:12:50.698Z</time>
      </trkpt>
      <trkpt lat="49.12971" lon="4.07731">
        <ele>238</ele>
        <time>2020-08-25T10:12:55.469Z</time>
      </trkpt>
      <trkpt lat="49.12981" lon="4.07698">
        <ele>239.6</ele>
        <time>2020-08-25T10:13:03.853Z</time>
      </trkpt>
      <trkpt lat="49.12984" lon="4.07687">
        <ele>240.2</ele>
        <time>2020-08-25T10:13:06.868Z</time>
      </trkpt>
      <trkpt lat="49.12986" lon="4.07681">
        <ele>240.4</ele>
        <time>2020-08-25T10:13:08.192Z</time>
      </trkpt>
      <trkpt lat="49.12992" lon="4.07663">
        <ele>241.4</ele>
        <time>2020-08-25T10:13:13.095Z</time>
      </trkpt>
      <trkpt lat="49.13" lon="4.07642">
        <ele>242.4</ele>
        <time>2020-08-25T10:13:18.530Z</time>
      </trkpt>
      <trkpt lat="49.13001" lon="4.07636">
        <ele>242.8</ele>
        <time>2020-08-25T10:13:20.389Z</time>
      </trkpt>
      <trkpt lat="49.13007" lon="4.07621">
        <ele>243.8</ele>
        <time>2020-08-25T10:13:25.144Z</time>
      </trkpt>
      <trkpt lat="49.13011" lon="4.07605">
        <ele>244.8</ele>
        <time>2020-08-25T10:13:29.875Z</time>
      </trkpt>
      <trkpt lat="49.13018" lon="4.07583">
        <ele>246</ele>
        <time>2020-08-25T10:13:35.801Z</time>
      </trkpt>
      <trkpt lat="49.13023" lon="4.07567">
        <ele>246.6</ele>
        <time>2020-08-25T10:13:39.468Z</time>
      </trkpt>
      <trkpt lat="49.13028" lon="4.07551">
        <ele>247.8</ele>
        <time>2020-08-25T10:13:45.046Z</time>
      </trkpt>
      <trkpt lat="49.13035" lon="4.07522">
        <ele>249</ele>
        <time>2020-08-25T10:13:51.720Z</time>
      </trkpt>
      <trkpt lat="49.13037" lon="4.0751">
        <ele>249.4</ele>
        <time>2020-08-25T10:13:54.278Z</time>
      </trkpt>
      <trkpt lat="49.13043" lon="4.07486">
        <ele>250.6</ele>
        <time>2020-08-25T10:14:00.411Z</time>
      </trkpt>
      <trkpt lat="49.13044" lon="4.07479">
        <ele>250.8</ele>
        <time>2020-08-25T10:14:01.732Z</time>
      </trkpt>
      <trkpt lat="49.13046" lon="4.07466">
        <ele>251.4</ele>
        <time>2020-08-25T10:14:04.829Z</time>
      </trkpt>
      <trkpt lat="49.13047" lon="4.07453">
        <ele>251.6</ele>
        <time>2020-08-25T10:14:06.778Z</time>
      </trkpt>
      <trkpt lat="49.13053" lon="4.07422">
        <ele>252.2</ele>
        <time>2020-08-25T10:14:11.851Z</time>
      </trkpt>
      <trkpt lat="49.13054" lon="4.07416">
        <ele>252.2</ele>
        <time>2020-08-25T10:14:12.582Z</time>
      </trkpt>
      <trkpt lat="49.13063" lon="4.07373">
        <ele>254</ele>
        <time>2020-08-25T10:14:22.552Z</time>
      </trkpt>
      <trkpt lat="49.13064" lon="4.07367">
        <ele>254.2</ele>
        <time>2020-08-25T10:14:23.820Z</time>
      </trkpt>
      <trkpt lat="49.13069" lon="4.07351">
        <ele>254.6</ele>
        <time>2020-08-25T10:14:26.878Z</time>
      </trkpt>
      <trkpt lat="49.13075" lon="4.07335">
        <ele>255.4</ele>
        <time>2020-08-25T10:14:31.064Z</time>
      </trkpt>
      <trkpt lat="49.13076" lon="4.0733">
        <ele>255.4</ele>
        <time>2020-08-25T10:14:31.737Z</time>
      </trkpt>
      <trkpt lat="49.1308" lon="4.07315">
        <ele>256</ele>
        <time>2020-08-25T10:14:35.236Z</time>
      </trkpt>
      <trkpt lat="49.13083" lon="4.07293">
        <ele>257</ele>
        <time>2020-08-25T10:14:40.403Z</time>
      </trkpt>
      <trkpt lat="49.13084" lon="4.07274">
        <ele>257.8</ele>
        <time>2020-08-25T10:14:44.633Z</time>
      </trkpt>
      <trkpt lat="49.13085" lon="4.07262">
        <ele>258.6</ele>
        <time>2020-08-25T10:14:48.355Z</time>
      </trkpt>
      <trkpt lat="49.13086" lon="4.07249">
        <ele>259</ele>
        <time>2020-08-25T10:14:51.034Z</time>
      </trkpt>
      <trkpt lat="49.1309" lon="4.07212">
        <ele>260.8</ele>
        <time>2020-08-25T10:15:00.013Z</time>
      </trkpt>
      <trkpt lat="49.13092" lon="4.07197">
        <ele>261.2</ele>
        <time>2020-08-25T10:15:02.842Z</time>
      </trkpt>
      <trkpt lat="49.13095" lon="4.07183">
        <ele>261.6</ele>
        <time>2020-08-25T10:15:05.636Z</time>
      </trkpt>
      <trkpt lat="49.13098" lon="4.07177">
        <ele>262</ele>
        <time>2020-08-25T10:15:07.558Z</time>
      </trkpt>
      <trkpt lat="49.13101" lon="4.07172">
        <ele>262.2</ele>
        <time>2020-08-25T10:15:08.956Z</time>
      </trkpt>
      <trkpt lat="49.13111" lon="4.07167">
        <ele>262.4</ele>
        <time>2020-08-25T10:15:11.223Z</time>
      </trkpt>
      <trkpt lat="49.13138" lon="4.0717">
        <ele>262.6</ele>
        <time>2020-08-25T10:15:16.266Z</time>
      </trkpt>
      <trkpt lat="49.13167" lon="4.07176">
        <ele>262.6</ele>
        <time>2020-08-25T10:15:21.505Z</time>
      </trkpt>
      <trkpt lat="49.13173" lon="4.07177">
        <ele>262.4</ele>
        <time>2020-08-25T10:15:22.168Z</time>
      </trkpt>
      <trkpt lat="49.1321" lon="4.07184">
        <ele>262.2</ele>
        <time>2020-08-25T10:15:28.438Z</time>
      </trkpt>
      <trkpt lat="49.13223" lon="4.07186">
        <ele>262.2</ele>
        <time>2020-08-25T10:15:30.716Z</time>
      </trkpt>
      <trkpt lat="49.13253" lon="4.07191">
        <ele>262</ele>
        <time>2020-08-25T10:15:35.605Z</time>
      </trkpt>
      <trkpt lat="49.13268" lon="4.07193">
        <ele>261.8</ele>
        <time>2020-08-25T10:15:37.726Z</time>
      </trkpt>
      <trkpt lat="49.13291" lon="4.07196">
        <ele>261.8</ele>
        <time>2020-08-25T10:15:41.751Z</time>
      </trkpt>
      <trkpt lat="49.13305" lon="4.07199">
        <ele>261.6</ele>
        <time>2020-08-25T10:15:43.683Z</time>
      </trkpt>
      <trkpt lat="49.13312" lon="4.072">
        <ele>261.6</ele>
        <time>2020-08-25T10:15:45.051Z</time>
      </trkpt>
      <trkpt lat="49.13327" lon="4.07202">
        <ele>261.4</ele>
        <time>2020-08-25T10:15:46.986Z</time>
      </trkpt>
      <trkpt lat="49.13334" lon="4.07203">
        <ele>261.4</ele>
        <time>2020-08-25T10:15:48.241Z</time>
      </trkpt>
      <trkpt lat="49.13348" lon="4.07205">
        <ele>261</ele>
        <time>2020-08-25T10:15:49.937Z</time>
      </trkpt>
      <trkpt lat="49.13364" lon="4.07208">
        <ele>261</ele>
        <time>2020-08-25T10:15:52.767Z</time>
      </trkpt>
      <trkpt lat="49.13372" lon="4.07209">
        <ele>261</ele>
        <time>2020-08-25T10:15:54.154Z</time>
      </trkpt>
      <trkpt lat="49.13379" lon="4.07211">
        <ele>261</ele>
        <time>2020-08-25T10:15:55.501Z</time>
      </trkpt>
      <trkpt lat="49.13401" lon="4.07213">
        <ele>260.8</ele>
        <time>2020-08-25T10:15:58.733Z</time>
      </trkpt>
      <trkpt lat="49.13448" lon="4.07222">
        <ele>261.2</ele>
        <time>2020-08-25T10:16:07.818Z</time>
      </trkpt>
      <trkpt lat="49.13486" lon="4.07228">
        <ele>261.4</ele>
        <time>2020-08-25T10:16:15.031Z</time>
      </trkpt>
      <trkpt lat="49.13517" lon="4.07234">
        <ele>261.8</ele>
        <time>2020-08-25T10:16:21.359Z</time>
      </trkpt>
      <trkpt lat="49.13533" lon="4.07236">
        <ele>261.8</ele>
        <time>2020-08-25T10:16:24.179Z</time>
      </trkpt>
      <trkpt lat="49.13576" lon="4.07243">
        <ele>262.6</ele>
        <time>2020-08-25T10:16:33.520Z</time>
      </trkpt>
      <trkpt lat="49.1359" lon="4.07245">
        <ele>263.2</ele>
        <time>2020-08-25T10:16:37.636Z</time>
      </trkpt>
      <trkpt lat="49.13626" lon="4.07251">
        <ele>264.2</ele>
        <time>2020-08-25T10:16:46.248Z</time>
      </trkpt>
      <trkpt lat="49.13653" lon="4.07254">
        <ele>264.6</ele>
        <time>2020-08-25T10:16:51.825Z</time>
      </trkpt>
      <trkpt lat="49.13666" lon="4.07256">
        <ele>264.8</ele>
        <time>2020-08-25T10:16:54.637Z</time>
      </trkpt>
      <trkpt lat="49.13679" lon="4.07259">
        <ele>265.2</ele>
        <time>2020-08-25T10:16:57.883Z</time>
      </trkpt>
      <trkpt lat="49.13693" lon="4.07262">
        <ele>265.6</ele>
        <time>2020-08-25T10:17:01.259Z</time>
      </trkpt>
      <trkpt lat="49.13708" lon="4.07266">
        <ele>265.8</ele>
        <time>2020-08-25T10:17:04.308Z</time>
      </trkpt>
      <trkpt lat="49.13715" lon="4.07267">
        <ele>265.8</ele>
        <time>2020-08-25T10:17:05.644Z</time>
      </trkpt>
      <trkpt lat="49.13722" lon="4.07269">
        <ele>266</ele>
        <time>2020-08-25T10:17:07.403Z</time>
      </trkpt>
      <trkpt lat="49.1376" lon="4.07276">
        <ele>266.6</ele>
        <time>2020-08-25T10:17:15.320Z</time>
      </trkpt>
      <trkpt lat="49.13797" lon="4.07283">
        <ele>267.2</ele>
        <time>2020-08-25T10:17:23.144Z</time>
      </trkpt>
      <trkpt lat="49.13842" lon="4.0729">
        <ele>268</ele>
        <time>2020-08-25T10:17:32.733Z</time>
      </trkpt>
      <trkpt lat="49.13884" lon="4.07296">
        <ele>268.6</ele>
        <time>2020-08-25T10:17:41.430Z</time>
      </trkpt>
      <trkpt lat="49.13898" lon="4.07299">
        <ele>268.6</ele>
        <time>2020-08-25T10:17:43.933Z</time>
      </trkpt>
      <trkpt lat="49.13933" lon="4.07305">
        <ele>269</ele>
        <time>2020-08-25T10:17:50.980Z</time>
      </trkpt>
      <trkpt lat="49.13939" lon="4.07307">
        <ele>269.2</ele>
        <time>2020-08-25T10:17:52.656Z</time>
      </trkpt>
      <trkpt lat="49.13982" lon="4.07316">
        <ele>269.6</ele>
        <time>2020-08-25T10:18:01.101Z</time>
      </trkpt>
      <trkpt lat="49.14019" lon="4.07323">
        <ele>270</ele>
        <time>2020-08-25T10:18:08.487Z</time>
      </trkpt>
      <trkpt lat="49.14027" lon="4.07324">
        <ele>270</ele>
        <time>2020-08-25T10:18:09.818Z</time>
      </trkpt>
      <trkpt lat="49.14063" lon="4.0733">
        <ele>270.2</ele>
        <time>2020-08-25T10:18:16.684Z</time>
      </trkpt>
      <trkpt lat="49.141" lon="4.07334">
        <ele>270.4</ele>
        <time>2020-08-25T10:18:23.609Z</time>
      </trkpt>
      <trkpt lat="49.14107" lon="4.07335">
        <ele>270.4</ele>
        <time>2020-08-25T10:18:24.862Z</time>
      </trkpt>
      <trkpt lat="49.14142" lon="4.0734">
        <ele>270.2</ele>
        <time>2020-08-25T10:18:30.648Z</time>
      </trkpt>
      <trkpt lat="49.14162" lon="4.07342">
        <ele>270.4</ele>
        <time>2020-08-25T10:18:34.699Z</time>
      </trkpt>
      <trkpt lat="49.14176" lon="4.07344">
        <ele>270.4</ele>
        <time>2020-08-25T10:18:37.194Z</time>
      </trkpt>
      <trkpt lat="49.14215" lon="4.07351">
        <ele>270.8</ele>
        <time>2020-08-25T10:18:44.989Z</time>
      </trkpt>
      <trkpt lat="49.14222" lon="4.07354">
        <ele>270.8</ele>
        <time>2020-08-25T10:18:46.124Z</time>
      </trkpt>
      <trkpt lat="49.14228" lon="4.07358">
        <ele>271.2</ele>
        <time>2020-08-25T10:18:48.329Z</time>
      </trkpt>
      <trkpt lat="49.14234" lon="4.07362">
        <ele>271.6</ele>
        <time>2020-08-25T10:18:50.574Z</time>
      </trkpt>
      <trkpt lat="49.14239" lon="4.07367">
        <ele>271.8</ele>
        <time>2020-08-25T10:18:52.153Z</time>
      </trkpt>
      <trkpt lat="49.14244" lon="4.07371">
        <ele>271.8</ele>
        <time>2020-08-25T10:18:53.202Z</time>
      </trkpt>
      <trkpt lat="49.14255" lon="4.07384">
        <ele>272</ele>
        <time>2020-08-25T10:18:56.016Z</time>
      </trkpt>
      <trkpt lat="49.14258" lon="4.07385">
        <ele>272.2</ele>
        <time>2020-08-25T10:18:57.080Z</time>
      </trkpt>
      <trkpt lat="49.1426" lon="4.07384">
        <ele>272</ele>
        <time>2020-08-25T10:18:57.270Z</time>
      </trkpt>
      <trkpt lat="49.14252" lon="4.07376">
        <ele>272.8</ele>
        <time>2020-08-25T10:19:01.075Z</time>
      </trkpt>
      <trkpt lat="49.14249" lon="4.07371">
        <ele>273</ele>
        <time>2020-08-25T10:19:02.422Z</time>
      </trkpt>
      <trkpt lat="49.14238" lon="4.07359">
        <ele>273.2</ele>
        <time>2020-08-25T10:19:05.252Z</time>
      </trkpt>
      <trkpt lat="49.14233" lon="4.07357">
        <ele>273.4</ele>
        <time>2020-08-25T10:19:06.631Z</time>
      </trkpt>
      <trkpt lat="49.14229" lon="4.07354">
        <ele>273.2</ele>
        <time>2020-08-25T10:19:07.128Z</time>
      </trkpt>
      <trkpt lat="49.14213" lon="4.0735">
        <ele>273</ele>
        <time>2020-08-25T10:19:09.273Z</time>
      </trkpt>
      <trkpt lat="49.14191" lon="4.07345">
        <ele>273</ele>
        <time>2020-08-25T10:19:13.284Z</time>
      </trkpt>
      <trkpt lat="49.14189" lon="4.07344">
        <ele>273</ele>
        <time>2020-08-25T10:19:13.714Z</time>
      </trkpt>
      <trkpt lat="49.14188" lon="4.07347">
        <ele>272.8</ele>
        <time>2020-08-25T10:19:13.865Z</time>
      </trkpt>
      <trkpt lat="49.14198" lon="4.07347">
        <ele>272.8</ele>
        <time>2020-08-25T10:19:15.761Z</time>
      </trkpt>
      <trkpt lat="49.14213" lon="4.07351">
        <ele>273</ele>
        <time>2020-08-25T10:19:18.713Z</time>
      </trkpt>
      <trkpt lat="49.14218" lon="4.07353">
        <ele>272.8</ele>
        <time>2020-08-25T10:19:19.335Z</time>
      </trkpt>
      <trkpt lat="49.1423" lon="4.0736">
        <ele>273</ele>
        <time>2020-08-25T10:19:21.887Z</time>
      </trkpt>
      <trkpt lat="49.14246" lon="4.07375">
        <ele>272.8</ele>
        <time>2020-08-25T10:19:24.670Z</time>
      </trkpt>
      <trkpt lat="49.1427" lon="4.07403">
        <ele>272.4</ele>
        <time>2020-08-25T10:19:28.827Z</time>
      </trkpt>
      <trkpt lat="49.14279" lon="4.07415">
        <ele>272.6</ele>
        <time>2020-08-25T10:19:31.288Z</time>
      </trkpt>
      <trkpt lat="49.14293" lon="4.07433">
        <ele>272.4</ele>
        <time>2020-08-25T10:19:33.756Z</time>
      </trkpt>
      <trkpt lat="49.14297" lon="4.07439">
        <ele>272.4</ele>
        <time>2020-08-25T10:19:34.839Z</time>
      </trkpt>
      <trkpt lat="49.14302" lon="4.07445">
        <ele>272.4</ele>
        <time>2020-08-25T10:19:35.937Z</time>
      </trkpt>
      <trkpt lat="49.14329" lon="4.07485">
        <ele>272.4</ele>
        <time>2020-08-25T10:19:42.775Z</time>
      </trkpt>
      <trkpt lat="49.14361" lon="4.0753">
        <ele>272</ele>
        <time>2020-08-25T10:19:48.969Z</time>
      </trkpt>
      <trkpt lat="49.14366" lon="4.07537">
        <ele>272</ele>
        <time>2020-08-25T10:19:50.246Z</time>
      </trkpt>
      <trkpt lat="49.14372" lon="4.07545">
        <ele>271.8</ele>
        <time>2020-08-25T10:19:51.096Z</time>
      </trkpt>
      <trkpt lat="49.14377" lon="4.07552">
        <ele>271.8</ele>
        <time>2020-08-25T10:19:52.450Z</time>
      </trkpt>
      <trkpt lat="49.14383" lon="4.0756">
        <ele>271.2</ele>
        <time>2020-08-25T10:19:53.106Z</time>
      </trkpt>
      <trkpt lat="49.14393" lon="4.07576">
        <ele>270.8</ele>
        <time>2020-08-25T10:19:54.803Z</time>
      </trkpt>
      <trkpt lat="49.14409" lon="4.07599">
        <ele>270.6</ele>
        <time>2020-08-25T10:19:57.897Z</time>
      </trkpt>
      <trkpt lat="49.14414" lon="4.07607">
        <ele>270.6</ele>
        <time>2020-08-25T10:19:59.178Z</time>
      </trkpt>
      <trkpt lat="49.14419" lon="4.07614">
        <ele>270.4</ele>
        <time>2020-08-25T10:20:00.014Z</time>
      </trkpt>
      <trkpt lat="49.14435" lon="4.07642">
        <ele>269.8</ele>
        <time>2020-08-25T10:20:02.874Z</time>
      </trkpt>
      <trkpt lat="49.14439" lon="4.07652">
        <ele>269.8</ele>
        <time>2020-08-25T10:20:04.342Z</time>
      </trkpt>
      <trkpt lat="49.14443" lon="4.07663">
        <ele>269.6</ele>
        <time>2020-08-25T10:20:05.251Z</time>
      </trkpt>
      <trkpt lat="49.14446" lon="4.07674">
        <ele>269.6</ele>
        <time>2020-08-25T10:20:06.648Z</time>
      </trkpt>
      <trkpt lat="49.14453" lon="4.07695">
        <ele>269.6</ele>
        <time>2020-08-25T10:20:09.423Z</time>
      </trkpt>
      <trkpt lat="49.14473" lon="4.0776">
        <ele>268.8</ele>
        <time>2020-08-25T10:20:15.520Z</time>
      </trkpt>
      <trkpt lat="49.14483" lon="4.07793">
        <ele>268.4</ele>
        <time>2020-08-25T10:20:18.629Z</time>
      </trkpt>
      <trkpt lat="49.1449" lon="4.07815">
        <ele>268.4</ele>
        <time>2020-08-25T10:20:21.469Z</time>
      </trkpt>
      <trkpt lat="49.14497" lon="4.07837">
        <ele>268</ele>
        <time>2020-08-25T10:20:23.466Z</time>
      </trkpt>
      <trkpt lat="49.1451" lon="4.07885">
        <ele>267.6</ele>
        <time>2020-08-25T10:20:28.149Z</time>
      </trkpt>
      <trkpt lat="49.14516" lon="4.0791">
        <ele>267.2</ele>
        <time>2020-08-25T10:20:30.317Z</time>
      </trkpt>
      <trkpt lat="49.14519" lon="4.07923">
        <ele>267</ele>
        <time>2020-08-25T10:20:31.402Z</time>
      </trkpt>
      <trkpt lat="49.14529" lon="4.07964">
        <ele>266.6</ele>
        <time>2020-08-25T10:20:35.303Z</time>
      </trkpt>
      <trkpt lat="49.14533" lon="4.07979">
        <ele>266.4</ele>
        <time>2020-08-25T10:20:36.627Z</time>
      </trkpt>
      <trkpt lat="49.1454" lon="4.0801">
        <ele>266</ele>
        <time>2020-08-25T10:20:39.380Z</time>
      </trkpt>
      <trkpt lat="49.14544" lon="4.08026">
        <ele>265.6</ele>
        <time>2020-08-25T10:20:40.571Z</time>
      </trkpt>
      <trkpt lat="49.1455" lon="4.08041">
        <ele>265.4</ele>
        <time>2020-08-25T10:20:42.092Z</time>
      </trkpt>
      <trkpt lat="49.14558" lon="4.08056">
        <ele>265</ele>
        <time>2020-08-25T10:20:43.432Z</time>
      </trkpt>
      <trkpt lat="49.14567" lon="4.08069">
        <ele>264.4</ele>
        <time>2020-08-25T10:20:44.563Z</time>
      </trkpt>
      <trkpt lat="49.14577" lon="4.08079">
        <ele>264</ele>
        <time>2020-08-25T10:20:45.981Z</time>
      </trkpt>
      <trkpt lat="49.14589" lon="4.08088">
        <ele>262</ele>
        <time>2020-08-25T10:20:47.168Z</time>
      </trkpt>
      <trkpt lat="49.14602" lon="4.08096">
        <ele>260.4</ele>
        <time>2020-08-25T10:20:48.356Z</time>
      </trkpt>
      <trkpt lat="49.14615" lon="4.08103">
        <ele>259.2</ele>
        <time>2020-08-25T10:20:49.567Z</time>
      </trkpt>
      <trkpt lat="49.1464" lon="4.08112">
        <ele>258</ele>
        <time>2020-08-25T10:20:52.021Z</time>
      </trkpt>
      <trkpt lat="49.14651" lon="4.08114">
        <ele>256.4</ele>
        <time>2020-08-25T10:20:53.056Z</time>
      </trkpt>
      <trkpt lat="49.14663" lon="4.08112">
        <ele>255</ele>
        <time>2020-08-25T10:20:54.073Z</time>
      </trkpt>
      <trkpt lat="49.14674" lon="4.08106">
        <ele>253.6</ele>
        <time>2020-08-25T10:20:55.134Z</time>
      </trkpt>
      <trkpt lat="49.14696" lon="4.08086">
        <ele>250.2</ele>
        <time>2020-08-25T10:20:57.409Z</time>
      </trkpt>
      <trkpt lat="49.14707" lon="4.08076">
        <ele>248.6</ele>
        <time>2020-08-25T10:20:58.556Z</time>
      </trkpt>
      <trkpt lat="49.14719" lon="4.08065">
        <ele>246.8</ele>
        <time>2020-08-25T10:20:59.786Z</time>
      </trkpt>
      <trkpt lat="49.1473" lon="4.08056">
        <ele>245.2</ele>
        <time>2020-08-25T10:21:00.928Z</time>
      </trkpt>
      <trkpt lat="49.14741" lon="4.08048">
        <ele>244</ele>
        <time>2020-08-25T10:21:01.988Z</time>
      </trkpt>
      <trkpt lat="49.14753" lon="4.08043">
        <ele>243.6</ele>
        <time>2020-08-25T10:21:03.255Z</time>
      </trkpt>
      <trkpt lat="49.14765" lon="4.08042">
        <ele>243</ele>
        <time>2020-08-25T10:21:04.378Z</time>
      </trkpt>
      <trkpt lat="49.14777" lon="4.08044">
        <ele>241.2</ele>
        <time>2020-08-25T10:21:05.461Z</time>
      </trkpt>
      <trkpt lat="49.14789" lon="4.0805">
        <ele>240.2</ele>
        <time>2020-08-25T10:21:06.643Z</time>
      </trkpt>
      <trkpt lat="49.14802" lon="4.08056">
        <ele>238.4</ele>
        <time>2020-08-25T10:21:07.818Z</time>
      </trkpt>
      <trkpt lat="49.14816" lon="4.08063">
        <ele>237.2</ele>
        <time>2020-08-25T10:21:09.078Z</time>
      </trkpt>
      <trkpt lat="49.1483" lon="4.08069">
        <ele>235.6</ele>
        <time>2020-08-25T10:21:10.384Z</time>
      </trkpt>
      <trkpt lat="49.14844" lon="4.08076">
        <ele>233.6</ele>
        <time>2020-08-25T10:21:11.681Z</time>
      </trkpt>
      <trkpt lat="49.14858" lon="4.08082">
        <ele>232.2</ele>
        <time>2020-08-25T10:21:13.015Z</time>
      </trkpt>
      <trkpt lat="49.14872" lon="4.08088">
        <ele>230.6</ele>
        <time>2020-08-25T10:21:14.343Z</time>
      </trkpt>
      <trkpt lat="49.14887" lon="4.08095">
        <ele>229.6</ele>
        <time>2020-08-25T10:21:15.581Z</time>
      </trkpt>
      <trkpt lat="49.14901" lon="4.08102">
        <ele>228.2</ele>
        <time>2020-08-25T10:21:16.902Z</time>
      </trkpt>
      <trkpt lat="49.14915" lon="4.08108">
        <ele>226</ele>
        <time>2020-08-25T10:21:18.164Z</time>
      </trkpt>
      <trkpt lat="49.14928" lon="4.08114">
        <ele>224.2</ele>
        <time>2020-08-25T10:21:19.356Z</time>
      </trkpt>
      <trkpt lat="49.14939" lon="4.08118">
        <ele>224.2</ele>
        <time>2020-08-25T10:21:21.522Z</time>
      </trkpt>
      <trkpt lat="49.14962" lon="4.08112">
        <ele>221</ele>
        <time>2020-08-25T10:21:23.542Z</time>
      </trkpt>
      <trkpt lat="49.14983" lon="4.08091">
        <ele>217</ele>
        <time>2020-08-25T10:21:25.759Z</time>
      </trkpt>
      <trkpt lat="49.14992" lon="4.08079">
        <ele>214.6</ele>
        <time>2020-08-25T10:21:26.853Z</time>
      </trkpt>
      <trkpt lat="49.15001" lon="4.08067">
        <ele>212.4</ele>
        <time>2020-08-25T10:21:27.892Z</time>
      </trkpt>
      <trkpt lat="49.15015" lon="4.08046">
        <ele>208</ele>
        <time>2020-08-25T10:21:29.638Z</time>
      </trkpt>
      <trkpt lat="49.1503" lon="4.08039">
        <ele>205.8</ele>
        <time>2020-08-25T10:21:31.061Z</time>
      </trkpt>
      <trkpt lat="49.1504" lon="4.08043">
        <ele>205</ele>
        <time>2020-08-25T10:21:31.914Z</time>
      </trkpt>
      <trkpt lat="49.15049" lon="4.08051">
        <ele>204.2</ele>
        <time>2020-08-25T10:21:32.848Z</time>
      </trkpt>
      <trkpt lat="49.15058" lon="4.08061">
        <ele>202.8</ele>
        <time>2020-08-25T10:21:33.864Z</time>
      </trkpt>
      <trkpt lat="49.15068" lon="4.08073">
        <ele>201</ele>
        <time>2020-08-25T10:21:34.962Z</time>
      </trkpt>
      <trkpt lat="49.15078" lon="4.08086">
        <ele>199</ele>
        <time>2020-08-25T10:21:36.130Z</time>
      </trkpt>
      <trkpt lat="49.15088" lon="4.081">
        <ele>198</ele>
        <time>2020-08-25T10:21:37.363Z</time>
      </trkpt>
      <trkpt lat="49.15099" lon="4.08114">
        <ele>197.2</ele>
        <time>2020-08-25T10:21:38.652Z</time>
      </trkpt>
      <trkpt lat="49.1511" lon="4.08128">
        <ele>197</ele>
        <time>2020-08-25T10:21:40.603Z</time>
      </trkpt>
      <trkpt lat="49.15121" lon="4.08141">
        <ele>196.4</ele>
        <time>2020-08-25T10:21:41.946Z</time>
      </trkpt>
      <trkpt lat="49.15141" lon="4.08162">
        <ele>192.4</ele>
        <time>2020-08-25T10:21:44.122Z</time>
      </trkpt>
      <trkpt lat="49.15152" lon="4.08168">
        <ele>190</ele>
        <time>2020-08-25T10:21:45.126Z</time>
      </trkpt>
      <trkpt lat="49.15163" lon="4.08169">
        <ele>187.6</ele>
        <time>2020-08-25T10:21:46.130Z</time>
      </trkpt>
      <trkpt lat="49.15173" lon="4.08168">
        <ele>187.6</ele>
        <time>2020-08-25T10:21:47.922Z</time>
      </trkpt>
      <trkpt lat="49.15189" lon="4.08163">
        <ele>183.4</ele>
        <time>2020-08-25T10:21:49.342Z</time>
      </trkpt>
      <trkpt lat="49.15196" lon="4.08159">
        <ele>180.6</ele>
        <time>2020-08-25T10:21:49.986Z</time>
      </trkpt>
      <trkpt lat="49.15217" lon="4.08145">
        <ele>175.4</ele>
        <time>2020-08-25T10:21:52.029Z</time>
      </trkpt>
      <trkpt lat="49.15231" lon="4.08133">
        <ele>172.8</ele>
        <time>2020-08-25T10:21:53.448Z</time>
      </trkpt>
      <trkpt lat="49.15237" lon="4.08126">
        <ele>171.6</ele>
        <time>2020-08-25T10:21:54.111Z</time>
      </trkpt>
      <trkpt lat="49.15247" lon="4.08109">
        <ele>169.6</ele>
        <time>2020-08-25T10:21:55.446Z</time>
      </trkpt>
      <trkpt lat="49.15254" lon="4.08088">
        <ele>168.6</ele>
        <time>2020-08-25T10:21:56.758Z</time>
      </trkpt>
      <trkpt lat="49.15259" lon="4.08077">
        <ele>168.2</ele>
        <time>2020-08-25T10:21:57.524Z</time>
      </trkpt>
      <trkpt lat="49.15267" lon="4.08057">
        <ele>167</ele>
        <time>2020-08-25T10:21:58.952Z</time>
      </trkpt>
      <trkpt lat="49.15272" lon="4.08048">
        <ele>166.6</ele>
        <time>2020-08-25T10:21:59.622Z</time>
      </trkpt>
      <trkpt lat="49.15286" lon="4.08037">
        <ele>164.8</ele>
        <time>2020-08-25T10:22:00.961Z</time>
      </trkpt>
      <trkpt lat="49.15303" lon="4.08034">
        <ele>163</ele>
        <time>2020-08-25T10:22:02.521Z</time>
      </trkpt>
      <trkpt lat="49.15312" lon="4.08033">
        <ele>162.2</ele>
        <time>2020-08-25T10:22:03.331Z</time>
      </trkpt>
      <trkpt lat="49.15321" lon="4.08031">
        <ele>161.2</ele>
        <time>2020-08-25T10:22:04.134Z</time>
      </trkpt>
      <trkpt lat="49.1534" lon="4.08028">
        <ele>160.4</ele>
        <time>2020-08-25T10:22:06.034Z</time>
      </trkpt>
      <trkpt lat="49.1535" lon="4.08025">
        <ele>159.6</ele>
        <time>2020-08-25T10:22:06.941Z</time>
      </trkpt>
      <trkpt lat="49.1536" lon="4.08021">
        <ele>158.8</ele>
        <time>2020-08-25T10:22:07.820Z</time>
      </trkpt>
      <trkpt lat="49.15377" lon="4.08015">
        <ele>157.2</ele>
        <time>2020-08-25T10:22:09.428Z</time>
      </trkpt>
      <trkpt lat="49.15385" lon="4.08009">
        <ele>156.2</ele>
        <time>2020-08-25T10:22:10.190Z</time>
      </trkpt>
      <trkpt lat="49.15393" lon="4.08002">
        <ele>154.4</ele>
        <time>2020-08-25T10:22:10.988Z</time>
      </trkpt>
      <trkpt lat="49.15409" lon="4.07988">
        <ele>152.2</ele>
        <time>2020-08-25T10:22:12.617Z</time>
      </trkpt>
      <trkpt lat="49.15417" lon="4.07985">
        <ele>151.2</ele>
        <time>2020-08-25T10:22:13.410Z</time>
      </trkpt>
      <trkpt lat="49.15427" lon="4.07983">
        <ele>149.6</ele>
        <time>2020-08-25T10:22:14.241Z</time>
      </trkpt>
      <trkpt lat="49.15436" lon="4.07983">
        <ele>148.4</ele>
        <time>2020-08-25T10:22:15.076Z</time>
      </trkpt>
      <trkpt lat="49.15454" lon="4.07987">
        <ele>146.8</ele>
        <time>2020-08-25T10:22:16.727Z</time>
      </trkpt>
      <trkpt lat="49.15478" lon="4.07998">
        <ele>144</ele>
        <time>2020-08-25T10:22:18.894Z</time>
      </trkpt>
      <trkpt lat="49.15485" lon="4.08001">
        <ele>143.4</ele>
        <time>2020-08-25T10:22:19.524Z</time>
      </trkpt>
      <trkpt lat="49.15502" lon="4.08005">
        <ele>141.6</ele>
        <time>2020-08-25T10:22:21.077Z</time>
      </trkpt>
      <trkpt lat="49.15507" lon="4.08002">
        <ele>141.2</ele>
        <time>2020-08-25T10:22:21.584Z</time>
      </trkpt>
      <trkpt lat="49.15518" lon="4.07994">
        <ele>140.8</ele>
        <time>2020-08-25T10:22:22.899Z</time>
      </trkpt>
      <trkpt lat="49.15521" lon="4.07986">
        <ele>140.2</ele>
        <time>2020-08-25T10:22:23.410Z</time>
      </trkpt>
      <trkpt lat="49.15523" lon="4.07978">
        <ele>140</ele>
        <time>2020-08-25T10:22:24.004Z</time>
      </trkpt>
      <trkpt lat="49.15526" lon="4.07953">
        <ele>139.2</ele>
        <time>2020-08-25T10:22:25.573Z</time>
      </trkpt>
      <trkpt lat="49.15534" lon="4.07893">
        <ele>139</ele>
        <time>2020-08-25T10:22:32.216Z</time>
      </trkpt>
      <trkpt lat="49.15545" lon="4.07835">
        <ele>139</ele>
        <time>2020-08-25T10:22:39.225Z</time>
      </trkpt>
      <trkpt lat="49.15559" lon="4.07765">
        <ele>139.2</ele>
        <time>2020-08-25T10:22:48.145Z</time>
      </trkpt>
      <trkpt lat="49.15562" lon="4.07748">
        <ele>139.4</ele>
        <time>2020-08-25T10:22:50.601Z</time>
      </trkpt>
      <trkpt lat="49.15577" lon="4.07674">
        <ele>140.2</ele>
        <time>2020-08-25T10:23:01.222Z</time>
      </trkpt>
      <trkpt lat="49.15593" lon="4.0759">
        <ele>141.6</ele>
        <time>2020-08-25T10:23:14.421Z</time>
      </trkpt>
      <trkpt lat="49.15598" lon="4.07565">
        <ele>141.8</ele>
        <time>2020-08-25T10:23:17.861Z</time>
      </trkpt>
      <trkpt lat="49.15606" lon="4.07522">
        <ele>142</ele>
        <time>2020-08-25T10:23:23.399Z</time>
      </trkpt>
      <trkpt lat="49.15609" lon="4.07503">
        <ele>142</ele>
        <time>2020-08-25T10:23:25.616Z</time>
      </trkpt>
      <trkpt lat="49.15617" lon="4.07454">
        <ele>142</ele>
        <time>2020-08-25T10:23:31.585Z</time>
      </trkpt>
      <trkpt lat="49.15622" lon="4.07423">
        <ele>141.8</ele>
        <time>2020-08-25T10:23:34.612Z</time>
      </trkpt>
      <trkpt lat="49.15628" lon="4.07379">
        <ele>141.6</ele>
        <time>2020-08-25T10:23:39.337Z</time>
      </trkpt>
      <trkpt lat="49.15638" lon="4.07315">
        <ele>140.2</ele>
        <time>2020-08-25T10:23:44.077Z</time>
      </trkpt>
      <trkpt lat="49.15643" lon="4.07286">
        <ele>139.8</ele>
        <time>2020-08-25T10:23:46.546Z</time>
      </trkpt>
      <trkpt lat="49.15649" lon="4.0725">
        <ele>140</ele>
        <time>2020-08-25T10:23:51.212Z</time>
      </trkpt>
      <trkpt lat="49.1565" lon="4.07242">
        <ele>139.8</ele>
        <time>2020-08-25T10:23:51.808Z</time>
      </trkpt>
      <trkpt lat="49.15653" lon="4.07225">
        <ele>139.8</ele>
        <time>2020-08-25T10:23:53.742Z</time>
      </trkpt>
      <trkpt lat="49.15656" lon="4.07203">
        <ele>140.2</ele>
        <time>2020-08-25T10:23:57.351Z</time>
      </trkpt>
      <trkpt lat="49.15661" lon="4.07174">
        <ele>140.8</ele>
        <time>2020-08-25T10:24:02.199Z</time>
      </trkpt>
      <trkpt lat="49.15662" lon="4.07167">
        <ele>141.4</ele>
        <time>2020-08-25T10:24:05.160Z</time>
      </trkpt>
      <trkpt lat="49.15666" lon="4.07146">
        <ele>142.6</ele>
        <time>2020-08-25T10:24:10.855Z</time>
      </trkpt>
      <trkpt lat="49.15671" lon="4.07112">
        <ele>143.8</ele>
        <time>2020-08-25T10:24:18.070Z</time>
      </trkpt>
      <trkpt lat="49.15672" lon="4.07106">
        <ele>144.4</ele>
        <time>2020-08-25T10:24:21.157Z</time>
      </trkpt>
      <trkpt lat="49.15678" lon="4.07065">
        <ele>146</ele>
        <time>2020-08-25T10:24:30.160Z</time>
      </trkpt>
      <trkpt lat="49.15682" lon="4.07039">
        <ele>147</ele>
        <time>2020-08-25T10:24:35.960Z</time>
      </trkpt>
      <trkpt lat="49.15685" lon="4.07019">
        <ele>147.4</ele>
        <time>2020-08-25T10:24:39.247Z</time>
      </trkpt>
      <trkpt lat="49.15691" lon="4.06981">
        <ele>148.2</ele>
        <time>2020-08-25T10:24:45.659Z</time>
      </trkpt>
      <trkpt lat="49.15692" lon="4.06975">
        <ele>148.4</ele>
        <time>2020-08-25T10:24:46.942Z</time>
      </trkpt>
      <trkpt lat="49.15694" lon="4.06962">
        <ele>148.8</ele>
        <time>2020-08-25T10:24:49.507Z</time>
      </trkpt>
      <trkpt lat="49.157" lon="4.06925">
        <ele>150.2</ele>
        <time>2020-08-25T10:24:57.674Z</time>
      </trkpt>
      <trkpt lat="49.15702" lon="4.06913">
        <ele>150.8</ele>
        <time>2020-08-25T10:25:00.720Z</time>
      </trkpt>
      <trkpt lat="49.15704" lon="4.069">
        <ele>151.8</ele>
        <time>2020-08-25T10:25:05.588Z</time>
      </trkpt>
      <trkpt lat="49.15708" lon="4.0687">
        <ele>152.6</ele>
        <time>2020-08-25T10:25:11.278Z</time>
      </trkpt>
      <trkpt lat="49.15712" lon="4.06847">
        <ele>153.8</ele>
        <time>2020-08-25T10:25:17.209Z</time>
      </trkpt>
      <trkpt lat="49.15714" lon="4.06835">
        <ele>154.2</ele>
        <time>2020-08-25T10:25:19.641Z</time>
      </trkpt>
      <trkpt lat="49.15719" lon="4.06802">
        <ele>156</ele>
        <time>2020-08-25T10:25:28.405Z</time>
      </trkpt>
      <trkpt lat="49.1572" lon="4.0679">
        <ele>156</ele>
        <time>2020-08-25T10:25:29.738Z</time>
      </trkpt>
      <trkpt lat="49.15721" lon="4.06785">
        <ele>156.6</ele>
        <time>2020-08-25T10:25:32.338Z</time>
      </trkpt>
      <trkpt lat="49.15727" lon="4.06742">
        <ele>158</ele>
        <time>2020-08-25T10:25:41.186Z</time>
      </trkpt>
      <trkpt lat="49.15734" lon="4.0669">
        <ele>159.4</ele>
        <time>2020-08-25T10:25:51.042Z</time>
      </trkpt>
      <trkpt lat="49.15739" lon="4.06645">
        <ele>159.4</ele>
        <time>2020-08-25T10:25:56.394Z</time>
      </trkpt>
      <trkpt lat="49.1574" lon="4.06637">
        <ele>159.2</ele>
        <time>2020-08-25T10:25:56.999Z</time>
      </trkpt>
      <trkpt lat="49.15744" lon="4.06619">
        <ele>159</ele>
        <time>2020-08-25T10:25:58.609Z</time>
      </trkpt>
      <trkpt lat="49.15747" lon="4.06599">
        <ele>159</ele>
        <time>2020-08-25T10:26:00.964Z</time>
      </trkpt>
      <trkpt lat="49.15749" lon="4.06589">
        <ele>159</ele>
        <time>2020-08-25T10:26:02.220Z</time>
      </trkpt>
      <trkpt lat="49.15751" lon="4.06567">
        <ele>158.6</ele>
        <time>2020-08-25T10:26:03.917Z</time>
      </trkpt>
      <trkpt lat="49.15751" lon="4.06554">
        <ele>158.4</ele>
        <time>2020-08-25T10:26:04.855Z</time>
      </trkpt>
      <trkpt lat="49.15751" lon="4.06542">
        <ele>158.2</ele>
        <time>2020-08-25T10:26:05.853Z</time>
      </trkpt>
      <trkpt lat="49.15751" lon="4.06529">
        <ele>158</ele>
        <time>2020-08-25T10:26:06.880Z</time>
      </trkpt>
      <trkpt lat="49.15751" lon="4.06502">
        <ele>157.2</ele>
        <time>2020-08-25T10:26:08.585Z</time>
      </trkpt>
      <trkpt lat="49.15751" lon="4.06489">
        <ele>156.2</ele>
        <time>2020-08-25T10:26:09.334Z</time>
      </trkpt>
      <trkpt lat="49.15751" lon="4.06464">
        <ele>154.8</ele>
        <time>2020-08-25T10:26:10.780Z</time>
      </trkpt>
      <trkpt lat="49.15751" lon="4.06452">
        <ele>154.2</ele>
        <time>2020-08-25T10:26:11.471Z</time>
      </trkpt>
      <trkpt lat="49.15752" lon="4.06441">
        <ele>153</ele>
        <time>2020-08-25T10:26:12.094Z</time>
      </trkpt>
      <trkpt lat="49.15755" lon="4.06424">
        <ele>151.8</ele>
        <time>2020-08-25T10:26:13.153Z</time>
      </trkpt>
      <trkpt lat="49.15756" lon="4.06416">
        <ele>151</ele>
        <time>2020-08-25T10:26:13.617Z</time>
      </trkpt>
      <trkpt lat="49.15755" lon="4.06409">
        <ele>150.2</ele>
        <time>2020-08-25T10:26:14.047Z</time>
      </trkpt>
      <trkpt lat="49.15751" lon="4.06404">
        <ele>149.4</ele>
        <time>2020-08-25T10:26:14.495Z</time>
      </trkpt>
      <trkpt lat="49.15742" lon="4.06398">
        <ele>148.4</ele>
        <time>2020-08-25T10:26:15.416Z</time>
      </trkpt>
      <trkpt lat="49.15726" lon="4.06383">
        <ele>147</ele>
        <time>2020-08-25T10:26:17.036Z</time>
      </trkpt>
      <trkpt lat="49.15716" lon="4.06375">
        <ele>146.8</ele>
        <time>2020-08-25T10:26:18.585Z</time>
      </trkpt>
      <trkpt lat="49.15706" lon="4.06365">
        <ele>146.6</ele>
        <time>2020-08-25T10:26:20.118Z</time>
      </trkpt>
      <trkpt lat="49.15696" lon="4.06355">
        <ele>146.6</ele>
        <time>2020-08-25T10:26:22.152Z</time>
      </trkpt>
      <trkpt lat="49.15692" lon="4.0635">
        <ele>146.6</ele>
        <time>2020-08-25T10:26:23.146Z</time>
      </trkpt>
      <trkpt lat="49.15683" lon="4.0634">
        <ele>146.6</ele>
        <time>2020-08-25T10:26:25.135Z</time>
      </trkpt>
      <trkpt lat="49.1567" lon="4.06325">
        <ele>146.6</ele>
        <time>2020-08-25T10:26:27.947Z</time>
      </trkpt>
      <trkpt lat="49.15667" lon="4.06313">
        <ele>146.8</ele>
        <time>2020-08-25T10:26:29.929Z</time>
      </trkpt>
      <trkpt lat="49.15668" lon="4.06299">
        <ele>146.6</ele>
        <time>2020-08-25T10:26:31.065Z</time>
      </trkpt>
      <trkpt lat="49.1567" lon="4.06293">
        <ele>146.8</ele>
        <time>2020-08-25T10:26:32.465Z</time>
      </trkpt>
      <trkpt lat="49.15673" lon="4.06286">
        <ele>147</ele>
        <time>2020-08-25T10:26:33.867Z</time>
      </trkpt>
      <trkpt lat="49.15682" lon="4.06276">
        <ele>147.2</ele>
        <time>2020-08-25T10:26:36.234Z</time>
      </trkpt>
      <trkpt lat="49.15699" lon="4.06264">
        <ele>148.2</ele>
        <time>2020-08-25T10:26:42.249Z</time>
      </trkpt>
      <trkpt lat="49.15705" lon="4.06258">
        <ele>148.2</ele>
        <time>2020-08-25T10:26:43.460Z</time>
      </trkpt>
      <trkpt lat="49.1571" lon="4.06252">
        <ele>148.2</ele>
        <time>2020-08-25T10:26:44.660Z</time>
      </trkpt>
      <trkpt lat="49.15731" lon="4.06226">
        <ele>148</ele>
        <time>2020-08-25T10:26:48.697Z</time>
      </trkpt>
      <trkpt lat="49.15747" lon="4.06202">
        <ele>148.2</ele>
        <time>2020-08-25T10:26:53.010Z</time>
      </trkpt>
      <trkpt lat="49.15752" lon="4.06194">
        <ele>147.8</ele>
        <time>2020-08-25T10:26:53.691Z</time>
      </trkpt>
      <trkpt lat="49.15763" lon="4.06176">
        <ele>147.2</ele>
        <time>2020-08-25T10:26:55.331Z</time>
      </trkpt>
      <trkpt lat="49.15784" lon="4.06139">
        <ele>146</ele>
        <time>2020-08-25T10:26:58.713Z</time>
      </trkpt>
      <trkpt lat="49.15794" lon="4.06119">
        <ele>145.8</ele>
        <time>2020-08-25T10:27:00.923Z</time>
      </trkpt>
      <trkpt lat="49.15799" lon="4.0611">
        <ele>145.2</ele>
        <time>2020-08-25T10:27:01.624Z</time>
      </trkpt>
      <trkpt lat="49.15818" lon="4.06071">
        <ele>143.2</ele>
        <time>2020-08-25T10:27:04.287Z</time>
      </trkpt>
      <trkpt lat="49.15837" lon="4.06032">
        <ele>142.2</ele>
        <time>2020-08-25T10:27:07.808Z</time>
      </trkpt>
      <trkpt lat="49.15842" lon="4.06023">
        <ele>142</ele>
        <time>2020-08-25T10:27:08.738Z</time>
      </trkpt>
      <trkpt lat="49.15852" lon="4.06004">
        <ele>141.8</ele>
        <time>2020-08-25T10:27:10.851Z</time>
      </trkpt>
      <trkpt lat="49.15856" lon="4.05995">
        <ele>141.6</ele>
        <time>2020-08-25T10:27:11.745Z</time>
      </trkpt>
      <trkpt lat="49.15886" lon="4.05934">
        <ele>141.6</ele>
        <time>2020-08-25T10:27:20.700Z</time>
      </trkpt>
      <trkpt lat="49.15894" lon="4.05918">
        <ele>141.8</ele>
        <time>2020-08-25T10:27:23.396Z</time>
      </trkpt>
      <trkpt lat="49.15911" lon="4.0588">
        <ele>141.8</ele>
        <time>2020-08-25T10:27:28.737Z</time>
      </trkpt>
      <trkpt lat="49.15921" lon="4.05851">
        <ele>142.2</ele>
        <time>2020-08-25T10:27:33.391Z</time>
      </trkpt>
      <trkpt lat="49.15926" lon="4.05837">
        <ele>142.8</ele>
        <time>2020-08-25T10:27:36.832Z</time>
      </trkpt>
      <trkpt lat="49.15931" lon="4.05823">
        <ele>143</ele>
        <time>2020-08-25T10:27:39.090Z</time>
      </trkpt>
      <trkpt lat="49.15935" lon="4.05809">
        <ele>143.4</ele>
        <time>2020-08-25T10:27:41.928Z</time>
      </trkpt>
      <trkpt lat="49.15946" lon="4.05774">
        <ele>145</ele>
        <time>2020-08-25T10:27:50.583Z</time>
      </trkpt>
      <trkpt lat="49.15951" lon="4.05759">
        <ele>145.6</ele>
        <time>2020-08-25T10:27:54.008Z</time>
      </trkpt>
      <trkpt lat="49.15975" lon="4.05693">
        <ele>147.4</ele>
        <time>2020-08-25T10:28:07.268Z</time>
      </trkpt>
      <trkpt lat="49.16002" lon="4.05638">
        <ele>147.4</ele>
        <time>2020-08-25T10:28:15.307Z</time>
      </trkpt>
      <trkpt lat="49.1602" lon="4.05603">
        <ele>147.4</ele>
        <time>2020-08-25T10:28:20.561Z</time>
      </trkpt>
      <trkpt lat="49.16039" lon="4.05567">
        <ele>147.2</ele>
        <time>2020-08-25T10:28:25.505Z</time>
      </trkpt>
      <trkpt lat="49.1607" lon="4.05511">
        <ele>145.6</ele>
        <time>2020-08-25T10:28:30.682Z</time>
      </trkpt>
      <trkpt lat="49.16078" lon="4.05496">
        <ele>145.6</ele>
        <time>2020-08-25T10:28:32.936Z</time>
      </trkpt>
      <trkpt lat="49.16093" lon="4.05467">
        <ele>145.6</ele>
        <time>2020-08-25T10:28:37.319Z</time>
      </trkpt>
      <trkpt lat="49.16105" lon="4.05445">
        <ele>145.6</ele>
        <time>2020-08-25T10:28:40.647Z</time>
      </trkpt>
      <trkpt lat="49.16109" lon="4.05438">
        <ele>145.8</ele>
        <time>2020-08-25T10:28:42.199Z</time>
      </trkpt>
      <trkpt lat="49.16113" lon="4.05431">
        <ele>146</ele>
        <time>2020-08-25T10:28:43.759Z</time>
      </trkpt>
      <trkpt lat="49.16137" lon="4.05385">
        <ele>148</ele>
        <time>2020-08-25T10:28:56.007Z</time>
      </trkpt>
      <trkpt lat="49.16152" lon="4.05357">
        <ele>148.8</ele>
        <time>2020-08-25T10:29:02.100Z</time>
      </trkpt>
      <trkpt lat="49.16163" lon="4.05336">
        <ele>149.6</ele>
        <time>2020-08-25T10:29:07.449Z</time>
      </trkpt>
      <trkpt lat="49.16173" lon="4.05316">
        <ele>151</ele>
        <time>2020-08-25T10:29:14.176Z</time>
      </trkpt>
      <trkpt lat="49.16184" lon="4.05295">
        <ele>152</ele>
        <time>2020-08-25T10:29:19.767Z</time>
      </trkpt>
      <trkpt lat="49.16192" lon="4.0528">
        <ele>152.4</ele>
        <time>2020-08-25T10:29:22.942Z</time>
      </trkpt>
      <trkpt lat="49.16202" lon="4.05261">
        <ele>153.2</ele>
        <time>2020-08-25T10:29:28.050Z</time>
      </trkpt>
      <trkpt lat="49.1622" lon="4.05226">
        <ele>155.4</ele>
        <time>2020-08-25T10:29:39.026Z</time>
      </trkpt>
      <trkpt lat="49.16236" lon="4.05196">
        <ele>156.4</ele>
        <time>2020-08-25T10:29:46.086Z</time>
      </trkpt>
      <trkpt lat="49.16247" lon="4.05176">
        <ele>157</ele>
        <time>2020-08-25T10:29:50.591Z</time>
      </trkpt>
      <trkpt lat="49.1626" lon="4.05149">
        <ele>158.6</ele>
        <time>2020-08-25T10:29:58.639Z</time>
      </trkpt>
      <trkpt lat="49.16269" lon="4.05133">
        <ele>159.6</ele>
        <time>2020-08-25T10:30:03.686Z</time>
      </trkpt>
      <trkpt lat="49.16272" lon="4.05127">
        <ele>159.8</ele>
        <time>2020-08-25T10:30:05.065Z</time>
      </trkpt>
      <trkpt lat="49.16286" lon="4.05099">
        <ele>161.2</ele>
        <time>2020-08-25T10:30:12.808Z</time>
      </trkpt>
      <trkpt lat="49.16297" lon="4.05078">
        <ele>162.6</ele>
        <time>2020-08-25T10:30:19.721Z</time>
      </trkpt>
      <trkpt lat="49.16314" lon="4.05043">
        <ele>164</ele>
        <time>2020-08-25T10:30:28.525Z</time>
      </trkpt>
      <trkpt lat="49.16323" lon="4.05024">
        <ele>164.8</ele>
        <time>2020-08-25T10:30:33.296Z</time>
      </trkpt>
      <trkpt lat="49.16337" lon="4.04991">
        <ele>165.6</ele>
        <time>2020-08-25T10:30:39.718Z</time>
      </trkpt>
      <trkpt lat="49.16341" lon="4.04977">
        <ele>165.8</ele>
        <time>2020-08-25T10:30:41.923Z</time>
      </trkpt>
      <trkpt lat="49.16343" lon="4.0497">
        <ele>165.8</ele>
        <time>2020-08-25T10:30:42.826Z</time>
      </trkpt>
      <trkpt lat="49.16349" lon="4.04938">
        <ele>165.8</ele>
        <time>2020-08-25T10:30:46.729Z</time>
      </trkpt>
      <trkpt lat="49.16351" lon="4.0492">
        <ele>165.8</ele>
        <time>2020-08-25T10:30:48.855Z</time>
      </trkpt>
      <trkpt lat="49.16354" lon="4.04891">
        <ele>165.8</ele>
        <time>2020-08-25T10:30:52.330Z</time>
      </trkpt>
      <trkpt lat="49.16357" lon="4.04859">
        <ele>165.4</ele>
        <time>2020-08-25T10:30:55.048Z</time>
      </trkpt>
      <trkpt lat="49.16359" lon="4.04836">
        <ele>165</ele>
        <time>2020-08-25T10:30:56.841Z</time>
      </trkpt>
      <trkpt lat="49.1636" lon="4.04824">
        <ele>165</ele>
        <time>2020-08-25T10:30:58.186Z</time>
      </trkpt>
      <trkpt lat="49.16363" lon="4.04769">
        <ele>162.8</ele>
        <time>2020-08-25T10:31:01.296Z</time>
      </trkpt>
      <trkpt lat="49.16362" lon="4.04758">
        <ele>162.4</ele>
        <time>2020-08-25T10:31:01.892Z</time>
      </trkpt>
      <trkpt lat="49.1636" lon="4.0473">
        <ele>161</ele>
        <time>2020-08-25T10:31:03.524Z</time>
      </trkpt>
      <trkpt lat="49.16359" lon="4.04721">
        <ele>160.6</ele>
        <time>2020-08-25T10:31:04.021Z</time>
      </trkpt>
      <trkpt lat="49.16358" lon="4.04712">
        <ele>160.6</ele>
        <time>2020-08-25T10:31:05.121Z</time>
      </trkpt>
      <trkpt lat="49.16355" lon="4.04684">
        <ele>160.4</ele>
        <time>2020-08-25T10:31:07.684Z</time>
      </trkpt>
      <trkpt lat="49.16353" lon="4.04649">
        <ele>160.4</ele>
        <time>2020-08-25T10:31:11.789Z</time>
      </trkpt>
      <trkpt lat="49.16353" lon="4.04633">
        <ele>160.4</ele>
        <time>2020-08-25T10:31:13.742Z</time>
      </trkpt>
      <trkpt lat="49.16354" lon="4.04616">
        <ele>161</ele>
        <time>2020-08-25T10:31:17.234Z</time>
      </trkpt>
      <trkpt lat="49.16354" lon="4.04601">
        <ele>162.2</ele>
        <time>2020-08-25T10:31:22.958Z</time>
      </trkpt>
      <trkpt lat="49.16355" lon="4.04593">
        <ele>162.6</ele>
        <time>2020-08-25T10:31:24.977Z</time>
      </trkpt>
      <trkpt lat="49.1636" lon="4.04592">
        <ele>162.8</ele>
        <time>2020-08-25T10:31:26.376Z</time>
      </trkpt>
      <trkpt lat="49.16365" lon="4.04593">
        <ele>163.6</ele>
        <time>2020-08-25T10:31:29.346Z</time>
      </trkpt>
      <trkpt lat="49.16369" lon="4.04593">
        <ele>164.4</ele>
        <time>2020-08-25T10:31:32.247Z</time>
      </trkpt>
      <trkpt lat="49.16373" lon="4.04594">
        <ele>164.4</ele>
        <time>2020-08-25T10:31:33.000Z</time>
      </trkpt>
      <trkpt lat="49.16397" lon="4.04594">
        <ele>164.6</ele>
        <time>2020-08-25T10:31:37.662Z</time>
      </trkpt>
      <trkpt lat="49.16404" lon="4.04594">
        <ele>164.4</ele>
        <time>2020-08-25T10:31:38.463Z</time>
      </trkpt>
      <trkpt lat="49.16412" lon="4.04594">
        <ele>164.4</ele>
        <time>2020-08-25T10:31:39.875Z</time>
      </trkpt>
      <trkpt lat="49.16421" lon="4.04595">
        <ele>164.4</ele>
        <time>2020-08-25T10:31:41.420Z</time>
      </trkpt>
      <trkpt lat="49.16429" lon="4.04598">
        <ele>164.2</ele>
        <time>2020-08-25T10:31:42.481Z</time>
      </trkpt>
      <trkpt lat="49.16448" lon="4.04606">
        <ele>163</ele>
        <time>2020-08-25T10:31:44.102Z</time>
      </trkpt>
      <trkpt lat="49.16478" lon="4.04618">
        <ele>161.6</ele>
        <time>2020-08-25T10:31:47.100Z</time>
      </trkpt>
      <trkpt lat="49.16488" lon="4.04622">
        <ele>161.4</ele>
        <time>2020-08-25T10:31:48.476Z</time>
      </trkpt>
      <trkpt lat="49.16519" lon="4.04639">
        <ele>159.8</ele>
        <time>2020-08-25T10:31:51.539Z</time>
      </trkpt>
      <trkpt lat="49.16529" lon="4.04646">
        <ele>159.2</ele>
        <time>2020-08-25T10:31:52.522Z</time>
      </trkpt>
      <trkpt lat="49.16539" lon="4.04653">
        <ele>158.6</ele>
        <time>2020-08-25T10:31:53.537Z</time>
      </trkpt>
      <trkpt lat="49.1656" lon="4.04666">
        <ele>157.2</ele>
        <time>2020-08-25T10:31:55.462Z</time>
      </trkpt>
      <trkpt lat="49.16571" lon="4.04672">
        <ele>156.8</ele>
        <time>2020-08-25T10:31:56.694Z</time>
      </trkpt>
      <trkpt lat="49.16581" lon="4.04679">
        <ele>156</ele>
        <time>2020-08-25T10:31:57.715Z</time>
      </trkpt>
      <trkpt lat="49.16632" lon="4.04712">
        <ele>151.6</ele>
        <time>2020-08-25T10:32:02.568Z</time>
      </trkpt>
      <trkpt lat="49.1669" lon="4.04747">
        <ele>148.4</ele>
        <time>2020-08-25T10:32:08.278Z</time>
      </trkpt>
      <trkpt lat="49.16722" lon="4.04764">
        <ele>147.4</ele>
        <time>2020-08-25T10:32:12.185Z</time>
      </trkpt>
      <trkpt lat="49.1673" lon="4.04769">
        <ele>147</ele>
        <time>2020-08-25T10:32:13.055Z</time>
      </trkpt>
      <trkpt lat="49.16738" lon="4.04776">
        <ele>146.6</ele>
        <time>2020-08-25T10:32:13.935Z</time>
      </trkpt>
      <trkpt lat="49.16755" lon="4.04789">
        <ele>146.6</ele>
        <time>2020-08-25T10:32:17.349Z</time>
      </trkpt>
      <trkpt lat="49.16764" lon="4.04795">
        <ele>146.4</ele>
        <time>2020-08-25T10:32:18.636Z</time>
      </trkpt>
      <trkpt lat="49.16806" lon="4.04821">
        <ele>145.8</ele>
        <time>2020-08-25T10:32:24.762Z</time>
      </trkpt>
      <trkpt lat="49.16817" lon="4.04829">
        <ele>145.6</ele>
        <time>2020-08-25T10:32:26.279Z</time>
      </trkpt>
      <trkpt lat="49.16838" lon="4.04844">
        <ele>144</ele>
        <time>2020-08-25T10:32:28.398Z</time>
      </trkpt>
      <trkpt lat="49.16872" lon="4.04867">
        <ele>142</ele>
        <time>2020-08-25T10:32:31.747Z</time>
      </trkpt>
      <trkpt lat="49.16884" lon="4.04875">
        <ele>141.4</ele>
        <time>2020-08-25T10:32:32.946Z</time>
      </trkpt>
      <trkpt lat="49.16895" lon="4.04883">
        <ele>141</ele>
        <time>2020-08-25T10:32:34.352Z</time>
      </trkpt>
      <trkpt lat="49.16907" lon="4.04891">
        <ele>140.4</ele>
        <time>2020-08-25T10:32:35.571Z</time>
      </trkpt>
      <trkpt lat="49.16954" lon="4.04923">
        <ele>136.8</ele>
        <time>2020-08-25T10:32:40.127Z</time>
      </trkpt>
      <trkpt lat="49.16966" lon="4.0493">
        <ele>136.4</ele>
        <time>2020-08-25T10:32:41.577Z</time>
      </trkpt>
      <trkpt lat="49.16978" lon="4.04937">
        <ele>136.4</ele>
        <time>2020-08-25T10:32:43.915Z</time>
      </trkpt>
      <trkpt lat="49.17003" lon="4.04949">
        <ele>135</ele>
        <time>2020-08-25T10:32:46.286Z</time>
      </trkpt>
      <trkpt lat="49.17052" lon="4.04969">
        <ele>132.4</ele>
        <time>2020-08-25T10:32:50.927Z</time>
      </trkpt>
      <trkpt lat="49.17076" lon="4.04979">
        <ele>131.2</ele>
        <time>2020-08-25T10:32:53.234Z</time>
      </trkpt>
      <trkpt lat="49.17099" lon="4.0499">
        <ele>129</ele>
        <time>2020-08-25T10:32:55.384Z</time>
      </trkpt>
      <trkpt lat="49.1711" lon="4.04996">
        <ele>128.4</ele>
        <time>2020-08-25T10:32:56.506Z</time>
      </trkpt>
      <trkpt lat="49.17133" lon="4.05008">
        <ele>127.6</ele>
        <time>2020-08-25T10:32:59.116Z</time>
      </trkpt>
      <trkpt lat="49.17166" lon="4.05027">
        <ele>127</ele>
        <time>2020-08-25T10:33:03.681Z</time>
      </trkpt>
      <trkpt lat="49.17176" lon="4.05033">
        <ele>126.6</ele>
        <time>2020-08-25T10:33:04.862Z</time>
      </trkpt>
      <trkpt lat="49.17206" lon="4.05051">
        <ele>125.6</ele>
        <time>2020-08-25T10:33:08.494Z</time>
      </trkpt>
      <trkpt lat="49.17236" lon="4.05069">
        <ele>125</ele>
        <time>2020-08-25T10:33:12.536Z</time>
      </trkpt>
      <trkpt lat="49.17265" lon="4.05086">
        <ele>124.6</ele>
        <time>2020-08-25T10:33:16.827Z</time>
      </trkpt>
      <trkpt lat="49.17275" lon="4.05091">
        <ele>124.4</ele>
        <time>2020-08-25T10:33:18.146Z</time>
      </trkpt>
      <trkpt lat="49.17304" lon="4.05105">
        <ele>124.2</ele>
        <time>2020-08-25T10:33:23.109Z</time>
      </trkpt>
      <trkpt lat="49.17343" lon="4.05119">
        <ele>123.4</ele>
        <time>2020-08-25T10:33:28.153Z</time>
      </trkpt>
      <trkpt lat="49.17372" lon="4.0513">
        <ele>123.2</ele>
        <time>2020-08-25T10:33:32.954Z</time>
      </trkpt>
      <trkpt lat="49.17428" lon="4.0515">
        <ele>122.2</ele>
        <time>2020-08-25T10:33:40.406Z</time>
      </trkpt>
      <trkpt lat="49.17483" lon="4.05171">
        <ele>121.6</ele>
        <time>2020-08-25T10:33:48.541Z</time>
      </trkpt>
      <trkpt lat="49.17502" lon="4.05178">
        <ele>121.2</ele>
        <time>2020-08-25T10:33:50.891Z</time>
      </trkpt>
      <trkpt lat="49.1752" lon="4.05185">
        <ele>121.2</ele>
        <time>2020-08-25T10:33:54.232Z</time>
      </trkpt>
      <trkpt lat="49.17574" lon="4.05209">
        <ele>120.8</ele>
        <time>2020-08-25T10:34:03.249Z</time>
      </trkpt>
      <trkpt lat="49.17608" lon="4.05228">
        <ele>120.8</ele>
        <time>2020-08-25T10:34:09.823Z</time>
      </trkpt>
      <trkpt lat="49.17617" lon="4.05233">
        <ele>120.8</ele>
        <time>2020-08-25T10:34:11.435Z</time>
      </trkpt>
      <trkpt lat="49.17642" lon="4.05248">
        <ele>121</ele>
        <time>2020-08-25T10:34:16.590Z</time>
      </trkpt>
      <trkpt lat="49.17683" lon="4.05271">
        <ele>121.4</ele>
        <time>2020-08-25T10:34:25.191Z</time>
      </trkpt>
      <trkpt lat="49.17691" lon="4.05276">
        <ele>121.6</ele>
        <time>2020-08-25T10:34:27.190Z</time>
      </trkpt>
      <trkpt lat="49.177" lon="4.05281">
        <ele>121.4</ele>
        <time>2020-08-25T10:34:28.278Z</time>
      </trkpt>
      <trkpt lat="49.17708" lon="4.05286">
        <ele>121.6</ele>
        <time>2020-08-25T10:34:30.296Z</time>
      </trkpt>
      <trkpt lat="49.17759" lon="4.05316">
        <ele>121.8</ele>
        <time>2020-08-25T10:34:40.469Z</time>
      </trkpt>
      <trkpt lat="49.17777" lon="4.05326">
        <ele>121.8</ele>
        <time>2020-08-25T10:34:43.808Z</time>
      </trkpt>
      <trkpt lat="49.17786" lon="4.05331">
        <ele>121.6</ele>
        <time>2020-08-25T10:34:44.946Z</time>
      </trkpt>
      <trkpt lat="49.17803" lon="4.05341">
        <ele>121.4</ele>
        <time>2020-08-25T10:34:47.558Z</time>
      </trkpt>
      <trkpt lat="49.1782" lon="4.05351">
        <ele>121.4</ele>
        <time>2020-08-25T10:34:50.827Z</time>
      </trkpt>
      <trkpt lat="49.17853" lon="4.0537">
        <ele>121.2</ele>
        <time>2020-08-25T10:34:56.588Z</time>
      </trkpt>
      <trkpt lat="49.17861" lon="4.05375">
        <ele>121.4</ele>
        <time>2020-08-25T10:34:58.529Z</time>
      </trkpt>
      <trkpt lat="49.17916" lon="4.05407">
        <ele>121.2</ele>
        <time>2020-08-25T10:35:08.535Z</time>
      </trkpt>
      <trkpt lat="49.17931" lon="4.05416">
        <ele>121.2</ele>
        <time>2020-08-25T10:35:11.524Z</time>
      </trkpt>
      <trkpt lat="49.17986" lon="4.05448">
        <ele>121.6</ele>
        <time>2020-08-25T10:35:22.679Z</time>
      </trkpt>
      <trkpt lat="49.17994" lon="4.05453">
        <ele>121.6</ele>
        <time>2020-08-25T10:35:24.182Z</time>
      </trkpt>
      <trkpt lat="49.18047" lon="4.05484">
        <ele>121.6</ele>
        <time>2020-08-25T10:35:34.395Z</time>
      </trkpt>
      <trkpt lat="49.18055" lon="4.05488">
        <ele>121.8</ele>
        <time>2020-08-25T10:35:36.248Z</time>
      </trkpt>
      <trkpt lat="49.18106" lon="4.05517">
        <ele>122</ele>
        <time>2020-08-25T10:35:46.308Z</time>
      </trkpt>
      <trkpt lat="49.18113" lon="4.05521">
        <ele>122</ele>
        <time>2020-08-25T10:35:47.659Z</time>
      </trkpt>
      <trkpt lat="49.1812" lon="4.05524">
        <ele>122.2</ele>
        <time>2020-08-25T10:35:49.408Z</time>
      </trkpt>
      <trkpt lat="49.18148" lon="4.05535">
        <ele>122.8</ele>
        <time>2020-08-25T10:35:55.772Z</time>
      </trkpt>
      <trkpt lat="49.18161" lon="4.05538">
        <ele>123</ele>
        <time>2020-08-25T10:35:58.638Z</time>
      </trkpt>
      <trkpt lat="49.18175" lon="4.05542">
        <ele>123.4</ele>
        <time>2020-08-25T10:36:01.935Z</time>
      </trkpt>
      <trkpt lat="49.182" lon="4.05548">
        <ele>124</ele>
        <time>2020-08-25T10:36:07.705Z</time>
      </trkpt>
      <trkpt lat="49.18211" lon="4.05551">
        <ele>124.6</ele>
        <time>2020-08-25T10:36:11.421Z</time>
      </trkpt>
      <trkpt lat="49.18217" lon="4.05553">
        <ele>125</ele>
        <time>2020-08-25T10:36:13.506Z</time>
      </trkpt>
      <trkpt lat="49.18234" lon="4.05555">
        <ele>125.8</ele>
        <time>2020-08-25T10:36:18.718Z</time>
      </trkpt>
      <trkpt lat="49.18251" lon="4.05555">
        <ele>126.6</ele>
        <time>2020-08-25T10:36:23.846Z</time>
      </trkpt>
      <trkpt lat="49.18256" lon="4.05555">
        <ele>127.2</ele>
        <time>2020-08-25T10:36:26.689Z</time>
      </trkpt>
      <trkpt lat="49.18276" lon="4.0555">
        <ele>128.8</ele>
        <time>2020-08-25T10:36:34.507Z</time>
      </trkpt>
      <trkpt lat="49.1828" lon="4.05548">
        <ele>129.2</ele>
        <time>2020-08-25T10:36:36.444Z</time>
      </trkpt>
      <trkpt lat="49.18294" lon="4.05539">
        <ele>130</ele>
        <time>2020-08-25T10:36:41.089Z</time>
      </trkpt>
      <trkpt lat="49.18311" lon="4.05526">
        <ele>131.2</ele>
        <time>2020-08-25T10:36:47.566Z</time>
      </trkpt>
      <trkpt lat="49.18314" lon="4.05522">
        <ele>131.4</ele>
        <time>2020-08-25T10:36:48.921Z</time>
      </trkpt>
      <trkpt lat="49.18331" lon="4.05504">
        <ele>132.8</ele>
        <time>2020-08-25T10:36:56.246Z</time>
      </trkpt>
      <trkpt lat="49.18337" lon="4.05498">
        <ele>133.4</ele>
        <time>2020-08-25T10:36:59.182Z</time>
      </trkpt>
      <trkpt lat="49.1834" lon="4.05494">
        <ele>133.6</ele>
        <time>2020-08-25T10:37:00.337Z</time>
      </trkpt>
      <trkpt lat="49.1835" lon="4.0548">
        <ele>134.8</ele>
        <time>2020-08-25T10:37:06.018Z</time>
      </trkpt>
      <trkpt lat="49.18358" lon="4.05471">
        <ele>135.8</ele>
        <time>2020-08-25T10:37:10.666Z</time>
      </trkpt>
      <trkpt lat="49.1836" lon="4.05467">
        <ele>136</ele>
        <time>2020-08-25T10:37:11.708Z</time>
      </trkpt>
      <trkpt lat="49.1837" lon="4.0544">
        <ele>137.6</ele>
        <time>2020-08-25T10:37:19.501Z</time>
      </trkpt>
      <trkpt lat="49.18389" lon="4.05407">
        <ele>139.2</ele>
        <time>2020-08-25T10:37:28.901Z</time>
      </trkpt>
      <trkpt lat="49.18391" lon="4.05402">
        <ele>139.2</ele>
        <time>2020-08-25T10:37:29.603Z</time>
      </trkpt>
      <trkpt lat="49.18412" lon="4.05365">
        <ele>139.8</ele>
        <time>2020-08-25T10:37:36.454Z</time>
      </trkpt>
      <trkpt lat="49.18416" lon="4.05355">
        <ele>140.4</ele>
        <time>2020-08-25T10:37:39.461Z</time>
      </trkpt>
      <trkpt lat="49.18419" lon="4.0535">
        <ele>140.4</ele>
        <time>2020-08-25T10:37:40.177Z</time>
      </trkpt>
      <trkpt lat="49.18438" lon="4.05318">
        <ele>141.6</ele>
        <time>2020-08-25T10:37:48.407Z</time>
      </trkpt>
      <trkpt lat="49.18452" lon="4.05297">
        <ele>142.6</ele>
        <time>2020-08-25T10:37:54.663Z</time>
      </trkpt>
      <trkpt lat="49.18464" lon="4.05281">
        <ele>143.6</ele>
        <time>2020-08-25T10:38:00.135Z</time>
      </trkpt>
      <trkpt lat="49.18482" lon="4.05263">
        <ele>144.8</ele>
        <time>2020-08-25T10:38:07.038Z</time>
      </trkpt>
      <trkpt lat="49.18493" lon="4.05253">
        <ele>145.6</ele>
        <time>2020-08-25T10:38:11.483Z</time>
      </trkpt>
      <trkpt lat="49.18517" lon="4.05232">
        <ele>146.6</ele>
        <time>2020-08-25T10:38:18.857Z</time>
      </trkpt>
      <trkpt lat="49.1853" lon="4.05222">
        <ele>147.4</ele>
        <time>2020-08-25T10:38:23.631Z</time>
      </trkpt>
      <trkpt lat="49.18555" lon="4.05198">
        <ele>148</ele>
        <time>2020-08-25T10:38:30.019Z</time>
      </trkpt>
      <trkpt lat="49.1856" lon="4.05192">
        <ele>148.2</ele>
        <time>2020-08-25T10:38:31.681Z</time>
      </trkpt>
      <trkpt lat="49.18565" lon="4.05185">
        <ele>148.2</ele>
        <time>2020-08-25T10:38:32.938Z</time>
      </trkpt>
      <trkpt lat="49.1858" lon="4.05158">
        <ele>148</ele>
        <time>2020-08-25T10:38:36.216Z</time>
      </trkpt>
      <trkpt lat="49.18585" lon="4.05148">
        <ele>148</ele>
        <time>2020-08-25T10:38:37.647Z</time>
      </trkpt>
      <trkpt lat="49.1859" lon="4.05138">
        <ele>148</ele>
        <time>2020-08-25T10:38:39.124Z</time>
      </trkpt>
      <trkpt lat="49.18607" lon="4.05107">
        <ele>147.6</ele>
        <time>2020-08-25T10:38:42.664Z</time>
      </trkpt>
      <trkpt lat="49.18619" lon="4.05086">
        <ele>146.8</ele>
        <time>2020-08-25T10:38:44.467Z</time>
      </trkpt>
      <trkpt lat="49.18658" lon="4.05014">
        <ele>143</ele>
        <time>2020-08-25T10:38:49.668Z</time>
      </trkpt>
      <trkpt lat="49.18664" lon="4.05004">
        <ele>142.4</ele>
        <time>2020-08-25T10:38:50.404Z</time>
      </trkpt>
      <trkpt lat="49.18684" lon="4.04969">
        <ele>141.4</ele>
        <time>2020-08-25T10:38:53.774Z</time>
      </trkpt>
      <trkpt lat="49.18694" lon="4.04952">
        <ele>141.4</ele>
        <time>2020-08-25T10:38:56.458Z</time>
      </trkpt>
      <trkpt lat="49.18714" lon="4.04919">
        <ele>141.6</ele>
        <time>2020-08-25T10:39:01.955Z</time>
      </trkpt>
      <trkpt lat="49.18722" lon="4.04904">
        <ele>141.8</ele>
        <time>2020-08-25T10:39:04.707Z</time>
      </trkpt>
      <trkpt lat="49.18731" lon="4.0489">
        <ele>142</ele>
        <time>2020-08-25T10:39:07.385Z</time>
      </trkpt>
      <trkpt lat="49.18757" lon="4.04846">
        <ele>143.6</ele>
        <time>2020-08-25T10:39:18.484Z</time>
      </trkpt>
      <trkpt lat="49.18761" lon="4.04839">
        <ele>144</ele>
        <time>2020-08-25T10:39:20.686Z</time>
      </trkpt>
      <trkpt lat="49.18784" lon="4.048">
        <ele>145.4</ele>
        <time>2020-08-25T10:39:30.428Z</time>
      </trkpt>
      <trkpt lat="49.18793" lon="4.04783">
        <ele>145.4</ele>
        <time>2020-08-25T10:39:33.070Z</time>
      </trkpt>
      <trkpt lat="49.18808" lon="4.04757">
        <ele>145.4</ele>
        <time>2020-08-25T10:39:37.157Z</time>
      </trkpt>
      <trkpt lat="49.1884" lon="4.04703">
        <ele>144.8</ele>
        <time>2020-08-25T10:39:43.624Z</time>
      </trkpt>
      <trkpt lat="49.18876" lon="4.04641">
        <ele>143.2</ele>
        <time>2020-08-25T10:39:49.734Z</time>
      </trkpt>
      <trkpt lat="49.18886" lon="4.04625">
        <ele>143.2</ele>
        <time>2020-08-25T10:39:52.425Z</time>
      </trkpt>
      <trkpt lat="49.18897" lon="4.04608">
        <ele>143.2</ele>
        <time>2020-08-25T10:39:55.153Z</time>
      </trkpt>
      <trkpt lat="49.18913" lon="4.04581">
        <ele>143.2</ele>
        <time>2020-08-25T10:39:59.445Z</time>
      </trkpt>
      <trkpt lat="49.18925" lon="4.04562">
        <ele>142.8</ele>
        <time>2020-08-25T10:40:01.527Z</time>
      </trkpt>
      <trkpt lat="49.18938" lon="4.04542">
        <ele>142.6</ele>
        <time>2020-08-25T10:40:04.081Z</time>
      </trkpt>
      <trkpt lat="49.18951" lon="4.04521">
        <ele>142.2</ele>
        <time>2020-08-25T10:40:06.442Z</time>
      </trkpt>
      <trkpt lat="49.18972" lon="4.04489">
        <ele>141.6</ele>
        <time>2020-08-25T10:40:10.230Z</time>
      </trkpt>
      <trkpt lat="49.18979" lon="4.04477">
        <ele>141.2</ele>
        <time>2020-08-25T10:40:11.310Z</time>
      </trkpt>
      <trkpt lat="49.18987" lon="4.04466">
        <ele>140.4</ele>
        <time>2020-08-25T10:40:12.236Z</time>
      </trkpt>
      <trkpt lat="49.19001" lon="4.04441">
        <ele>139.2</ele>
        <time>2020-08-25T10:40:14.122Z</time>
      </trkpt>
      <trkpt lat="49.19017" lon="4.04418">
        <ele>137.6</ele>
        <time>2020-08-25T10:40:16.080Z</time>
      </trkpt>
      <trkpt lat="49.19034" lon="4.04396">
        <ele>135.6</ele>
        <time>2020-08-25T10:40:18.049Z</time>
      </trkpt>
      <trkpt lat="49.19042" lon="4.04386">
        <ele>135.2</ele>
        <time>2020-08-25T10:40:19.166Z</time>
      </trkpt>
      <trkpt lat="49.1906" lon="4.04375">
        <ele>133.2</ele>
        <time>2020-08-25T10:40:20.877Z</time>
      </trkpt>
      <trkpt lat="49.19079" lon="4.04366">
        <ele>131.2</ele>
        <time>2020-08-25T10:40:22.639Z</time>
      </trkpt>
      <trkpt lat="49.19089" lon="4.0436">
        <ele>130.4</ele>
        <time>2020-08-25T10:40:23.558Z</time>
      </trkpt>
      <trkpt lat="49.19098" lon="4.04351">
        <ele>129.4</ele>
        <time>2020-08-25T10:40:24.493Z</time>
      </trkpt>
      <trkpt lat="49.19105" lon="4.04341">
        <ele>128.2</ele>
        <time>2020-08-25T10:40:25.400Z</time>
      </trkpt>
      <trkpt lat="49.19113" lon="4.0433">
        <ele>127.6</ele>
        <time>2020-08-25T10:40:26.326Z</time>
      </trkpt>
      <trkpt lat="49.19119" lon="4.04318">
        <ele>127.2</ele>
        <time>2020-08-25T10:40:27.395Z</time>
      </trkpt>
      <trkpt lat="49.19132" lon="4.04294">
        <ele>126.2</ele>
        <time>2020-08-25T10:40:29.298Z</time>
      </trkpt>
      <trkpt lat="49.19159" lon="4.04249">
        <ele>122.4</ele>
        <time>2020-08-25T10:40:32.834Z</time>
      </trkpt>
      <trkpt lat="49.19167" lon="4.04238">
        <ele>121.4</ele>
        <time>2020-08-25T10:40:33.726Z</time>
      </trkpt>
      <trkpt lat="49.19181" lon="4.04217">
        <ele>120</ele>
        <time>2020-08-25T10:40:35.511Z</time>
      </trkpt>
      <trkpt lat="49.19197" lon="4.04198">
        <ele>118.8</ele>
        <time>2020-08-25T10:40:37.224Z</time>
      </trkpt>
      <trkpt lat="49.19204" lon="4.04188">
        <ele>118.4</ele>
        <time>2020-08-25T10:40:38.203Z</time>
      </trkpt>
      <trkpt lat="49.19211" lon="4.04179">
        <ele>118</ele>
        <time>2020-08-25T10:40:39.089Z</time>
      </trkpt>
      <trkpt lat="49.19216" lon="4.04169">
        <ele>117.6</ele>
        <time>2020-08-25T10:40:39.881Z</time>
      </trkpt>
      <trkpt lat="49.19227" lon="4.04151">
        <ele>116.2</ele>
        <time>2020-08-25T10:40:41.300Z</time>
      </trkpt>
      <trkpt lat="49.19232" lon="4.04141">
        <ele>115.8</ele>
        <time>2020-08-25T10:40:42.036Z</time>
      </trkpt>
      <trkpt lat="49.19243" lon="4.04123">
        <ele>114.8</ele>
        <time>2020-08-25T10:40:43.374Z</time>
      </trkpt>
      <trkpt lat="49.19257" lon="4.04095">
        <ele>114.6</ele>
        <time>2020-08-25T10:40:46.781Z</time>
      </trkpt>
      <trkpt lat="49.19281" lon="4.04053">
        <ele>114.4</ele>
        <time>2020-08-25T10:40:52.782Z</time>
      </trkpt>
      <trkpt lat="49.19286" lon="4.04047">
        <ele>114.4</ele>
        <time>2020-08-25T10:40:53.915Z</time>
      </trkpt>
      <trkpt lat="49.19294" lon="4.04035">
        <ele>114.6</ele>
        <time>2020-08-25T10:40:56.354Z</time>
      </trkpt>
      <trkpt lat="49.19302" lon="4.04025">
        <ele>114.6</ele>
        <time>2020-08-25T10:40:58.129Z</time>
      </trkpt>
      <trkpt lat="49.19316" lon="4.04001">
        <ele>116</ele>
        <time>2020-08-25T10:41:05.532Z</time>
      </trkpt>
      <trkpt lat="49.19319" lon="4.03997">
        <ele>116.6</ele>
        <time>2020-08-25T10:41:08.219Z</time>
      </trkpt>
      <trkpt lat="49.19327" lon="4.03985">
        <ele>119</ele>
        <time>2020-08-25T10:41:16.105Z</time>
      </trkpt>
      <trkpt lat="49.19336" lon="4.03972">
        <ele>120.2</ele>
        <time>2020-08-25T10:41:21.684Z</time>
      </trkpt>
      <trkpt lat="49.19344" lon="4.0396">
        <ele>120.8</ele>
        <time>2020-08-25T10:41:25.386Z</time>
      </trkpt>
      <trkpt lat="49.19347" lon="4.03955">
        <ele>121.2</ele>
        <time>2020-08-25T10:41:27.248Z</time>
      </trkpt>
      <trkpt lat="49.1936" lon="4.03936">
        <ele>122.8</ele>
        <time>2020-08-25T10:41:34.822Z</time>
      </trkpt>
      <trkpt lat="49.19365" lon="4.03927">
        <ele>123.6</ele>
        <time>2020-08-25T10:41:38.556Z</time>
      </trkpt>
      <trkpt lat="49.19367" lon="4.03922">
        <ele>124</ele>
        <time>2020-08-25T10:41:40.426Z</time>
      </trkpt>
      <trkpt lat="49.19368" lon="4.03917">
        <ele>124.4</ele>
        <time>2020-08-25T10:41:42.314Z</time>
      </trkpt>
      <trkpt lat="49.19369" lon="4.03896">
        <ele>125.4</ele>
        <time>2020-08-25T10:41:47.418Z</time>
      </trkpt>
      <trkpt lat="49.19369" lon="4.03853">
        <ele>127.8</ele>
        <time>2020-08-25T10:41:58.827Z</time>
      </trkpt>
      <trkpt lat="49.19368" lon="4.03818">
        <ele>128</ele>
        <time>2020-08-25T10:42:03.332Z</time>
      </trkpt>
      <trkpt lat="49.19368" lon="4.03807">
        <ele>128.2</ele>
        <time>2020-08-25T10:42:05.026Z</time>
      </trkpt>
      <trkpt lat="49.19367" lon="4.03786">
        <ele>128.6</ele>
        <time>2020-08-25T10:42:08.345Z</time>
      </trkpt>
      <trkpt lat="49.19367" lon="4.03771">
        <ele>129</ele>
        <time>2020-08-25T10:42:11.159Z</time>
      </trkpt>
      <trkpt lat="49.19367" lon="4.03766">
        <ele>129.4</ele>
        <time>2020-08-25T10:42:13.102Z</time>
      </trkpt>
      <trkpt lat="49.19367" lon="4.03741">
        <ele>130.4</ele>
        <time>2020-08-25T10:42:18.651Z</time>
      </trkpt>
      <trkpt lat="49.19368" lon="4.03721">
        <ele>131.8</ele>
        <time>2020-08-25T10:42:25.190Z</time>
      </trkpt>
      <trkpt lat="49.19376" lon="4.03686">
        <ele>133</ele>
        <time>2020-08-25T10:42:32.807Z</time>
      </trkpt>
      <trkpt lat="49.19377" lon="4.0368">
        <ele>133.4</ele>
        <time>2020-08-25T10:42:34.694Z</time>
      </trkpt>
      <trkpt lat="49.19383" lon="4.03655">
        <ele>134.4</ele>
        <time>2020-08-25T10:42:40.526Z</time>
      </trkpt>
      <trkpt lat="49.19385" lon="4.03644">
        <ele>134.6</ele>
        <time>2020-08-25T10:42:42.249Z</time>
      </trkpt>
      <trkpt lat="49.1939" lon="4.03623">
        <ele>135.8</ele>
        <time>2020-08-25T10:42:48.068Z</time>
      </trkpt>
      <trkpt lat="49.19396" lon="4.036">
        <ele>136.6</ele>
        <time>2020-08-25T10:42:52.994Z</time>
      </trkpt>
      <trkpt lat="49.19406" lon="4.0355">
        <ele>137.8</ele>
        <time>2020-08-25T10:43:02.032Z</time>
      </trkpt>
      <trkpt lat="49.19414" lon="4.03511">
        <ele>138.4</ele>
        <time>2020-08-25T10:43:07.989Z</time>
      </trkpt>
      <trkpt lat="49.19417" lon="4.03494">
        <ele>139.4</ele>
        <time>2020-08-25T10:43:12.766Z</time>
      </trkpt>
      <trkpt lat="49.19426" lon="4.03443">
        <ele>140.4</ele>
        <time>2020-08-25T10:43:21.195Z</time>
      </trkpt>
      <trkpt lat="49.1943" lon="4.03418">
        <ele>140.4</ele>
        <time>2020-08-25T10:43:24.178Z</time>
      </trkpt>
      <trkpt lat="49.19431" lon="4.03409">
        <ele>140.4</ele>
        <time>2020-08-25T10:43:25.278Z</time>
      </trkpt>
      <trkpt lat="49.19433" lon="4.03389">
        <ele>140.6</ele>
        <time>2020-08-25T10:43:27.966Z</time>
      </trkpt>
      <trkpt lat="49.19436" lon="4.03368">
        <ele>140.4</ele>
        <time>2020-08-25T10:43:29.905Z</time>
      </trkpt>
      <trkpt lat="49.19438" lon="4.03344">
        <ele>140.2</ele>
        <time>2020-08-25T10:43:32.042Z</time>
      </trkpt>
      <trkpt lat="49.19439" lon="4.03332">
        <ele>140</ele>
        <time>2020-08-25T10:43:32.983Z</time>
      </trkpt>
      <trkpt lat="49.19441" lon="4.0332">
        <ele>139.8</ele>
        <time>2020-08-25T10:43:33.943Z</time>
      </trkpt>
      <trkpt lat="49.19443" lon="4.03295">
        <ele>138.2</ele>
        <time>2020-08-25T10:43:35.392Z</time>
      </trkpt>
      <trkpt lat="49.1945" lon="4.03246">
        <ele>134.6</ele>
        <time>2020-08-25T10:43:38.303Z</time>
      </trkpt>
      <trkpt lat="49.19451" lon="4.03233">
        <ele>134.6</ele>
        <time>2020-08-25T10:43:39.799Z</time>
      </trkpt>
      <trkpt lat="49.19454" lon="4.03208">
        <ele>133</ele>
        <time>2020-08-25T10:43:41.299Z</time>
      </trkpt>
      <trkpt lat="49.19458" lon="4.03169">
        <ele>130.8</ele>
        <time>2020-08-25T10:43:43.574Z</time>
      </trkpt>
      <trkpt lat="49.19463" lon="4.0313">
        <ele>129.6</ele>
        <time>2020-08-25T10:43:46.103Z</time>
      </trkpt>
      <trkpt lat="49.19466" lon="4.03103">
        <ele>128.6</ele>
        <time>2020-08-25T10:43:47.674Z</time>
      </trkpt>
      <trkpt lat="49.19469" lon="4.03076">
        <ele>127.4</ele>
        <time>2020-08-25T10:43:49.257Z</time>
      </trkpt>
      <trkpt lat="49.19472" lon="4.03049">
        <ele>126.4</ele>
        <time>2020-08-25T10:43:50.866Z</time>
      </trkpt>
      <trkpt lat="49.19475" lon="4.03022">
        <ele>125.8</ele>
        <time>2020-08-25T10:43:52.807Z</time>
      </trkpt>
      <trkpt lat="49.19478" lon="4.02995">
        <ele>125.2</ele>
        <time>2020-08-25T10:43:54.739Z</time>
      </trkpt>
      <trkpt lat="49.19483" lon="4.02955">
        <ele>123.6</ele>
        <time>2020-08-25T10:43:56.991Z</time>
      </trkpt>
      <trkpt lat="49.19484" lon="4.02942">
        <ele>123.2</ele>
        <time>2020-08-25T10:43:57.837Z</time>
      </trkpt>
      <trkpt lat="49.19487" lon="4.02929">
        <ele>122.4</ele>
        <time>2020-08-25T10:43:58.610Z</time>
      </trkpt>
      <trkpt lat="49.19495" lon="4.02892">
        <ele>121.2</ele>
        <time>2020-08-25T10:44:01.063Z</time>
      </trkpt>
      <trkpt lat="49.19502" lon="4.02868">
        <ele>120.4</ele>
        <time>2020-08-25T10:44:02.686Z</time>
      </trkpt>
      <trkpt lat="49.19505" lon="4.02856">
        <ele>120.2</ele>
        <time>2020-08-25T10:44:03.705Z</time>
      </trkpt>
      <trkpt lat="49.19508" lon="4.02844">
        <ele>119.8</ele>
        <time>2020-08-25T10:44:04.518Z</time>
      </trkpt>
      <trkpt lat="49.19511" lon="4.02832">
        <ele>119.2</ele>
        <time>2020-08-25T10:44:05.278Z</time>
      </trkpt>
      <trkpt lat="49.19514" lon="4.0282">
        <ele>118.8</ele>
        <time>2020-08-25T10:44:06.097Z</time>
      </trkpt>
      <trkpt lat="49.19523" lon="4.02783">
        <ele>118.4</ele>
        <time>2020-08-25T10:44:09.554Z</time>
      </trkpt>
      <trkpt lat="49.19526" lon="4.0277">
        <ele>118.2</ele>
        <time>2020-08-25T10:44:10.621Z</time>
      </trkpt>
      <trkpt lat="49.19529" lon="4.02757">
        <ele>118</ele>
        <time>2020-08-25T10:44:11.707Z</time>
      </trkpt>
      <trkpt lat="49.19535" lon="4.02731">
        <ele>117.4</ele>
        <time>2020-08-25T10:44:13.664Z</time>
      </trkpt>
      <trkpt lat="49.19547" lon="4.02677">
        <ele>115.6</ele>
        <time>2020-08-25T10:44:17.178Z</time>
      </trkpt>
      <trkpt lat="49.1955" lon="4.02664">
        <ele>115.4</ele>
        <time>2020-08-25T10:44:18.369Z</time>
      </trkpt>
      <trkpt lat="49.19557" lon="4.02635">
        <ele>114.6</ele>
        <time>2020-08-25T10:44:20.343Z</time>
      </trkpt>
      <trkpt lat="49.19571" lon="4.02562">
        <ele>111.8</ele>
        <time>2020-08-25T10:44:24.744Z</time>
      </trkpt>
      <trkpt lat="49.19579" lon="4.02517">
        <ele>110.6</ele>
        <time>2020-08-25T10:44:27.917Z</time>
      </trkpt>
      <trkpt lat="49.19585" lon="4.02486">
        <ele>109.6</ele>
        <time>2020-08-25T10:44:29.907Z</time>
      </trkpt>
      <trkpt lat="49.19588" lon="4.02471">
        <ele>109</ele>
        <time>2020-08-25T10:44:30.817Z</time>
      </trkpt>
      <trkpt lat="49.19593" lon="4.0244">
        <ele>108</ele>
        <time>2020-08-25T10:44:32.749Z</time>
      </trkpt>
      <trkpt lat="49.19599" lon="4.02411">
        <ele>106.4</ele>
        <time>2020-08-25T10:44:34.529Z</time>
      </trkpt>
      <trkpt lat="49.19606" lon="4.02367">
        <ele>104.6</ele>
        <time>2020-08-25T10:44:37.072Z</time>
      </trkpt>
      <trkpt lat="49.19612" lon="4.02338">
        <ele>103</ele>
        <time>2020-08-25T10:44:38.821Z</time>
      </trkpt>
      <trkpt lat="49.19615" lon="4.02324">
        <ele>102.6</ele>
        <time>2020-08-25T10:44:39.794Z</time>
      </trkpt>
      <trkpt lat="49.19617" lon="4.02309">
        <ele>102.2</ele>
        <time>2020-08-25T10:44:40.750Z</time>
      </trkpt>
      <trkpt lat="49.19629" lon="4.02241">
        <ele>100.8</ele>
        <time>2020-08-25T10:44:46.007Z</time>
      </trkpt>
      <trkpt lat="49.19637" lon="4.022">
        <ele>98.6</ele>
        <time>2020-08-25T10:44:48.474Z</time>
      </trkpt>
      <trkpt lat="49.19639" lon="4.02186">
        <ele>97.8</ele>
        <time>2020-08-25T10:44:49.280Z</time>
      </trkpt>
      <trkpt lat="49.19641" lon="4.02173">
        <ele>97.2</ele>
        <time>2020-08-25T10:44:50.067Z</time>
      </trkpt>
      <trkpt lat="49.19657" lon="4.02085">
        <ele>94.4</ele>
        <time>2020-08-25T10:44:55.761Z</time>
      </trkpt>
      <trkpt lat="49.19669" lon="4.02027">
        <ele>93.6</ele>
        <time>2020-08-25T10:45:00.718Z</time>
      </trkpt>
      <trkpt lat="49.19679" lon="4.01984">
        <ele>93.4</ele>
        <time>2020-08-25T10:45:05.595Z</time>
      </trkpt>
      <trkpt lat="49.19681" lon="4.01973">
        <ele>93.4</ele>
        <time>2020-08-25T10:45:06.896Z</time>
      </trkpt>
      <trkpt lat="49.19693" lon="4.01923">
        <ele>93.2</ele>
        <time>2020-08-25T10:45:12.642Z</time>
      </trkpt>
      <trkpt lat="49.19708" lon="4.01866">
        <ele>93.4</ele>
        <time>2020-08-25T10:45:20.245Z</time>
      </trkpt>
      <trkpt lat="49.19714" lon="4.01848">
        <ele>93.4</ele>
        <time>2020-08-25T10:45:22.474Z</time>
      </trkpt>
      <trkpt lat="49.19724" lon="4.01841">
        <ele>93.4</ele>
        <time>2020-08-25T10:45:24.541Z</time>
      </trkpt>
      <trkpt lat="49.19737" lon="4.01844">
        <ele>93.6</ele>
        <time>2020-08-25T10:45:27.242Z</time>
      </trkpt>
      <trkpt lat="49.1975" lon="4.01849">
        <ele>93.8</ele>
        <time>2020-08-25T10:45:30.054Z</time>
      </trkpt>
      <trkpt lat="49.19777" lon="4.01861">
        <ele>94</ele>
        <time>2020-08-25T10:45:35.359Z</time>
      </trkpt>
      <trkpt lat="49.19784" lon="4.01863">
        <ele>94</ele>
        <time>2020-08-25T10:45:36.577Z</time>
      </trkpt>
      <trkpt lat="49.19797" lon="4.01868">
        <ele>94.2</ele>
        <time>2020-08-25T10:45:39.456Z</time>
      </trkpt>
      <trkpt lat="49.19804" lon="4.0187">
        <ele>94.4</ele>
        <time>2020-08-25T10:45:41.148Z</time>
      </trkpt>
      <trkpt lat="49.19811" lon="4.01873">
        <ele>94.4</ele>
        <time>2020-08-25T10:45:42.409Z</time>
      </trkpt>
      <trkpt lat="49.19818" lon="4.01876">
        <ele>94.4</ele>
        <time>2020-08-25T10:45:43.702Z</time>
      </trkpt>
      <trkpt lat="49.1986" lon="4.01892">
        <ele>94.4</ele>
        <time>2020-08-25T10:45:51.531Z</time>
      </trkpt>
      <trkpt lat="49.19867" lon="4.01895">
        <ele>94.4</ele>
        <time>2020-08-25T10:45:52.813Z</time>
      </trkpt>
      <trkpt lat="49.19874" lon="4.01898">
        <ele>94.4</ele>
        <time>2020-08-25T10:45:54.106Z</time>
      </trkpt>
      <trkpt lat="49.19888" lon="4.01904">
        <ele>94</ele>
        <time>2020-08-25T10:45:55.761Z</time>
      </trkpt>
      <trkpt lat="49.19895" lon="4.01906">
        <ele>93.8</ele>
        <time>2020-08-25T10:45:56.541Z</time>
      </trkpt>
      <trkpt lat="49.19936" lon="4.01908">
        <ele>93.4</ele>
        <time>2020-08-25T10:46:02.360Z</time>
      </trkpt>
      <trkpt lat="49.19991" lon="4.01911">
        <ele>93</ele>
        <time>2020-08-25T10:46:11.358Z</time>
      </trkpt>
      <trkpt lat="49.19998" lon="4.01911">
        <ele>93</ele>
        <time>2020-08-25T10:46:12.555Z</time>
      </trkpt>
      <trkpt lat="49.20038" lon="4.01907">
        <ele>93.2</ele>
        <time>2020-08-25T10:46:20.085Z</time>
      </trkpt>
      <trkpt lat="49.20045" lon="4.01903">
        <ele>93</ele>
        <time>2020-08-25T10:46:20.918Z</time>
      </trkpt>
      <trkpt lat="49.20057" lon="4.01892">
        <ele>93.2</ele>
        <time>2020-08-25T10:46:23.793Z</time>
      </trkpt>
      <trkpt lat="49.20062" lon="4.01886">
        <ele>93.2</ele>
        <time>2020-08-25T10:46:25.000Z</time>
      </trkpt>
      <trkpt lat="49.20073" lon="4.01874">
        <ele>93.4</ele>
        <time>2020-08-25T10:46:27.771Z</time>
      </trkpt>
      <trkpt lat="49.20083" lon="4.01861">
        <ele>93.6</ele>
        <time>2020-08-25T10:46:30.467Z</time>
      </trkpt>
      <trkpt lat="49.20112" lon="4.01824">
        <ele>94.2</ele>
        <time>2020-08-25T10:46:38.331Z</time>
      </trkpt>
      <trkpt lat="49.20116" lon="4.01817">
        <ele>94.4</ele>
        <time>2020-08-25T10:46:39.884Z</time>
      </trkpt>
      <trkpt lat="49.20126" lon="4.01795">
        <ele>95.6</ele>
        <time>2020-08-25T10:46:46.148Z</time>
      </trkpt>
      <trkpt lat="49.20131" lon="4.01779">
        <ele>96</ele>
        <time>2020-08-25T10:46:49.137Z</time>
      </trkpt>
      <trkpt lat="49.20132" lon="4.01771">
        <ele>96.2</ele>
        <time>2020-08-25T10:46:50.636Z</time>
      </trkpt>
      <trkpt lat="49.20135" lon="4.01755">
        <ele>96.8</ele>
        <time>2020-08-25T10:46:54.146Z</time>
      </trkpt>
      <trkpt lat="49.20136" lon="4.01739">
        <ele>97.2</ele>
        <time>2020-08-25T10:46:57.002Z</time>
      </trkpt>
      <trkpt lat="49.20138" lon="4.01724">
        <ele>97.4</ele>
        <time>2020-08-25T10:46:59.212Z</time>
      </trkpt>
      <trkpt lat="49.2014" lon="4.01702">
        <ele>97.8</ele>
        <time>2020-08-25T10:47:02.654Z</time>
      </trkpt>
      <trkpt lat="49.20142" lon="4.01681">
        <ele>98</ele>
        <time>2020-08-25T10:47:05.571Z</time>
      </trkpt>
      <trkpt lat="49.20144" lon="4.01667">
        <ele>98.8</ele>
        <time>2020-08-25T10:47:09.387Z</time>
      </trkpt>
      <trkpt lat="49.20148" lon="4.01638">
        <ele>100</ele>
        <time>2020-08-25T10:47:15.955Z</time>
      </trkpt>
      <trkpt lat="49.2015" lon="4.01623">
        <ele>100.6</ele>
        <time>2020-08-25T10:47:19.253Z</time>
      </trkpt>
      <trkpt lat="49.20154" lon="4.01585">
        <ele>101</ele>
        <time>2020-08-25T10:47:24.520Z</time>
      </trkpt>
      <trkpt lat="49.20158" lon="4.01554">
        <ele>101</ele>
        <time>2020-08-25T10:47:28.196Z</time>
      </trkpt>
      <trkpt lat="49.20165" lon="4.0149">
        <ele>101</ele>
        <time>2020-08-25T10:47:35.764Z</time>
      </trkpt>
      <trkpt lat="49.20167" lon="4.01474">
        <ele>101</ele>
        <time>2020-08-25T10:47:37.655Z</time>
      </trkpt>
      <trkpt lat="49.20168" lon="4.01464">
        <ele>106.2</ele>
        <time>2020-08-25T10:47:40.437Z</time>
      </trkpt>
      <trkpt lat="49.20184" lon="4.0147">
        <ele>105.5</ele>
      </trkpt>
      <trkpt lat="49.20187" lon="4.01487">
        <ele>105.3</ele>
      </trkpt>
      <trkpt lat="49.20237" lon="4.01515">
        <ele>104</ele>
        <time>2020-08-25T10:47:44.367Z</time>
      </trkpt>
      <trkpt lat="49.20253" lon="4.01419">
        <ele>104</ele>
        <time>2020-08-25T10:48:08.322Z</time>
      </trkpt>
      <trkpt lat="49.20261" lon="4.01377">
        <ele>104</ele>
        <time>2020-08-25T10:48:11.113Z</time>
      </trkpt>
      <trkpt lat="49.2028" lon="4.01314">
        <ele>104</ele>
      </trkpt>
      <trkpt lat="49.20294" lon="4.01295">
        <ele>104</ele>
      </trkpt>
      <trkpt lat="49.20295" lon="4.01279">
        <ele>104</ele>
        <time>2020-08-25T10:48:18.950Z</time>
      </trkpt>
      <trkpt lat="49.20287" lon="4.01265">
        <ele>104.3</ele>
        <time>2020-08-25T10:48:20.187Z</time>
      </trkpt>
      <trkpt lat="49.20294" lon="4.01231">
        <ele>105.1</ele>
        <time>2020-08-25T10:48:24.009Z</time>
      </trkpt>
      <trkpt lat="49.20305" lon="4.01189">
        <ele>105</ele>
        <time>2020-08-25T10:48:25.971Z</time>
      </trkpt>
      <trkpt lat="49.20404" lon="4.01197">
        <ele>102</ele>
        <time>2020-08-25T10:48:27.270Z</time>
      </trkpt>
      <trkpt lat="49.20458" lon="4.01218">
        <ele>101.9</ele>
        <time>2020-08-25T10:48:32.279Z</time>
      </trkpt>
      <trkpt lat="49.20512" lon="4.01173">
        <ele>101.1</ele>
        <time>2020-08-25T10:48:33.585Z</time>
      </trkpt>
      <trkpt lat="49.20543" lon="4.01165">
        <ele>101</ele>
        <time>2020-08-25T10:49:09.913Z</time>
      </trkpt>
      <trkpt lat="49.20584" lon="4.01173">
        <ele>101.3</ele>
        <time>2020-08-25T10:49:16.615Z</time>
      </trkpt>
      <trkpt lat="49.20626" lon="4.0118">
        <ele>97.3</ele>
        <time>2020-08-25T10:49:24.957Z</time>
      </trkpt>
      <trkpt lat="49.20642" lon="4.01187">
        <ele>95.5</ele>
        <time>2020-08-25T10:49:26.923Z</time>
      </trkpt>
      <trkpt lat="49.20691" lon="4.01199">
        <ele>100.5</ele>
        <time>2020-08-25T10:49:39.672Z</time>
      </trkpt>
      <trkpt lat="49.20718" lon="4.01201">
        <ele>100.5</ele>
        <time>2020-08-25T10:49:43.113Z</time>
      </trkpt>
      <trkpt lat="49.20758" lon="4.01214">
        <ele>96.4</ele>
        <time>2020-08-25T10:49:50.989Z</time>
      </trkpt>
      <trkpt lat="49.20791" lon="4.01223">
        <ele>92</ele>
        <time>2020-08-25T10:49:57.424Z</time>
      </trkpt>
      <trkpt lat="49.20798" lon="4.01223">
        <ele>92</ele>
        <time>2020-08-25T10:49:59.055Z</time>
      </trkpt>
      <trkpt lat="49.20813" lon="4.01231">
        <ele>93.6</ele>
      </trkpt>
      <trkpt lat="49.20847" lon="4.01256">
        <ele>96.2</ele>
      </trkpt>
      <trkpt lat="49.20865" lon="4.01275">
        <ele>96.1</ele>
      </trkpt>
      <trkpt lat="49.20881" lon="4.0129">
        <ele>95.1</ele>
      </trkpt>
      <trkpt lat="49.20887" lon="4.01307">
        <ele>95.4</ele>
        <time>2020-08-25T10:50:13.058Z</time>
      </trkpt>
      <trkpt lat="49.20901" lon="4.01309">
        <ele>95</ele>
      </trkpt>
      <trkpt lat="49.20935" lon="4.01344">
        <ele>93.5</ele>
      </trkpt>
      <trkpt lat="49.20946" lon="4.01336">
        <ele>94</ele>
        <time>2020-08-25T10:50:19.285Z</time>
      </trkpt>
      <trkpt lat="49.20984" lon="4.01347">
        <ele>94.3</ele>
        <time>2020-08-25T10:50:22.380Z</time>
      </trkpt>
      <trkpt lat="49.21042" lon="4.01383">
        <ele>94.4</ele>
        <time>2020-08-25T10:50:29.676Z</time>
      </trkpt>
      <trkpt lat="49.21171" lon="4.01478">
        <ele>94.1</ele>
      </trkpt>
      <trkpt lat="49.2121" lon="4.01495">
        <ele>95.5</ele>
        <time>2020-08-25T10:51:04.462Z</time>
      </trkpt>
      <trkpt lat="49.21239" lon="4.01534">
        <ele>94.4</ele>
      </trkpt>
      <trkpt lat="49.21243" lon="4.01558">
        <ele>94.1</ele>
      </trkpt>
      <trkpt lat="49.21262" lon="4.01613">
        <ele>93.4</ele>
      </trkpt>
      <trkpt lat="49.2127" lon="4.01625">
        <ele>93.4</ele>
        <time>2020-08-25T10:51:23.248Z</time>
      </trkpt>
      <trkpt lat="49.21286" lon="4.01614">
        <ele>93.2</ele>
        <time>2020-08-25T10:51:24.819Z</time>
      </trkpt>
      <trkpt lat="49.21294" lon="4.01618">
        <ele>92.8</ele>
        <time>2020-08-25T10:51:25.677Z</time>
      </trkpt>
      <trkpt lat="49.21312" lon="4.0162">
        <ele>92.4</ele>
        <time>2020-08-25T10:51:27.828Z</time>
      </trkpt>
      <trkpt lat="49.21329" lon="4.01614">
        <ele>92.2</ele>
        <time>2020-08-25T10:51:30.264Z</time>
      </trkpt>
      <trkpt lat="49.21336" lon="4.01608">
        <ele>92.2</ele>
        <time>2020-08-25T10:51:31.761Z</time>
      </trkpt>
      <trkpt lat="49.21343" lon="4.016">
        <ele>92</ele>
        <time>2020-08-25T10:51:32.764Z</time>
      </trkpt>
      <trkpt lat="49.21354" lon="4.01582">
        <ele>92</ele>
        <time>2020-08-25T10:51:35.672Z</time>
      </trkpt>
      <trkpt lat="49.21361" lon="4.0156">
        <ele>92.2</ele>
        <time>2020-08-25T10:51:38.838Z</time>
      </trkpt>
      <trkpt lat="49.21362" lon="4.01549">
        <ele>92</ele>
        <time>2020-08-25T10:51:39.741Z</time>
      </trkpt>
      <trkpt lat="49.21363" lon="4.01538">
        <ele>92</ele>
        <time>2020-08-25T10:51:41.038Z</time>
      </trkpt>
      <trkpt lat="49.21361" lon="4.01517">
        <ele>92</ele>
        <time>2020-08-25T10:51:43.520Z</time>
      </trkpt>
      <trkpt lat="49.2136" lon="4.01506">
        <ele>92</ele>
        <time>2020-08-25T10:51:44.736Z</time>
      </trkpt>
      <trkpt lat="49.21361" lon="4.01496">
        <ele>92</ele>
        <time>2020-08-25T10:51:45.955Z</time>
      </trkpt>
      <trkpt lat="49.21367" lon="4.01478">
        <ele>92.2</ele>
        <time>2020-08-25T10:51:48.703Z</time>
      </trkpt>
      <trkpt lat="49.21382" lon="4.0146">
        <ele>92.4</ele>
        <time>2020-08-25T10:51:52.459Z</time>
      </trkpt>
      <trkpt lat="49.21387" lon="4.01455">
        <ele>92.2</ele>
        <time>2020-08-25T10:51:53.088Z</time>
      </trkpt>
      <trkpt lat="49.21396" lon="4.01445">
        <ele>92.8</ele>
        <time>2020-08-25T10:51:56.641Z</time>
      </trkpt>
      <trkpt lat="49.21404" lon="4.01436">
        <ele>93.2</ele>
        <time>2020-08-25T10:51:59.558Z</time>
      </trkpt>
      <trkpt lat="49.21409" lon="4.01431">
        <ele>93.2</ele>
        <time>2020-08-25T10:52:00.538Z</time>
      </trkpt>
      <trkpt lat="49.21413" lon="4.01425">
        <ele>93.8</ele>
        <time>2020-08-25T10:52:03.331Z</time>
      </trkpt>
      <trkpt lat="49.21428" lon="4.01402">
        <ele>94.8</ele>
        <time>2020-08-25T10:52:09.839Z</time>
      </trkpt>
      <trkpt lat="49.21435" lon="4.01391">
        <ele>95.8</ele>
        <time>2020-08-25T10:52:14.489Z</time>
      </trkpt>
      <trkpt lat="49.2144" lon="4.01387">
        <ele>96.4</ele>
        <time>2020-08-25T10:52:17.363Z</time>
      </trkpt>
      <trkpt lat="49.21444" lon="4.01384">
        <ele>97.4</ele>
        <time>2020-08-25T10:52:20.744Z</time>
      </trkpt>
      <trkpt lat="49.21459" lon="4.01383">
        <ele>98.2</ele>
        <time>2020-08-25T10:52:25.543Z</time>
      </trkpt>
      <trkpt lat="49.21464" lon="4.01383">
        <ele>98.6</ele>
        <time>2020-08-25T10:52:27.517Z</time>
      </trkpt>
      <trkpt lat="49.21491" lon="4.01384">
        <ele>99.8</ele>
        <time>2020-08-25T10:52:35.598Z</time>
      </trkpt>
      <trkpt lat="49.21502" lon="4.01385">
        <ele>100.2</ele>
        <time>2020-08-25T10:52:38.574Z</time>
      </trkpt>
      <trkpt lat="49.2155" lon="4.01387">
        <ele>101.2</ele>
        <time>2020-08-25T10:52:49.165Z</time>
      </trkpt>
      <trkpt lat="49.21596" lon="4.01391">
        <ele>101.6</ele>
        <time>2020-08-25T10:52:58.055Z</time>
      </trkpt>
      <trkpt lat="49.21639" lon="4.01393">
        <ele>101.6</ele>
        <time>2020-08-25T10:53:05.782Z</time>
      </trkpt>
      <trkpt lat="49.21654" lon="4.01393">
        <ele>101.4</ele>
        <time>2020-08-25T10:53:07.830Z</time>
      </trkpt>
      <trkpt lat="49.21691" lon="4.01395">
        <ele>101.4</ele>
        <time>2020-08-25T10:53:14.375Z</time>
      </trkpt>
      <trkpt lat="49.21698" lon="4.01396">
        <ele>101.4</ele>
        <time>2020-08-25T10:53:15.702Z</time>
      </trkpt>
      <trkpt lat="49.21735" lon="4.01397">
        <ele>101.4</ele>
        <time>2020-08-25T10:53:22.299Z</time>
      </trkpt>
      <trkpt lat="49.2175" lon="4.01397">
        <ele>101.4</ele>
        <time>2020-08-25T10:53:24.963Z</time>
      </trkpt>
      <trkpt lat="49.21772" lon="4.01399">
        <ele>101.6</ele>
        <time>2020-08-25T10:53:29.345Z</time>
      </trkpt>
      <trkpt lat="49.21795" lon="4.01399">
        <ele>102</ele>
        <time>2020-08-25T10:53:34.236Z</time>
      </trkpt>
      <trkpt lat="49.21826" lon="4.014">
        <ele>102.2</ele>
        <time>2020-08-25T10:53:40.001Z</time>
      </trkpt>
      <trkpt lat="49.21885" lon="4.01402">
        <ele>103.2</ele>
        <time>2020-08-25T10:53:52.577Z</time>
      </trkpt>
      <trkpt lat="49.21907" lon="4.01403">
        <ele>103.6</ele>
        <time>2020-08-25T10:53:57.193Z</time>
      </trkpt>
      <trkpt lat="49.21949" lon="4.01405">
        <ele>103.8</ele>
        <time>2020-08-25T10:54:05.045Z</time>
      </trkpt>
      <trkpt lat="49.21976" lon="4.01405">
        <ele>104.4</ele>
        <time>2020-08-25T10:54:11.256Z</time>
      </trkpt>
      <trkpt lat="49.21997" lon="4.01406">
        <ele>104.6</ele>
        <time>2020-08-25T10:54:15.281Z</time>
      </trkpt>
      <trkpt lat="49.22037" lon="4.01407">
        <ele>105.2</ele>
        <time>2020-08-25T10:54:23.573Z</time>
      </trkpt>
      <trkpt lat="49.22044" lon="4.01408">
        <ele>105.2</ele>
        <time>2020-08-25T10:54:24.753Z</time>
      </trkpt>
      <trkpt lat="49.22084" lon="4.01409">
        <ele>105.8</ele>
        <time>2020-08-25T10:54:33.043Z</time>
      </trkpt>
      <trkpt lat="49.2209" lon="4.01409">
        <ele>106</ele>
        <time>2020-08-25T10:54:34.708Z</time>
      </trkpt>
      <trkpt lat="49.22097" lon="4.0141">
        <ele>106</ele>
        <time>2020-08-25T10:54:35.942Z</time>
      </trkpt>
      <trkpt lat="49.22118" lon="4.0141">
        <ele>106.2</ele>
        <time>2020-08-25T10:54:40.056Z</time>
      </trkpt>
      <trkpt lat="49.22156" lon="4.01411">
        <ele>106.4</ele>
        <time>2020-08-25T10:54:47.068Z</time>
      </trkpt>
      <trkpt lat="49.22164" lon="4.01411">
        <ele>106.4</ele>
        <time>2020-08-25T10:54:48.498Z</time>
      </trkpt>
      <trkpt lat="49.22197" lon="4.01412">
        <ele>106.2</ele>
        <time>2020-08-25T10:54:53.951Z</time>
      </trkpt>
      <trkpt lat="49.22206" lon="4.01413">
        <ele>105.8</ele>
        <time>2020-08-25T10:54:54.791Z</time>
      </trkpt>
      <trkpt lat="49.22236" lon="4.01415">
        <ele>105.2</ele>
        <time>2020-08-25T10:54:58.649Z</time>
      </trkpt>
      <trkpt lat="49.22241" lon="4.01415">
        <ele>105.2</ele>
        <time>2020-08-25T10:54:59.561Z</time>
      </trkpt>
      <trkpt lat="49.22248" lon="4.01415">
        <ele>104.8</ele>
        <time>2020-08-25T10:55:00.149Z</time>
      </trkpt>
      <trkpt lat="49.22255" lon="4.01412">
        <ele>103.8</ele>
        <time>2020-08-25T10:55:00.776Z</time>
      </trkpt>
      <trkpt lat="49.22258" lon="4.01406">
        <ele>103.2</ele>
        <time>2020-08-25T10:55:01.232Z</time>
      </trkpt>
      <trkpt lat="49.2226" lon="4.01398">
        <ele>103</ele>
        <time>2020-08-25T10:55:01.820Z</time>
      </trkpt>
      <trkpt lat="49.22263" lon="4.0138">
        <ele>102.6</ele>
        <time>2020-08-25T10:55:03.150Z</time>
      </trkpt>
      <trkpt lat="49.22266" lon="4.0136">
        <ele>102.6</ele>
        <time>2020-08-25T10:55:05.618Z</time>
      </trkpt>
      <trkpt lat="49.22267" lon="4.01348">
        <ele>102.6</ele>
        <time>2020-08-25T10:55:06.949Z</time>
      </trkpt>
      <trkpt lat="49.22272" lon="4.01325">
        <ele>102</ele>
        <time>2020-08-25T10:55:08.571Z</time>
      </trkpt>
      <trkpt lat="49.22282" lon="4.01291">
        <ele>100.2</ele>
        <time>2020-08-25T10:55:10.771Z</time>
      </trkpt>
      <trkpt lat="49.2229" lon="4.01267">
        <ele>99.4</ele>
        <time>2020-08-25T10:55:12.456Z</time>
      </trkpt>
      <trkpt lat="49.22294" lon="4.01255">
        <ele>98.4</ele>
        <time>2020-08-25T10:55:13.248Z</time>
      </trkpt>
      <trkpt lat="49.22298" lon="4.01242">
        <ele>97.6</ele>
        <time>2020-08-25T10:55:14.058Z</time>
      </trkpt>
      <trkpt lat="49.22314" lon="4.01193">
        <ele>96.6</ele>
        <time>2020-08-25T10:55:18.205Z</time>
      </trkpt>
      <trkpt lat="49.2233" lon="4.01145">
        <ele>95</ele>
        <time>2020-08-25T10:55:21.590Z</time>
      </trkpt>
      <trkpt lat="49.22339" lon="4.01121">
        <ele>94.4</ele>
        <time>2020-08-25T10:55:23.518Z</time>
      </trkpt>
      <trkpt lat="49.22354" lon="4.01073">
        <ele>93.6</ele>
        <time>2020-08-25T10:55:27.800Z</time>
      </trkpt>
      <trkpt lat="49.22365" lon="4.01039">
        <ele>93</ele>
        <time>2020-08-25T10:55:30.830Z</time>
      </trkpt>
      <trkpt lat="49.22377" lon="4.01004">
        <ele>91.6</ele>
        <time>2020-08-25T10:55:33.061Z</time>
      </trkpt>
      <trkpt lat="49.22395" lon="4.00947">
        <ele>90.4</ele>
        <time>2020-08-25T10:55:37.858Z</time>
      </trkpt>
      <trkpt lat="49.22399" lon="4.00936">
        <ele>90.4</ele>
        <time>2020-08-25T10:55:39.356Z</time>
      </trkpt>
      <trkpt lat="49.22419" lon="4.00878">
        <ele>89.2</ele>
        <time>2020-08-25T10:55:44.224Z</time>
      </trkpt>
      <trkpt lat="49.22423" lon="4.00866">
        <ele>89</ele>
        <time>2020-08-25T10:55:45.246Z</time>
      </trkpt>
      <trkpt lat="49.22426" lon="4.00855">
        <ele>88.8</ele>
        <time>2020-08-25T10:55:46.236Z</time>
      </trkpt>
      <trkpt lat="49.22438" lon="4.00822">
        <ele>87.8</ele>
        <time>2020-08-25T10:55:48.700Z</time>
      </trkpt>
      <trkpt lat="49.22453" lon="4.00778">
        <ele>86.8</ele>
        <time>2020-08-25T10:55:52.328Z</time>
      </trkpt>
      <trkpt lat="49.2246" lon="4.00755">
        <ele>86.8</ele>
        <time>2020-08-25T10:55:55.306Z</time>
      </trkpt>
      <trkpt lat="49.22468" lon="4.00732">
        <ele>86.6</ele>
        <time>2020-08-25T10:55:57.626Z</time>
      </trkpt>
      <trkpt lat="49.22483" lon="4.00687">
        <ele>86.2</ele>
        <time>2020-08-25T10:56:02.268Z</time>
      </trkpt>
      <trkpt lat="49.22487" lon="4.00676">
        <ele>86</ele>
        <time>2020-08-25T10:56:03.249Z</time>
      </trkpt>
      <trkpt lat="49.22495" lon="4.00653">
        <ele>85.8</ele>
        <time>2020-08-25T10:56:05.527Z</time>
      </trkpt>
      <trkpt lat="49.22505" lon="4.0062">
        <ele>85.8</ele>
        <time>2020-08-25T10:56:09.857Z</time>
      </trkpt>
      <trkpt lat="49.22513" lon="4.00598">
        <ele>85.6</ele>
        <time>2020-08-25T10:56:12.088Z</time>
      </trkpt>
      <trkpt lat="49.22524" lon="4.00566">
        <ele>85.2</ele>
        <time>2020-08-25T10:56:15.184Z</time>
      </trkpt>
      <trkpt lat="49.22528" lon="4.00556">
        <ele>85</ele>
        <time>2020-08-25T10:56:16.100Z</time>
      </trkpt>
      <trkpt lat="49.22537" lon="4.00537">
        <ele>84.6</ele>
        <time>2020-08-25T10:56:17.903Z</time>
      </trkpt>
      <trkpt lat="49.22543" lon="4.00529">
        <ele>84.4</ele>
        <time>2020-08-25T10:56:18.809Z</time>
      </trkpt>
      <trkpt lat="49.22549" lon="4.00522">
        <ele>84.2</ele>
        <time>2020-08-25T10:56:19.704Z</time>
      </trkpt>
      <trkpt lat="49.22554" lon="4.00514">
        <ele>84.2</ele>
        <time>2020-08-25T10:56:21.043Z</time>
      </trkpt>
      <trkpt lat="49.22558" lon="4.00504">
        <ele>84.2</ele>
        <time>2020-08-25T10:56:22.353Z</time>
      </trkpt>
      <trkpt lat="49.22561" lon="4.00494">
        <ele>84</ele>
        <time>2020-08-25T10:56:23.203Z</time>
      </trkpt>
      <trkpt lat="49.22563" lon="4.00459">
        <ele>84.4</ele>
        <time>2020-08-25T10:56:28.028Z</time>
      </trkpt>
      <trkpt lat="49.22565" lon="4.00448">
        <ele>84.4</ele>
        <time>2020-08-25T10:56:29.406Z</time>
      </trkpt>
      <trkpt lat="49.22571" lon="4.00426">
        <ele>84.4</ele>
        <time>2020-08-25T10:56:32.178Z</time>
      </trkpt>
      <trkpt lat="49.22582" lon="4.00394">
        <ele>84</ele>
        <time>2020-08-25T10:56:35.252Z</time>
      </trkpt>
      <trkpt lat="49.22605" lon="4.00329">
        <ele>84</ele>
        <time>2020-08-25T10:56:43.862Z</time>
      </trkpt>
      <trkpt lat="49.22619" lon="4.00286">
        <ele>83.4</ele>
        <time>2020-08-25T10:56:47.896Z</time>
      </trkpt>
      <trkpt lat="49.22645" lon="4.00211">
        <ele>82.8</ele>
        <time>2020-08-25T10:56:55.733Z</time>
      </trkpt>
      <trkpt lat="49.22666" lon="4.00146">
        <ele>82.2</ele>
        <time>2020-08-25T10:57:02.221Z</time>
      </trkpt>
      <trkpt lat="49.2268" lon="4.00104">
        <ele>82</ele>
        <time>2020-08-25T10:57:07.188Z</time>
      </trkpt>
      <trkpt lat="49.22704" lon="4.0003">
        <ele>81.4</ele>
        <time>2020-08-25T10:57:14.778Z</time>
      </trkpt>
      <trkpt lat="49.22718" lon="3.99988">
        <ele>81.2</ele>
        <time>2020-08-25T10:57:19.872Z</time>
      </trkpt>
      <trkpt lat="49.22743" lon="3.99913">
        <ele>81</ele>
        <time>2020-08-25T10:57:29.171Z</time>
      </trkpt>
      <trkpt lat="49.2275" lon="3.99892">
        <ele>81.2</ele>
        <time>2020-08-25T10:57:32.323Z</time>
      </trkpt>
      <trkpt lat="49.22775" lon="3.99817">
        <ele>80.8</ele>
        <time>2020-08-25T10:57:40.429Z</time>
      </trkpt>
      <trkpt lat="49.2279" lon="3.99775">
        <ele>80.6</ele>
        <time>2020-08-25T10:57:45.485Z</time>
      </trkpt>
      <trkpt lat="49.22814" lon="3.99701">
        <ele>80</ele>
        <time>2020-08-25T10:57:53.115Z</time>
      </trkpt>
      <trkpt lat="49.22825" lon="3.9967">
        <ele>79.8</ele>
        <time>2020-08-25T10:57:56.393Z</time>
      </trkpt>
      <trkpt lat="49.22828" lon="3.9966">
        <ele>79.4</ele>
        <time>2020-08-25T10:57:57.069Z</time>
      </trkpt>
      <trkpt lat="49.22841" lon="3.99621">
        <ele>79</ele>
        <time>2020-08-25T10:58:00.938Z</time>
      </trkpt>
      <trkpt lat="49.22851" lon="3.99594">
        <ele>79</ele>
        <time>2020-08-25T10:58:04.537Z</time>
      </trkpt>
      <trkpt lat="49.22862" lon="3.99571">
        <ele>79</ele>
        <time>2020-08-25T10:58:07.922Z</time>
      </trkpt>
      <trkpt lat="49.22872" lon="3.9956">
        <ele>79</ele>
        <time>2020-08-25T10:58:10.037Z</time>
      </trkpt>
      <trkpt lat="49.22882" lon="3.9955">
        <ele>79.2</ele>
        <time>2020-08-25T10:58:12.549Z</time>
      </trkpt>
      <trkpt lat="49.22893" lon="3.9954">
        <ele>79.4</ele>
        <time>2020-08-25T10:58:15.210Z</time>
      </trkpt>
      <trkpt lat="49.22899" lon="3.99537">
        <ele>79.6</ele>
        <time>2020-08-25T10:58:16.817Z</time>
      </trkpt>
      <trkpt lat="49.22905" lon="3.99536">
        <ele>79.8</ele>
        <time>2020-08-25T10:58:18.427Z</time>
      </trkpt>
      <trkpt lat="49.22912" lon="3.99536">
        <ele>80</ele>
        <time>2020-08-25T10:58:20.045Z</time>
      </trkpt>
      <trkpt lat="49.22925" lon="3.99539">
        <ele>80.4</ele>
        <time>2020-08-25T10:58:23.306Z</time>
      </trkpt>
      <trkpt lat="49.22949" lon="3.99559">
        <ele>81</ele>
        <time>2020-08-25T10:58:29.469Z</time>
      </trkpt>
      <trkpt lat="49.22997" lon="3.99606">
        <ele>81.8</ele>
        <time>2020-08-25T10:58:41.139Z</time>
      </trkpt>
      <trkpt lat="49.23009" lon="3.99618">
        <ele>81.8</ele>
        <time>2020-08-25T10:58:43.710Z</time>
      </trkpt>
      <trkpt lat="49.23052" lon="3.9966">
        <ele>82</ele>
        <time>2020-08-25T10:58:53.184Z</time>
      </trkpt>
      <trkpt lat="49.23065" lon="3.99671">
        <ele>81.8</ele>
        <time>2020-08-25T10:58:55.154Z</time>
      </trkpt>
      <trkpt lat="49.23083" lon="3.99689">
        <ele>81.8</ele>
        <time>2020-08-25T10:58:59.054Z</time>
      </trkpt>
      <trkpt lat="49.23132" lon="3.99735">
        <ele>81.8</ele>
        <time>2020-08-25T10:59:09.352Z</time>
      </trkpt>
      <trkpt lat="49.23145" lon="3.99746">
        <ele>82</ele>
        <time>2020-08-25T10:59:12.289Z</time>
      </trkpt>
      <trkpt lat="49.23176" lon="3.99772">
        <ele>82</ele>
        <time>2020-08-25T10:59:18.616Z</time>
      </trkpt>
      <trkpt lat="49.2322" lon="3.99808">
        <ele>82.4</ele>
        <time>2020-08-25T10:59:28.218Z</time>
      </trkpt>
      <trkpt lat="49.23246" lon="3.99827">
        <ele>82.6</ele>
        <time>2020-08-25T10:59:33.705Z</time>
      </trkpt>
      <trkpt lat="49.23271" lon="3.99844">
        <ele>82.8</ele>
        <time>2020-08-25T10:59:39.041Z</time>
      </trkpt>
      <trkpt lat="49.23277" lon="3.99849">
        <ele>83</ele>
        <time>2020-08-25T10:59:40.720Z</time>
      </trkpt>
      <trkpt lat="49.23326" lon="3.99885">
        <ele>83.2</ele>
        <time>2020-08-25T10:59:50.687Z</time>
      </trkpt>
      <trkpt lat="49.23347" lon="3.9991">
        <ele>83.2</ele>
        <time>2020-08-25T10:59:55.485Z</time>
      </trkpt>
      <trkpt lat="49.23357" lon="3.99924">
        <ele>83.4</ele>
        <time>2020-08-25T10:59:58.286Z</time>
      </trkpt>
      <trkpt lat="49.23362" lon="3.99931">
        <ele>83.4</ele>
        <time>2020-08-25T10:59:59.543Z</time>
      </trkpt>
      <trkpt lat="49.23376" lon="3.99938">
        <ele>83.6</ele>
        <time>2020-08-25T11:00:02.423Z</time>
      </trkpt>
      <trkpt lat="49.23389" lon="3.99929">
        <ele>83.6</ele>
        <time>2020-08-25T11:00:05.077Z</time>
      </trkpt>
      <trkpt lat="49.23402" lon="3.99916">
        <ele>83.6</ele>
        <time>2020-08-25T11:00:07.782Z</time>
      </trkpt>
      <trkpt lat="49.23408" lon="3.99911">
        <ele>83.8</ele>
        <time>2020-08-25T11:00:09.530Z</time>
      </trkpt>
      <trkpt lat="49.23415" lon="3.99907">
        <ele>83.8</ele>
        <time>2020-08-25T11:00:10.832Z</time>
      </trkpt>
      <trkpt lat="49.23454" lon="3.9988">
        <ele>84.4</ele>
        <time>2020-08-25T11:00:19.591Z</time>
      </trkpt>
      <trkpt lat="49.2346" lon="3.99875">
        <ele>84.4</ele>
        <time>2020-08-25T11:00:20.796Z</time>
      </trkpt>
      <trkpt lat="49.23478" lon="3.99861">
        <ele>84.6</ele>
        <time>2020-08-25T11:00:24.828Z</time>
      </trkpt>
      <trkpt lat="49.23484" lon="3.99856">
        <ele>84.6</ele>
        <time>2020-08-25T11:00:26.049Z</time>
      </trkpt>
      <trkpt lat="49.23502" lon="3.99841">
        <ele>84.8</ele>
        <time>2020-08-25T11:00:30.055Z</time>
      </trkpt>
      <trkpt lat="49.23556" lon="3.99799">
        <ele>85</ele>
        <time>2020-08-25T11:00:41.150Z</time>
      </trkpt>
      <trkpt lat="49.23562" lon="3.99795">
        <ele>85.2</ele>
        <time>2020-08-25T11:00:42.814Z</time>
      </trkpt>
      <trkpt lat="49.23574" lon="3.99785">
        <ele>85</ele>
        <time>2020-08-25T11:00:44.652Z</time>
      </trkpt>
      <trkpt lat="49.2358" lon="3.99781">
        <ele>85.2</ele>
        <time>2020-08-25T11:00:46.297Z</time>
      </trkpt>
      <trkpt lat="49.23616" lon="3.99754">
        <ele>85.6</ele>
        <time>2020-08-25T11:00:54.205Z</time>
      </trkpt>
      <trkpt lat="49.23623" lon="3.99752">
        <ele>85.6</ele>
        <time>2020-08-25T11:00:55.375Z</time>
      </trkpt>
      <trkpt lat="49.23629" lon="3.9975">
        <ele>85.6</ele>
        <time>2020-08-25T11:00:56.529Z</time>
      </trkpt>
      <trkpt lat="49.23635" lon="3.99748">
        <ele>85.6</ele>
        <time>2020-08-25T11:00:57.642Z</time>
      </trkpt>
      <trkpt lat="49.23645" lon="3.99741">
        <ele>85.8</ele>
        <time>2020-08-25T11:01:00.061Z</time>
      </trkpt>
      <trkpt lat="49.23658" lon="3.99722">
        <ele>86</ele>
        <time>2020-08-25T11:01:03.629Z</time>
      </trkpt>
      <trkpt lat="49.23664" lon="3.99716">
        <ele>86.2</ele>
        <time>2020-08-25T11:01:05.281Z</time>
      </trkpt>
      <trkpt lat="49.2367" lon="3.99712">
        <ele>86</ele>
        <time>2020-08-25T11:01:06.039Z</time>
      </trkpt>
      <trkpt lat="49.23676" lon="3.99708">
        <ele>86.2</ele>
        <time>2020-08-25T11:01:07.699Z</time>
      </trkpt>
      <trkpt lat="49.23695" lon="3.99695">
        <ele>86</ele>
        <time>2020-08-25T11:01:10.646Z</time>
      </trkpt>
      <trkpt lat="49.23746" lon="3.99668">
        <ele>86.2</ele>
        <time>2020-08-25T11:01:20.644Z</time>
      </trkpt>
      <trkpt lat="49.23752" lon="3.99665">
        <ele>86.2</ele>
        <time>2020-08-25T11:01:21.857Z</time>
      </trkpt>
      <trkpt lat="49.23766" lon="3.9966">
        <ele>86</ele>
        <time>2020-08-25T11:01:23.690Z</time>
      </trkpt>
      <trkpt lat="49.23786" lon="3.99655">
        <ele>85.8</ele>
        <time>2020-08-25T11:01:26.657Z</time>
      </trkpt>
      <trkpt lat="49.23793" lon="3.99654">
        <ele>86</ele>
        <time>2020-08-25T11:01:28.347Z</time>
      </trkpt>
      <trkpt lat="49.23835" lon="3.99649">
        <ele>85.6</ele>
        <time>2020-08-25T11:01:34.379Z</time>
      </trkpt>
      <trkpt lat="49.23842" lon="3.99648">
        <ele>85.6</ele>
        <time>2020-08-25T11:01:35.630Z</time>
      </trkpt>
      <trkpt lat="49.2387" lon="3.99648">
        <ele>85.4</ele>
        <time>2020-08-25T11:01:40.124Z</time>
      </trkpt>
      <trkpt lat="49.23877" lon="3.99649">
        <ele>85.6</ele>
        <time>2020-08-25T11:01:41.821Z</time>
      </trkpt>
      <trkpt lat="49.23905" lon="3.99648">
        <ele>85.6</ele>
        <time>2020-08-25T11:01:46.919Z</time>
      </trkpt>
      <trkpt lat="49.23912" lon="3.99648">
        <ele>85.4</ele>
        <time>2020-08-25T11:01:47.690Z</time>
      </trkpt>
      <trkpt lat="49.23919" lon="3.9965">
        <ele>85.4</ele>
        <time>2020-08-25T11:01:48.957Z</time>
      </trkpt>
      <trkpt lat="49.23926" lon="3.99651">
        <ele>85</ele>
        <time>2020-08-25T11:01:49.596Z</time>
      </trkpt>
      <trkpt lat="49.2394" lon="3.99655">
        <ele>84.8</ele>
        <time>2020-08-25T11:01:51.503Z</time>
      </trkpt>
      <trkpt lat="49.23954" lon="3.99663">
        <ele>84.4</ele>
        <time>2020-08-25T11:01:53.165Z</time>
      </trkpt>
      <trkpt lat="49.23961" lon="3.99668">
        <ele>84.4</ele>
        <time>2020-08-25T11:01:54.501Z</time>
      </trkpt>
      <trkpt lat="49.24002" lon="3.99693">
        <ele>83.4</ele>
        <time>2020-08-25T11:01:59.918Z</time>
      </trkpt>
      <trkpt lat="49.2405" lon="3.99729">
        <ele>83</ele>
        <time>2020-08-25T11:02:07.830Z</time>
      </trkpt>
      <trkpt lat="49.24057" lon="3.99735">
        <ele>82.8</ele>
        <time>2020-08-25T11:02:08.748Z</time>
      </trkpt>
      <trkpt lat="49.24071" lon="3.99747">
        <ele>82.6</ele>
        <time>2020-08-25T11:02:10.968Z</time>
      </trkpt>
      <trkpt lat="49.24099" lon="3.99773">
        <ele>82.4</ele>
        <time>2020-08-25T11:02:16.326Z</time>
      </trkpt>
      <trkpt lat="49.24106" lon="3.99779">
        <ele>82.4</ele>
        <time>2020-08-25T11:02:17.826Z</time>
      </trkpt>
      <trkpt lat="49.24143" lon="3.99813">
        <ele>81.8</ele>
        <time>2020-08-25T11:02:23.598Z</time>
      </trkpt>
      <trkpt lat="49.24158" lon="3.99826">
        <ele>81.6</ele>
        <time>2020-08-25T11:02:26.055Z</time>
      </trkpt>
      <trkpt lat="49.24166" lon="3.99833">
        <ele>81.4</ele>
        <time>2020-08-25T11:02:27.131Z</time>
      </trkpt>
      <trkpt lat="49.24173" lon="3.99839">
        <ele>81.2</ele>
        <time>2020-08-25T11:02:28.168Z</time>
      </trkpt>
      <trkpt lat="49.2418" lon="3.99846">
        <ele>81</ele>
        <time>2020-08-25T11:02:29.179Z</time>
      </trkpt>
      <trkpt lat="49.24187" lon="3.99853">
        <ele>80.8</ele>
        <time>2020-08-25T11:02:30.189Z</time>
      </trkpt>
      <trkpt lat="49.24209" lon="3.99873">
        <ele>80.4</ele>
        <time>2020-08-25T11:02:33.487Z</time>
      </trkpt>
      <trkpt lat="49.24236" lon="3.99901">
        <ele>80</ele>
        <time>2020-08-25T11:02:38.067Z</time>
      </trkpt>
      <trkpt lat="49.24268" lon="3.99942">
        <ele>79.8</ele>
        <time>2020-08-25T11:02:44.951Z</time>
      </trkpt>
      <trkpt lat="49.24279" lon="3.99958">
        <ele>79.6</ele>
        <time>2020-08-25T11:02:47.106Z</time>
      </trkpt>
      <trkpt lat="49.2429" lon="3.99975">
        <ele>79.6</ele>
        <time>2020-08-25T11:02:49.874Z</time>
      </trkpt>
      <trkpt lat="49.24306" lon="4.00004">
        <ele>79.6</ele>
        <time>2020-08-25T11:02:54.240Z</time>
      </trkpt>
      <trkpt lat="49.24339" lon="4.00072">
        <ele>79.8</ele>
        <time>2020-08-25T11:03:04.570Z</time>
      </trkpt>
      <trkpt lat="49.24352" lon="4.00103">
        <ele>79.8</ele>
        <time>2020-08-25T11:03:08.774Z</time>
      </trkpt>
      <trkpt lat="49.24363" lon="4.00134">
        <ele>80</ele>
        <time>2020-08-25T11:03:13.302Z</time>
      </trkpt>
      <trkpt lat="49.24373" lon="4.00164">
        <ele>80.2</ele>
        <time>2020-08-25T11:03:17.540Z</time>
      </trkpt>
      <trkpt lat="49.24382" lon="4.0019">
        <ele>80.6</ele>
        <time>2020-08-25T11:03:21.792Z</time>
      </trkpt>
      <trkpt lat="49.24384" lon="4.00198">
        <ele>80.6</ele>
        <time>2020-08-25T11:03:22.835Z</time>
      </trkpt>
      <trkpt lat="49.24397" lon="4.00235">
        <ele>81.2</ele>
        <time>2020-08-25T11:03:28.979Z</time>
      </trkpt>
      <trkpt lat="49.24402" lon="4.0025">
        <ele>82.6</ele>
        <time>2020-08-25T11:03:35.890Z</time>
      </trkpt>
      <trkpt lat="49.24412" lon="4.00278">
        <ele>83.8</ele>
        <time>2020-08-25T11:03:42.654Z</time>
      </trkpt>
      <trkpt lat="49.24414" lon="4.00285">
        <ele>84.2</ele>
        <time>2020-08-25T11:03:44.633Z</time>
      </trkpt>
      <trkpt lat="49.24428" lon="4.00329">
        <ele>86</ele>
        <time>2020-08-25T11:03:54.966Z</time>
      </trkpt>
      <trkpt lat="49.24443" lon="4.00372">
        <ele>87.2</ele>
        <time>2020-08-25T11:04:03.733Z</time>
      </trkpt>
      <trkpt lat="49.24458" lon="4.00417">
        <ele>88.2</ele>
        <time>2020-08-25T11:04:11.905Z</time>
      </trkpt>
      <trkpt lat="49.24472" lon="4.00454">
        <ele>89</ele>
        <time>2020-08-25T11:04:18.690Z</time>
      </trkpt>
      <trkpt lat="49.24481" lon="4.00477">
        <ele>89.2</ele>
        <time>2020-08-25T11:04:22.073Z</time>
      </trkpt>
      <trkpt lat="49.24485" lon="4.00482">
        <ele>89.4</ele>
        <time>2020-08-25T11:04:23.571Z</time>
      </trkpt>
      <trkpt lat="49.24491" lon="4.00485">
        <ele>89.4</ele>
        <time>2020-08-25T11:04:24.583Z</time>
      </trkpt>
      <trkpt lat="49.24527" lon="4.00455">
        <ele>91.3</ele>
      </trkpt>
      <trkpt lat="49.24547" lon="4.00445">
        <ele>91</ele>
      </trkpt>
      <trkpt lat="49.24554" lon="4.00469">
        <ele>90</ele>
        <time>2020-08-25T11:04:38.682Z</time>
      </trkpt>
      <trkpt lat="49.24557" lon="4.00477">
        <ele>90</ele>
        <time>2020-08-25T11:04:39.702Z</time>
      </trkpt>
      <trkpt lat="49.24577" lon="4.00539">
        <ele>91.4</ele>
        <time>2020-08-25T11:04:50.983Z</time>
      </trkpt>
      <trkpt lat="49.24595" lon="4.00584">
        <ele>92.2</ele>
        <time>2020-08-25T11:04:58.872Z</time>
      </trkpt>
      <trkpt lat="49.24619" lon="4.00605">
        <ele>93</ele>
      </trkpt>
      <trkpt lat="49.24645" lon="4.00603">
        <ele>92.8</ele>
      </trkpt>
      <trkpt lat="49.24667" lon="4.00585">
        <ele>92.4</ele>
        <time>2020-08-25T11:05:13.544Z</time>
      </trkpt>
      <trkpt lat="49.24672" lon="4.00577">
        <ele>92</ele>
        <time>2020-08-25T11:05:14.173Z</time>
      </trkpt>
      <trkpt lat="49.24675" lon="4.00567">
        <ele>92</ele>
        <time>2020-08-25T11:05:15.477Z</time>
      </trkpt>
      <trkpt lat="49.24679" lon="4.00546">
        <ele>91.6</ele>
        <time>2020-08-25T11:05:17.121Z</time>
      </trkpt>
      <trkpt lat="49.24681" lon="4.00525">
        <ele>91.2</ele>
        <time>2020-08-25T11:05:18.666Z</time>
      </trkpt>
      <trkpt lat="49.24685" lon="4.00517">
        <ele>91</ele>
        <time>2020-08-25T11:05:19.345Z</time>
      </trkpt>
      <trkpt lat="49.2469" lon="4.00513">
        <ele>90.8</ele>
        <time>2020-08-25T11:05:19.974Z</time>
      </trkpt>
      <trkpt lat="49.24701" lon="4.00508">
        <ele>90.8</ele>
        <time>2020-08-25T11:05:22.056Z</time>
      </trkpt>
      <trkpt lat="49.2473" lon="4.005">
        <ele>90.2</ele>
        <time>2020-08-25T11:05:25.771Z</time>
      </trkpt>
      <trkpt lat="49.24735" lon="4.00497">
        <ele>90.2</ele>
        <time>2020-08-25T11:05:26.787Z</time>
      </trkpt>
      <trkpt lat="49.2475" lon="4.00495">
        <ele>90</ele>
        <time>2020-08-25T11:05:28.851Z</time>
      </trkpt>
      <trkpt lat="49.24754" lon="4.00498">
        <ele>90</ele>
        <time>2020-08-25T11:05:29.612Z</time>
      </trkpt>
      <trkpt lat="49.24756" lon="4.00505">
        <ele>90.2</ele>
        <time>2020-08-25T11:05:30.991Z</time>
      </trkpt>
      <trkpt lat="49.24758" lon="4.0052">
        <ele>90.6</ele>
        <time>2020-08-25T11:05:33.811Z</time>
      </trkpt>
      <trkpt lat="49.24762" lon="4.00546">
        <ele>91</ele>
        <time>2020-08-25T11:05:37.739Z</time>
      </trkpt>
      <trkpt lat="49.24766" lon="4.00583">
        <ele>91.6</ele>
        <time>2020-08-25T11:05:43.415Z</time>
      </trkpt>
      <trkpt lat="49.24781" lon="4.00704">
        <ele>92.2</ele>
        <time>2020-08-25T11:05:58.806Z</time>
      </trkpt>
      <trkpt lat="49.24861" lon="4.0126">
        <ele>80</ele>
        <extensions>
          <visugpx:TrkExtension xmlns:visugpx="https://www.visugpx.com/editgpx/">
            <visugpx:node>1</visugpx:node>
            </visugpx:TrkExtension>
        </extensions>
      </trkpt>
      <trkpt lat="49.24913" lon="4.0162">
        <ele>78</ele>
        <extensions>
          <visugpx:TrkExtension xmlns:visugpx="https://www.visugpx.com/editgpx/">
            <visugpx:node>2</visugpx:node>
            </visugpx:TrkExtension>
        </extensions>
      </trkpt>
      <trkpt lat="49.24931" lon="4.01712">
        <ele>78.5</ele>
        <extensions>
          <visugpx:TrkExtension xmlns:visugpx="https://www.visugpx.com/editgpx/">
            <visugpx:node>3</visugpx:node>
            </visugpx:TrkExtension>
        </extensions>
      </trkpt>
      <trkpt lat="49.25024" lon="4.02001">
        <ele>78</ele>
        <extensions>
          <visugpx:TrkExtension xmlns:visugpx="https://www.visugpx.com/editgpx/">
            <visugpx:node>4</visugpx:node>
            </visugpx:TrkExtension>
        </extensions>
      </trkpt>
      <trkpt lat="49.25141" lon="4.02315">
        <ele>80.5</ele>
        <extensions>
          <visugpx:TrkExtension xmlns:visugpx="https://www.visugpx.com/editgpx/">
            <visugpx:node>5</visugpx:node>
            </visugpx:TrkExtension>
        </extensions>
      </trkpt>
      <trkpt lat="49.25475" lon="4.03208">
        <ele>84</ele>
        <extensions>
          <visugpx:TrkExtension xmlns:visugpx="https://www.visugpx.com/editgpx/">
            <visugpx:node>6</visugpx:node>
            </visugpx:TrkExtension>
        </extensions>
      </trkpt>
      <trkpt lat="49.25548" lon="4.0315">
        <ele>84.7</ele>
        <extensions>
          <visugpx:TrkExtension xmlns:visugpx="https://www.visugpx.com/editgpx/">
            <visugpx:node>7</visugpx:node>
            </visugpx:TrkExtension>
        </extensions>
      </trkpt>
      <trkpt lat="49.25636" lon="4.03411">
        <ele>86</ele>
        <extensions>
          <visugpx:TrkExtension xmlns:visugpx="https://www.visugpx.com/editgpx/">
            <visugpx:node>8</visugpx:node>
            </visugpx:TrkExtension>
        </extensions>
      </trkpt>
    </trkseg>
  </trk>
</gpx>